<?xml version="1.0" encoding="UTF-8" standalone="no" ?>
<gpx xmlns="http://www.topografix.com/GPX/1/1" xmlns:xsi="http://www.w3.org/2001/XMLSchema-instance" xsi:schemaLocation="http://www.topografix.com/GPX/1/1 http://www.topografix.com/GPX/1/1/gpx.xsd" version="1.1" creator="VisuGPX - https://www.visugpx.com">
  <metadata>
    <name>Pornichet 06/01/2022</name>
    <desc><![CDATA[Sortie jeudi 06 janvier 2022]]></desc>
  </metadata>
  <trk>
    <name><![CDATA[Pornichet Cyclisme]]></name>
    <trkseg>
      <trkpt lat="47.26401" lon="-2.3166">
        <ele>8.2</ele>
        <time>2022-01-06T08:15:29.000Z</time>
      </trkpt>
      <trkpt lat="47.26395" lon="-2.31667">
        <ele>8</ele>
        <time>2022-01-06T08:15:32.000Z</time>
      </trkpt>
      <trkpt lat="47.26392" lon="-2.31669">
        <ele>2.2000000476837</ele>
        <time>2022-01-06T08:15:33.000Z</time>
      </trkpt>
      <trkpt lat="47.26388" lon="-2.31672">
        <ele>4.1999998092651</ele>
        <time>2022-01-06T08:15:34.000Z</time>
      </trkpt>
      <trkpt lat="47.26385" lon="-2.31675">
        <ele>6.1999998092651</ele>
        <time>2022-01-06T08:15:35.000Z</time>
      </trkpt>
      <trkpt lat="47.26373" lon="-2.31683">
        <ele>6.1999998092651</ele>
        <time>2022-01-06T08:15:38.000Z</time>
      </trkpt>
      <trkpt lat="47.26363" lon="-2.31687">
        <ele>6.1999998092651</ele>
        <time>2022-01-06T08:15:40.000Z</time>
      </trkpt>
      <trkpt lat="47.26337" lon="-2.317">
        <ele>4.5999999046326</ele>
        <time>2022-01-06T08:15:46.000Z</time>
      </trkpt>
      <trkpt lat="47.26333" lon="-2.31701">
        <ele>3</ele>
        <time>2022-01-06T08:15:47.000Z</time>
      </trkpt>
      <trkpt lat="47.26328" lon="-2.31704">
        <ele>1.3999999761581</ele>
        <time>2022-01-06T08:15:48.000Z</time>
      </trkpt>
      <trkpt lat="47.26323" lon="-2.31706">
        <ele>-0.40000000596046</ele>
        <time>2022-01-06T08:15:49.000Z</time>
      </trkpt>
      <trkpt lat="47.26318" lon="-2.31708">
        <ele>-2</ele>
        <time>2022-01-06T08:15:50.000Z</time>
      </trkpt>
      <trkpt lat="47.2631" lon="-2.31711">
        <ele>-2</ele>
        <time>2022-01-06T08:15:52.000Z</time>
      </trkpt>
      <trkpt lat="47.26303" lon="-2.31718">
        <ele>-2</ele>
        <time>2022-01-06T08:15:54.000Z</time>
      </trkpt>
      <trkpt lat="47.26301" lon="-2.31726">
        <ele>-2</ele>
        <time>2022-01-06T08:15:56.000Z</time>
      </trkpt>
      <trkpt lat="47.26302" lon="-2.31738">
        <ele>-2</ele>
        <time>2022-01-06T08:16:00.000Z</time>
      </trkpt>
      <trkpt lat="47.26302" lon="-2.31741">
        <ele>-2.4000000953674</ele>
        <time>2022-01-06T08:16:01.000Z</time>
      </trkpt>
      <trkpt lat="47.26302" lon="-2.31746">
        <ele>-3</ele>
        <time>2022-01-06T08:16:02.000Z</time>
      </trkpt>
      <trkpt lat="47.26303" lon="-2.3175">
        <ele>-3.4000000953674</ele>
        <time>2022-01-06T08:16:03.000Z</time>
      </trkpt>
      <trkpt lat="47.26303" lon="-2.31755">
        <ele>-3.7999999523163</ele>
        <time>2022-01-06T08:16:04.000Z</time>
      </trkpt>
      <trkpt lat="47.26303" lon="-2.3176">
        <ele>-4.1999998092651</ele>
        <time>2022-01-06T08:16:05.000Z</time>
      </trkpt>
      <trkpt lat="47.26303" lon="-2.31764">
        <ele>-4.1999998092651</ele>
        <time>2022-01-06T08:16:06.000Z</time>
      </trkpt>
      <trkpt lat="47.26303" lon="-2.31768">
        <ele>-4.1999998092651</ele>
        <time>2022-01-06T08:16:07.000Z</time>
      </trkpt>
      <trkpt lat="47.26301" lon="-2.31787">
        <ele>-4.1999998092651</ele>
        <time>2022-01-06T08:16:11.000Z</time>
      </trkpt>
      <trkpt lat="47.26295" lon="-2.31822">
        <ele>-4.1999998092651</ele>
        <time>2022-01-06T08:16:18.000Z</time>
      </trkpt>
      <trkpt lat="47.2629" lon="-2.31848">
        <ele>-4.1999998092651</ele>
        <time>2022-01-06T08:16:24.000Z</time>
      </trkpt>
      <trkpt lat="47.26276" lon="-2.31866">
        <ele>-4.1999998092651</ele>
        <time>2022-01-06T08:16:30.000Z</time>
      </trkpt>
      <trkpt lat="47.26262" lon="-2.31893">
        <ele>-4.1999998092651</ele>
        <time>2022-01-06T08:16:36.000Z</time>
      </trkpt>
      <trkpt lat="47.26257" lon="-2.31908">
        <ele>-4.1999998092651</ele>
        <time>2022-01-06T08:16:39.000Z</time>
      </trkpt>
      <trkpt lat="47.26249" lon="-2.31926">
        <ele>-4.1999998092651</ele>
        <time>2022-01-06T08:16:43.000Z</time>
      </trkpt>
      <trkpt lat="47.26238" lon="-2.31955">
        <ele>-4.1999998092651</ele>
        <time>2022-01-06T08:16:50.000Z</time>
      </trkpt>
      <trkpt lat="47.26235" lon="-2.31961">
        <ele>-4.1999998092651</ele>
        <time>2022-01-06T08:16:54.000Z</time>
      </trkpt>
      <trkpt lat="47.26227" lon="-2.31967">
        <ele>-4.1999998092651</ele>
        <time>2022-01-06T08:16:58.000Z</time>
      </trkpt>
      <trkpt lat="47.26216" lon="-2.31985">
        <ele>-4.1999998092651</ele>
        <time>2022-01-06T08:17:04.000Z</time>
      </trkpt>
      <trkpt lat="47.26206" lon="-2.31995">
        <ele>-4.1999998092651</ele>
        <time>2022-01-06T08:17:09.000Z</time>
      </trkpt>
      <trkpt lat="47.26198" lon="-2.32001">
        <ele>-4.1999998092651</ele>
        <time>2022-01-06T08:17:13.000Z</time>
      </trkpt>
      <trkpt lat="47.26194" lon="-2.32002">
        <ele>-4.1999998092651</ele>
        <time>2022-01-06T08:17:15.000Z</time>
      </trkpt>
      <trkpt lat="47.26187" lon="-2.32003">
        <ele>-4.1999998092651</ele>
        <time>2022-01-06T08:17:19.000Z</time>
      </trkpt>
      <trkpt lat="47.26176" lon="-2.32012">
        <ele>-4.1999998092651</ele>
        <time>2022-01-06T08:17:24.000Z</time>
      </trkpt>
      <trkpt lat="47.26161" lon="-2.32029">
        <ele>-4.1999998092651</ele>
        <time>2022-01-06T08:17:29.000Z</time>
      </trkpt>
      <trkpt lat="47.26154" lon="-2.32057">
        <ele>-4.1999998092651</ele>
        <time>2022-01-06T08:17:34.000Z</time>
      </trkpt>
      <trkpt lat="47.26144" lon="-2.321">
        <ele>-4.1999998092651</ele>
        <time>2022-01-06T08:17:41.000Z</time>
      </trkpt>
      <trkpt lat="47.26139" lon="-2.32118">
        <ele>-4.1999998092651</ele>
        <time>2022-01-06T08:17:44.000Z</time>
      </trkpt>
      <trkpt lat="47.2613" lon="-2.32141">
        <ele>-4.1999998092651</ele>
        <time>2022-01-06T08:17:48.000Z</time>
      </trkpt>
      <trkpt lat="47.26127" lon="-2.32147">
        <ele>-4.1999998092651</ele>
        <time>2022-01-06T08:17:49.000Z</time>
      </trkpt>
      <trkpt lat="47.26125" lon="-2.32153">
        <ele>-4.1999998092651</ele>
        <time>2022-01-06T08:17:50.000Z</time>
      </trkpt>
      <trkpt lat="47.26119" lon="-2.32169">
        <ele>-4.1999998092651</ele>
        <time>2022-01-06T08:17:53.000Z</time>
      </trkpt>
      <trkpt lat="47.26108" lon="-2.32194">
        <ele>-4.1999998092651</ele>
        <time>2022-01-06T08:17:58.000Z</time>
      </trkpt>
      <trkpt lat="47.26103" lon="-2.32203">
        <ele>-4.1999998092651</ele>
        <time>2022-01-06T08:18:00.000Z</time>
      </trkpt>
      <trkpt lat="47.26092" lon="-2.32222">
        <ele>-4.1999998092651</ele>
        <time>2022-01-06T08:18:04.000Z</time>
      </trkpt>
      <trkpt lat="47.26068" lon="-2.32252">
        <ele>-4.1999998092651</ele>
        <time>2022-01-06T08:18:11.000Z</time>
      </trkpt>
      <trkpt lat="47.26045" lon="-2.32277">
        <ele>-4.1999998092651</ele>
        <time>2022-01-06T08:18:17.000Z</time>
      </trkpt>
      <trkpt lat="47.26013" lon="-2.32315">
        <ele>-4.1999998092651</ele>
        <time>2022-01-06T08:18:26.000Z</time>
      </trkpt>
      <trkpt lat="47.25996" lon="-2.32337">
        <ele>-4.1999998092651</ele>
        <time>2022-01-06T08:18:31.000Z</time>
      </trkpt>
      <trkpt lat="47.25985" lon="-2.3235">
        <ele>-4.1999998092651</ele>
        <time>2022-01-06T08:18:34.000Z</time>
      </trkpt>
      <trkpt lat="47.25958" lon="-2.32384">
        <ele>-4.1999998092651</ele>
        <time>2022-01-06T08:18:42.000Z</time>
      </trkpt>
      <trkpt lat="47.25928" lon="-2.32424">
        <ele>-4.1999998092651</ele>
        <time>2022-01-06T08:18:51.000Z</time>
      </trkpt>
      <trkpt lat="47.25918" lon="-2.32435">
        <ele>-4.1999998092651</ele>
        <time>2022-01-06T08:18:54.000Z</time>
      </trkpt>
      <trkpt lat="47.25909" lon="-2.32447">
        <ele>-4.1999998092651</ele>
        <time>2022-01-06T08:18:57.000Z</time>
      </trkpt>
      <trkpt lat="47.259" lon="-2.32462">
        <ele>-4.1999998092651</ele>
        <time>2022-01-06T08:19:01.000Z</time>
      </trkpt>
      <trkpt lat="47.25901" lon="-2.32466">
        <ele>-4.1999998092651</ele>
        <time>2022-01-06T08:19:02.000Z</time>
      </trkpt>
      <trkpt lat="47.25904" lon="-2.32471">
        <ele>-4.1999998092651</ele>
        <time>2022-01-06T08:19:04.000Z</time>
      </trkpt>
      <trkpt lat="47.25911" lon="-2.32476">
        <ele>-4.1999998092651</ele>
        <time>2022-01-06T08:19:06.000Z</time>
      </trkpt>
      <trkpt lat="47.25915" lon="-2.32479">
        <ele>-4.1999998092651</ele>
        <time>2022-01-06T08:19:07.000Z</time>
      </trkpt>
      <trkpt lat="47.25921" lon="-2.32487">
        <ele>-4.1999998092651</ele>
        <time>2022-01-06T08:19:09.000Z</time>
      </trkpt>
      <trkpt lat="47.25924" lon="-2.32493">
        <ele>-4.1999998092651</ele>
        <time>2022-01-06T08:19:10.000Z</time>
      </trkpt>
      <trkpt lat="47.25931" lon="-2.32513">
        <ele>-4.1999998092651</ele>
        <time>2022-01-06T08:19:13.000Z</time>
      </trkpt>
      <trkpt lat="47.25949" lon="-2.32568">
        <ele>-4.1999998092651</ele>
        <time>2022-01-06T08:19:22.000Z</time>
      </trkpt>
      <trkpt lat="47.25961" lon="-2.32627">
        <ele>-4.1999998092651</ele>
        <time>2022-01-06T08:19:31.000Z</time>
      </trkpt>
      <trkpt lat="47.25962" lon="-2.32634">
        <ele>-4.1999998092651</ele>
        <time>2022-01-06T08:19:32.000Z</time>
      </trkpt>
      <trkpt lat="47.25964" lon="-2.32657">
        <ele>-4.1999998092651</ele>
        <time>2022-01-06T08:19:36.000Z</time>
      </trkpt>
      <trkpt lat="47.25967" lon="-2.3266">
        <ele>-4.1999998092651</ele>
        <time>2022-01-06T08:19:37.000Z</time>
      </trkpt>
      <trkpt lat="47.25979" lon="-2.32658">
        <ele>-4.1999998092651</ele>
        <time>2022-01-06T08:19:40.000Z</time>
      </trkpt>
      <trkpt lat="47.25988" lon="-2.32659">
        <ele>-4.1999998092651</ele>
        <time>2022-01-06T08:19:42.000Z</time>
      </trkpt>
      <trkpt lat="47.26006" lon="-2.32657">
        <ele>-4.1999998092651</ele>
        <time>2022-01-06T08:19:46.000Z</time>
      </trkpt>
      <trkpt lat="47.2602" lon="-2.32654">
        <ele>-4.1999998092651</ele>
        <time>2022-01-06T08:19:49.000Z</time>
      </trkpt>
      <trkpt lat="47.26038" lon="-2.32651">
        <ele>-4.1999998092651</ele>
        <time>2022-01-06T08:19:53.000Z</time>
      </trkpt>
      <trkpt lat="47.26067" lon="-2.32644">
        <ele>-3.7999999523163</ele>
        <time>2022-01-06T08:20:00.000Z</time>
      </trkpt>
      <trkpt lat="47.26072" lon="-2.32643">
        <ele>-3.4000000953674</ele>
        <time>2022-01-06T08:20:01.000Z</time>
      </trkpt>
      <trkpt lat="47.26076" lon="-2.32642">
        <ele>-3</ele>
        <time>2022-01-06T08:20:02.000Z</time>
      </trkpt>
      <trkpt lat="47.2608" lon="-2.32641">
        <ele>-2.5999999046326</ele>
        <time>2022-01-06T08:20:03.000Z</time>
      </trkpt>
      <trkpt lat="47.26084" lon="-2.32641">
        <ele>-2.2000000476837</ele>
        <time>2022-01-06T08:20:04.000Z</time>
      </trkpt>
      <trkpt lat="47.26101" lon="-2.32639">
        <ele>-2.2000000476837</ele>
        <time>2022-01-06T08:20:08.000Z</time>
      </trkpt>
      <trkpt lat="47.26132" lon="-2.32638">
        <ele>-2.2000000476837</ele>
        <time>2022-01-06T08:20:15.000Z</time>
      </trkpt>
      <trkpt lat="47.26163" lon="-2.32649">
        <ele>-2.2000000476837</ele>
        <time>2022-01-06T08:20:22.000Z</time>
      </trkpt>
      <trkpt lat="47.26192" lon="-2.32669">
        <ele>-2.2000000476837</ele>
        <time>2022-01-06T08:20:29.000Z</time>
      </trkpt>
      <trkpt lat="47.26217" lon="-2.32699">
        <ele>-2.2000000476837</ele>
        <time>2022-01-06T08:20:36.000Z</time>
      </trkpt>
      <trkpt lat="47.26244" lon="-2.32737">
        <ele>-2.2000000476837</ele>
        <time>2022-01-06T08:20:43.000Z</time>
      </trkpt>
      <trkpt lat="47.26269" lon="-2.32781">
        <ele>-2.2000000476837</ele>
        <time>2022-01-06T08:20:50.000Z</time>
      </trkpt>
      <trkpt lat="47.26279" lon="-2.32802">
        <ele>-2.2000000476837</ele>
        <time>2022-01-06T08:20:53.000Z</time>
      </trkpt>
      <trkpt lat="47.26285" lon="-2.32824">
        <ele>-2.2000000476837</ele>
        <time>2022-01-06T08:20:56.000Z</time>
      </trkpt>
      <trkpt lat="47.26287" lon="-2.3284">
        <ele>-2.2000000476837</ele>
        <time>2022-01-06T08:20:58.000Z</time>
      </trkpt>
      <trkpt lat="47.26291" lon="-2.32854">
        <ele>-2.2000000476837</ele>
        <time>2022-01-06T08:21:00.000Z</time>
      </trkpt>
      <trkpt lat="47.26304" lon="-2.32866">
        <ele>-2.2000000476837</ele>
        <time>2022-01-06T08:21:03.000Z</time>
      </trkpt>
      <trkpt lat="47.26321" lon="-2.32883">
        <ele>-2.2000000476837</ele>
        <time>2022-01-06T08:21:07.000Z</time>
      </trkpt>
      <trkpt lat="47.26327" lon="-2.32905">
        <ele>-2.2000000476837</ele>
        <time>2022-01-06T08:21:10.000Z</time>
      </trkpt>
      <trkpt lat="47.26329" lon="-2.32912">
        <ele>-2.2000000476837</ele>
        <time>2022-01-06T08:21:11.000Z</time>
      </trkpt>
      <trkpt lat="47.26352" lon="-2.32975">
        <ele>-2.2000000476837</ele>
        <time>2022-01-06T08:21:20.000Z</time>
      </trkpt>
      <trkpt lat="47.26365" lon="-2.32997">
        <ele>-2.2000000476837</ele>
        <time>2022-01-06T08:21:24.000Z</time>
      </trkpt>
      <trkpt lat="47.26368" lon="-2.33025">
        <ele>-2.2000000476837</ele>
        <time>2022-01-06T08:21:28.000Z</time>
      </trkpt>
      <trkpt lat="47.26371" lon="-2.33093">
        <ele>-2.2000000476837</ele>
        <time>2022-01-06T08:21:37.000Z</time>
      </trkpt>
      <trkpt lat="47.26375" lon="-2.3313">
        <ele>-2.2000000476837</ele>
        <time>2022-01-06T08:21:43.000Z</time>
      </trkpt>
      <trkpt lat="47.26375" lon="-2.33129">
        <ele>-2.5999999046326</ele>
        <time>2022-01-06T08:21:45.000Z</time>
      </trkpt>
      <trkpt lat="47.26375" lon="-2.33129">
        <ele>-3</ele>
        <time>2022-01-06T08:21:46.000Z</time>
      </trkpt>
      <trkpt lat="47.26375" lon="-2.33135">
        <ele>-4.1999998092651</ele>
        <time>2022-01-06T08:22:19.000Z</time>
      </trkpt>
      <trkpt lat="47.26376" lon="-2.33143">
        <ele>-4.1999998092651</ele>
        <time>2022-01-06T08:22:22.000Z</time>
      </trkpt>
      <trkpt lat="47.26377" lon="-2.33167">
        <ele>-4.1999998092651</ele>
        <time>2022-01-06T08:22:28.000Z</time>
      </trkpt>
      <trkpt lat="47.26378" lon="-2.33173">
        <ele>-4.1999998092651</ele>
        <time>2022-01-06T08:22:29.000Z</time>
      </trkpt>
      <trkpt lat="47.26379" lon="-2.33203">
        <ele>-4.1999998092651</ele>
        <time>2022-01-06T08:22:34.000Z</time>
      </trkpt>
      <trkpt lat="47.26379" lon="-2.33209">
        <ele>-4.1999998092651</ele>
        <time>2022-01-06T08:22:35.000Z</time>
      </trkpt>
      <trkpt lat="47.26382" lon="-2.33242">
        <ele>-4.1999998092651</ele>
        <time>2022-01-06T08:22:40.000Z</time>
      </trkpt>
      <trkpt lat="47.26385" lon="-2.33255">
        <ele>-4.1999998092651</ele>
        <time>2022-01-06T08:22:42.000Z</time>
      </trkpt>
      <trkpt lat="47.26396" lon="-2.33266">
        <ele>-4.1999998092651</ele>
        <time>2022-01-06T08:22:45.000Z</time>
      </trkpt>
      <trkpt lat="47.26419" lon="-2.33269">
        <ele>-4.1999998092651</ele>
        <time>2022-01-06T08:22:50.000Z</time>
      </trkpt>
      <trkpt lat="47.2647" lon="-2.33277">
        <ele>-4.1999998092651</ele>
        <time>2022-01-06T08:23:01.000Z</time>
      </trkpt>
      <trkpt lat="47.26499" lon="-2.3328">
        <ele>-4.1999998092651</ele>
        <time>2022-01-06T08:23:08.000Z</time>
      </trkpt>
      <trkpt lat="47.26504" lon="-2.33281">
        <ele>-4.1999998092651</ele>
        <time>2022-01-06T08:23:09.000Z</time>
      </trkpt>
      <trkpt lat="47.26516" lon="-2.33293">
        <ele>-4.1999998092651</ele>
        <time>2022-01-06T08:23:12.000Z</time>
      </trkpt>
      <trkpt lat="47.2652" lon="-2.33298">
        <ele>-4.1999998092651</ele>
        <time>2022-01-06T08:23:13.000Z</time>
      </trkpt>
      <trkpt lat="47.26527" lon="-2.33318">
        <ele>-4.1999998092651</ele>
        <time>2022-01-06T08:23:16.000Z</time>
      </trkpt>
      <trkpt lat="47.26527" lon="-2.3334">
        <ele>-4.1999998092651</ele>
        <time>2022-01-06T08:23:19.000Z</time>
      </trkpt>
      <trkpt lat="47.26528" lon="-2.33348">
        <ele>-4.1999998092651</ele>
        <time>2022-01-06T08:23:20.000Z</time>
      </trkpt>
      <trkpt lat="47.26535" lon="-2.33377">
        <ele>-4.1999998092651</ele>
        <time>2022-01-06T08:23:24.000Z</time>
      </trkpt>
      <trkpt lat="47.26536" lon="-2.33384">
        <ele>-4.1999998092651</ele>
        <time>2022-01-06T08:23:25.000Z</time>
      </trkpt>
      <trkpt lat="47.26549" lon="-2.33443">
        <ele>-4.1999998092651</ele>
        <time>2022-01-06T08:23:33.000Z</time>
      </trkpt>
      <trkpt lat="47.26556" lon="-2.33496">
        <ele>-4.1999998092651</ele>
        <time>2022-01-06T08:23:40.000Z</time>
      </trkpt>
      <trkpt lat="47.26558" lon="-2.33502">
        <ele>-4.1999998092651</ele>
        <time>2022-01-06T08:23:41.000Z</time>
      </trkpt>
      <trkpt lat="47.26564" lon="-2.3352">
        <ele>-4.1999998092651</ele>
        <time>2022-01-06T08:23:44.000Z</time>
      </trkpt>
      <trkpt lat="47.26565" lon="-2.33528">
        <ele>-4.1999998092651</ele>
        <time>2022-01-06T08:23:45.000Z</time>
      </trkpt>
      <trkpt lat="47.26566" lon="-2.33534">
        <ele>-3.7999999523163</ele>
        <time>2022-01-06T08:23:46.000Z</time>
      </trkpt>
      <trkpt lat="47.26568" lon="-2.3354">
        <ele>-3.4000000953674</ele>
        <time>2022-01-06T08:23:47.000Z</time>
      </trkpt>
      <trkpt lat="47.26569" lon="-2.33547">
        <ele>-3</ele>
        <time>2022-01-06T08:23:48.000Z</time>
      </trkpt>
      <trkpt lat="47.26569" lon="-2.33555">
        <ele>-2.5999999046326</ele>
        <time>2022-01-06T08:23:49.000Z</time>
      </trkpt>
      <trkpt lat="47.26571" lon="-2.33562">
        <ele>-2.2000000476837</ele>
        <time>2022-01-06T08:23:50.000Z</time>
      </trkpt>
      <trkpt lat="47.26577" lon="-2.33602">
        <ele>-2.2000000476837</ele>
        <time>2022-01-06T08:23:56.000Z</time>
      </trkpt>
      <trkpt lat="47.26579" lon="-2.33614">
        <ele>-2.2000000476837</ele>
        <time>2022-01-06T08:23:58.000Z</time>
      </trkpt>
      <trkpt lat="47.26581" lon="-2.33626">
        <ele>-2.2000000476837</ele>
        <time>2022-01-06T08:24:00.000Z</time>
      </trkpt>
      <trkpt lat="47.2658" lon="-2.33633">
        <ele>-2.2000000476837</ele>
        <time>2022-01-06T08:24:01.000Z</time>
      </trkpt>
      <trkpt lat="47.2658" lon="-2.33656">
        <ele>-1.7999999523163</ele>
        <time>2022-01-06T08:24:05.000Z</time>
      </trkpt>
      <trkpt lat="47.26582" lon="-2.33663">
        <ele>-1.2000000476837</ele>
        <time>2022-01-06T08:24:06.000Z</time>
      </trkpt>
      <trkpt lat="47.26584" lon="-2.33668">
        <ele>-0.80000001192093</ele>
        <time>2022-01-06T08:24:07.000Z</time>
      </trkpt>
      <trkpt lat="47.26586" lon="-2.33673">
        <ele>-0.40000000596046</ele>
        <time>2022-01-06T08:24:08.000Z</time>
      </trkpt>
      <trkpt lat="47.26589" lon="-2.33678">
        <ele>6.9</ele>
        <time>2022-01-06T08:24:09.000Z</time>
      </trkpt>
      <trkpt lat="47.26599" lon="-2.33695">
        <ele>7</ele>
        <time>2022-01-06T08:24:13.000Z</time>
      </trkpt>
      <trkpt lat="47.26609" lon="-2.33713">
        <ele>7.7</ele>
        <time>2022-01-06T08:24:17.000Z</time>
      </trkpt>
      <trkpt lat="47.26609" lon="-2.33726">
        <ele>8.1</ele>
        <time>2022-01-06T08:24:19.000Z</time>
      </trkpt>
      <trkpt lat="47.26606" lon="-2.33746">
        <ele>0.40000000596046</ele>
        <time>2022-01-06T08:24:22.000Z</time>
      </trkpt>
      <trkpt lat="47.26606" lon="-2.33752">
        <ele>1.2000000476837</ele>
        <time>2022-01-06T08:24:23.000Z</time>
      </trkpt>
      <trkpt lat="47.26605" lon="-2.33758">
        <ele>1.6000000238419</ele>
        <time>2022-01-06T08:24:24.000Z</time>
      </trkpt>
      <trkpt lat="47.26604" lon="-2.33764">
        <ele>2</ele>
        <time>2022-01-06T08:24:25.000Z</time>
      </trkpt>
      <trkpt lat="47.26604" lon="-2.3377">
        <ele>2</ele>
        <time>2022-01-06T08:24:26.000Z</time>
      </trkpt>
      <trkpt lat="47.26599" lon="-2.33815">
        <ele>2</ele>
        <time>2022-01-06T08:24:33.000Z</time>
      </trkpt>
      <trkpt lat="47.26597" lon="-2.33835">
        <ele>2.4000000953674</ele>
        <time>2022-01-06T08:24:36.000Z</time>
      </trkpt>
      <trkpt lat="47.26596" lon="-2.33842">
        <ele>2.7999999523163</ele>
        <time>2022-01-06T08:24:37.000Z</time>
      </trkpt>
      <trkpt lat="47.26595" lon="-2.33848">
        <ele>3.2000000476837</ele>
        <time>2022-01-06T08:24:38.000Z</time>
      </trkpt>
      <trkpt lat="47.26595" lon="-2.33854">
        <ele>3.5999999046326</ele>
        <time>2022-01-06T08:24:39.000Z</time>
      </trkpt>
      <trkpt lat="47.26594" lon="-2.33861">
        <ele>4</ele>
        <time>2022-01-06T08:24:40.000Z</time>
      </trkpt>
      <trkpt lat="47.26589" lon="-2.33921">
        <ele>4</ele>
        <time>2022-01-06T08:24:49.000Z</time>
      </trkpt>
      <trkpt lat="47.26583" lon="-2.33974">
        <ele>4</ele>
        <time>2022-01-06T08:24:57.000Z</time>
      </trkpt>
      <trkpt lat="47.26574" lon="-2.34029">
        <ele>4</ele>
        <time>2022-01-06T08:25:05.000Z</time>
      </trkpt>
      <trkpt lat="47.26571" lon="-2.34042">
        <ele>4</ele>
        <time>2022-01-06T08:25:07.000Z</time>
      </trkpt>
      <trkpt lat="47.26574" lon="-2.34054">
        <ele>4</ele>
        <time>2022-01-06T08:25:09.000Z</time>
      </trkpt>
      <trkpt lat="47.26585" lon="-2.34063">
        <ele>4</ele>
        <time>2022-01-06T08:25:12.000Z</time>
      </trkpt>
      <trkpt lat="47.26588" lon="-2.34065">
        <ele>4</ele>
        <time>2022-01-06T08:25:13.000Z</time>
      </trkpt>
      <trkpt lat="47.26616" lon="-2.3408">
        <ele>4</ele>
        <time>2022-01-06T08:25:19.000Z</time>
      </trkpt>
      <trkpt lat="47.26643" lon="-2.34101">
        <ele>4</ele>
        <time>2022-01-06T08:25:26.000Z</time>
      </trkpt>
      <trkpt lat="47.26665" lon="-2.34118">
        <ele>4</ele>
        <time>2022-01-06T08:25:31.000Z</time>
      </trkpt>
      <trkpt lat="47.26679" lon="-2.34127">
        <ele>4</ele>
        <time>2022-01-06T08:25:34.000Z</time>
      </trkpt>
      <trkpt lat="47.26711" lon="-2.34148">
        <ele>4</ele>
        <time>2022-01-06T08:25:41.000Z</time>
      </trkpt>
      <trkpt lat="47.26751" lon="-2.34174">
        <ele>4</ele>
        <time>2022-01-06T08:25:50.000Z</time>
      </trkpt>
      <trkpt lat="47.26792" lon="-2.342">
        <ele>4</ele>
        <time>2022-01-06T08:25:58.000Z</time>
      </trkpt>
      <trkpt lat="47.26833" lon="-2.34228">
        <ele>4</ele>
        <time>2022-01-06T08:26:06.000Z</time>
      </trkpt>
      <trkpt lat="47.26874" lon="-2.34259">
        <ele>4</ele>
        <time>2022-01-06T08:26:14.000Z</time>
      </trkpt>
      <trkpt lat="47.26915" lon="-2.34287">
        <ele>4</ele>
        <time>2022-01-06T08:26:22.000Z</time>
      </trkpt>
      <trkpt lat="47.26935" lon="-2.34305">
        <ele>4</ele>
        <time>2022-01-06T08:26:27.000Z</time>
      </trkpt>
      <trkpt lat="47.26945" lon="-2.34306">
        <ele>4</ele>
        <time>2022-01-06T08:26:29.000Z</time>
      </trkpt>
      <trkpt lat="47.26961" lon="-2.34308">
        <ele>4</ele>
        <time>2022-01-06T08:26:32.000Z</time>
      </trkpt>
      <trkpt lat="47.27005" lon="-2.34318">
        <ele>4</ele>
        <time>2022-01-06T08:26:40.000Z</time>
      </trkpt>
      <trkpt lat="47.27035" lon="-2.34324">
        <ele>4</ele>
        <time>2022-01-06T08:26:46.000Z</time>
      </trkpt>
      <trkpt lat="47.27043" lon="-2.34342">
        <ele>4</ele>
        <time>2022-01-06T08:26:49.000Z</time>
      </trkpt>
      <trkpt lat="47.27045" lon="-2.3435">
        <ele>4</ele>
        <time>2022-01-06T08:26:50.000Z</time>
      </trkpt>
      <trkpt lat="47.27058" lon="-2.34405">
        <ele>4</ele>
        <time>2022-01-06T08:26:57.000Z</time>
      </trkpt>
      <trkpt lat="47.27072" lon="-2.34468">
        <ele>4</ele>
        <time>2022-01-06T08:27:05.000Z</time>
      </trkpt>
      <trkpt lat="47.27087" lon="-2.34528">
        <ele>4</ele>
        <time>2022-01-06T08:27:13.000Z</time>
      </trkpt>
      <trkpt lat="47.27095" lon="-2.34566">
        <ele>4.4000000953674</ele>
        <time>2022-01-06T08:27:18.000Z</time>
      </trkpt>
      <trkpt lat="47.27097" lon="-2.34573">
        <ele>4.8000001907349</ele>
        <time>2022-01-06T08:27:19.000Z</time>
      </trkpt>
      <trkpt lat="47.27099" lon="-2.34581">
        <ele>5.1999998092651</ele>
        <time>2022-01-06T08:27:20.000Z</time>
      </trkpt>
      <trkpt lat="47.27101" lon="-2.34589">
        <ele>5.5999999046326</ele>
        <time>2022-01-06T08:27:21.000Z</time>
      </trkpt>
      <trkpt lat="47.27103" lon="-2.34597">
        <ele>6</ele>
        <time>2022-01-06T08:27:22.000Z</time>
      </trkpt>
      <trkpt lat="47.27112" lon="-2.34638">
        <ele>6</ele>
        <time>2022-01-06T08:27:27.000Z</time>
      </trkpt>
      <trkpt lat="47.27129" lon="-2.3471">
        <ele>6</ele>
        <time>2022-01-06T08:27:36.000Z</time>
      </trkpt>
      <trkpt lat="47.27141" lon="-2.34773">
        <ele>6</ele>
        <time>2022-01-06T08:27:44.000Z</time>
      </trkpt>
      <trkpt lat="47.27154" lon="-2.34837">
        <ele>6</ele>
        <time>2022-01-06T08:27:52.000Z</time>
      </trkpt>
      <trkpt lat="47.27168" lon="-2.34892">
        <ele>6</ele>
        <time>2022-01-06T08:27:59.000Z</time>
      </trkpt>
      <trkpt lat="47.27187" lon="-2.34951">
        <ele>6</ele>
        <time>2022-01-06T08:28:07.000Z</time>
      </trkpt>
      <trkpt lat="47.27209" lon="-2.35014">
        <ele>6</ele>
        <time>2022-01-06T08:28:16.000Z</time>
      </trkpt>
      <trkpt lat="47.27229" lon="-2.35072">
        <ele>6</ele>
        <time>2022-01-06T08:28:24.000Z</time>
      </trkpt>
      <trkpt lat="47.27248" lon="-2.35113">
        <ele>6</ele>
        <time>2022-01-06T08:28:30.000Z</time>
      </trkpt>
      <trkpt lat="47.27254" lon="-2.35123">
        <ele>6</ele>
        <time>2022-01-06T08:28:32.000Z</time>
      </trkpt>
      <trkpt lat="47.27261" lon="-2.35126">
        <ele>6</ele>
        <time>2022-01-06T08:28:34.000Z</time>
      </trkpt>
      <trkpt lat="47.27275" lon="-2.35119">
        <ele>6</ele>
        <time>2022-01-06T08:28:37.000Z</time>
      </trkpt>
      <trkpt lat="47.27284" lon="-2.35114">
        <ele>6.4000000953674</ele>
        <time>2022-01-06T08:28:39.000Z</time>
      </trkpt>
      <trkpt lat="47.27289" lon="-2.35112">
        <ele>7</ele>
        <time>2022-01-06T08:28:40.000Z</time>
      </trkpt>
      <trkpt lat="47.27293" lon="-2.35109">
        <ele>7.4000000953674</ele>
        <time>2022-01-06T08:28:41.000Z</time>
      </trkpt>
      <trkpt lat="47.27298" lon="-2.35106">
        <ele>7.8000001907349</ele>
        <time>2022-01-06T08:28:42.000Z</time>
      </trkpt>
      <trkpt lat="47.27303" lon="-2.35103">
        <ele>8.1999998092651</ele>
        <time>2022-01-06T08:28:43.000Z</time>
      </trkpt>
      <trkpt lat="47.27308" lon="-2.35101">
        <ele>8.1999998092651</ele>
        <time>2022-01-06T08:28:44.000Z</time>
      </trkpt>
      <trkpt lat="47.27324" lon="-2.35091">
        <ele>8.6000003814697</ele>
        <time>2022-01-06T08:28:48.000Z</time>
      </trkpt>
      <trkpt lat="47.27328" lon="-2.3509">
        <ele>9</ele>
        <time>2022-01-06T08:28:49.000Z</time>
      </trkpt>
      <trkpt lat="47.27331" lon="-2.35088">
        <ele>9.6000003814697</ele>
        <time>2022-01-06T08:28:50.000Z</time>
      </trkpt>
      <trkpt lat="47.27335" lon="-2.35086">
        <ele>10</ele>
        <time>2022-01-06T08:28:51.000Z</time>
      </trkpt>
      <trkpt lat="47.27339" lon="-2.35084">
        <ele>10.39999961853</ele>
        <time>2022-01-06T08:28:52.000Z</time>
      </trkpt>
      <trkpt lat="47.27348" lon="-2.3508">
        <ele>10.39999961853</ele>
        <time>2022-01-06T08:28:55.000Z</time>
      </trkpt>
      <trkpt lat="47.27351" lon="-2.35077">
        <ele>11.199999809265</ele>
        <time>2022-01-06T08:28:56.000Z</time>
      </trkpt>
      <trkpt lat="47.27355" lon="-2.35075">
        <ele>11.60000038147</ele>
        <time>2022-01-06T08:28:57.000Z</time>
      </trkpt>
      <trkpt lat="47.27358" lon="-2.35072">
        <ele>12</ele>
        <time>2022-01-06T08:28:58.000Z</time>
      </trkpt>
      <trkpt lat="47.27362" lon="-2.3507">
        <ele>12.39999961853</ele>
        <time>2022-01-06T08:28:59.000Z</time>
      </trkpt>
      <trkpt lat="47.27369" lon="-2.35067">
        <ele>12.39999961853</ele>
        <time>2022-01-06T08:29:01.000Z</time>
      </trkpt>
      <trkpt lat="47.27385" lon="-2.35059">
        <ele>12.800000190735</ele>
        <time>2022-01-06T08:29:06.000Z</time>
      </trkpt>
      <trkpt lat="47.27388" lon="-2.35057">
        <ele>13.199999809265</ele>
        <time>2022-01-06T08:29:07.000Z</time>
      </trkpt>
      <trkpt lat="47.27391" lon="-2.35056">
        <ele>13.60000038147</ele>
        <time>2022-01-06T08:29:08.000Z</time>
      </trkpt>
      <trkpt lat="47.27394" lon="-2.35056">
        <ele>14</ele>
        <time>2022-01-06T08:29:09.000Z</time>
      </trkpt>
      <trkpt lat="47.27397" lon="-2.35057">
        <ele>14.39999961853</ele>
        <time>2022-01-06T08:29:10.000Z</time>
      </trkpt>
      <trkpt lat="47.27403" lon="-2.35062">
        <ele>14.39999961853</ele>
        <time>2022-01-06T08:29:12.000Z</time>
      </trkpt>
      <trkpt lat="47.27405" lon="-2.35067">
        <ele>14.39999961853</ele>
        <time>2022-01-06T08:29:13.000Z</time>
      </trkpt>
      <trkpt lat="47.27408" lon="-2.35083">
        <ele>14.39999961853</ele>
        <time>2022-01-06T08:29:16.000Z</time>
      </trkpt>
      <trkpt lat="47.2741" lon="-2.35094">
        <ele>14.39999961853</ele>
        <time>2022-01-06T08:29:18.000Z</time>
      </trkpt>
      <trkpt lat="47.27412" lon="-2.35099">
        <ele>14.39999961853</ele>
        <time>2022-01-06T08:29:19.000Z</time>
      </trkpt>
      <trkpt lat="47.27422" lon="-2.35144">
        <ele>14.39999961853</ele>
        <time>2022-01-06T08:29:27.000Z</time>
      </trkpt>
      <trkpt lat="47.27426" lon="-2.35161">
        <ele>14.39999961853</ele>
        <time>2022-01-06T08:29:30.000Z</time>
      </trkpt>
      <trkpt lat="47.2743" lon="-2.3517">
        <ele>14.39999961853</ele>
        <time>2022-01-06T08:29:32.000Z</time>
      </trkpt>
      <trkpt lat="47.27439" lon="-2.35169">
        <ele>14.39999961853</ele>
        <time>2022-01-06T08:29:35.000Z</time>
      </trkpt>
      <trkpt lat="47.27462" lon="-2.35156">
        <ele>14.800000190735</ele>
        <time>2022-01-06T08:29:42.000Z</time>
      </trkpt>
      <trkpt lat="47.27465" lon="-2.35155">
        <ele>15.39999961853</ele>
        <time>2022-01-06T08:29:43.000Z</time>
      </trkpt>
      <trkpt lat="47.27468" lon="-2.35154">
        <ele>15.800000190735</ele>
        <time>2022-01-06T08:29:44.000Z</time>
      </trkpt>
      <trkpt lat="47.27472" lon="-2.35152">
        <ele>16.60000038147</ele>
        <time>2022-01-06T08:29:45.000Z</time>
      </trkpt>
      <trkpt lat="47.27484" lon="-2.35145">
        <ele>16.60000038147</ele>
        <time>2022-01-06T08:29:49.000Z</time>
      </trkpt>
      <trkpt lat="47.27497" lon="-2.35137">
        <ele>16.60000038147</ele>
        <time>2022-01-06T08:29:53.000Z</time>
      </trkpt>
      <trkpt lat="47.27499" lon="-2.35133">
        <ele>16.60000038147</ele>
        <time>2022-01-06T08:29:54.000Z</time>
      </trkpt>
      <trkpt lat="47.27511" lon="-2.35128">
        <ele>17</ele>
        <time>2022-01-06T08:29:58.000Z</time>
      </trkpt>
      <trkpt lat="47.27515" lon="-2.35129">
        <ele>17.39999961853</ele>
        <time>2022-01-06T08:29:59.000Z</time>
      </trkpt>
      <trkpt lat="47.27518" lon="-2.3513">
        <ele>17.799999237061</ele>
        <time>2022-01-06T08:30:00.000Z</time>
      </trkpt>
      <trkpt lat="47.27521" lon="-2.35132">
        <ele>18.39999961853</ele>
        <time>2022-01-06T08:30:01.000Z</time>
      </trkpt>
      <trkpt lat="47.27524" lon="-2.35134">
        <ele>18.799999237061</ele>
        <time>2022-01-06T08:30:02.000Z</time>
      </trkpt>
      <trkpt lat="47.27532" lon="-2.35139">
        <ele>18.799999237061</ele>
        <time>2022-01-06T08:30:04.000Z</time>
      </trkpt>
      <trkpt lat="47.27548" lon="-2.35139">
        <ele>18.799999237061</ele>
        <time>2022-01-06T08:30:08.000Z</time>
      </trkpt>
      <trkpt lat="47.2758" lon="-2.35132">
        <ele>18.799999237061</ele>
        <time>2022-01-06T08:30:16.000Z</time>
      </trkpt>
      <trkpt lat="47.27598" lon="-2.35133">
        <ele>18.799999237061</ele>
        <time>2022-01-06T08:30:21.000Z</time>
      </trkpt>
      <trkpt lat="47.27607" lon="-2.35147">
        <ele>18.799999237061</ele>
        <time>2022-01-06T08:30:24.000Z</time>
      </trkpt>
      <trkpt lat="47.27609" lon="-2.35153">
        <ele>18.799999237061</ele>
        <time>2022-01-06T08:30:25.000Z</time>
      </trkpt>
      <trkpt lat="47.27611" lon="-2.35166">
        <ele>18.799999237061</ele>
        <time>2022-01-06T08:30:27.000Z</time>
      </trkpt>
      <trkpt lat="47.27615" lon="-2.35176">
        <ele>18.799999237061</ele>
        <time>2022-01-06T08:30:29.000Z</time>
      </trkpt>
      <trkpt lat="47.27625" lon="-2.35179">
        <ele>18.799999237061</ele>
        <time>2022-01-06T08:30:32.000Z</time>
      </trkpt>
      <trkpt lat="47.27634" lon="-2.35177">
        <ele>18.799999237061</ele>
        <time>2022-01-06T08:30:34.000Z</time>
      </trkpt>
      <trkpt lat="47.27639" lon="-2.35177">
        <ele>18.799999237061</ele>
        <time>2022-01-06T08:30:35.000Z</time>
      </trkpt>
      <trkpt lat="47.27652" lon="-2.35175">
        <ele>18.799999237061</ele>
        <time>2022-01-06T08:30:38.000Z</time>
      </trkpt>
      <trkpt lat="47.2766" lon="-2.35173">
        <ele>18.39999961853</ele>
        <time>2022-01-06T08:30:40.000Z</time>
      </trkpt>
      <trkpt lat="47.27664" lon="-2.35175">
        <ele>18</ele>
        <time>2022-01-06T08:30:41.000Z</time>
      </trkpt>
      <trkpt lat="47.27667" lon="-2.3518">
        <ele>17.60000038147</ele>
        <time>2022-01-06T08:30:42.000Z</time>
      </trkpt>
      <trkpt lat="47.2767" lon="-2.35186">
        <ele>17.200000762939</ele>
        <time>2022-01-06T08:30:43.000Z</time>
      </trkpt>
      <trkpt lat="47.27672" lon="-2.35194">
        <ele>16.60000038147</ele>
        <time>2022-01-06T08:30:44.000Z</time>
      </trkpt>
      <trkpt lat="47.27672" lon="-2.35202">
        <ele>16.60000038147</ele>
        <time>2022-01-06T08:30:45.000Z</time>
      </trkpt>
      <trkpt lat="47.27673" lon="-2.35209">
        <ele>16.60000038147</ele>
        <time>2022-01-06T08:30:46.000Z</time>
      </trkpt>
      <trkpt lat="47.27674" lon="-2.3522">
        <ele>16.60000038147</ele>
        <time>2022-01-06T08:30:48.000Z</time>
      </trkpt>
      <trkpt lat="47.27676" lon="-2.35222">
        <ele>16.200000762939</ele>
        <time>2022-01-06T08:30:49.000Z</time>
      </trkpt>
      <trkpt lat="47.27679" lon="-2.35223">
        <ele>15.800000190735</ele>
        <time>2022-01-06T08:30:50.000Z</time>
      </trkpt>
      <trkpt lat="47.27682" lon="-2.35223">
        <ele>15.39999961853</ele>
        <time>2022-01-06T08:30:51.000Z</time>
      </trkpt>
      <trkpt lat="47.27686" lon="-2.35222">
        <ele>15</ele>
        <time>2022-01-06T08:30:52.000Z</time>
      </trkpt>
      <trkpt lat="47.2769" lon="-2.35221">
        <ele>14.60000038147</ele>
        <time>2022-01-06T08:30:53.000Z</time>
      </trkpt>
      <trkpt lat="47.27714" lon="-2.35215">
        <ele>14.60000038147</ele>
        <time>2022-01-06T08:30:58.000Z</time>
      </trkpt>
      <trkpt lat="47.27749" lon="-2.35203">
        <ele>14.199999809265</ele>
        <time>2022-01-06T08:31:05.000Z</time>
      </trkpt>
      <trkpt lat="47.27754" lon="-2.35201">
        <ele>13.800000190735</ele>
        <time>2022-01-06T08:31:06.000Z</time>
      </trkpt>
      <trkpt lat="47.27758" lon="-2.352">
        <ele>13.39999961853</ele>
        <time>2022-01-06T08:31:07.000Z</time>
      </trkpt>
      <trkpt lat="47.27762" lon="-2.352">
        <ele>13</ele>
        <time>2022-01-06T08:31:08.000Z</time>
      </trkpt>
      <trkpt lat="47.27766" lon="-2.35201">
        <ele>12.60000038147</ele>
        <time>2022-01-06T08:31:09.000Z</time>
      </trkpt>
      <trkpt lat="47.27769" lon="-2.35202">
        <ele>12.60000038147</ele>
        <time>2022-01-06T08:31:10.000Z</time>
      </trkpt>
      <trkpt lat="47.27773" lon="-2.35208">
        <ele>12.60000038147</ele>
        <time>2022-01-06T08:31:12.000Z</time>
      </trkpt>
      <trkpt lat="47.27775" lon="-2.35214">
        <ele>12.60000038147</ele>
        <time>2022-01-06T08:31:13.000Z</time>
      </trkpt>
      <trkpt lat="47.2778" lon="-2.3524">
        <ele>12.60000038147</ele>
        <time>2022-01-06T08:31:17.000Z</time>
      </trkpt>
      <trkpt lat="47.27791" lon="-2.35296">
        <ele>12.60000038147</ele>
        <time>2022-01-06T08:31:25.000Z</time>
      </trkpt>
      <trkpt lat="47.27802" lon="-2.35345">
        <ele>12.60000038147</ele>
        <time>2022-01-06T08:31:32.000Z</time>
      </trkpt>
      <trkpt lat="47.27807" lon="-2.35357">
        <ele>12.60000038147</ele>
        <time>2022-01-06T08:31:34.000Z</time>
      </trkpt>
      <trkpt lat="47.27819" lon="-2.35365">
        <ele>12.60000038147</ele>
        <time>2022-01-06T08:31:37.000Z</time>
      </trkpt>
      <trkpt lat="47.27837" lon="-2.35363">
        <ele>12.60000038147</ele>
        <time>2022-01-06T08:31:41.000Z</time>
      </trkpt>
      <trkpt lat="47.27841" lon="-2.35362">
        <ele>12.60000038147</ele>
        <time>2022-01-06T08:31:42.000Z</time>
      </trkpt>
      <trkpt lat="47.27866" lon="-2.35361">
        <ele>12.60000038147</ele>
        <time>2022-01-06T08:31:48.000Z</time>
      </trkpt>
      <trkpt lat="47.2788" lon="-2.35368">
        <ele>12.60000038147</ele>
        <time>2022-01-06T08:31:52.000Z</time>
      </trkpt>
      <trkpt lat="47.27883" lon="-2.35372">
        <ele>12.60000038147</ele>
        <time>2022-01-06T08:31:53.000Z</time>
      </trkpt>
      <trkpt lat="47.27904" lon="-2.35402">
        <ele>12.60000038147</ele>
        <time>2022-01-06T08:32:00.000Z</time>
      </trkpt>
      <trkpt lat="47.2793" lon="-2.35437">
        <ele>12.60000038147</ele>
        <time>2022-01-06T08:32:08.000Z</time>
      </trkpt>
      <trkpt lat="47.27952" lon="-2.35459">
        <ele>12.60000038147</ele>
        <time>2022-01-06T08:32:14.000Z</time>
      </trkpt>
      <trkpt lat="47.27956" lon="-2.35461">
        <ele>12.60000038147</ele>
        <time>2022-01-06T08:32:15.000Z</time>
      </trkpt>
      <trkpt lat="47.27972" lon="-2.3547">
        <ele>12.60000038147</ele>
        <time>2022-01-06T08:32:19.000Z</time>
      </trkpt>
      <trkpt lat="47.27979" lon="-2.35479">
        <ele>12.60000038147</ele>
        <time>2022-01-06T08:32:21.000Z</time>
      </trkpt>
      <trkpt lat="47.27986" lon="-2.35491">
        <ele>12.60000038147</ele>
        <time>2022-01-06T08:32:23.000Z</time>
      </trkpt>
      <trkpt lat="47.27996" lon="-2.35512">
        <ele>12.60000038147</ele>
        <time>2022-01-06T08:32:27.000Z</time>
      </trkpt>
      <trkpt lat="47.28004" lon="-2.3554">
        <ele>13</ele>
        <time>2022-01-06T08:32:32.000Z</time>
      </trkpt>
      <trkpt lat="47.28004" lon="-2.35545">
        <ele>13.39999961853</ele>
        <time>2022-01-06T08:32:33.000Z</time>
      </trkpt>
      <trkpt lat="47.28005" lon="-2.35549">
        <ele>13.800000190735</ele>
        <time>2022-01-06T08:32:34.000Z</time>
      </trkpt>
      <trkpt lat="47.28006" lon="-2.35553">
        <ele>14.199999809265</ele>
        <time>2022-01-06T08:32:35.000Z</time>
      </trkpt>
      <trkpt lat="47.28009" lon="-2.35555">
        <ele>14.60000038147</ele>
        <time>2022-01-06T08:32:36.000Z</time>
      </trkpt>
      <trkpt lat="47.28013" lon="-2.35555">
        <ele>14.60000038147</ele>
        <time>2022-01-06T08:32:37.000Z</time>
      </trkpt>
      <trkpt lat="47.28027" lon="-2.35559">
        <ele>14.60000038147</ele>
        <time>2022-01-06T08:32:41.000Z</time>
      </trkpt>
      <trkpt lat="47.28032" lon="-2.35566">
        <ele>14.60000038147</ele>
        <time>2022-01-06T08:32:43.000Z</time>
      </trkpt>
      <trkpt lat="47.28042" lon="-2.35576">
        <ele>15</ele>
        <time>2022-01-06T08:32:47.000Z</time>
      </trkpt>
      <trkpt lat="47.28045" lon="-2.35578">
        <ele>15.39999961853</ele>
        <time>2022-01-06T08:32:48.000Z</time>
      </trkpt>
      <trkpt lat="47.28048" lon="-2.35578">
        <ele>15.800000190735</ele>
        <time>2022-01-06T08:32:49.000Z</time>
      </trkpt>
      <trkpt lat="47.28051" lon="-2.35578">
        <ele>16.39999961853</ele>
        <time>2022-01-06T08:32:50.000Z</time>
      </trkpt>
      <trkpt lat="47.28054" lon="-2.35579">
        <ele>16.799999237061</ele>
        <time>2022-01-06T08:32:51.000Z</time>
      </trkpt>
      <trkpt lat="47.28056" lon="-2.35579">
        <ele>16.799999237061</ele>
        <time>2022-01-06T08:32:52.000Z</time>
      </trkpt>
      <trkpt lat="47.28067" lon="-2.35582">
        <ele>16.799999237061</ele>
        <time>2022-01-06T08:32:58.000Z</time>
      </trkpt>
      <trkpt lat="47.28067" lon="-2.35583">
        <ele>16.799999237061</ele>
        <time>2022-01-06T08:32:59.000Z</time>
      </trkpt>
      <trkpt lat="47.28069" lon="-2.3558">
        <ele>16.799999237061</ele>
        <time>2022-01-06T08:38:06.000Z</time>
      </trkpt>
      <trkpt lat="47.28072" lon="-2.35581">
        <ele>16.799999237061</ele>
        <time>2022-01-06T08:38:08.000Z</time>
      </trkpt>
      <trkpt lat="47.28071" lon="-2.35589">
        <ele>16.799999237061</ele>
        <time>2022-01-06T08:38:12.000Z</time>
      </trkpt>
      <trkpt lat="47.28074" lon="-2.356">
        <ele>16.799999237061</ele>
        <time>2022-01-06T08:38:15.000Z</time>
      </trkpt>
      <trkpt lat="47.28075" lon="-2.35604">
        <ele>16.799999237061</ele>
        <time>2022-01-06T08:38:16.000Z</time>
      </trkpt>
      <trkpt lat="47.28077" lon="-2.35624">
        <ele>17.200000762939</ele>
        <time>2022-01-06T08:38:21.000Z</time>
      </trkpt>
      <trkpt lat="47.28078" lon="-2.35627">
        <ele>17.60000038147</ele>
        <time>2022-01-06T08:38:22.000Z</time>
      </trkpt>
      <trkpt lat="47.28078" lon="-2.3563">
        <ele>18</ele>
        <time>2022-01-06T08:38:23.000Z</time>
      </trkpt>
      <trkpt lat="47.28079" lon="-2.35632">
        <ele>18.799999237061</ele>
        <time>2022-01-06T08:38:24.000Z</time>
      </trkpt>
      <trkpt lat="47.28081" lon="-2.35641">
        <ele>19.200000762939</ele>
        <time>2022-01-06T08:38:27.000Z</time>
      </trkpt>
      <trkpt lat="47.28082" lon="-2.35645">
        <ele>19.60000038147</ele>
        <time>2022-01-06T08:38:28.000Z</time>
      </trkpt>
      <trkpt lat="47.28083" lon="-2.35648">
        <ele>20</ele>
        <time>2022-01-06T08:38:29.000Z</time>
      </trkpt>
      <trkpt lat="47.28084" lon="-2.35652">
        <ele>20.60000038147</ele>
        <time>2022-01-06T08:38:30.000Z</time>
      </trkpt>
      <trkpt lat="47.28085" lon="-2.35656">
        <ele>21</ele>
        <time>2022-01-06T08:38:31.000Z</time>
      </trkpt>
      <trkpt lat="47.28088" lon="-2.35665">
        <ele>21.39999961853</ele>
        <time>2022-01-06T08:38:33.000Z</time>
      </trkpt>
      <trkpt lat="47.28089" lon="-2.35669">
        <ele>21.799999237061</ele>
        <time>2022-01-06T08:38:34.000Z</time>
      </trkpt>
      <trkpt lat="47.28089" lon="-2.35672">
        <ele>22.39999961853</ele>
        <time>2022-01-06T08:38:35.000Z</time>
      </trkpt>
      <trkpt lat="47.2809" lon="-2.35675">
        <ele>22.799999237061</ele>
        <time>2022-01-06T08:38:36.000Z</time>
      </trkpt>
      <trkpt lat="47.2809" lon="-2.35678">
        <ele>23.200000762939</ele>
        <time>2022-01-06T08:38:37.000Z</time>
      </trkpt>
      <trkpt lat="47.28092" lon="-2.35684">
        <ele>23.200000762939</ele>
        <time>2022-01-06T08:38:39.000Z</time>
      </trkpt>
      <trkpt lat="47.28096" lon="-2.35699">
        <ele>23.60000038147</ele>
        <time>2022-01-06T08:38:45.000Z</time>
      </trkpt>
      <trkpt lat="47.28096" lon="-2.35704">
        <ele>24</ele>
        <time>2022-01-06T08:38:46.000Z</time>
      </trkpt>
      <trkpt lat="47.28096" lon="-2.35707">
        <ele>24.39999961853</ele>
        <time>2022-01-06T08:38:47.000Z</time>
      </trkpt>
      <trkpt lat="47.28096" lon="-2.35711">
        <ele>24.799999237061</ele>
        <time>2022-01-06T08:38:48.000Z</time>
      </trkpt>
      <trkpt lat="47.28095" lon="-2.35714">
        <ele>25.200000762939</ele>
        <time>2022-01-06T08:38:49.000Z</time>
      </trkpt>
      <trkpt lat="47.28094" lon="-2.3572">
        <ele>25.200000762939</ele>
        <time>2022-01-06T08:38:51.000Z</time>
      </trkpt>
      <trkpt lat="47.28089" lon="-2.35738">
        <ele>25.200000762939</ele>
        <time>2022-01-06T08:38:55.000Z</time>
      </trkpt>
      <trkpt lat="47.28089" lon="-2.35745">
        <ele>25.200000762939</ele>
        <time>2022-01-06T08:38:56.000Z</time>
      </trkpt>
      <trkpt lat="47.28087" lon="-2.35766">
        <ele>25.200000762939</ele>
        <time>2022-01-06T08:38:59.000Z</time>
      </trkpt>
      <trkpt lat="47.28082" lon="-2.3578">
        <ele>24.799999237061</ele>
        <time>2022-01-06T08:39:02.000Z</time>
      </trkpt>
      <trkpt lat="47.2808" lon="-2.35785">
        <ele>24.39999961853</ele>
        <time>2022-01-06T08:39:03.000Z</time>
      </trkpt>
      <trkpt lat="47.28078" lon="-2.35789">
        <ele>24</ele>
        <time>2022-01-06T08:39:04.000Z</time>
      </trkpt>
      <trkpt lat="47.28076" lon="-2.35793">
        <ele>23.60000038147</ele>
        <time>2022-01-06T08:39:05.000Z</time>
      </trkpt>
      <trkpt lat="47.28074" lon="-2.35798">
        <ele>23.200000762939</ele>
        <time>2022-01-06T08:39:06.000Z</time>
      </trkpt>
      <trkpt lat="47.28076" lon="-2.3581">
        <ele>22.60000038147</ele>
        <time>2022-01-06T08:39:09.000Z</time>
      </trkpt>
      <trkpt lat="47.28078" lon="-2.35814">
        <ele>22.200000762939</ele>
        <time>2022-01-06T08:39:10.000Z</time>
      </trkpt>
      <trkpt lat="47.28079" lon="-2.35816">
        <ele>21.60000038147</ele>
        <time>2022-01-06T08:39:11.000Z</time>
      </trkpt>
      <trkpt lat="47.28081" lon="-2.35819">
        <ele>21.200000762939</ele>
        <time>2022-01-06T08:39:12.000Z</time>
      </trkpt>
      <trkpt lat="47.28082" lon="-2.35821">
        <ele>20.799999237061</ele>
        <time>2022-01-06T08:39:13.000Z</time>
      </trkpt>
      <trkpt lat="47.28083" lon="-2.35822">
        <ele>20.799999237061</ele>
        <time>2022-01-06T08:39:14.000Z</time>
      </trkpt>
      <trkpt lat="47.28085" lon="-2.35824">
        <ele>20.799999237061</ele>
        <time>2022-01-06T08:39:15.000Z</time>
      </trkpt>
      <trkpt lat="47.28088" lon="-2.35827">
        <ele>20.799999237061</ele>
        <time>2022-01-06T08:39:17.000Z</time>
      </trkpt>
      <trkpt lat="47.28093" lon="-2.35827">
        <ele>20.799999237061</ele>
        <time>2022-01-06T08:39:20.000Z</time>
      </trkpt>
      <trkpt lat="47.28098" lon="-2.35827">
        <ele>20.799999237061</ele>
        <time>2022-01-06T08:39:25.000Z</time>
      </trkpt>
      <trkpt lat="47.28107" lon="-2.35837">
        <ele>22.799999237061</ele>
        <time>2022-01-06T08:39:55.000Z</time>
      </trkpt>
      <trkpt lat="47.2811" lon="-2.35838">
        <ele>22.799999237061</ele>
        <time>2022-01-06T08:39:56.000Z</time>
      </trkpt>
      <trkpt lat="47.28115" lon="-2.3584">
        <ele>22.799999237061</ele>
        <time>2022-01-06T08:39:58.000Z</time>
      </trkpt>
      <trkpt lat="47.28119" lon="-2.3585">
        <ele>22.799999237061</ele>
        <time>2022-01-06T08:40:01.000Z</time>
      </trkpt>
      <trkpt lat="47.28121" lon="-2.35861">
        <ele>22.39999961853</ele>
        <time>2022-01-06T08:40:04.000Z</time>
      </trkpt>
      <trkpt lat="47.28123" lon="-2.35864">
        <ele>22</ele>
        <time>2022-01-06T08:40:05.000Z</time>
      </trkpt>
      <trkpt lat="47.28125" lon="-2.35866">
        <ele>21.60000038147</ele>
        <time>2022-01-06T08:40:06.000Z</time>
      </trkpt>
      <trkpt lat="47.28127" lon="-2.35867">
        <ele>21.200000762939</ele>
        <time>2022-01-06T08:40:07.000Z</time>
      </trkpt>
      <trkpt lat="47.2813" lon="-2.35869">
        <ele>20.799999237061</ele>
        <time>2022-01-06T08:40:08.000Z</time>
      </trkpt>
      <trkpt lat="47.28136" lon="-2.35872">
        <ele>20.799999237061</ele>
        <time>2022-01-06T08:40:10.000Z</time>
      </trkpt>
      <trkpt lat="47.28145" lon="-2.35879">
        <ele>20.799999237061</ele>
        <time>2022-01-06T08:40:13.000Z</time>
      </trkpt>
      <trkpt lat="47.28167" lon="-2.35901">
        <ele>20.799999237061</ele>
        <time>2022-01-06T08:40:21.000Z</time>
      </trkpt>
      <trkpt lat="47.28177" lon="-2.35929">
        <ele>20.799999237061</ele>
        <time>2022-01-06T08:40:27.000Z</time>
      </trkpt>
      <trkpt lat="47.28181" lon="-2.35953">
        <ele>20.799999237061</ele>
        <time>2022-01-06T08:40:32.000Z</time>
      </trkpt>
      <trkpt lat="47.28185" lon="-2.35975">
        <ele>20.799999237061</ele>
        <time>2022-01-06T08:40:36.000Z</time>
      </trkpt>
      <trkpt lat="47.28187" lon="-2.3598">
        <ele>20.200000762939</ele>
        <time>2022-01-06T08:40:37.000Z</time>
      </trkpt>
      <trkpt lat="47.2819" lon="-2.35987">
        <ele>19.799999237061</ele>
        <time>2022-01-06T08:40:38.000Z</time>
      </trkpt>
      <trkpt lat="47.28192" lon="-2.35993">
        <ele>19.39999961853</ele>
        <time>2022-01-06T08:40:39.000Z</time>
      </trkpt>
      <trkpt lat="47.28195" lon="-2.35998">
        <ele>19</ele>
        <time>2022-01-06T08:40:40.000Z</time>
      </trkpt>
      <trkpt lat="47.28197" lon="-2.36003">
        <ele>18.60000038147</ele>
        <time>2022-01-06T08:40:41.000Z</time>
      </trkpt>
      <trkpt lat="47.28207" lon="-2.36019">
        <ele>18.60000038147</ele>
        <time>2022-01-06T08:40:45.000Z</time>
      </trkpt>
      <trkpt lat="47.2822" lon="-2.36028">
        <ele>18.60000038147</ele>
        <time>2022-01-06T08:40:50.000Z</time>
      </trkpt>
      <trkpt lat="47.2823" lon="-2.36022">
        <ele>18.60000038147</ele>
        <time>2022-01-06T08:40:54.000Z</time>
      </trkpt>
      <trkpt lat="47.28233" lon="-2.36021">
        <ele>18.60000038147</ele>
        <time>2022-01-06T08:40:55.000Z</time>
      </trkpt>
      <trkpt lat="47.28251" lon="-2.36019">
        <ele>18.60000038147</ele>
        <time>2022-01-06T08:41:00.000Z</time>
      </trkpt>
      <trkpt lat="47.28256" lon="-2.36028">
        <ele>19</ele>
        <time>2022-01-06T08:41:04.000Z</time>
      </trkpt>
      <trkpt lat="47.28255" lon="-2.3603">
        <ele>19.60000038147</ele>
        <time>2022-01-06T08:41:05.000Z</time>
      </trkpt>
      <trkpt lat="47.28254" lon="-2.36033">
        <ele>20</ele>
        <time>2022-01-06T08:41:06.000Z</time>
      </trkpt>
      <trkpt lat="47.28253" lon="-2.36036">
        <ele>20.39999961853</ele>
        <time>2022-01-06T08:41:07.000Z</time>
      </trkpt>
      <trkpt lat="47.28252" lon="-2.36039">
        <ele>20.799999237061</ele>
        <time>2022-01-06T08:41:08.000Z</time>
      </trkpt>
      <trkpt lat="47.28251" lon="-2.36046">
        <ele>20.799999237061</ele>
        <time>2022-01-06T08:41:10.000Z</time>
      </trkpt>
      <trkpt lat="47.2825" lon="-2.36067">
        <ele>21.200000762939</ele>
        <time>2022-01-06T08:41:16.000Z</time>
      </trkpt>
      <trkpt lat="47.2825" lon="-2.3607">
        <ele>21.60000038147</ele>
        <time>2022-01-06T08:41:17.000Z</time>
      </trkpt>
      <trkpt lat="47.28248" lon="-2.36073">
        <ele>22.60000038147</ele>
        <time>2022-01-06T08:41:18.000Z</time>
      </trkpt>
      <trkpt lat="47.28247" lon="-2.36076">
        <ele>23</ele>
        <time>2022-01-06T08:41:19.000Z</time>
      </trkpt>
      <trkpt lat="47.28245" lon="-2.36083">
        <ele>23</ele>
        <time>2022-01-06T08:41:21.000Z</time>
      </trkpt>
      <trkpt lat="47.28243" lon="-2.36104">
        <ele>23</ele>
        <time>2022-01-06T08:41:27.000Z</time>
      </trkpt>
      <trkpt lat="47.28254" lon="-2.36127">
        <ele>23</ele>
        <time>2022-01-06T08:41:32.000Z</time>
      </trkpt>
      <trkpt lat="47.28267" lon="-2.36153">
        <ele>23</ele>
        <time>2022-01-06T08:41:38.000Z</time>
      </trkpt>
      <trkpt lat="47.28273" lon="-2.36183">
        <ele>23</ele>
        <time>2022-01-06T08:41:44.000Z</time>
      </trkpt>
      <trkpt lat="47.28274" lon="-2.36206">
        <ele>22.60000038147</ele>
        <time>2022-01-06T08:41:49.000Z</time>
      </trkpt>
      <trkpt lat="47.28275" lon="-2.36211">
        <ele>22.200000762939</ele>
        <time>2022-01-06T08:41:50.000Z</time>
      </trkpt>
      <trkpt lat="47.28276" lon="-2.36215">
        <ele>21.60000038147</ele>
        <time>2022-01-06T08:41:51.000Z</time>
      </trkpt>
      <trkpt lat="47.28278" lon="-2.36218">
        <ele>21.200000762939</ele>
        <time>2022-01-06T08:41:52.000Z</time>
      </trkpt>
      <trkpt lat="47.28279" lon="-2.3622">
        <ele>20.799999237061</ele>
        <time>2022-01-06T08:41:53.000Z</time>
      </trkpt>
      <trkpt lat="47.28281" lon="-2.36221">
        <ele>20.799999237061</ele>
        <time>2022-01-06T08:41:54.000Z</time>
      </trkpt>
      <trkpt lat="47.28288" lon="-2.36222">
        <ele>20.799999237061</ele>
        <time>2022-01-06T08:41:59.000Z</time>
      </trkpt>
      <trkpt lat="47.28296" lon="-2.36218">
        <ele>20.799999237061</ele>
        <time>2022-01-06T08:42:03.000Z</time>
      </trkpt>
      <trkpt lat="47.28298" lon="-2.36217">
        <ele>20.799999237061</ele>
        <time>2022-01-06T08:42:04.000Z</time>
      </trkpt>
      <trkpt lat="47.28308" lon="-2.36213">
        <ele>21.200000762939</ele>
        <time>2022-01-06T08:42:08.000Z</time>
      </trkpt>
      <trkpt lat="47.2831" lon="-2.36211">
        <ele>21.60000038147</ele>
        <time>2022-01-06T08:42:09.000Z</time>
      </trkpt>
      <trkpt lat="47.28313" lon="-2.36209">
        <ele>22.200000762939</ele>
        <time>2022-01-06T08:42:10.000Z</time>
      </trkpt>
      <trkpt lat="47.28315" lon="-2.36207">
        <ele>22.60000038147</ele>
        <time>2022-01-06T08:42:11.000Z</time>
      </trkpt>
      <trkpt lat="47.28318" lon="-2.36205">
        <ele>23</ele>
        <time>2022-01-06T08:42:12.000Z</time>
      </trkpt>
      <trkpt lat="47.2832" lon="-2.36202">
        <ele>23</ele>
        <time>2022-01-06T08:42:13.000Z</time>
      </trkpt>
      <trkpt lat="47.28321" lon="-2.36199">
        <ele>23</ele>
        <time>2022-01-06T08:42:14.000Z</time>
      </trkpt>
      <trkpt lat="47.28334" lon="-2.36188">
        <ele>23.39999961853</ele>
        <time>2022-01-06T08:42:19.000Z</time>
      </trkpt>
      <trkpt lat="47.28335" lon="-2.36187">
        <ele>23.799999237061</ele>
        <time>2022-01-06T08:42:20.000Z</time>
      </trkpt>
      <trkpt lat="47.28337" lon="-2.36185">
        <ele>24.200000762939</ele>
        <time>2022-01-06T08:42:21.000Z</time>
      </trkpt>
      <trkpt lat="47.28339" lon="-2.36183">
        <ele>24.60000038147</ele>
        <time>2022-01-06T08:42:22.000Z</time>
      </trkpt>
      <trkpt lat="47.28341" lon="-2.36181">
        <ele>25</ele>
        <time>2022-01-06T08:42:23.000Z</time>
      </trkpt>
      <trkpt lat="47.28344" lon="-2.36178">
        <ele>25</ele>
        <time>2022-01-06T08:42:25.000Z</time>
      </trkpt>
      <trkpt lat="47.28346" lon="-2.36176">
        <ele>25.39999961853</ele>
        <time>2022-01-06T08:42:26.000Z</time>
      </trkpt>
      <trkpt lat="47.28347" lon="-2.36175">
        <ele>25.799999237061</ele>
        <time>2022-01-06T08:42:27.000Z</time>
      </trkpt>
      <trkpt lat="47.28348" lon="-2.36173">
        <ele>26.39999961853</ele>
        <time>2022-01-06T08:42:28.000Z</time>
      </trkpt>
      <trkpt lat="47.28349" lon="-2.36172">
        <ele>26.799999237061</ele>
        <time>2022-01-06T08:42:29.000Z</time>
      </trkpt>
      <trkpt lat="47.2835" lon="-2.3617">
        <ele>27.200000762939</ele>
        <time>2022-01-06T08:42:30.000Z</time>
      </trkpt>
      <trkpt lat="47.28352" lon="-2.36168">
        <ele>28</ele>
        <time>2022-01-06T08:42:32.000Z</time>
      </trkpt>
      <trkpt lat="47.28354" lon="-2.36166">
        <ele>28.39999961853</ele>
        <time>2022-01-06T08:42:33.000Z</time>
      </trkpt>
      <trkpt lat="47.28355" lon="-2.36165">
        <ele>29</ele>
        <time>2022-01-06T08:42:34.000Z</time>
      </trkpt>
      <trkpt lat="47.28357" lon="-2.36163">
        <ele>29.39999961853</ele>
        <time>2022-01-06T08:42:35.000Z</time>
      </trkpt>
      <trkpt lat="47.28359" lon="-2.36159">
        <ele>29.799999237061</ele>
        <time>2022-01-06T08:42:37.000Z</time>
      </trkpt>
      <trkpt lat="47.2836" lon="-2.36158">
        <ele>30.200000762939</ele>
        <time>2022-01-06T08:42:38.000Z</time>
      </trkpt>
      <trkpt lat="47.28361" lon="-2.36156">
        <ele>30.799999237061</ele>
        <time>2022-01-06T08:42:39.000Z</time>
      </trkpt>
      <trkpt lat="47.28361" lon="-2.36155">
        <ele>31.200000762939</ele>
        <time>2022-01-06T08:42:40.000Z</time>
      </trkpt>
      <trkpt lat="47.28362" lon="-2.36155">
        <ele>31.799999237061</ele>
        <time>2022-01-06T08:42:41.000Z</time>
      </trkpt>
      <trkpt lat="47.28366" lon="-2.36152">
        <ele>32.200000762939</ele>
        <time>2022-01-06T08:42:43.000Z</time>
      </trkpt>
      <trkpt lat="47.28367" lon="-2.36151">
        <ele>32.599998474121</ele>
        <time>2022-01-06T08:42:44.000Z</time>
      </trkpt>
      <trkpt lat="47.28368" lon="-2.36149">
        <ele>33</ele>
        <time>2022-01-06T08:42:45.000Z</time>
      </trkpt>
      <trkpt lat="47.2837" lon="-2.36147">
        <ele>33.599998474121</ele>
        <time>2022-01-06T08:42:46.000Z</time>
      </trkpt>
      <trkpt lat="47.2837" lon="-2.36145">
        <ele>34</ele>
        <time>2022-01-06T08:42:47.000Z</time>
      </trkpt>
      <trkpt lat="47.28378" lon="-2.36133">
        <ele>34</ele>
        <time>2022-01-06T08:42:52.000Z</time>
      </trkpt>
      <trkpt lat="47.28379" lon="-2.3613">
        <ele>34.400001525879</ele>
        <time>2022-01-06T08:42:53.000Z</time>
      </trkpt>
      <trkpt lat="47.28381" lon="-2.36128">
        <ele>34.799999237061</ele>
        <time>2022-01-06T08:42:54.000Z</time>
      </trkpt>
      <trkpt lat="47.28381" lon="-2.36126">
        <ele>35.200000762939</ele>
        <time>2022-01-06T08:42:55.000Z</time>
      </trkpt>
      <trkpt lat="47.28382" lon="-2.36124">
        <ele>35.799999237061</ele>
        <time>2022-01-06T08:42:56.000Z</time>
      </trkpt>
      <trkpt lat="47.28383" lon="-2.36123">
        <ele>36.200000762939</ele>
        <time>2022-01-06T08:42:57.000Z</time>
      </trkpt>
      <trkpt lat="47.28386" lon="-2.3612">
        <ele>36.200000762939</ele>
        <time>2022-01-06T08:42:59.000Z</time>
      </trkpt>
      <trkpt lat="47.2839" lon="-2.3612">
        <ele>36.200000762939</ele>
        <time>2022-01-06T08:43:01.000Z</time>
      </trkpt>
      <trkpt lat="47.28395" lon="-2.3612">
        <ele>36.200000762939</ele>
        <time>2022-01-06T08:43:04.000Z</time>
      </trkpt>
      <trkpt lat="47.28403" lon="-2.3612">
        <ele>36.200000762939</ele>
        <time>2022-01-06T08:43:08.000Z</time>
      </trkpt>
      <trkpt lat="47.28414" lon="-2.36114">
        <ele>36.200000762939</ele>
        <time>2022-01-06T08:43:13.000Z</time>
      </trkpt>
      <trkpt lat="47.28416" lon="-2.3611">
        <ele>36.200000762939</ele>
        <time>2022-01-06T08:43:15.000Z</time>
      </trkpt>
      <trkpt lat="47.28416" lon="-2.36107">
        <ele>36.200000762939</ele>
        <time>2022-01-06T08:43:17.000Z</time>
      </trkpt>
      <trkpt lat="47.28417" lon="-2.36103">
        <ele>36.200000762939</ele>
        <time>2022-01-06T08:43:20.000Z</time>
      </trkpt>
      <trkpt lat="47.28418" lon="-2.361">
        <ele>36.200000762939</ele>
        <time>2022-01-06T08:43:22.000Z</time>
      </trkpt>
      <trkpt lat="47.28429" lon="-2.3609">
        <ele>36.200000762939</ele>
        <time>2022-01-06T08:43:28.000Z</time>
      </trkpt>
      <trkpt lat="47.28432" lon="-2.3609">
        <ele>36.200000762939</ele>
        <time>2022-01-06T08:43:29.000Z</time>
      </trkpt>
      <trkpt lat="47.28435" lon="-2.36098">
        <ele>36.200000762939</ele>
        <time>2022-01-06T08:43:32.000Z</time>
      </trkpt>
      <trkpt lat="47.28439" lon="-2.3612">
        <ele>36.200000762939</ele>
        <time>2022-01-06T08:43:36.000Z</time>
      </trkpt>
      <trkpt lat="47.28443" lon="-2.36141">
        <ele>36.200000762939</ele>
        <time>2022-01-06T08:43:40.000Z</time>
      </trkpt>
      <trkpt lat="47.28448" lon="-2.36159">
        <ele>35.599998474121</ele>
        <time>2022-01-06T08:43:44.000Z</time>
      </trkpt>
      <trkpt lat="47.28449" lon="-2.36164">
        <ele>35.200000762939</ele>
        <time>2022-01-06T08:43:45.000Z</time>
      </trkpt>
      <trkpt lat="47.28449" lon="-2.36168">
        <ele>34.400001525879</ele>
        <time>2022-01-06T08:43:46.000Z</time>
      </trkpt>
      <trkpt lat="47.28449" lon="-2.36172">
        <ele>34</ele>
        <time>2022-01-06T08:43:47.000Z</time>
      </trkpt>
      <trkpt lat="47.28448" lon="-2.3618">
        <ele>33.400001525879</ele>
        <time>2022-01-06T08:43:49.000Z</time>
      </trkpt>
      <trkpt lat="47.28449" lon="-2.36183">
        <ele>33</ele>
        <time>2022-01-06T08:43:50.000Z</time>
      </trkpt>
      <trkpt lat="47.2845" lon="-2.36186">
        <ele>32.599998474121</ele>
        <time>2022-01-06T08:43:51.000Z</time>
      </trkpt>
      <trkpt lat="47.28451" lon="-2.36188">
        <ele>32.200000762939</ele>
        <time>2022-01-06T08:43:52.000Z</time>
      </trkpt>
      <trkpt lat="47.28452" lon="-2.36189">
        <ele>31.799999237061</ele>
        <time>2022-01-06T08:43:53.000Z</time>
      </trkpt>
      <trkpt lat="47.28454" lon="-2.36191">
        <ele>31.799999237061</ele>
        <time>2022-01-06T08:43:54.000Z</time>
      </trkpt>
      <trkpt lat="47.28458" lon="-2.36194">
        <ele>31.799999237061</ele>
        <time>2022-01-06T08:43:57.000Z</time>
      </trkpt>
      <trkpt lat="47.28461" lon="-2.36192">
        <ele>31.799999237061</ele>
        <time>2022-01-06T08:43:59.000Z</time>
      </trkpt>
      <trkpt lat="47.28477" lon="-2.36175">
        <ele>31.799999237061</ele>
        <time>2022-01-06T08:44:06.000Z</time>
      </trkpt>
      <trkpt lat="47.28494" lon="-2.36155">
        <ele>31.799999237061</ele>
        <time>2022-01-06T08:44:14.000Z</time>
      </trkpt>
      <trkpt lat="47.28502" lon="-2.3615">
        <ele>31.799999237061</ele>
        <time>2022-01-06T08:44:19.000Z</time>
      </trkpt>
      <trkpt lat="47.28503" lon="-2.3615">
        <ele>32.200000762939</ele>
        <time>2022-01-06T08:44:20.000Z</time>
      </trkpt>
      <trkpt lat="47.28504" lon="-2.36151">
        <ele>32.599998474121</ele>
        <time>2022-01-06T08:44:21.000Z</time>
      </trkpt>
      <trkpt lat="47.28505" lon="-2.36152">
        <ele>33</ele>
        <time>2022-01-06T08:44:22.000Z</time>
      </trkpt>
      <trkpt lat="47.28507" lon="-2.36152">
        <ele>33.599998474121</ele>
        <time>2022-01-06T08:44:23.000Z</time>
      </trkpt>
      <trkpt lat="47.28508" lon="-2.36154">
        <ele>34</ele>
        <time>2022-01-06T08:44:24.000Z</time>
      </trkpt>
      <trkpt lat="47.28512" lon="-2.36155">
        <ele>34</ele>
        <time>2022-01-06T08:44:26.000Z</time>
      </trkpt>
      <trkpt lat="47.28522" lon="-2.36157">
        <ele>34.400001525879</ele>
        <time>2022-01-06T08:44:32.000Z</time>
      </trkpt>
      <trkpt lat="47.28524" lon="-2.36158">
        <ele>34.799999237061</ele>
        <time>2022-01-06T08:44:33.000Z</time>
      </trkpt>
      <trkpt lat="47.28526" lon="-2.36158">
        <ele>35.200000762939</ele>
        <time>2022-01-06T08:44:34.000Z</time>
      </trkpt>
      <trkpt lat="47.28527" lon="-2.36158">
        <ele>35.599998474121</ele>
        <time>2022-01-06T08:44:35.000Z</time>
      </trkpt>
      <trkpt lat="47.2853" lon="-2.36158">
        <ele>36</ele>
        <time>2022-01-06T08:44:36.000Z</time>
      </trkpt>
      <trkpt lat="47.28534" lon="-2.36158">
        <ele>36</ele>
        <time>2022-01-06T08:44:38.000Z</time>
      </trkpt>
      <trkpt lat="47.28538" lon="-2.36159">
        <ele>36.400001525879</ele>
        <time>2022-01-06T08:44:40.000Z</time>
      </trkpt>
      <trkpt lat="47.2854" lon="-2.3616">
        <ele>36.799999237061</ele>
        <time>2022-01-06T08:44:41.000Z</time>
      </trkpt>
      <trkpt lat="47.28541" lon="-2.36161">
        <ele>37.200000762939</ele>
        <time>2022-01-06T08:44:42.000Z</time>
      </trkpt>
      <trkpt lat="47.28542" lon="-2.36162">
        <ele>37.599998474121</ele>
        <time>2022-01-06T08:44:43.000Z</time>
      </trkpt>
      <trkpt lat="47.28543" lon="-2.36163">
        <ele>38</ele>
        <time>2022-01-06T08:44:44.000Z</time>
      </trkpt>
      <trkpt lat="47.28545" lon="-2.36164">
        <ele>38</ele>
        <time>2022-01-06T08:44:45.000Z</time>
      </trkpt>
      <trkpt lat="47.28555" lon="-2.3618">
        <ele>38</ele>
        <time>2022-01-06T08:44:51.000Z</time>
      </trkpt>
      <trkpt lat="47.28555" lon="-2.36208">
        <ele>38</ele>
        <time>2022-01-06T08:44:56.000Z</time>
      </trkpt>
      <trkpt lat="47.28556" lon="-2.36246">
        <ele>38</ele>
        <time>2022-01-06T08:45:02.000Z</time>
      </trkpt>
      <trkpt lat="47.28557" lon="-2.36277">
        <ele>38</ele>
        <time>2022-01-06T08:45:08.000Z</time>
      </trkpt>
      <trkpt lat="47.28552" lon="-2.36293">
        <ele>38</ele>
        <time>2022-01-06T08:45:12.000Z</time>
      </trkpt>
      <trkpt lat="47.28546" lon="-2.3631">
        <ele>38</ele>
        <time>2022-01-06T08:45:17.000Z</time>
      </trkpt>
      <trkpt lat="47.28541" lon="-2.36332">
        <ele>38</ele>
        <time>2022-01-06T08:45:22.000Z</time>
      </trkpt>
      <trkpt lat="47.2854" lon="-2.36341">
        <ele>38</ele>
        <time>2022-01-06T08:45:25.000Z</time>
      </trkpt>
      <trkpt lat="47.28543" lon="-2.36345">
        <ele>38</ele>
        <time>2022-01-06T08:45:27.000Z</time>
      </trkpt>
      <trkpt lat="47.28546" lon="-2.36348">
        <ele>38.400001525879</ele>
        <time>2022-01-06T08:45:30.000Z</time>
      </trkpt>
      <trkpt lat="47.28546" lon="-2.36348">
        <ele>39</ele>
        <time>2022-01-06T08:45:31.000Z</time>
      </trkpt>
      <trkpt lat="47.28548" lon="-2.36348">
        <ele>39.400001525879</ele>
        <time>2022-01-06T08:45:32.000Z</time>
      </trkpt>
      <trkpt lat="47.2855" lon="-2.36348">
        <ele>39.799999237061</ele>
        <time>2022-01-06T08:45:33.000Z</time>
      </trkpt>
      <trkpt lat="47.28551" lon="-2.36347">
        <ele>40.200000762939</ele>
        <time>2022-01-06T08:45:34.000Z</time>
      </trkpt>
      <trkpt lat="47.28554" lon="-2.36344">
        <ele>40.200000762939</ele>
        <time>2022-01-06T08:45:37.000Z</time>
      </trkpt>
      <trkpt lat="47.28555" lon="-2.36343">
        <ele>40.599998474121</ele>
        <time>2022-01-06T08:45:38.000Z</time>
      </trkpt>
      <trkpt lat="47.28556" lon="-2.36341">
        <ele>41</ele>
        <time>2022-01-06T08:45:39.000Z</time>
      </trkpt>
      <trkpt lat="47.28556" lon="-2.3634">
        <ele>41.400001525879</ele>
        <time>2022-01-06T08:45:40.000Z</time>
      </trkpt>
      <trkpt lat="47.28556" lon="-2.36338">
        <ele>41.799999237061</ele>
        <time>2022-01-06T08:45:41.000Z</time>
      </trkpt>
      <trkpt lat="47.28556" lon="-2.36336">
        <ele>42.400001525879</ele>
        <time>2022-01-06T08:45:42.000Z</time>
      </trkpt>
      <trkpt lat="47.28556" lon="-2.36332">
        <ele>42.400001525879</ele>
        <time>2022-01-06T08:45:44.000Z</time>
      </trkpt>
      <trkpt lat="47.28557" lon="-2.36329">
        <ele>42.400001525879</ele>
        <time>2022-01-06T08:45:46.000Z</time>
      </trkpt>
      <trkpt lat="47.28559" lon="-2.36323">
        <ele>42.799999237061</ele>
        <time>2022-01-06T08:45:49.000Z</time>
      </trkpt>
      <trkpt lat="47.2856" lon="-2.36321">
        <ele>43.599998474121</ele>
        <time>2022-01-06T08:45:50.000Z</time>
      </trkpt>
      <trkpt lat="47.28561" lon="-2.3632">
        <ele>44</ele>
        <time>2022-01-06T08:45:51.000Z</time>
      </trkpt>
      <trkpt lat="47.28562" lon="-2.36317">
        <ele>44.400001525879</ele>
        <time>2022-01-06T08:45:52.000Z</time>
      </trkpt>
      <trkpt lat="47.28567" lon="-2.36307">
        <ele>44.400001525879</ele>
        <time>2022-01-06T08:45:56.000Z</time>
      </trkpt>
      <trkpt lat="47.28569" lon="-2.36299">
        <ele>44.400001525879</ele>
        <time>2022-01-06T08:45:59.000Z</time>
      </trkpt>
      <trkpt lat="47.2857" lon="-2.36289">
        <ele>44.400001525879</ele>
        <time>2022-01-06T08:46:01.000Z</time>
      </trkpt>
      <trkpt lat="47.28578" lon="-2.36261">
        <ele>44.400001525879</ele>
        <time>2022-01-06T08:46:08.000Z</time>
      </trkpt>
      <trkpt lat="47.28588" lon="-2.36236">
        <ele>44.400001525879</ele>
        <time>2022-01-06T08:46:13.000Z</time>
      </trkpt>
      <trkpt lat="47.28591" lon="-2.36223">
        <ele>44.400001525879</ele>
        <time>2022-01-06T08:46:15.000Z</time>
      </trkpt>
      <trkpt lat="47.28594" lon="-2.36202">
        <ele>44.400001525879</ele>
        <time>2022-01-06T08:46:18.000Z</time>
      </trkpt>
      <trkpt lat="47.28601" lon="-2.36175">
        <ele>44.400001525879</ele>
        <time>2022-01-06T08:46:23.000Z</time>
      </trkpt>
      <trkpt lat="47.28603" lon="-2.36169">
        <ele>44.400001525879</ele>
        <time>2022-01-06T08:46:26.000Z</time>
      </trkpt>
      <trkpt lat="47.28607" lon="-2.36158">
        <ele>44.400001525879</ele>
        <time>2022-01-06T08:46:33.000Z</time>
      </trkpt>
      <trkpt lat="47.28607" lon="-2.36156">
        <ele>44.400001525879</ele>
        <time>2022-01-06T08:46:34.000Z</time>
      </trkpt>
      <trkpt lat="47.28608" lon="-2.36152">
        <ele>44.400001525879</ele>
        <time>2022-01-06T08:46:37.000Z</time>
      </trkpt>
      <trkpt lat="47.28609" lon="-2.36148">
        <ele>44.400001525879</ele>
        <time>2022-01-06T08:47:03.000Z</time>
      </trkpt>
      <trkpt lat="47.2861" lon="-2.36145">
        <ele>44.400001525879</ele>
        <time>2022-01-06T08:47:05.000Z</time>
      </trkpt>
      <trkpt lat="47.28612" lon="-2.36143">
        <ele>44.400001525879</ele>
        <time>2022-01-06T08:47:07.000Z</time>
      </trkpt>
      <trkpt lat="47.28617" lon="-2.36138">
        <ele>44.400001525879</ele>
        <time>2022-01-06T08:47:10.000Z</time>
      </trkpt>
      <trkpt lat="47.28628" lon="-2.3613">
        <ele>44.400001525879</ele>
        <time>2022-01-06T08:47:16.000Z</time>
      </trkpt>
      <trkpt lat="47.28631" lon="-2.36129">
        <ele>44.400001525879</ele>
        <time>2022-01-06T08:47:18.000Z</time>
      </trkpt>
      <trkpt lat="47.28633" lon="-2.36123">
        <ele>44.400001525879</ele>
        <time>2022-01-06T08:47:21.000Z</time>
      </trkpt>
      <trkpt lat="47.28635" lon="-2.36121">
        <ele>43.799999237061</ele>
        <time>2022-01-06T08:47:22.000Z</time>
      </trkpt>
      <trkpt lat="47.28636" lon="-2.36119">
        <ele>43.400001525879</ele>
        <time>2022-01-06T08:47:23.000Z</time>
      </trkpt>
      <trkpt lat="47.28637" lon="-2.36116">
        <ele>42.799999237061</ele>
        <time>2022-01-06T08:47:24.000Z</time>
      </trkpt>
      <trkpt lat="47.28637" lon="-2.36113">
        <ele>42.400001525879</ele>
        <time>2022-01-06T08:47:25.000Z</time>
      </trkpt>
      <trkpt lat="47.28638" lon="-2.36111">
        <ele>42</ele>
        <time>2022-01-06T08:47:26.000Z</time>
      </trkpt>
      <trkpt lat="47.2864" lon="-2.36108">
        <ele>41.400001525879</ele>
        <time>2022-01-06T08:47:27.000Z</time>
      </trkpt>
      <trkpt lat="47.28641" lon="-2.36105">
        <ele>41</ele>
        <time>2022-01-06T08:47:28.000Z</time>
      </trkpt>
      <trkpt lat="47.28641" lon="-2.36101">
        <ele>39.799999237061</ele>
        <time>2022-01-06T08:47:29.000Z</time>
      </trkpt>
      <trkpt lat="47.28642" lon="-2.36097">
        <ele>39.200000762939</ele>
        <time>2022-01-06T08:47:30.000Z</time>
      </trkpt>
      <trkpt lat="47.28642" lon="-2.36094">
        <ele>38.599998474121</ele>
        <time>2022-01-06T08:47:31.000Z</time>
      </trkpt>
      <trkpt lat="47.28642" lon="-2.3609">
        <ele>38</ele>
        <time>2022-01-06T08:47:32.000Z</time>
      </trkpt>
      <trkpt lat="47.28643" lon="-2.36088">
        <ele>37.200000762939</ele>
        <time>2022-01-06T08:47:33.000Z</time>
      </trkpt>
      <trkpt lat="47.28643" lon="-2.36087">
        <ele>36.599998474121</ele>
        <time>2022-01-06T08:47:34.000Z</time>
      </trkpt>
      <trkpt lat="47.28644" lon="-2.36085">
        <ele>35.799999237061</ele>
        <time>2022-01-06T08:47:35.000Z</time>
      </trkpt>
      <trkpt lat="47.28645" lon="-2.36085">
        <ele>35.200000762939</ele>
        <time>2022-01-06T08:47:36.000Z</time>
      </trkpt>
      <trkpt lat="47.28647" lon="-2.36089">
        <ele>35.200000762939</ele>
        <time>2022-01-06T08:47:38.000Z</time>
      </trkpt>
      <trkpt lat="47.28655" lon="-2.36111">
        <ele>35.200000762939</ele>
        <time>2022-01-06T08:47:43.000Z</time>
      </trkpt>
      <trkpt lat="47.2867" lon="-2.36152">
        <ele>35.200000762939</ele>
        <time>2022-01-06T08:47:50.000Z</time>
      </trkpt>
      <trkpt lat="47.28677" lon="-2.36164">
        <ele>35.200000762939</ele>
        <time>2022-01-06T08:47:54.000Z</time>
      </trkpt>
      <trkpt lat="47.28684" lon="-2.36174">
        <ele>35.200000762939</ele>
        <time>2022-01-06T08:48:00.000Z</time>
      </trkpt>
      <trkpt lat="47.28696" lon="-2.36199">
        <ele>35.200000762939</ele>
        <time>2022-01-06T08:48:05.000Z</time>
      </trkpt>
      <trkpt lat="47.28702" lon="-2.36222">
        <ele>35.200000762939</ele>
        <time>2022-01-06T08:48:10.000Z</time>
      </trkpt>
      <trkpt lat="47.28716" lon="-2.36242">
        <ele>34.799999237061</ele>
        <time>2022-01-06T08:48:16.000Z</time>
      </trkpt>
      <trkpt lat="47.2872" lon="-2.36243">
        <ele>34.400001525879</ele>
        <time>2022-01-06T08:48:17.000Z</time>
      </trkpt>
      <trkpt lat="47.28722" lon="-2.36245">
        <ele>33.599998474121</ele>
        <time>2022-01-06T08:48:18.000Z</time>
      </trkpt>
      <trkpt lat="47.28726" lon="-2.36246">
        <ele>33.200000762939</ele>
        <time>2022-01-06T08:48:19.000Z</time>
      </trkpt>
      <trkpt lat="47.28732" lon="-2.36249">
        <ele>33.200000762939</ele>
        <time>2022-01-06T08:48:21.000Z</time>
      </trkpt>
      <trkpt lat="47.28742" lon="-2.3626">
        <ele>33.200000762939</ele>
        <time>2022-01-06T08:48:26.000Z</time>
      </trkpt>
      <trkpt lat="47.2875" lon="-2.36271">
        <ele>33.200000762939</ele>
        <time>2022-01-06T08:48:31.000Z</time>
      </trkpt>
      <trkpt lat="47.28753" lon="-2.36273">
        <ele>33.200000762939</ele>
        <time>2022-01-06T08:48:32.000Z</time>
      </trkpt>
      <trkpt lat="47.28754" lon="-2.36275">
        <ele>33.599998474121</ele>
        <time>2022-01-06T08:48:33.000Z</time>
      </trkpt>
      <trkpt lat="47.28755" lon="-2.36277">
        <ele>34</ele>
        <time>2022-01-06T08:48:34.000Z</time>
      </trkpt>
      <trkpt lat="47.28755" lon="-2.3628">
        <ele>34.599998474121</ele>
        <time>2022-01-06T08:48:35.000Z</time>
      </trkpt>
      <trkpt lat="47.28757" lon="-2.36283">
        <ele>35</ele>
        <time>2022-01-06T08:48:36.000Z</time>
      </trkpt>
      <trkpt lat="47.28758" lon="-2.36286">
        <ele>35.400001525879</ele>
        <time>2022-01-06T08:48:37.000Z</time>
      </trkpt>
      <trkpt lat="47.28758" lon="-2.3629">
        <ele>35.400001525879</ele>
        <time>2022-01-06T08:48:39.000Z</time>
      </trkpt>
      <trkpt lat="47.28759" lon="-2.36293">
        <ele>35.400001525879</ele>
        <time>2022-01-06T08:48:41.000Z</time>
      </trkpt>
      <trkpt lat="47.28758" lon="-2.36309">
        <ele>37.599998474121</ele>
        <time>2022-01-06T08:48:48.000Z</time>
      </trkpt>
      <trkpt lat="47.28758" lon="-2.36313">
        <ele>37.599998474121</ele>
        <time>2022-01-06T08:48:49.000Z</time>
      </trkpt>
      <trkpt lat="47.28758" lon="-2.3632">
        <ele>38</ele>
        <time>2022-01-06T08:48:51.000Z</time>
      </trkpt>
      <trkpt lat="47.28758" lon="-2.36324">
        <ele>38.400001525879</ele>
        <time>2022-01-06T08:48:52.000Z</time>
      </trkpt>
      <trkpt lat="47.28757" lon="-2.36329">
        <ele>38.799999237061</ele>
        <time>2022-01-06T08:48:53.000Z</time>
      </trkpt>
      <trkpt lat="47.28757" lon="-2.36333">
        <ele>39.200000762939</ele>
        <time>2022-01-06T08:48:54.000Z</time>
      </trkpt>
      <trkpt lat="47.28756" lon="-2.36338">
        <ele>39.599998474121</ele>
        <time>2022-01-06T08:48:55.000Z</time>
      </trkpt>
      <trkpt lat="47.28748" lon="-2.3636">
        <ele>39.599998474121</ele>
        <time>2022-01-06T08:49:00.000Z</time>
      </trkpt>
      <trkpt lat="47.28743" lon="-2.36384">
        <ele>39.599998474121</ele>
        <time>2022-01-06T08:49:05.000Z</time>
      </trkpt>
      <trkpt lat="47.28745" lon="-2.36403">
        <ele>39.200000762939</ele>
        <time>2022-01-06T08:49:08.000Z</time>
      </trkpt>
      <trkpt lat="47.28746" lon="-2.36407">
        <ele>38.799999237061</ele>
        <time>2022-01-06T08:49:09.000Z</time>
      </trkpt>
      <trkpt lat="47.28747" lon="-2.36409">
        <ele>38.400001525879</ele>
        <time>2022-01-06T08:49:10.000Z</time>
      </trkpt>
      <trkpt lat="47.28748" lon="-2.36411">
        <ele>38</ele>
        <time>2022-01-06T08:49:11.000Z</time>
      </trkpt>
      <trkpt lat="47.28749" lon="-2.36413">
        <ele>37.400001525879</ele>
        <time>2022-01-06T08:49:12.000Z</time>
      </trkpt>
      <trkpt lat="47.2875" lon="-2.36414">
        <ele>37.400001525879</ele>
        <time>2022-01-06T08:49:13.000Z</time>
      </trkpt>
      <trkpt lat="47.28753" lon="-2.36422">
        <ele>37</ele>
        <time>2022-01-06T08:49:17.000Z</time>
      </trkpt>
      <trkpt lat="47.28753" lon="-2.36424">
        <ele>36.599998474121</ele>
        <time>2022-01-06T08:49:18.000Z</time>
      </trkpt>
      <trkpt lat="47.28753" lon="-2.36426">
        <ele>36.200000762939</ele>
        <time>2022-01-06T08:49:19.000Z</time>
      </trkpt>
      <trkpt lat="47.28756" lon="-2.36441">
        <ele>35.400001525879</ele>
        <time>2022-01-06T08:49:30.000Z</time>
      </trkpt>
      <trkpt lat="47.28762" lon="-2.3646">
        <ele>35</ele>
        <time>2022-01-06T08:49:34.000Z</time>
      </trkpt>
      <trkpt lat="47.28765" lon="-2.36464">
        <ele>34.599998474121</ele>
        <time>2022-01-06T08:49:35.000Z</time>
      </trkpt>
      <trkpt lat="47.28766" lon="-2.36465">
        <ele>34.200000762939</ele>
        <time>2022-01-06T08:49:36.000Z</time>
      </trkpt>
      <trkpt lat="47.28768" lon="-2.36464">
        <ele>33.799999237061</ele>
        <time>2022-01-06T08:49:37.000Z</time>
      </trkpt>
      <trkpt lat="47.28769" lon="-2.36462">
        <ele>33.400001525879</ele>
        <time>2022-01-06T08:49:38.000Z</time>
      </trkpt>
      <trkpt lat="47.28774" lon="-2.36454">
        <ele>33.400001525879</ele>
        <time>2022-01-06T08:49:41.000Z</time>
      </trkpt>
      <trkpt lat="47.28779" lon="-2.36448">
        <ele>33.400001525879</ele>
        <time>2022-01-06T08:49:44.000Z</time>
      </trkpt>
      <trkpt lat="47.28782" lon="-2.36447">
        <ele>33.400001525879</ele>
        <time>2022-01-06T08:49:45.000Z</time>
      </trkpt>
      <trkpt lat="47.28795" lon="-2.36433">
        <ele>33.400001525879</ele>
        <time>2022-01-06T08:49:51.000Z</time>
      </trkpt>
      <trkpt lat="47.28807" lon="-2.3642">
        <ele>33.400001525879</ele>
        <time>2022-01-06T08:49:56.000Z</time>
      </trkpt>
      <trkpt lat="47.28816" lon="-2.36416">
        <ele>33.400001525879</ele>
        <time>2022-01-06T08:50:01.000Z</time>
      </trkpt>
      <trkpt lat="47.28819" lon="-2.36416">
        <ele>33.799999237061</ele>
        <time>2022-01-06T08:50:02.000Z</time>
      </trkpt>
      <trkpt lat="47.28821" lon="-2.36414">
        <ele>34.200000762939</ele>
        <time>2022-01-06T08:50:03.000Z</time>
      </trkpt>
      <trkpt lat="47.28823" lon="-2.36412">
        <ele>34.599998474121</ele>
        <time>2022-01-06T08:50:04.000Z</time>
      </trkpt>
      <trkpt lat="47.28825" lon="-2.3641">
        <ele>35</ele>
        <time>2022-01-06T08:50:05.000Z</time>
      </trkpt>
      <trkpt lat="47.28827" lon="-2.36409">
        <ele>35.400001525879</ele>
        <time>2022-01-06T08:50:06.000Z</time>
      </trkpt>
      <trkpt lat="47.2883" lon="-2.36406">
        <ele>35.400001525879</ele>
        <time>2022-01-06T08:50:08.000Z</time>
      </trkpt>
      <trkpt lat="47.28835" lon="-2.36409">
        <ele>35.400001525879</ele>
        <time>2022-01-06T08:50:11.000Z</time>
      </trkpt>
      <trkpt lat="47.28842" lon="-2.36414">
        <ele>35.400001525879</ele>
        <time>2022-01-06T08:50:13.000Z</time>
      </trkpt>
      <trkpt lat="47.28849" lon="-2.36427">
        <ele>35.400001525879</ele>
        <time>2022-01-06T08:50:16.000Z</time>
      </trkpt>
      <trkpt lat="47.28856" lon="-2.36442">
        <ele>35</ele>
        <time>2022-01-06T08:50:18.000Z</time>
      </trkpt>
      <trkpt lat="47.28859" lon="-2.3645">
        <ele>34.599998474121</ele>
        <time>2022-01-06T08:50:19.000Z</time>
      </trkpt>
      <trkpt lat="47.28861" lon="-2.3646">
        <ele>34.200000762939</ele>
        <time>2022-01-06T08:50:20.000Z</time>
      </trkpt>
      <trkpt lat="47.28863" lon="-2.3647">
        <ele>33.799999237061</ele>
        <time>2022-01-06T08:50:21.000Z</time>
      </trkpt>
      <trkpt lat="47.28864" lon="-2.36479">
        <ele>32.799999237061</ele>
        <time>2022-01-06T08:50:22.000Z</time>
      </trkpt>
      <trkpt lat="47.28866" lon="-2.36487">
        <ele>32.200000762939</ele>
        <time>2022-01-06T08:50:23.000Z</time>
      </trkpt>
      <trkpt lat="47.28867" lon="-2.36494">
        <ele>31.799999237061</ele>
        <time>2022-01-06T08:50:24.000Z</time>
      </trkpt>
      <trkpt lat="47.2887" lon="-2.36502">
        <ele>31.200000762939</ele>
        <time>2022-01-06T08:50:25.000Z</time>
      </trkpt>
      <trkpt lat="47.28873" lon="-2.3651">
        <ele>30.799999237061</ele>
        <time>2022-01-06T08:50:26.000Z</time>
      </trkpt>
      <trkpt lat="47.28876" lon="-2.36519">
        <ele>30.39999961853</ele>
        <time>2022-01-06T08:50:27.000Z</time>
      </trkpt>
      <trkpt lat="47.28877" lon="-2.36528">
        <ele>30</ele>
        <time>2022-01-06T08:50:28.000Z</time>
      </trkpt>
      <trkpt lat="47.28877" lon="-2.36538">
        <ele>29.39999961853</ele>
        <time>2022-01-06T08:50:29.000Z</time>
      </trkpt>
      <trkpt lat="47.28875" lon="-2.36548">
        <ele>28.799999237061</ele>
        <time>2022-01-06T08:50:30.000Z</time>
      </trkpt>
      <trkpt lat="47.28872" lon="-2.36559">
        <ele>28.200000762939</ele>
        <time>2022-01-06T08:50:31.000Z</time>
      </trkpt>
      <trkpt lat="47.28868" lon="-2.36569">
        <ele>27.60000038147</ele>
        <time>2022-01-06T08:50:32.000Z</time>
      </trkpt>
      <trkpt lat="47.28865" lon="-2.36576">
        <ele>27</ele>
        <time>2022-01-06T08:50:33.000Z</time>
      </trkpt>
      <trkpt lat="47.28862" lon="-2.36583">
        <ele>26.39999961853</ele>
        <time>2022-01-06T08:50:34.000Z</time>
      </trkpt>
      <trkpt lat="47.28859" lon="-2.36589">
        <ele>26.39999961853</ele>
        <time>2022-01-06T08:50:35.000Z</time>
      </trkpt>
      <trkpt lat="47.28845" lon="-2.36615">
        <ele>26.39999961853</ele>
        <time>2022-01-06T08:50:40.000Z</time>
      </trkpt>
      <trkpt lat="47.2883" lon="-2.36637">
        <ele>26.39999961853</ele>
        <time>2022-01-06T08:50:46.000Z</time>
      </trkpt>
      <trkpt lat="47.28827" lon="-2.36633">
        <ele>26.39999961853</ele>
        <time>2022-01-06T08:50:49.000Z</time>
      </trkpt>
      <trkpt lat="47.28825" lon="-2.36619">
        <ele>26.39999961853</ele>
        <time>2022-01-06T08:50:53.000Z</time>
      </trkpt>
      <trkpt lat="47.28817" lon="-2.36602">
        <ele>26.39999961853</ele>
        <time>2022-01-06T08:50:58.000Z</time>
      </trkpt>
      <trkpt lat="47.28813" lon="-2.36595">
        <ele>27</ele>
        <time>2022-01-06T08:51:01.000Z</time>
      </trkpt>
      <trkpt lat="47.28811" lon="-2.36592">
        <ele>27.39999961853</ele>
        <time>2022-01-06T08:51:02.000Z</time>
      </trkpt>
      <trkpt lat="47.2881" lon="-2.36588">
        <ele>27.799999237061</ele>
        <time>2022-01-06T08:51:03.000Z</time>
      </trkpt>
      <trkpt lat="47.28808" lon="-2.36585">
        <ele>28.200000762939</ele>
        <time>2022-01-06T08:51:04.000Z</time>
      </trkpt>
      <trkpt lat="47.28806" lon="-2.36582">
        <ele>28.60000038147</ele>
        <time>2022-01-06T08:51:05.000Z</time>
      </trkpt>
      <trkpt lat="47.28803" lon="-2.36579">
        <ele>28.60000038147</ele>
        <time>2022-01-06T08:51:07.000Z</time>
      </trkpt>
      <trkpt lat="47.288" lon="-2.36582">
        <ele>28.60000038147</ele>
        <time>2022-01-06T08:51:09.000Z</time>
      </trkpt>
      <trkpt lat="47.28793" lon="-2.36591">
        <ele>28.60000038147</ele>
        <time>2022-01-06T08:51:13.000Z</time>
      </trkpt>
      <trkpt lat="47.2879" lon="-2.36597">
        <ele>28.60000038147</ele>
        <time>2022-01-06T08:51:15.000Z</time>
      </trkpt>
      <trkpt lat="47.28782" lon="-2.36612">
        <ele>28.60000038147</ele>
        <time>2022-01-06T08:51:19.000Z</time>
      </trkpt>
      <trkpt lat="47.28767" lon="-2.36635">
        <ele>28.60000038147</ele>
        <time>2022-01-06T08:51:25.000Z</time>
      </trkpt>
      <trkpt lat="47.28752" lon="-2.36664">
        <ele>28.60000038147</ele>
        <time>2022-01-06T08:51:30.000Z</time>
      </trkpt>
      <trkpt lat="47.28748" lon="-2.3667">
        <ele>28.60000038147</ele>
        <time>2022-01-06T08:51:31.000Z</time>
      </trkpt>
      <trkpt lat="47.2874" lon="-2.36685">
        <ele>28.200000762939</ele>
        <time>2022-01-06T08:51:33.000Z</time>
      </trkpt>
      <trkpt lat="47.28736" lon="-2.36692">
        <ele>27.799999237061</ele>
        <time>2022-01-06T08:51:34.000Z</time>
      </trkpt>
      <trkpt lat="47.28732" lon="-2.36701">
        <ele>27.39999961853</ele>
        <time>2022-01-06T08:51:35.000Z</time>
      </trkpt>
      <trkpt lat="47.28727" lon="-2.3671">
        <ele>26.60000038147</ele>
        <time>2022-01-06T08:51:36.000Z</time>
      </trkpt>
      <trkpt lat="47.28718" lon="-2.36726">
        <ele>26.200000762939</ele>
        <time>2022-01-06T08:51:38.000Z</time>
      </trkpt>
      <trkpt lat="47.28713" lon="-2.36732">
        <ele>25.799999237061</ele>
        <time>2022-01-06T08:51:39.000Z</time>
      </trkpt>
      <trkpt lat="47.2871" lon="-2.36736">
        <ele>25.39999961853</ele>
        <time>2022-01-06T08:51:40.000Z</time>
      </trkpt>
      <trkpt lat="47.28707" lon="-2.36742">
        <ele>25</ele>
        <time>2022-01-06T08:51:41.000Z</time>
      </trkpt>
      <trkpt lat="47.28706" lon="-2.36748">
        <ele>24.60000038147</ele>
        <time>2022-01-06T08:51:42.000Z</time>
      </trkpt>
      <trkpt lat="47.28703" lon="-2.36769">
        <ele>24.60000038147</ele>
        <time>2022-01-06T08:51:45.000Z</time>
      </trkpt>
      <trkpt lat="47.28703" lon="-2.36777">
        <ele>24</ele>
        <time>2022-01-06T08:51:46.000Z</time>
      </trkpt>
      <trkpt lat="47.28703" lon="-2.36785">
        <ele>23.60000038147</ele>
        <time>2022-01-06T08:51:47.000Z</time>
      </trkpt>
      <trkpt lat="47.28702" lon="-2.36794">
        <ele>23.200000762939</ele>
        <time>2022-01-06T08:51:48.000Z</time>
      </trkpt>
      <trkpt lat="47.28703" lon="-2.36804">
        <ele>22.799999237061</ele>
        <time>2022-01-06T08:51:49.000Z</time>
      </trkpt>
      <trkpt lat="47.28704" lon="-2.36815">
        <ele>22.39999961853</ele>
        <time>2022-01-06T08:51:50.000Z</time>
      </trkpt>
      <trkpt lat="47.28708" lon="-2.36833">
        <ele>22</ele>
        <time>2022-01-06T08:51:52.000Z</time>
      </trkpt>
      <trkpt lat="47.28711" lon="-2.36842">
        <ele>21.39999961853</ele>
        <time>2022-01-06T08:51:53.000Z</time>
      </trkpt>
      <trkpt lat="47.28714" lon="-2.36851">
        <ele>21</ele>
        <time>2022-01-06T08:51:54.000Z</time>
      </trkpt>
      <trkpt lat="47.28718" lon="-2.36859">
        <ele>20.60000038147</ele>
        <time>2022-01-06T08:51:55.000Z</time>
      </trkpt>
      <trkpt lat="47.28722" lon="-2.36868">
        <ele>20</ele>
        <time>2022-01-06T08:51:56.000Z</time>
      </trkpt>
      <trkpt lat="47.28726" lon="-2.36876">
        <ele>19.60000038147</ele>
        <time>2022-01-06T08:51:57.000Z</time>
      </trkpt>
      <trkpt lat="47.28729" lon="-2.36884">
        <ele>19</ele>
        <time>2022-01-06T08:51:58.000Z</time>
      </trkpt>
      <trkpt lat="47.28733" lon="-2.36893">
        <ele>18.39999961853</ele>
        <time>2022-01-06T08:51:59.000Z</time>
      </trkpt>
      <trkpt lat="47.28736" lon="-2.36902">
        <ele>17.799999237061</ele>
        <time>2022-01-06T08:52:00.000Z</time>
      </trkpt>
      <trkpt lat="47.28738" lon="-2.36912">
        <ele>16.39999961853</ele>
        <time>2022-01-06T08:52:01.000Z</time>
      </trkpt>
      <trkpt lat="47.28741" lon="-2.36921">
        <ele>15.800000190735</ele>
        <time>2022-01-06T08:52:02.000Z</time>
      </trkpt>
      <trkpt lat="47.28749" lon="-2.36936">
        <ele>15.800000190735</ele>
        <time>2022-01-06T08:52:05.000Z</time>
      </trkpt>
      <trkpt lat="47.28751" lon="-2.36945">
        <ele>15.800000190735</ele>
        <time>2022-01-06T08:52:08.000Z</time>
      </trkpt>
      <trkpt lat="47.28752" lon="-2.36947">
        <ele>15.800000190735</ele>
        <time>2022-01-06T08:52:09.000Z</time>
      </trkpt>
      <trkpt lat="47.28752" lon="-2.36952">
        <ele>16.200000762939</ele>
        <time>2022-01-06T08:52:11.000Z</time>
      </trkpt>
      <trkpt lat="47.28752" lon="-2.36955">
        <ele>16.60000038147</ele>
        <time>2022-01-06T08:52:12.000Z</time>
      </trkpt>
      <trkpt lat="47.28753" lon="-2.36957">
        <ele>17.200000762939</ele>
        <time>2022-01-06T08:52:13.000Z</time>
      </trkpt>
      <trkpt lat="47.28753" lon="-2.3696">
        <ele>17.60000038147</ele>
        <time>2022-01-06T08:52:14.000Z</time>
      </trkpt>
      <trkpt lat="47.28754" lon="-2.36963">
        <ele>18</ele>
        <time>2022-01-06T08:52:15.000Z</time>
      </trkpt>
      <trkpt lat="47.2876" lon="-2.36977">
        <ele>18.39999961853</ele>
        <time>2022-01-06T08:52:19.000Z</time>
      </trkpt>
      <trkpt lat="47.28763" lon="-2.3698">
        <ele>18.799999237061</ele>
        <time>2022-01-06T08:52:20.000Z</time>
      </trkpt>
      <trkpt lat="47.28764" lon="-2.36983">
        <ele>19.200000762939</ele>
        <time>2022-01-06T08:52:21.000Z</time>
      </trkpt>
      <trkpt lat="47.28766" lon="-2.36984">
        <ele>19.60000038147</ele>
        <time>2022-01-06T08:52:22.000Z</time>
      </trkpt>
      <trkpt lat="47.28768" lon="-2.36987">
        <ele>20.200000762939</ele>
        <time>2022-01-06T08:52:23.000Z</time>
      </trkpt>
      <trkpt lat="47.28776" lon="-2.37">
        <ele>20.200000762939</ele>
        <time>2022-01-06T08:52:26.000Z</time>
      </trkpt>
      <trkpt lat="47.28788" lon="-2.37035">
        <ele>19.60000038147</ele>
        <time>2022-01-06T08:52:32.000Z</time>
      </trkpt>
      <trkpt lat="47.28789" lon="-2.37042">
        <ele>19.200000762939</ele>
        <time>2022-01-06T08:52:33.000Z</time>
      </trkpt>
      <trkpt lat="47.2879" lon="-2.37047">
        <ele>18.799999237061</ele>
        <time>2022-01-06T08:52:34.000Z</time>
      </trkpt>
      <trkpt lat="47.2879" lon="-2.37054">
        <ele>18.39999961853</ele>
        <time>2022-01-06T08:52:35.000Z</time>
      </trkpt>
      <trkpt lat="47.28791" lon="-2.37061">
        <ele>18</ele>
        <time>2022-01-06T08:52:36.000Z</time>
      </trkpt>
      <trkpt lat="47.28792" lon="-2.37071">
        <ele>17.39999961853</ele>
        <time>2022-01-06T08:52:37.000Z</time>
      </trkpt>
      <trkpt lat="47.28793" lon="-2.3708">
        <ele>17</ele>
        <time>2022-01-06T08:52:38.000Z</time>
      </trkpt>
      <trkpt lat="47.28795" lon="-2.37089">
        <ele>16.60000038147</ele>
        <time>2022-01-06T08:52:39.000Z</time>
      </trkpt>
      <trkpt lat="47.28796" lon="-2.37097">
        <ele>16.200000762939</ele>
        <time>2022-01-06T08:52:40.000Z</time>
      </trkpt>
      <trkpt lat="47.28798" lon="-2.37103">
        <ele>15.800000190735</ele>
        <time>2022-01-06T08:52:41.000Z</time>
      </trkpt>
      <trkpt lat="47.288" lon="-2.37106">
        <ele>15.800000190735</ele>
        <time>2022-01-06T08:52:42.000Z</time>
      </trkpt>
      <trkpt lat="47.28805" lon="-2.37107">
        <ele>15.199999809265</ele>
        <time>2022-01-06T08:52:43.000Z</time>
      </trkpt>
      <trkpt lat="47.28809" lon="-2.37107">
        <ele>14.800000190735</ele>
        <time>2022-01-06T08:52:44.000Z</time>
      </trkpt>
      <trkpt lat="47.28813" lon="-2.37107">
        <ele>14.39999961853</ele>
        <time>2022-01-06T08:52:45.000Z</time>
      </trkpt>
      <trkpt lat="47.28816" lon="-2.37106">
        <ele>13.800000190735</ele>
        <time>2022-01-06T08:52:46.000Z</time>
      </trkpt>
      <trkpt lat="47.28819" lon="-2.37104">
        <ele>13.199999809265</ele>
        <time>2022-01-06T08:52:47.000Z</time>
      </trkpt>
      <trkpt lat="47.28821" lon="-2.37102">
        <ele>12.60000038147</ele>
        <time>2022-01-06T08:52:48.000Z</time>
      </trkpt>
      <trkpt lat="47.28825" lon="-2.37103">
        <ele>11.800000190735</ele>
        <time>2022-01-06T08:52:49.000Z</time>
      </trkpt>
      <trkpt lat="47.28827" lon="-2.37106">
        <ele>10.60000038147</ele>
        <time>2022-01-06T08:52:50.000Z</time>
      </trkpt>
      <trkpt lat="47.28827" lon="-2.3711">
        <ele>9.8000001907349</ele>
        <time>2022-01-06T08:52:51.000Z</time>
      </trkpt>
      <trkpt lat="47.28828" lon="-2.37115">
        <ele>9.1999998092651</ele>
        <time>2022-01-06T08:52:52.000Z</time>
      </trkpt>
      <trkpt lat="47.28826" lon="-2.37136">
        <ele>9.1999998092651</ele>
        <time>2022-01-06T08:52:56.000Z</time>
      </trkpt>
      <trkpt lat="47.2883" lon="-2.37161">
        <ele>9.1999998092651</ele>
        <time>2022-01-06T08:53:00.000Z</time>
      </trkpt>
      <trkpt lat="47.28836" lon="-2.37203">
        <ele>8.8000001907349</ele>
        <time>2022-01-06T08:53:06.000Z</time>
      </trkpt>
      <trkpt lat="47.28838" lon="-2.37208">
        <ele>8.3999996185303</ele>
        <time>2022-01-06T08:53:07.000Z</time>
      </trkpt>
      <trkpt lat="47.28839" lon="-2.37213">
        <ele>8</ele>
        <time>2022-01-06T08:53:08.000Z</time>
      </trkpt>
      <trkpt lat="47.28841" lon="-2.37219">
        <ele>7.5999999046326</ele>
        <time>2022-01-06T08:53:09.000Z</time>
      </trkpt>
      <trkpt lat="47.28843" lon="-2.37225">
        <ele>7</ele>
        <time>2022-01-06T08:53:10.000Z</time>
      </trkpt>
      <trkpt lat="47.28845" lon="-2.3723">
        <ele>7</ele>
        <time>2022-01-06T08:53:11.000Z</time>
      </trkpt>
      <trkpt lat="47.28853" lon="-2.37254">
        <ele>7</ele>
        <time>2022-01-06T08:53:16.000Z</time>
      </trkpt>
      <trkpt lat="47.28854" lon="-2.37267">
        <ele>7</ele>
        <time>2022-01-06T08:53:18.000Z</time>
      </trkpt>
      <trkpt lat="47.28856" lon="-2.37285">
        <ele>7</ele>
        <time>2022-01-06T08:53:21.000Z</time>
      </trkpt>
      <trkpt lat="47.28857" lon="-2.37299">
        <ele>7</ele>
        <time>2022-01-06T08:53:23.000Z</time>
      </trkpt>
      <trkpt lat="47.28858" lon="-2.37319">
        <ele>7</ele>
        <time>2022-01-06T08:53:26.000Z</time>
      </trkpt>
      <trkpt lat="47.28859" lon="-2.3735">
        <ele>7</ele>
        <time>2022-01-06T08:53:31.000Z</time>
      </trkpt>
      <trkpt lat="47.2886" lon="-2.37356">
        <ele>7</ele>
        <time>2022-01-06T08:53:32.000Z</time>
      </trkpt>
      <trkpt lat="47.28866" lon="-2.374">
        <ele>7</ele>
        <time>2022-01-06T08:53:38.000Z</time>
      </trkpt>
      <trkpt lat="47.28873" lon="-2.3745">
        <ele>7</ele>
        <time>2022-01-06T08:53:45.000Z</time>
      </trkpt>
      <trkpt lat="47.28882" lon="-2.37494">
        <ele>7</ele>
        <time>2022-01-06T08:53:52.000Z</time>
      </trkpt>
      <trkpt lat="47.28886" lon="-2.3753">
        <ele>7</ele>
        <time>2022-01-06T08:53:59.000Z</time>
      </trkpt>
      <trkpt lat="47.28885" lon="-2.37538">
        <ele>7</ele>
        <time>2022-01-06T08:54:01.000Z</time>
      </trkpt>
      <trkpt lat="47.2888" lon="-2.37545">
        <ele>7</ele>
        <time>2022-01-06T08:54:03.000Z</time>
      </trkpt>
      <trkpt lat="47.2888" lon="-2.37548">
        <ele>7</ele>
        <time>2022-01-06T08:54:04.000Z</time>
      </trkpt>
      <trkpt lat="47.2888" lon="-2.3755">
        <ele>6.5999999046326</ele>
        <time>2022-01-06T08:54:05.000Z</time>
      </trkpt>
      <trkpt lat="47.28882" lon="-2.37551">
        <ele>6.1999998092651</ele>
        <time>2022-01-06T08:54:06.000Z</time>
      </trkpt>
      <trkpt lat="47.28883" lon="-2.37549">
        <ele>5.8000001907349</ele>
        <time>2022-01-06T08:54:07.000Z</time>
      </trkpt>
      <trkpt lat="47.28886" lon="-2.37549">
        <ele>5.4000000953674</ele>
        <time>2022-01-06T08:54:08.000Z</time>
      </trkpt>
      <trkpt lat="47.28888" lon="-2.37547">
        <ele>5</ele>
        <time>2022-01-06T08:54:09.000Z</time>
      </trkpt>
      <trkpt lat="47.28896" lon="-2.37557">
        <ele>5</ele>
        <time>2022-01-06T08:54:13.000Z</time>
      </trkpt>
      <trkpt lat="47.28898" lon="-2.37562">
        <ele>5</ele>
        <time>2022-01-06T08:54:14.000Z</time>
      </trkpt>
      <trkpt lat="47.28906" lon="-2.37589">
        <ele>5</ele>
        <time>2022-01-06T08:54:18.000Z</time>
      </trkpt>
      <trkpt lat="47.28906" lon="-2.37596">
        <ele>5</ele>
        <time>2022-01-06T08:54:19.000Z</time>
      </trkpt>
      <trkpt lat="47.28909" lon="-2.37623">
        <ele>5</ele>
        <time>2022-01-06T08:54:23.000Z</time>
      </trkpt>
      <trkpt lat="47.28914" lon="-2.37644">
        <ele>5</ele>
        <time>2022-01-06T08:54:27.000Z</time>
      </trkpt>
      <trkpt lat="47.28916" lon="-2.37646">
        <ele>5</ele>
        <time>2022-01-06T08:54:28.000Z</time>
      </trkpt>
      <trkpt lat="47.28921" lon="-2.37643">
        <ele>5</ele>
        <time>2022-01-06T08:54:31.000Z</time>
      </trkpt>
      <trkpt lat="47.28926" lon="-2.37642">
        <ele>5</ele>
        <time>2022-01-06T08:54:34.000Z</time>
      </trkpt>
      <trkpt lat="47.28931" lon="-2.3764">
        <ele>5</ele>
        <time>2022-01-06T08:54:36.000Z</time>
      </trkpt>
      <trkpt lat="47.28945" lon="-2.37636">
        <ele>5</ele>
        <time>2022-01-06T08:54:41.000Z</time>
      </trkpt>
      <trkpt lat="47.28958" lon="-2.37641">
        <ele>5</ele>
        <time>2022-01-06T08:54:45.000Z</time>
      </trkpt>
      <trkpt lat="47.28962" lon="-2.37646">
        <ele>5</ele>
        <time>2022-01-06T08:54:46.000Z</time>
      </trkpt>
      <trkpt lat="47.28974" lon="-2.37661">
        <ele>5</ele>
        <time>2022-01-06T08:54:49.000Z</time>
      </trkpt>
      <trkpt lat="47.29004" lon="-2.37699">
        <ele>5</ele>
        <time>2022-01-06T08:54:56.000Z</time>
      </trkpt>
      <trkpt lat="47.29034" lon="-2.37743">
        <ele>5</ele>
        <time>2022-01-06T08:55:03.000Z</time>
      </trkpt>
      <trkpt lat="47.2906" lon="-2.37778">
        <ele>4.5999999046326</ele>
        <time>2022-01-06T08:55:09.000Z</time>
      </trkpt>
      <trkpt lat="47.29064" lon="-2.37782">
        <ele>4.1999998092651</ele>
        <time>2022-01-06T08:55:10.000Z</time>
      </trkpt>
      <trkpt lat="47.29069" lon="-2.37786">
        <ele>3.7999999523163</ele>
        <time>2022-01-06T08:55:11.000Z</time>
      </trkpt>
      <trkpt lat="47.29074" lon="-2.3779">
        <ele>3.4000000953674</ele>
        <time>2022-01-06T08:55:12.000Z</time>
      </trkpt>
      <trkpt lat="47.29079" lon="-2.37795">
        <ele>3</ele>
        <time>2022-01-06T08:55:13.000Z</time>
      </trkpt>
      <trkpt lat="47.29105" lon="-2.37817">
        <ele>3</ele>
        <time>2022-01-06T08:55:18.000Z</time>
      </trkpt>
      <trkpt lat="47.29136" lon="-2.37843">
        <ele>3</ele>
        <time>2022-01-06T08:55:25.000Z</time>
      </trkpt>
      <trkpt lat="47.29151" lon="-2.37839">
        <ele>3</ele>
        <time>2022-01-06T08:55:28.000Z</time>
      </trkpt>
      <trkpt lat="47.29163" lon="-2.37822">
        <ele>3</ele>
        <time>2022-01-06T08:55:31.000Z</time>
      </trkpt>
      <trkpt lat="47.29166" lon="-2.37815">
        <ele>3</ele>
        <time>2022-01-06T08:55:32.000Z</time>
      </trkpt>
      <trkpt lat="47.29178" lon="-2.37787">
        <ele>3</ele>
        <time>2022-01-06T08:55:36.000Z</time>
      </trkpt>
      <trkpt lat="47.29198" lon="-2.37748">
        <ele>3</ele>
        <time>2022-01-06T08:55:42.000Z</time>
      </trkpt>
      <trkpt lat="47.29206" lon="-2.37739">
        <ele>3</ele>
        <time>2022-01-06T08:55:44.000Z</time>
      </trkpt>
      <trkpt lat="47.29217" lon="-2.37727">
        <ele>3.4000000953674</ele>
        <time>2022-01-06T08:55:47.000Z</time>
      </trkpt>
      <trkpt lat="47.29221" lon="-2.37724">
        <ele>3.7999999523163</ele>
        <time>2022-01-06T08:55:48.000Z</time>
      </trkpt>
      <trkpt lat="47.29225" lon="-2.37722">
        <ele>4.4000000953674</ele>
        <time>2022-01-06T08:55:49.000Z</time>
      </trkpt>
      <trkpt lat="47.29229" lon="-2.37722">
        <ele>4.8000001907349</ele>
        <time>2022-01-06T08:55:50.000Z</time>
      </trkpt>
      <trkpt lat="47.29233" lon="-2.37722">
        <ele>5.1999998092651</ele>
        <time>2022-01-06T08:55:51.000Z</time>
      </trkpt>
      <trkpt lat="47.29236" lon="-2.37722">
        <ele>5.1999998092651</ele>
        <time>2022-01-06T08:55:52.000Z</time>
      </trkpt>
      <trkpt lat="47.29244" lon="-2.37727">
        <ele>5.1999998092651</ele>
        <time>2022-01-06T08:55:55.000Z</time>
      </trkpt>
      <trkpt lat="47.29247" lon="-2.37729">
        <ele>5.5999999046326</ele>
        <time>2022-01-06T08:55:56.000Z</time>
      </trkpt>
      <trkpt lat="47.2925" lon="-2.37729">
        <ele>6</ele>
        <time>2022-01-06T08:55:57.000Z</time>
      </trkpt>
      <trkpt lat="47.29253" lon="-2.37729">
        <ele>6.4000000953674</ele>
        <time>2022-01-06T08:55:58.000Z</time>
      </trkpt>
      <trkpt lat="47.29256" lon="-2.37731">
        <ele>6.8000001907349</ele>
        <time>2022-01-06T08:55:59.000Z</time>
      </trkpt>
      <trkpt lat="47.29259" lon="-2.37733">
        <ele>7.1999998092651</ele>
        <time>2022-01-06T08:56:00.000Z</time>
      </trkpt>
      <trkpt lat="47.29262" lon="-2.37734">
        <ele>7.1999998092651</ele>
        <time>2022-01-06T08:56:01.000Z</time>
      </trkpt>
      <trkpt lat="47.29287" lon="-2.37741">
        <ele>7.1999998092651</ele>
        <time>2022-01-06T08:56:08.000Z</time>
      </trkpt>
      <trkpt lat="47.29305" lon="-2.37742">
        <ele>7.5999999046326</ele>
        <time>2022-01-06T08:56:14.000Z</time>
      </trkpt>
      <trkpt lat="47.29308" lon="-2.37743">
        <ele>8</ele>
        <time>2022-01-06T08:56:15.000Z</time>
      </trkpt>
      <trkpt lat="47.29311" lon="-2.37742">
        <ele>8.3999996185303</ele>
        <time>2022-01-06T08:56:16.000Z</time>
      </trkpt>
      <trkpt lat="47.29313" lon="-2.37741">
        <ele>8.8000001907349</ele>
        <time>2022-01-06T08:56:17.000Z</time>
      </trkpt>
      <trkpt lat="47.29316" lon="-2.37741">
        <ele>9.1999998092651</ele>
        <time>2022-01-06T08:56:18.000Z</time>
      </trkpt>
      <trkpt lat="47.29321" lon="-2.37739">
        <ele>9.1999998092651</ele>
        <time>2022-01-06T08:56:20.000Z</time>
      </trkpt>
      <trkpt lat="47.29332" lon="-2.37739">
        <ele>9.6000003814697</ele>
        <time>2022-01-06T08:56:24.000Z</time>
      </trkpt>
      <trkpt lat="47.29334" lon="-2.37743">
        <ele>10.199999809265</ele>
        <time>2022-01-06T08:56:25.000Z</time>
      </trkpt>
      <trkpt lat="47.29335" lon="-2.37748">
        <ele>10.60000038147</ele>
        <time>2022-01-06T08:56:26.000Z</time>
      </trkpt>
      <trkpt lat="47.29336" lon="-2.37755">
        <ele>11</ele>
        <time>2022-01-06T08:56:27.000Z</time>
      </trkpt>
      <trkpt lat="47.29336" lon="-2.37762">
        <ele>11.39999961853</ele>
        <time>2022-01-06T08:56:28.000Z</time>
      </trkpt>
      <trkpt lat="47.29336" lon="-2.3777">
        <ele>11.39999961853</ele>
        <time>2022-01-06T08:56:29.000Z</time>
      </trkpt>
      <trkpt lat="47.29337" lon="-2.37807">
        <ele>11.39999961853</ele>
        <time>2022-01-06T08:56:33.000Z</time>
      </trkpt>
      <trkpt lat="47.29338" lon="-2.37827">
        <ele>10.800000190735</ele>
        <time>2022-01-06T08:56:35.000Z</time>
      </trkpt>
      <trkpt lat="47.29339" lon="-2.37837">
        <ele>10.39999961853</ele>
        <time>2022-01-06T08:56:36.000Z</time>
      </trkpt>
      <trkpt lat="47.29341" lon="-2.37847">
        <ele>10</ele>
        <time>2022-01-06T08:56:37.000Z</time>
      </trkpt>
      <trkpt lat="47.29343" lon="-2.37857">
        <ele>9.6000003814697</ele>
        <time>2022-01-06T08:56:38.000Z</time>
      </trkpt>
      <trkpt lat="47.29346" lon="-2.37866">
        <ele>9.1999998092651</ele>
        <time>2022-01-06T08:56:39.000Z</time>
      </trkpt>
      <trkpt lat="47.29362" lon="-2.37911">
        <ele>8.8000001907349</ele>
        <time>2022-01-06T08:56:44.000Z</time>
      </trkpt>
      <trkpt lat="47.29366" lon="-2.37921">
        <ele>8.1999998092651</ele>
        <time>2022-01-06T08:56:45.000Z</time>
      </trkpt>
      <trkpt lat="47.29369" lon="-2.3793">
        <ele>7.8000001907349</ele>
        <time>2022-01-06T08:56:46.000Z</time>
      </trkpt>
      <trkpt lat="47.29372" lon="-2.3794">
        <ele>7.4000000953674</ele>
        <time>2022-01-06T08:56:47.000Z</time>
      </trkpt>
      <trkpt lat="47.29375" lon="-2.37949">
        <ele>7</ele>
        <time>2022-01-06T08:56:48.000Z</time>
      </trkpt>
      <trkpt lat="47.29388" lon="-2.37986">
        <ele>7</ele>
        <time>2022-01-06T08:56:52.000Z</time>
      </trkpt>
      <trkpt lat="47.29395" lon="-2.38004">
        <ele>6.5999999046326</ele>
        <time>2022-01-06T08:56:54.000Z</time>
      </trkpt>
      <trkpt lat="47.29398" lon="-2.38013">
        <ele>6.1999998092651</ele>
        <time>2022-01-06T08:56:55.000Z</time>
      </trkpt>
      <trkpt lat="47.29402" lon="-2.38023">
        <ele>5.8000001907349</ele>
        <time>2022-01-06T08:56:56.000Z</time>
      </trkpt>
      <trkpt lat="47.29405" lon="-2.38032">
        <ele>4.8000001907349</ele>
        <time>2022-01-06T08:56:57.000Z</time>
      </trkpt>
      <trkpt lat="47.29412" lon="-2.3805">
        <ele>4.8000001907349</ele>
        <time>2022-01-06T08:56:59.000Z</time>
      </trkpt>
      <trkpt lat="47.29427" lon="-2.38095">
        <ele>4.4000000953674</ele>
        <time>2022-01-06T08:57:04.000Z</time>
      </trkpt>
      <trkpt lat="47.2943" lon="-2.38103">
        <ele>4</ele>
        <time>2022-01-06T08:57:05.000Z</time>
      </trkpt>
      <trkpt lat="47.29433" lon="-2.3811">
        <ele>3.5999999046326</ele>
        <time>2022-01-06T08:57:06.000Z</time>
      </trkpt>
      <trkpt lat="47.29436" lon="-2.38117">
        <ele>3.2000000476837</ele>
        <time>2022-01-06T08:57:07.000Z</time>
      </trkpt>
      <trkpt lat="47.29438" lon="-2.38123">
        <ele>2.7999999523163</ele>
        <time>2022-01-06T08:57:08.000Z</time>
      </trkpt>
      <trkpt lat="47.29445" lon="-2.38143">
        <ele>2.7999999523163</ele>
        <time>2022-01-06T08:57:11.000Z</time>
      </trkpt>
      <trkpt lat="47.29447" lon="-2.38149">
        <ele>2.7999999523163</ele>
        <time>2022-01-06T08:57:12.000Z</time>
      </trkpt>
      <trkpt lat="47.29454" lon="-2.38152">
        <ele>2.7999999523163</ele>
        <time>2022-01-06T08:57:14.000Z</time>
      </trkpt>
      <trkpt lat="47.29464" lon="-2.38145">
        <ele>2.7999999523163</ele>
        <time>2022-01-06T08:57:17.000Z</time>
      </trkpt>
      <trkpt lat="47.29472" lon="-2.38136">
        <ele>2.7999999523163</ele>
        <time>2022-01-06T08:57:20.000Z</time>
      </trkpt>
      <trkpt lat="47.29483" lon="-2.38129">
        <ele>2.7999999523163</ele>
        <time>2022-01-06T08:57:23.000Z</time>
      </trkpt>
      <trkpt lat="47.29505" lon="-2.38123">
        <ele>3.2000000476837</ele>
        <time>2022-01-06T08:57:29.000Z</time>
      </trkpt>
      <trkpt lat="47.29509" lon="-2.38124">
        <ele>3.5999999046326</ele>
        <time>2022-01-06T08:57:30.000Z</time>
      </trkpt>
      <trkpt lat="47.29513" lon="-2.38125">
        <ele>4</ele>
        <time>2022-01-06T08:57:31.000Z</time>
      </trkpt>
      <trkpt lat="47.29517" lon="-2.38124">
        <ele>4.4000000953674</ele>
        <time>2022-01-06T08:57:32.000Z</time>
      </trkpt>
      <trkpt lat="47.29522" lon="-2.38125">
        <ele>4.8000001907349</ele>
        <time>2022-01-06T08:57:33.000Z</time>
      </trkpt>
      <trkpt lat="47.2953" lon="-2.38126">
        <ele>4.8000001907349</ele>
        <time>2022-01-06T08:57:35.000Z</time>
      </trkpt>
      <trkpt lat="47.29558" lon="-2.38125">
        <ele>4.8000001907349</ele>
        <time>2022-01-06T08:57:42.000Z</time>
      </trkpt>
      <trkpt lat="47.29561" lon="-2.38125">
        <ele>5.1999998092651</ele>
        <time>2022-01-06T08:57:43.000Z</time>
      </trkpt>
      <trkpt lat="47.29565" lon="-2.38125">
        <ele>5.5999999046326</ele>
        <time>2022-01-06T08:57:44.000Z</time>
      </trkpt>
      <trkpt lat="47.29569" lon="-2.38124">
        <ele>6.1999998092651</ele>
        <time>2022-01-06T08:57:45.000Z</time>
      </trkpt>
      <trkpt lat="47.29573" lon="-2.38123">
        <ele>7</ele>
        <time>2022-01-06T08:57:46.000Z</time>
      </trkpt>
      <trkpt lat="47.29583" lon="-2.38121">
        <ele>7</ele>
        <time>2022-01-06T08:57:49.000Z</time>
      </trkpt>
      <trkpt lat="47.296" lon="-2.38116">
        <ele>7.4000000953674</ele>
        <time>2022-01-06T08:57:54.000Z</time>
      </trkpt>
      <trkpt lat="47.29603" lon="-2.38115">
        <ele>7.8000001907349</ele>
        <time>2022-01-06T08:57:55.000Z</time>
      </trkpt>
      <trkpt lat="47.29606" lon="-2.38115">
        <ele>8.1999998092651</ele>
        <time>2022-01-06T08:57:56.000Z</time>
      </trkpt>
      <trkpt lat="47.29609" lon="-2.38114">
        <ele>8.6000003814697</ele>
        <time>2022-01-06T08:57:57.000Z</time>
      </trkpt>
      <trkpt lat="47.29613" lon="-2.38113">
        <ele>9</ele>
        <time>2022-01-06T08:57:58.000Z</time>
      </trkpt>
      <trkpt lat="47.29627" lon="-2.38109">
        <ele>9</ele>
        <time>2022-01-06T08:58:03.000Z</time>
      </trkpt>
      <trkpt lat="47.29646" lon="-2.38099">
        <ele>9</ele>
        <time>2022-01-06T08:58:09.000Z</time>
      </trkpt>
      <trkpt lat="47.29649" lon="-2.38097">
        <ele>9.3999996185303</ele>
        <time>2022-01-06T08:58:10.000Z</time>
      </trkpt>
      <trkpt lat="47.29651" lon="-2.38095">
        <ele>10.199999809265</ele>
        <time>2022-01-06T08:58:11.000Z</time>
      </trkpt>
      <trkpt lat="47.29654" lon="-2.38094">
        <ele>10.60000038147</ele>
        <time>2022-01-06T08:58:12.000Z</time>
      </trkpt>
      <trkpt lat="47.29656" lon="-2.38093">
        <ele>11</ele>
        <time>2022-01-06T08:58:13.000Z</time>
      </trkpt>
      <trkpt lat="47.29667" lon="-2.38087">
        <ele>11</ele>
        <time>2022-01-06T08:58:17.000Z</time>
      </trkpt>
      <trkpt lat="47.29676" lon="-2.38082">
        <ele>11.39999961853</ele>
        <time>2022-01-06T08:58:21.000Z</time>
      </trkpt>
      <trkpt lat="47.29679" lon="-2.38081">
        <ele>11.800000190735</ele>
        <time>2022-01-06T08:58:22.000Z</time>
      </trkpt>
      <trkpt lat="47.29681" lon="-2.38079">
        <ele>12.199999809265</ele>
        <time>2022-01-06T08:58:23.000Z</time>
      </trkpt>
      <trkpt lat="47.29683" lon="-2.38077">
        <ele>12.60000038147</ele>
        <time>2022-01-06T08:58:24.000Z</time>
      </trkpt>
      <trkpt lat="47.29684" lon="-2.38075">
        <ele>13</ele>
        <time>2022-01-06T08:58:25.000Z</time>
      </trkpt>
      <trkpt lat="47.29694" lon="-2.38067">
        <ele>13.39999961853</ele>
        <time>2022-01-06T08:58:30.000Z</time>
      </trkpt>
      <trkpt lat="47.29696" lon="-2.38065">
        <ele>13.800000190735</ele>
        <time>2022-01-06T08:58:31.000Z</time>
      </trkpt>
      <trkpt lat="47.29698" lon="-2.38064">
        <ele>14.199999809265</ele>
        <time>2022-01-06T08:58:32.000Z</time>
      </trkpt>
      <trkpt lat="47.297" lon="-2.38063">
        <ele>14.60000038147</ele>
        <time>2022-01-06T08:58:33.000Z</time>
      </trkpt>
      <trkpt lat="47.29702" lon="-2.38061">
        <ele>15</ele>
        <time>2022-01-06T08:58:34.000Z</time>
      </trkpt>
      <trkpt lat="47.29709" lon="-2.38055">
        <ele>15.800000190735</ele>
        <time>2022-01-06T08:58:37.000Z</time>
      </trkpt>
      <trkpt lat="47.2971" lon="-2.38054">
        <ele>16.200000762939</ele>
        <time>2022-01-06T08:58:38.000Z</time>
      </trkpt>
      <trkpt lat="47.29712" lon="-2.38052">
        <ele>16.60000038147</ele>
        <time>2022-01-06T08:58:39.000Z</time>
      </trkpt>
      <trkpt lat="47.29714" lon="-2.3805">
        <ele>17</ele>
        <time>2022-01-06T08:58:40.000Z</time>
      </trkpt>
      <trkpt lat="47.29716" lon="-2.38048">
        <ele>17</ele>
        <time>2022-01-06T08:58:41.000Z</time>
      </trkpt>
      <trkpt lat="47.29718" lon="-2.38047">
        <ele>17.60000038147</ele>
        <time>2022-01-06T08:58:42.000Z</time>
      </trkpt>
      <trkpt lat="47.2972" lon="-2.38045">
        <ele>18</ele>
        <time>2022-01-06T08:58:43.000Z</time>
      </trkpt>
      <trkpt lat="47.29722" lon="-2.38044">
        <ele>18.39999961853</ele>
        <time>2022-01-06T08:58:44.000Z</time>
      </trkpt>
      <trkpt lat="47.29724" lon="-2.38042">
        <ele>18.799999237061</ele>
        <time>2022-01-06T08:58:45.000Z</time>
      </trkpt>
      <trkpt lat="47.29726" lon="-2.38041">
        <ele>19.200000762939</ele>
        <time>2022-01-06T08:58:46.000Z</time>
      </trkpt>
      <trkpt lat="47.29727" lon="-2.38039">
        <ele>19.200000762939</ele>
        <time>2022-01-06T08:58:47.000Z</time>
      </trkpt>
      <trkpt lat="47.2973" lon="-2.38036">
        <ele>19.60000038147</ele>
        <time>2022-01-06T08:58:49.000Z</time>
      </trkpt>
      <trkpt lat="47.29731" lon="-2.38034">
        <ele>20.200000762939</ele>
        <time>2022-01-06T08:58:50.000Z</time>
      </trkpt>
      <trkpt lat="47.29733" lon="-2.38032">
        <ele>20.60000038147</ele>
        <time>2022-01-06T08:58:51.000Z</time>
      </trkpt>
      <trkpt lat="47.29733" lon="-2.3803">
        <ele>21</ele>
        <time>2022-01-06T08:58:52.000Z</time>
      </trkpt>
      <trkpt lat="47.29733" lon="-2.38028">
        <ele>21.60000038147</ele>
        <time>2022-01-06T08:58:53.000Z</time>
      </trkpt>
      <trkpt lat="47.29733" lon="-2.38026">
        <ele>21.60000038147</ele>
        <time>2022-01-06T08:58:54.000Z</time>
      </trkpt>
      <trkpt lat="47.29733" lon="-2.38022">
        <ele>22</ele>
        <time>2022-01-06T08:58:56.000Z</time>
      </trkpt>
      <trkpt lat="47.29732" lon="-2.3802">
        <ele>22.39999961853</ele>
        <time>2022-01-06T08:58:57.000Z</time>
      </trkpt>
      <trkpt lat="47.29732" lon="-2.38017">
        <ele>22.799999237061</ele>
        <time>2022-01-06T08:58:58.000Z</time>
      </trkpt>
      <trkpt lat="47.29731" lon="-2.38015">
        <ele>23.200000762939</ele>
        <time>2022-01-06T08:58:59.000Z</time>
      </trkpt>
      <trkpt lat="47.29731" lon="-2.38012">
        <ele>23.60000038147</ele>
        <time>2022-01-06T08:59:00.000Z</time>
      </trkpt>
      <trkpt lat="47.29731" lon="-2.38009">
        <ele>23.60000038147</ele>
        <time>2022-01-06T08:59:01.000Z</time>
      </trkpt>
      <trkpt lat="47.29731" lon="-2.38007">
        <ele>24</ele>
        <time>2022-01-06T08:59:02.000Z</time>
      </trkpt>
      <trkpt lat="47.29731" lon="-2.38004">
        <ele>24.39999961853</ele>
        <time>2022-01-06T08:59:03.000Z</time>
      </trkpt>
      <trkpt lat="47.29731" lon="-2.38002">
        <ele>24.799999237061</ele>
        <time>2022-01-06T08:59:04.000Z</time>
      </trkpt>
      <trkpt lat="47.29731" lon="-2.38">
        <ele>25.200000762939</ele>
        <time>2022-01-06T08:59:05.000Z</time>
      </trkpt>
      <trkpt lat="47.29731" lon="-2.37998">
        <ele>25.799999237061</ele>
        <time>2022-01-06T08:59:06.000Z</time>
      </trkpt>
      <trkpt lat="47.29732" lon="-2.3799">
        <ele>25.799999237061</ele>
        <time>2022-01-06T08:59:09.000Z</time>
      </trkpt>
      <trkpt lat="47.29732" lon="-2.37988">
        <ele>26.200000762939</ele>
        <time>2022-01-06T08:59:10.000Z</time>
      </trkpt>
      <trkpt lat="47.29733" lon="-2.37985">
        <ele>26.60000038147</ele>
        <time>2022-01-06T08:59:11.000Z</time>
      </trkpt>
      <trkpt lat="47.29733" lon="-2.37982">
        <ele>27</ele>
        <time>2022-01-06T08:59:12.000Z</time>
      </trkpt>
      <trkpt lat="47.29734" lon="-2.37979">
        <ele>27.60000038147</ele>
        <time>2022-01-06T08:59:13.000Z</time>
      </trkpt>
      <trkpt lat="47.29735" lon="-2.37977">
        <ele>28</ele>
        <time>2022-01-06T08:59:14.000Z</time>
      </trkpt>
      <trkpt lat="47.29736" lon="-2.37974">
        <ele>28</ele>
        <time>2022-01-06T08:59:15.000Z</time>
      </trkpt>
      <trkpt lat="47.29739" lon="-2.37966">
        <ele>28.39999961853</ele>
        <time>2022-01-06T08:59:19.000Z</time>
      </trkpt>
      <trkpt lat="47.2974" lon="-2.37964">
        <ele>28.799999237061</ele>
        <time>2022-01-06T08:59:20.000Z</time>
      </trkpt>
      <trkpt lat="47.2974" lon="-2.37962">
        <ele>29.200000762939</ele>
        <time>2022-01-06T08:59:21.000Z</time>
      </trkpt>
      <trkpt lat="47.29741" lon="-2.3796">
        <ele>29.799999237061</ele>
        <time>2022-01-06T08:59:22.000Z</time>
      </trkpt>
      <trkpt lat="47.29742" lon="-2.37957">
        <ele>30.200000762939</ele>
        <time>2022-01-06T08:59:23.000Z</time>
      </trkpt>
      <trkpt lat="47.29747" lon="-2.37948">
        <ele>30.60000038147</ele>
        <time>2022-01-06T08:59:28.000Z</time>
      </trkpt>
      <trkpt lat="47.29748" lon="-2.37946">
        <ele>31</ele>
        <time>2022-01-06T08:59:29.000Z</time>
      </trkpt>
      <trkpt lat="47.2975" lon="-2.37944">
        <ele>31.39999961853</ele>
        <time>2022-01-06T08:59:30.000Z</time>
      </trkpt>
      <trkpt lat="47.29751" lon="-2.37942">
        <ele>31.799999237061</ele>
        <time>2022-01-06T08:59:31.000Z</time>
      </trkpt>
      <trkpt lat="47.29753" lon="-2.3794">
        <ele>32.200000762939</ele>
        <time>2022-01-06T08:59:32.000Z</time>
      </trkpt>
      <trkpt lat="47.29761" lon="-2.37931">
        <ele>32.200000762939</ele>
        <time>2022-01-06T08:59:37.000Z</time>
      </trkpt>
      <trkpt lat="47.2977" lon="-2.37924">
        <ele>32.200000762939</ele>
        <time>2022-01-06T08:59:42.000Z</time>
      </trkpt>
      <trkpt lat="47.29774" lon="-2.37921">
        <ele>32.599998474121</ele>
        <time>2022-01-06T08:59:44.000Z</time>
      </trkpt>
      <trkpt lat="47.29776" lon="-2.37919">
        <ele>33</ele>
        <time>2022-01-06T08:59:45.000Z</time>
      </trkpt>
      <trkpt lat="47.29778" lon="-2.37918">
        <ele>33.400001525879</ele>
        <time>2022-01-06T08:59:46.000Z</time>
      </trkpt>
      <trkpt lat="47.2978" lon="-2.37916">
        <ele>33.799999237061</ele>
        <time>2022-01-06T08:59:47.000Z</time>
      </trkpt>
      <trkpt lat="47.29783" lon="-2.37915">
        <ele>34.400001525879</ele>
        <time>2022-01-06T08:59:48.000Z</time>
      </trkpt>
      <trkpt lat="47.29785" lon="-2.37913">
        <ele>34.400001525879</ele>
        <time>2022-01-06T08:59:49.000Z</time>
      </trkpt>
      <trkpt lat="47.29801" lon="-2.37903">
        <ele>34.400001525879</ele>
        <time>2022-01-06T08:59:56.000Z</time>
      </trkpt>
      <trkpt lat="47.29819" lon="-2.3789">
        <ele>34.400001525879</ele>
        <time>2022-01-06T09:00:03.000Z</time>
      </trkpt>
      <trkpt lat="47.29824" lon="-2.37887">
        <ele>34.400001525879</ele>
        <time>2022-01-06T09:00:04.000Z</time>
      </trkpt>
      <trkpt lat="47.29844" lon="-2.37871">
        <ele>34.400001525879</ele>
        <time>2022-01-06T09:00:09.000Z</time>
      </trkpt>
      <trkpt lat="47.29858" lon="-2.37843">
        <ele>34.400001525879</ele>
        <time>2022-01-06T09:00:14.000Z</time>
      </trkpt>
      <trkpt lat="47.29864" lon="-2.37827">
        <ele>34.400001525879</ele>
        <time>2022-01-06T09:00:17.000Z</time>
      </trkpt>
      <trkpt lat="47.29869" lon="-2.37814">
        <ele>34.400001525879</ele>
        <time>2022-01-06T09:00:20.000Z</time>
      </trkpt>
      <trkpt lat="47.29872" lon="-2.3781">
        <ele>34.400001525879</ele>
        <time>2022-01-06T09:00:22.000Z</time>
      </trkpt>
      <trkpt lat="47.29875" lon="-2.37808">
        <ele>34.400001525879</ele>
        <time>2022-01-06T09:00:24.000Z</time>
      </trkpt>
      <trkpt lat="47.29878" lon="-2.37808">
        <ele>34.400001525879</ele>
        <time>2022-01-06T09:00:26.000Z</time>
      </trkpt>
      <trkpt lat="47.29882" lon="-2.37814">
        <ele>34.400001525879</ele>
        <time>2022-01-06T09:00:29.000Z</time>
      </trkpt>
      <trkpt lat="47.29884" lon="-2.37816">
        <ele>33.799999237061</ele>
        <time>2022-01-06T09:00:30.000Z</time>
      </trkpt>
      <trkpt lat="47.29885" lon="-2.37817">
        <ele>33.400001525879</ele>
        <time>2022-01-06T09:00:31.000Z</time>
      </trkpt>
      <trkpt lat="47.29887" lon="-2.37819">
        <ele>33</ele>
        <time>2022-01-06T09:00:32.000Z</time>
      </trkpt>
      <trkpt lat="47.29889" lon="-2.37822">
        <ele>32.599998474121</ele>
        <time>2022-01-06T09:00:33.000Z</time>
      </trkpt>
      <trkpt lat="47.29891" lon="-2.37826">
        <ele>32.200000762939</ele>
        <time>2022-01-06T09:00:34.000Z</time>
      </trkpt>
      <trkpt lat="47.29906" lon="-2.37847">
        <ele>31.39999961853</ele>
        <time>2022-01-06T09:00:38.000Z</time>
      </trkpt>
      <trkpt lat="47.29911" lon="-2.37854">
        <ele>30.799999237061</ele>
        <time>2022-01-06T09:00:39.000Z</time>
      </trkpt>
      <trkpt lat="47.29917" lon="-2.37861">
        <ele>30.39999961853</ele>
        <time>2022-01-06T09:00:40.000Z</time>
      </trkpt>
      <trkpt lat="47.29923" lon="-2.37869">
        <ele>30</ele>
        <time>2022-01-06T09:00:41.000Z</time>
      </trkpt>
      <trkpt lat="47.29929" lon="-2.37876">
        <ele>29.60000038147</ele>
        <time>2022-01-06T09:00:42.000Z</time>
      </trkpt>
      <trkpt lat="47.29935" lon="-2.37883">
        <ele>29.200000762939</ele>
        <time>2022-01-06T09:00:43.000Z</time>
      </trkpt>
      <trkpt lat="47.29941" lon="-2.3789">
        <ele>28.60000038147</ele>
        <time>2022-01-06T09:00:44.000Z</time>
      </trkpt>
      <trkpt lat="47.29947" lon="-2.37897">
        <ele>28.200000762939</ele>
        <time>2022-01-06T09:00:45.000Z</time>
      </trkpt>
      <trkpt lat="47.29953" lon="-2.37904">
        <ele>27.799999237061</ele>
        <time>2022-01-06T09:00:46.000Z</time>
      </trkpt>
      <trkpt lat="47.29979" lon="-2.37935">
        <ele>27.799999237061</ele>
        <time>2022-01-06T09:00:51.000Z</time>
      </trkpt>
      <trkpt lat="47.29989" lon="-2.37945">
        <ele>27.39999961853</ele>
        <time>2022-01-06T09:00:53.000Z</time>
      </trkpt>
      <trkpt lat="47.29994" lon="-2.37947">
        <ele>27</ele>
        <time>2022-01-06T09:00:54.000Z</time>
      </trkpt>
      <trkpt lat="47.29998" lon="-2.3795">
        <ele>26.60000038147</ele>
        <time>2022-01-06T09:00:55.000Z</time>
      </trkpt>
      <trkpt lat="47.30001" lon="-2.37953">
        <ele>26.200000762939</ele>
        <time>2022-01-06T09:00:56.000Z</time>
      </trkpt>
      <trkpt lat="47.30003" lon="-2.37958">
        <ele>25.799999237061</ele>
        <time>2022-01-06T09:00:57.000Z</time>
      </trkpt>
      <trkpt lat="47.30003" lon="-2.37962">
        <ele>25.799999237061</ele>
        <time>2022-01-06T09:00:58.000Z</time>
      </trkpt>
      <trkpt lat="47.29998" lon="-2.37976">
        <ele>25.799999237061</ele>
        <time>2022-01-06T09:01:01.000Z</time>
      </trkpt>
      <trkpt lat="47.29996" lon="-2.37982">
        <ele>25.799999237061</ele>
        <time>2022-01-06T09:01:02.000Z</time>
      </trkpt>
      <trkpt lat="47.29993" lon="-2.38011">
        <ele>25.799999237061</ele>
        <time>2022-01-06T09:01:06.000Z</time>
      </trkpt>
      <trkpt lat="47.29991" lon="-2.38065">
        <ele>25.799999237061</ele>
        <time>2022-01-06T09:01:13.000Z</time>
      </trkpt>
      <trkpt lat="47.29991" lon="-2.38129">
        <ele>25.799999237061</ele>
        <time>2022-01-06T09:01:22.000Z</time>
      </trkpt>
      <trkpt lat="47.29992" lon="-2.38136">
        <ele>26.200000762939</ele>
        <time>2022-01-06T09:01:23.000Z</time>
      </trkpt>
      <trkpt lat="47.29992" lon="-2.38142">
        <ele>26.60000038147</ele>
        <time>2022-01-06T09:01:24.000Z</time>
      </trkpt>
      <trkpt lat="47.29992" lon="-2.38149">
        <ele>27</ele>
        <time>2022-01-06T09:01:25.000Z</time>
      </trkpt>
      <trkpt lat="47.29993" lon="-2.38155">
        <ele>27.39999961853</ele>
        <time>2022-01-06T09:01:26.000Z</time>
      </trkpt>
      <trkpt lat="47.29994" lon="-2.38161">
        <ele>27.799999237061</ele>
        <time>2022-01-06T09:01:27.000Z</time>
      </trkpt>
      <trkpt lat="47.29995" lon="-2.38179">
        <ele>27.799999237061</ele>
        <time>2022-01-06T09:01:30.000Z</time>
      </trkpt>
      <trkpt lat="47.29997" lon="-2.38219">
        <ele>28.200000762939</ele>
        <time>2022-01-06T09:01:37.000Z</time>
      </trkpt>
      <trkpt lat="47.29997" lon="-2.38225">
        <ele>28.60000038147</ele>
        <time>2022-01-06T09:01:38.000Z</time>
      </trkpt>
      <trkpt lat="47.29997" lon="-2.38231">
        <ele>29</ele>
        <time>2022-01-06T09:01:39.000Z</time>
      </trkpt>
      <trkpt lat="47.29998" lon="-2.38237">
        <ele>29.39999961853</ele>
        <time>2022-01-06T09:01:40.000Z</time>
      </trkpt>
      <trkpt lat="47.29998" lon="-2.38243">
        <ele>30</ele>
        <time>2022-01-06T09:01:41.000Z</time>
      </trkpt>
      <trkpt lat="47.29997" lon="-2.38266">
        <ele>30</ele>
        <time>2022-01-06T09:01:45.000Z</time>
      </trkpt>
      <trkpt lat="47.29998" lon="-2.38313">
        <ele>30</ele>
        <time>2022-01-06T09:01:53.000Z</time>
      </trkpt>
      <trkpt lat="47.29999" lon="-2.38353">
        <ele>30</ele>
        <time>2022-01-06T09:02:00.000Z</time>
      </trkpt>
      <trkpt lat="47.30002" lon="-2.384">
        <ele>30.39999961853</ele>
        <time>2022-01-06T09:02:08.000Z</time>
      </trkpt>
      <trkpt lat="47.30003" lon="-2.38405">
        <ele>30.799999237061</ele>
        <time>2022-01-06T09:02:09.000Z</time>
      </trkpt>
      <trkpt lat="47.30003" lon="-2.3841">
        <ele>31.200000762939</ele>
        <time>2022-01-06T09:02:10.000Z</time>
      </trkpt>
      <trkpt lat="47.30004" lon="-2.38416">
        <ele>31.60000038147</ele>
        <time>2022-01-06T09:02:11.000Z</time>
      </trkpt>
      <trkpt lat="47.30004" lon="-2.38422">
        <ele>32</ele>
        <time>2022-01-06T09:02:12.000Z</time>
      </trkpt>
      <trkpt lat="47.30007" lon="-2.38447">
        <ele>32</ele>
        <time>2022-01-06T09:02:16.000Z</time>
      </trkpt>
      <trkpt lat="47.30014" lon="-2.38498">
        <ele>32</ele>
        <time>2022-01-06T09:02:24.000Z</time>
      </trkpt>
      <trkpt lat="47.3002" lon="-2.38549">
        <ele>32</ele>
        <time>2022-01-06T09:02:30.000Z</time>
      </trkpt>
      <trkpt lat="47.30021" lon="-2.38568">
        <ele>31.60000038147</ele>
        <time>2022-01-06T09:02:32.000Z</time>
      </trkpt>
      <trkpt lat="47.30022" lon="-2.38577">
        <ele>31</ele>
        <time>2022-01-06T09:02:33.000Z</time>
      </trkpt>
      <trkpt lat="47.30023" lon="-2.38585">
        <ele>30.60000038147</ele>
        <time>2022-01-06T09:02:34.000Z</time>
      </trkpt>
      <trkpt lat="47.30024" lon="-2.38592">
        <ele>30.200000762939</ele>
        <time>2022-01-06T09:02:35.000Z</time>
      </trkpt>
      <trkpt lat="47.30024" lon="-2.38597">
        <ele>29.799999237061</ele>
        <time>2022-01-06T09:02:36.000Z</time>
      </trkpt>
      <trkpt lat="47.30025" lon="-2.38602">
        <ele>29.200000762939</ele>
        <time>2022-01-06T09:02:37.000Z</time>
      </trkpt>
      <trkpt lat="47.30025" lon="-2.38606">
        <ele>28.60000038147</ele>
        <time>2022-01-06T09:02:38.000Z</time>
      </trkpt>
      <trkpt lat="47.30026" lon="-2.3861">
        <ele>28</ele>
        <time>2022-01-06T09:02:39.000Z</time>
      </trkpt>
      <trkpt lat="47.30025" lon="-2.38615">
        <ele>27.60000038147</ele>
        <time>2022-01-06T09:02:40.000Z</time>
      </trkpt>
      <trkpt lat="47.30024" lon="-2.38622">
        <ele>27.60000038147</ele>
        <time>2022-01-06T09:02:41.000Z</time>
      </trkpt>
      <trkpt lat="47.30025" lon="-2.38629">
        <ele>27.60000038147</ele>
        <time>2022-01-06T09:02:42.000Z</time>
      </trkpt>
      <trkpt lat="47.30027" lon="-2.38643">
        <ele>27</ele>
        <time>2022-01-06T09:02:44.000Z</time>
      </trkpt>
      <trkpt lat="47.30028" lon="-2.3865">
        <ele>26.60000038147</ele>
        <time>2022-01-06T09:02:45.000Z</time>
      </trkpt>
      <trkpt lat="47.30028" lon="-2.38657">
        <ele>26.200000762939</ele>
        <time>2022-01-06T09:02:46.000Z</time>
      </trkpt>
      <trkpt lat="47.30029" lon="-2.38665">
        <ele>25.799999237061</ele>
        <time>2022-01-06T09:02:47.000Z</time>
      </trkpt>
      <trkpt lat="47.30029" lon="-2.38673">
        <ele>25.39999961853</ele>
        <time>2022-01-06T09:02:48.000Z</time>
      </trkpt>
      <trkpt lat="47.30028" lon="-2.3869">
        <ele>25.39999961853</ele>
        <time>2022-01-06T09:02:50.000Z</time>
      </trkpt>
      <trkpt lat="47.30026" lon="-2.38708">
        <ele>25.39999961853</ele>
        <time>2022-01-06T09:02:52.000Z</time>
      </trkpt>
      <trkpt lat="47.30023" lon="-2.38728">
        <ele>25</ele>
        <time>2022-01-06T09:02:54.000Z</time>
      </trkpt>
      <trkpt lat="47.30021" lon="-2.38738">
        <ele>24.60000038147</ele>
        <time>2022-01-06T09:02:55.000Z</time>
      </trkpt>
      <trkpt lat="47.30019" lon="-2.38748">
        <ele>24.200000762939</ele>
        <time>2022-01-06T09:02:56.000Z</time>
      </trkpt>
      <trkpt lat="47.30018" lon="-2.38758">
        <ele>23.799999237061</ele>
        <time>2022-01-06T09:02:57.000Z</time>
      </trkpt>
      <trkpt lat="47.30016" lon="-2.38769">
        <ele>23.39999961853</ele>
        <time>2022-01-06T09:02:58.000Z</time>
      </trkpt>
      <trkpt lat="47.30012" lon="-2.38793">
        <ele>22.799999237061</ele>
        <time>2022-01-06T09:03:00.000Z</time>
      </trkpt>
      <trkpt lat="47.30011" lon="-2.38805">
        <ele>22.39999961853</ele>
        <time>2022-01-06T09:03:01.000Z</time>
      </trkpt>
      <trkpt lat="47.3001" lon="-2.38817">
        <ele>22</ele>
        <time>2022-01-06T09:03:02.000Z</time>
      </trkpt>
      <trkpt lat="47.30009" lon="-2.38829">
        <ele>21.60000038147</ele>
        <time>2022-01-06T09:03:03.000Z</time>
      </trkpt>
      <trkpt lat="47.30009" lon="-2.38841">
        <ele>21.200000762939</ele>
        <time>2022-01-06T09:03:04.000Z</time>
      </trkpt>
      <trkpt lat="47.30008" lon="-2.38853">
        <ele>20.799999237061</ele>
        <time>2022-01-06T09:03:05.000Z</time>
      </trkpt>
      <trkpt lat="47.30007" lon="-2.38864">
        <ele>19.799999237061</ele>
        <time>2022-01-06T09:03:06.000Z</time>
      </trkpt>
      <trkpt lat="47.30007" lon="-2.38876">
        <ele>19.39999961853</ele>
        <time>2022-01-06T09:03:07.000Z</time>
      </trkpt>
      <trkpt lat="47.30006" lon="-2.38888">
        <ele>19</ele>
        <time>2022-01-06T09:03:08.000Z</time>
      </trkpt>
      <trkpt lat="47.30005" lon="-2.38911">
        <ele>19</ele>
        <time>2022-01-06T09:03:10.000Z</time>
      </trkpt>
      <trkpt lat="47.30005" lon="-2.38923">
        <ele>18.39999961853</ele>
        <time>2022-01-06T09:03:11.000Z</time>
      </trkpt>
      <trkpt lat="47.30004" lon="-2.38934">
        <ele>18</ele>
        <time>2022-01-06T09:03:12.000Z</time>
      </trkpt>
      <trkpt lat="47.30004" lon="-2.38945">
        <ele>17.39999961853</ele>
        <time>2022-01-06T09:03:13.000Z</time>
      </trkpt>
      <trkpt lat="47.30004" lon="-2.38955">
        <ele>16.799999237061</ele>
        <time>2022-01-06T09:03:14.000Z</time>
      </trkpt>
      <trkpt lat="47.30004" lon="-2.38964">
        <ele>16.200000762939</ele>
        <time>2022-01-06T09:03:15.000Z</time>
      </trkpt>
      <trkpt lat="47.30005" lon="-2.38971">
        <ele>15.60000038147</ele>
        <time>2022-01-06T09:03:16.000Z</time>
      </trkpt>
      <trkpt lat="47.30008" lon="-2.38977">
        <ele>15</ele>
        <time>2022-01-06T09:03:17.000Z</time>
      </trkpt>
      <trkpt lat="47.30011" lon="-2.3898">
        <ele>14.39999961853</ele>
        <time>2022-01-06T09:03:18.000Z</time>
      </trkpt>
      <trkpt lat="47.30029" lon="-2.38975">
        <ele>14.39999961853</ele>
        <time>2022-01-06T09:03:21.000Z</time>
      </trkpt>
      <trkpt lat="47.30044" lon="-2.38961">
        <ele>14.39999961853</ele>
        <time>2022-01-06T09:03:24.000Z</time>
      </trkpt>
      <trkpt lat="47.30072" lon="-2.38937">
        <ele>14.39999961853</ele>
        <time>2022-01-06T09:03:30.000Z</time>
      </trkpt>
      <trkpt lat="47.30104" lon="-2.38911">
        <ele>14.800000190735</ele>
        <time>2022-01-06T09:03:38.000Z</time>
      </trkpt>
      <trkpt lat="47.30107" lon="-2.38908">
        <ele>15.199999809265</ele>
        <time>2022-01-06T09:03:39.000Z</time>
      </trkpt>
      <trkpt lat="47.3011" lon="-2.38904">
        <ele>15.60000038147</ele>
        <time>2022-01-06T09:03:40.000Z</time>
      </trkpt>
      <trkpt lat="47.30113" lon="-2.389">
        <ele>16</ele>
        <time>2022-01-06T09:03:41.000Z</time>
      </trkpt>
      <trkpt lat="47.30116" lon="-2.38895">
        <ele>16.39999961853</ele>
        <time>2022-01-06T09:03:42.000Z</time>
      </trkpt>
      <trkpt lat="47.30119" lon="-2.3889">
        <ele>16.39999961853</ele>
        <time>2022-01-06T09:03:43.000Z</time>
      </trkpt>
      <trkpt lat="47.30133" lon="-2.38867">
        <ele>16.799999237061</ele>
        <time>2022-01-06T09:03:48.000Z</time>
      </trkpt>
      <trkpt lat="47.30135" lon="-2.38862">
        <ele>17.200000762939</ele>
        <time>2022-01-06T09:03:49.000Z</time>
      </trkpt>
      <trkpt lat="47.30138" lon="-2.38858">
        <ele>17.60000038147</ele>
        <time>2022-01-06T09:03:50.000Z</time>
      </trkpt>
      <trkpt lat="47.3014" lon="-2.38853">
        <ele>18.200000762939</ele>
        <time>2022-01-06T09:03:51.000Z</time>
      </trkpt>
      <trkpt lat="47.30143" lon="-2.38849">
        <ele>18.60000038147</ele>
        <time>2022-01-06T09:03:52.000Z</time>
      </trkpt>
      <trkpt lat="47.30154" lon="-2.3883">
        <ele>18.60000038147</ele>
        <time>2022-01-06T09:03:56.000Z</time>
      </trkpt>
      <trkpt lat="47.30159" lon="-2.38821">
        <ele>19</ele>
        <time>2022-01-06T09:03:58.000Z</time>
      </trkpt>
      <trkpt lat="47.30162" lon="-2.38817">
        <ele>19.39999961853</ele>
        <time>2022-01-06T09:03:59.000Z</time>
      </trkpt>
      <trkpt lat="47.30165" lon="-2.38814">
        <ele>19.799999237061</ele>
        <time>2022-01-06T09:04:00.000Z</time>
      </trkpt>
      <trkpt lat="47.30168" lon="-2.3881">
        <ele>20.200000762939</ele>
        <time>2022-01-06T09:04:01.000Z</time>
      </trkpt>
      <trkpt lat="47.30171" lon="-2.38806">
        <ele>20.60000038147</ele>
        <time>2022-01-06T09:04:02.000Z</time>
      </trkpt>
      <trkpt lat="47.30185" lon="-2.38789">
        <ele>21.200000762939</ele>
        <time>2022-01-06T09:04:07.000Z</time>
      </trkpt>
      <trkpt lat="47.30187" lon="-2.38786">
        <ele>21.60000038147</ele>
        <time>2022-01-06T09:04:08.000Z</time>
      </trkpt>
      <trkpt lat="47.3019" lon="-2.38783">
        <ele>22</ele>
        <time>2022-01-06T09:04:09.000Z</time>
      </trkpt>
      <trkpt lat="47.30193" lon="-2.3878">
        <ele>22.39999961853</ele>
        <time>2022-01-06T09:04:10.000Z</time>
      </trkpt>
      <trkpt lat="47.30196" lon="-2.38777">
        <ele>22.799999237061</ele>
        <time>2022-01-06T09:04:11.000Z</time>
      </trkpt>
      <trkpt lat="47.30207" lon="-2.3877">
        <ele>22.799999237061</ele>
        <time>2022-01-06T09:04:15.000Z</time>
      </trkpt>
      <trkpt lat="47.3021" lon="-2.3877">
        <ele>23.200000762939</ele>
        <time>2022-01-06T09:04:16.000Z</time>
      </trkpt>
      <trkpt lat="47.30213" lon="-2.38771">
        <ele>23.60000038147</ele>
        <time>2022-01-06T09:04:17.000Z</time>
      </trkpt>
      <trkpt lat="47.30216" lon="-2.38772">
        <ele>24</ele>
        <time>2022-01-06T09:04:18.000Z</time>
      </trkpt>
      <trkpt lat="47.30219" lon="-2.38773">
        <ele>24.60000038147</ele>
        <time>2022-01-06T09:04:19.000Z</time>
      </trkpt>
      <trkpt lat="47.30222" lon="-2.38775">
        <ele>25</ele>
        <time>2022-01-06T09:04:20.000Z</time>
      </trkpt>
      <trkpt lat="47.30225" lon="-2.38777">
        <ele>25.39999961853</ele>
        <time>2022-01-06T09:04:21.000Z</time>
      </trkpt>
      <trkpt lat="47.30227" lon="-2.38779">
        <ele>25.799999237061</ele>
        <time>2022-01-06T09:04:22.000Z</time>
      </trkpt>
      <trkpt lat="47.3023" lon="-2.38781">
        <ele>26.200000762939</ele>
        <time>2022-01-06T09:04:23.000Z</time>
      </trkpt>
      <trkpt lat="47.30233" lon="-2.38783">
        <ele>26.60000038147</ele>
        <time>2022-01-06T09:04:24.000Z</time>
      </trkpt>
      <trkpt lat="47.30235" lon="-2.38786">
        <ele>27</ele>
        <time>2022-01-06T09:04:25.000Z</time>
      </trkpt>
      <trkpt lat="47.3024" lon="-2.38791">
        <ele>27.60000038147</ele>
        <time>2022-01-06T09:04:27.000Z</time>
      </trkpt>
      <trkpt lat="47.30242" lon="-2.38794">
        <ele>28</ele>
        <time>2022-01-06T09:04:28.000Z</time>
      </trkpt>
      <trkpt lat="47.30244" lon="-2.38798">
        <ele>28.39999961853</ele>
        <time>2022-01-06T09:04:29.000Z</time>
      </trkpt>
      <trkpt lat="47.30247" lon="-2.38801">
        <ele>29</ele>
        <time>2022-01-06T09:04:30.000Z</time>
      </trkpt>
      <trkpt lat="47.30249" lon="-2.38805">
        <ele>29.39999961853</ele>
        <time>2022-01-06T09:04:31.000Z</time>
      </trkpt>
      <trkpt lat="47.30254" lon="-2.38813">
        <ele>29.799999237061</ele>
        <time>2022-01-06T09:04:33.000Z</time>
      </trkpt>
      <trkpt lat="47.30256" lon="-2.38817">
        <ele>30.200000762939</ele>
        <time>2022-01-06T09:04:34.000Z</time>
      </trkpt>
      <trkpt lat="47.30258" lon="-2.3882">
        <ele>30.60000038147</ele>
        <time>2022-01-06T09:04:35.000Z</time>
      </trkpt>
      <trkpt lat="47.3026" lon="-2.38824">
        <ele>31</ele>
        <time>2022-01-06T09:04:36.000Z</time>
      </trkpt>
      <trkpt lat="47.30262" lon="-2.38827">
        <ele>31.39999961853</ele>
        <time>2022-01-06T09:04:37.000Z</time>
      </trkpt>
      <trkpt lat="47.30263" lon="-2.3883">
        <ele>31.39999961853</ele>
        <time>2022-01-06T09:04:38.000Z</time>
      </trkpt>
      <trkpt lat="47.30273" lon="-2.38853">
        <ele>31.39999961853</ele>
        <time>2022-01-06T09:04:44.000Z</time>
      </trkpt>
      <trkpt lat="47.30276" lon="-2.38862">
        <ele>31.799999237061</ele>
        <time>2022-01-06T09:04:46.000Z</time>
      </trkpt>
      <trkpt lat="47.30278" lon="-2.38866">
        <ele>32.200000762939</ele>
        <time>2022-01-06T09:04:47.000Z</time>
      </trkpt>
      <trkpt lat="47.30279" lon="-2.38871">
        <ele>32.599998474121</ele>
        <time>2022-01-06T09:04:48.000Z</time>
      </trkpt>
      <trkpt lat="47.30281" lon="-2.38875">
        <ele>33</ele>
        <time>2022-01-06T09:04:49.000Z</time>
      </trkpt>
      <trkpt lat="47.30282" lon="-2.3888">
        <ele>33.400001525879</ele>
        <time>2022-01-06T09:04:50.000Z</time>
      </trkpt>
      <trkpt lat="47.30284" lon="-2.38884">
        <ele>33.400001525879</ele>
        <time>2022-01-06T09:04:51.000Z</time>
      </trkpt>
      <trkpt lat="47.30297" lon="-2.38919">
        <ele>33.400001525879</ele>
        <time>2022-01-06T09:04:58.000Z</time>
      </trkpt>
      <trkpt lat="47.30316" lon="-2.38957">
        <ele>33.400001525879</ele>
        <time>2022-01-06T09:05:06.000Z</time>
      </trkpt>
      <trkpt lat="47.30326" lon="-2.38971">
        <ele>34</ele>
        <time>2022-01-06T09:05:10.000Z</time>
      </trkpt>
      <trkpt lat="47.30329" lon="-2.38975">
        <ele>34.400001525879</ele>
        <time>2022-01-06T09:05:11.000Z</time>
      </trkpt>
      <trkpt lat="47.30332" lon="-2.38978">
        <ele>34.799999237061</ele>
        <time>2022-01-06T09:05:12.000Z</time>
      </trkpt>
      <trkpt lat="47.30334" lon="-2.38982">
        <ele>35.200000762939</ele>
        <time>2022-01-06T09:05:13.000Z</time>
      </trkpt>
      <trkpt lat="47.30336" lon="-2.38987">
        <ele>35.599998474121</ele>
        <time>2022-01-06T09:05:14.000Z</time>
      </trkpt>
      <trkpt lat="47.3034" lon="-2.38997">
        <ele>35.599998474121</ele>
        <time>2022-01-06T09:05:16.000Z</time>
      </trkpt>
      <trkpt lat="47.30351" lon="-2.39033">
        <ele>35.599998474121</ele>
        <time>2022-01-06T09:05:23.000Z</time>
      </trkpt>
      <trkpt lat="47.30353" lon="-2.39042">
        <ele>36</ele>
        <time>2022-01-06T09:05:25.000Z</time>
      </trkpt>
      <trkpt lat="47.30355" lon="-2.39048">
        <ele>36.400001525879</ele>
        <time>2022-01-06T09:05:26.000Z</time>
      </trkpt>
      <trkpt lat="47.30356" lon="-2.39054">
        <ele>36.799999237061</ele>
        <time>2022-01-06T09:05:27.000Z</time>
      </trkpt>
      <trkpt lat="47.30357" lon="-2.3906">
        <ele>37.200000762939</ele>
        <time>2022-01-06T09:05:28.000Z</time>
      </trkpt>
      <trkpt lat="47.30358" lon="-2.39066">
        <ele>37.599998474121</ele>
        <time>2022-01-06T09:05:29.000Z</time>
      </trkpt>
      <trkpt lat="47.30367" lon="-2.39113">
        <ele>37.599998474121</ele>
        <time>2022-01-06T09:05:36.000Z</time>
      </trkpt>
      <trkpt lat="47.30381" lon="-2.39148">
        <ele>37.599998474121</ele>
        <time>2022-01-06T09:05:41.000Z</time>
      </trkpt>
      <trkpt lat="47.30385" lon="-2.39154">
        <ele>37.599998474121</ele>
        <time>2022-01-06T09:05:42.000Z</time>
      </trkpt>
      <trkpt lat="47.3039" lon="-2.39159">
        <ele>37.200000762939</ele>
        <time>2022-01-06T09:05:43.000Z</time>
      </trkpt>
      <trkpt lat="47.30394" lon="-2.39163">
        <ele>36.799999237061</ele>
        <time>2022-01-06T09:05:44.000Z</time>
      </trkpt>
      <trkpt lat="47.304" lon="-2.39166">
        <ele>36.400001525879</ele>
        <time>2022-01-06T09:05:45.000Z</time>
      </trkpt>
      <trkpt lat="47.30405" lon="-2.39168">
        <ele>36</ele>
        <time>2022-01-06T09:05:46.000Z</time>
      </trkpt>
      <trkpt lat="47.3041" lon="-2.39169">
        <ele>35.599998474121</ele>
        <time>2022-01-06T09:05:47.000Z</time>
      </trkpt>
      <trkpt lat="47.30415" lon="-2.39169">
        <ele>35.599998474121</ele>
        <time>2022-01-06T09:05:48.000Z</time>
      </trkpt>
      <trkpt lat="47.30419" lon="-2.39169">
        <ele>35.599998474121</ele>
        <time>2022-01-06T09:05:49.000Z</time>
      </trkpt>
      <trkpt lat="47.30429" lon="-2.39166">
        <ele>35.599998474121</ele>
        <time>2022-01-06T09:05:51.000Z</time>
      </trkpt>
      <trkpt lat="47.30438" lon="-2.3916">
        <ele>35.599998474121</ele>
        <time>2022-01-06T09:05:53.000Z</time>
      </trkpt>
      <trkpt lat="47.30442" lon="-2.39157">
        <ele>35.599998474121</ele>
        <time>2022-01-06T09:05:54.000Z</time>
      </trkpt>
      <trkpt lat="47.30449" lon="-2.39149">
        <ele>35.599998474121</ele>
        <time>2022-01-06T09:05:56.000Z</time>
      </trkpt>
      <trkpt lat="47.30463" lon="-2.39131">
        <ele>36</ele>
        <time>2022-01-06T09:06:00.000Z</time>
      </trkpt>
      <trkpt lat="47.30467" lon="-2.39126">
        <ele>36.400001525879</ele>
        <time>2022-01-06T09:06:01.000Z</time>
      </trkpt>
      <trkpt lat="47.30471" lon="-2.39123">
        <ele>36.799999237061</ele>
        <time>2022-01-06T09:06:02.000Z</time>
      </trkpt>
      <trkpt lat="47.30475" lon="-2.39119">
        <ele>37.400001525879</ele>
        <time>2022-01-06T09:06:03.000Z</time>
      </trkpt>
      <trkpt lat="47.30479" lon="-2.39115">
        <ele>37.799999237061</ele>
        <time>2022-01-06T09:06:04.000Z</time>
      </trkpt>
      <trkpt lat="47.30506" lon="-2.39089">
        <ele>37.799999237061</ele>
        <time>2022-01-06T09:06:11.000Z</time>
      </trkpt>
      <trkpt lat="47.30518" lon="-2.39078">
        <ele>38.200000762939</ele>
        <time>2022-01-06T09:06:14.000Z</time>
      </trkpt>
      <trkpt lat="47.30522" lon="-2.39074">
        <ele>38.599998474121</ele>
        <time>2022-01-06T09:06:15.000Z</time>
      </trkpt>
      <trkpt lat="47.30526" lon="-2.3907">
        <ele>39</ele>
        <time>2022-01-06T09:06:16.000Z</time>
      </trkpt>
      <trkpt lat="47.3053" lon="-2.39066">
        <ele>39.400001525879</ele>
        <time>2022-01-06T09:06:17.000Z</time>
      </trkpt>
      <trkpt lat="47.30534" lon="-2.39062">
        <ele>39.799999237061</ele>
        <time>2022-01-06T09:06:18.000Z</time>
      </trkpt>
      <trkpt lat="47.30545" lon="-2.39052">
        <ele>39.799999237061</ele>
        <time>2022-01-06T09:06:21.000Z</time>
      </trkpt>
      <trkpt lat="47.30557" lon="-2.39041">
        <ele>39.799999237061</ele>
        <time>2022-01-06T09:06:24.000Z</time>
      </trkpt>
      <trkpt lat="47.30578" lon="-2.39016">
        <ele>39.799999237061</ele>
        <time>2022-01-06T09:06:30.000Z</time>
      </trkpt>
      <trkpt lat="47.30581" lon="-2.39011">
        <ele>40.200000762939</ele>
        <time>2022-01-06T09:06:31.000Z</time>
      </trkpt>
      <trkpt lat="47.30585" lon="-2.39006">
        <ele>40.599998474121</ele>
        <time>2022-01-06T09:06:32.000Z</time>
      </trkpt>
      <trkpt lat="47.30588" lon="-2.39001">
        <ele>41</ele>
        <time>2022-01-06T09:06:33.000Z</time>
      </trkpt>
      <trkpt lat="47.30592" lon="-2.38997">
        <ele>41.400001525879</ele>
        <time>2022-01-06T09:06:34.000Z</time>
      </trkpt>
      <trkpt lat="47.30595" lon="-2.38992">
        <ele>41.799999237061</ele>
        <time>2022-01-06T09:06:35.000Z</time>
      </trkpt>
      <trkpt lat="47.30602" lon="-2.38983">
        <ele>41.799999237061</ele>
        <time>2022-01-06T09:06:37.000Z</time>
      </trkpt>
      <trkpt lat="47.30606" lon="-2.38979">
        <ele>41.799999237061</ele>
        <time>2022-01-06T09:06:38.000Z</time>
      </trkpt>
      <trkpt lat="47.30635" lon="-2.38952">
        <ele>41.799999237061</ele>
        <time>2022-01-06T09:06:45.000Z</time>
      </trkpt>
      <trkpt lat="47.30647" lon="-2.38942">
        <ele>42.400001525879</ele>
        <time>2022-01-06T09:06:48.000Z</time>
      </trkpt>
      <trkpt lat="47.30651" lon="-2.38938">
        <ele>42.799999237061</ele>
        <time>2022-01-06T09:06:49.000Z</time>
      </trkpt>
      <trkpt lat="47.30655" lon="-2.38935">
        <ele>43.200000762939</ele>
        <time>2022-01-06T09:06:50.000Z</time>
      </trkpt>
      <trkpt lat="47.30659" lon="-2.38932">
        <ele>43.599998474121</ele>
        <time>2022-01-06T09:06:51.000Z</time>
      </trkpt>
      <trkpt lat="47.30663" lon="-2.38928">
        <ele>44</ele>
        <time>2022-01-06T09:06:52.000Z</time>
      </trkpt>
      <trkpt lat="47.30688" lon="-2.38906">
        <ele>44</ele>
        <time>2022-01-06T09:06:59.000Z</time>
      </trkpt>
      <trkpt lat="47.30697" lon="-2.38901">
        <ele>44</ele>
        <time>2022-01-06T09:07:04.000Z</time>
      </trkpt>
      <trkpt lat="47.30699" lon="-2.38903">
        <ele>44</ele>
        <time>2022-01-06T09:07:08.000Z</time>
      </trkpt>
      <trkpt lat="47.307" lon="-2.38906">
        <ele>44</ele>
        <time>2022-01-06T09:11:36.000Z</time>
      </trkpt>
      <trkpt lat="47.30701" lon="-2.3891">
        <ele>44</ele>
        <time>2022-01-06T09:11:37.000Z</time>
      </trkpt>
      <trkpt lat="47.30702" lon="-2.38935">
        <ele>44</ele>
        <time>2022-01-06T09:11:42.000Z</time>
      </trkpt>
      <trkpt lat="47.30701" lon="-2.38953">
        <ele>44</ele>
        <time>2022-01-06T09:11:45.000Z</time>
      </trkpt>
      <trkpt lat="47.30705" lon="-2.38962">
        <ele>44</ele>
        <time>2022-01-06T09:11:47.000Z</time>
      </trkpt>
      <trkpt lat="47.30716" lon="-2.38964">
        <ele>44</ele>
        <time>2022-01-06T09:11:51.000Z</time>
      </trkpt>
      <trkpt lat="47.30723" lon="-2.3896">
        <ele>44</ele>
        <time>2022-01-06T09:11:53.000Z</time>
      </trkpt>
      <trkpt lat="47.30735" lon="-2.38957">
        <ele>44</ele>
        <time>2022-01-06T09:11:56.000Z</time>
      </trkpt>
      <trkpt lat="47.30759" lon="-2.38955">
        <ele>44</ele>
        <time>2022-01-06T09:12:01.000Z</time>
      </trkpt>
      <trkpt lat="47.30764" lon="-2.38952">
        <ele>44</ele>
        <time>2022-01-06T09:12:02.000Z</time>
      </trkpt>
      <trkpt lat="47.3077" lon="-2.38949">
        <ele>43.599998474121</ele>
        <time>2022-01-06T09:12:03.000Z</time>
      </trkpt>
      <trkpt lat="47.30775" lon="-2.38945">
        <ele>43.200000762939</ele>
        <time>2022-01-06T09:12:04.000Z</time>
      </trkpt>
      <trkpt lat="47.30781" lon="-2.3894">
        <ele>42.799999237061</ele>
        <time>2022-01-06T09:12:05.000Z</time>
      </trkpt>
      <trkpt lat="47.30787" lon="-2.38936">
        <ele>42.200000762939</ele>
        <time>2022-01-06T09:12:06.000Z</time>
      </trkpt>
      <trkpt lat="47.30793" lon="-2.38931">
        <ele>41.799999237061</ele>
        <time>2022-01-06T09:12:07.000Z</time>
      </trkpt>
      <trkpt lat="47.30803" lon="-2.38921">
        <ele>41.799999237061</ele>
        <time>2022-01-06T09:12:09.000Z</time>
      </trkpt>
      <trkpt lat="47.30818" lon="-2.38906">
        <ele>41.799999237061</ele>
        <time>2022-01-06T09:12:12.000Z</time>
      </trkpt>
      <trkpt lat="47.30824" lon="-2.38902">
        <ele>41.799999237061</ele>
        <time>2022-01-06T09:12:13.000Z</time>
      </trkpt>
      <trkpt lat="47.30843" lon="-2.38889">
        <ele>41.799999237061</ele>
        <time>2022-01-06T09:12:17.000Z</time>
      </trkpt>
      <trkpt lat="47.30864" lon="-2.38871">
        <ele>41.799999237061</ele>
        <time>2022-01-06T09:12:23.000Z</time>
      </trkpt>
      <trkpt lat="47.30869" lon="-2.38861">
        <ele>41.799999237061</ele>
        <time>2022-01-06T09:12:25.000Z</time>
      </trkpt>
      <trkpt lat="47.30874" lon="-2.38849">
        <ele>41.799999237061</ele>
        <time>2022-01-06T09:12:27.000Z</time>
      </trkpt>
      <trkpt lat="47.30881" lon="-2.38841">
        <ele>42.200000762939</ele>
        <time>2022-01-06T09:12:29.000Z</time>
      </trkpt>
      <trkpt lat="47.30886" lon="-2.38839">
        <ele>42.599998474121</ele>
        <time>2022-01-06T09:12:30.000Z</time>
      </trkpt>
      <trkpt lat="47.3089" lon="-2.38839">
        <ele>43</ele>
        <time>2022-01-06T09:12:31.000Z</time>
      </trkpt>
      <trkpt lat="47.30894" lon="-2.3884">
        <ele>43.599998474121</ele>
        <time>2022-01-06T09:12:32.000Z</time>
      </trkpt>
      <trkpt lat="47.30898" lon="-2.38844">
        <ele>44</ele>
        <time>2022-01-06T09:12:33.000Z</time>
      </trkpt>
      <trkpt lat="47.30902" lon="-2.38848">
        <ele>44</ele>
        <time>2022-01-06T09:12:34.000Z</time>
      </trkpt>
      <trkpt lat="47.3091" lon="-2.38874">
        <ele>44</ele>
        <time>2022-01-06T09:12:38.000Z</time>
      </trkpt>
      <trkpt lat="47.30912" lon="-2.38881">
        <ele>44</ele>
        <time>2022-01-06T09:12:39.000Z</time>
      </trkpt>
      <trkpt lat="47.3092" lon="-2.38892">
        <ele>44</ele>
        <time>2022-01-06T09:12:41.000Z</time>
      </trkpt>
      <trkpt lat="47.30931" lon="-2.38908">
        <ele>44</ele>
        <time>2022-01-06T09:12:44.000Z</time>
      </trkpt>
      <trkpt lat="47.30933" lon="-2.38922">
        <ele>44</ele>
        <time>2022-01-06T09:12:46.000Z</time>
      </trkpt>
      <trkpt lat="47.30928" lon="-2.38942">
        <ele>44</ele>
        <time>2022-01-06T09:12:49.000Z</time>
      </trkpt>
      <trkpt lat="47.30922" lon="-2.38953">
        <ele>44</ele>
        <time>2022-01-06T09:12:51.000Z</time>
      </trkpt>
      <trkpt lat="47.30909" lon="-2.38984">
        <ele>44</ele>
        <time>2022-01-06T09:12:56.000Z</time>
      </trkpt>
      <trkpt lat="47.30906" lon="-2.39012">
        <ele>44</ele>
        <time>2022-01-06T09:13:00.000Z</time>
      </trkpt>
      <trkpt lat="47.30901" lon="-2.39072">
        <ele>44</ele>
        <time>2022-01-06T09:13:08.000Z</time>
      </trkpt>
      <trkpt lat="47.30902" lon="-2.39079">
        <ele>44</ele>
        <time>2022-01-06T09:13:09.000Z</time>
      </trkpt>
      <trkpt lat="47.30907" lon="-2.39099">
        <ele>44</ele>
        <time>2022-01-06T09:13:12.000Z</time>
      </trkpt>
      <trkpt lat="47.30926" lon="-2.39153">
        <ele>44</ele>
        <time>2022-01-06T09:13:20.000Z</time>
      </trkpt>
      <trkpt lat="47.30947" lon="-2.39202">
        <ele>44</ele>
        <time>2022-01-06T09:13:27.000Z</time>
      </trkpt>
      <trkpt lat="47.30977" lon="-2.39272">
        <ele>44</ele>
        <time>2022-01-06T09:13:37.000Z</time>
      </trkpt>
      <trkpt lat="47.30998" lon="-2.39332">
        <ele>44</ele>
        <time>2022-01-06T09:13:45.000Z</time>
      </trkpt>
      <trkpt lat="47.31021" lon="-2.39401">
        <ele>44</ele>
        <time>2022-01-06T09:13:54.000Z</time>
      </trkpt>
      <trkpt lat="47.31039" lon="-2.39456">
        <ele>44</ele>
        <time>2022-01-06T09:14:01.000Z</time>
      </trkpt>
      <trkpt lat="47.31043" lon="-2.39461">
        <ele>44</ele>
        <time>2022-01-06T09:14:02.000Z</time>
      </trkpt>
      <trkpt lat="47.31054" lon="-2.39459">
        <ele>43.599998474121</ele>
        <time>2022-01-06T09:14:04.000Z</time>
      </trkpt>
      <trkpt lat="47.31059" lon="-2.39455">
        <ele>43.200000762939</ele>
        <time>2022-01-06T09:14:05.000Z</time>
      </trkpt>
      <trkpt lat="47.31063" lon="-2.39449">
        <ele>42.799999237061</ele>
        <time>2022-01-06T09:14:06.000Z</time>
      </trkpt>
      <trkpt lat="47.31067" lon="-2.39443">
        <ele>42.400001525879</ele>
        <time>2022-01-06T09:14:07.000Z</time>
      </trkpt>
      <trkpt lat="47.31072" lon="-2.39437">
        <ele>41.799999237061</ele>
        <time>2022-01-06T09:14:08.000Z</time>
      </trkpt>
      <trkpt lat="47.31093" lon="-2.39409">
        <ele>41.799999237061</ele>
        <time>2022-01-06T09:14:13.000Z</time>
      </trkpt>
      <trkpt lat="47.31121" lon="-2.39371">
        <ele>41.799999237061</ele>
        <time>2022-01-06T09:14:20.000Z</time>
      </trkpt>
      <trkpt lat="47.31151" lon="-2.3934">
        <ele>41.799999237061</ele>
        <time>2022-01-06T09:14:27.000Z</time>
      </trkpt>
      <trkpt lat="47.3117" lon="-2.39326">
        <ele>42.400001525879</ele>
        <time>2022-01-06T09:14:31.000Z</time>
      </trkpt>
      <trkpt lat="47.31175" lon="-2.39323">
        <ele>42.799999237061</ele>
        <time>2022-01-06T09:14:32.000Z</time>
      </trkpt>
      <trkpt lat="47.3118" lon="-2.3932">
        <ele>43.200000762939</ele>
        <time>2022-01-06T09:14:33.000Z</time>
      </trkpt>
      <trkpt lat="47.31184" lon="-2.39317">
        <ele>43.599998474121</ele>
        <time>2022-01-06T09:14:34.000Z</time>
      </trkpt>
      <trkpt lat="47.31189" lon="-2.39314">
        <ele>44</ele>
        <time>2022-01-06T09:14:35.000Z</time>
      </trkpt>
      <trkpt lat="47.31216" lon="-2.39291">
        <ele>44</ele>
        <time>2022-01-06T09:14:41.000Z</time>
      </trkpt>
      <trkpt lat="47.31229" lon="-2.3928">
        <ele>44.400001525879</ele>
        <time>2022-01-06T09:14:44.000Z</time>
      </trkpt>
      <trkpt lat="47.31233" lon="-2.39275">
        <ele>44.799999237061</ele>
        <time>2022-01-06T09:14:45.000Z</time>
      </trkpt>
      <trkpt lat="47.31237" lon="-2.39271">
        <ele>45.200000762939</ele>
        <time>2022-01-06T09:14:46.000Z</time>
      </trkpt>
      <trkpt lat="47.31241" lon="-2.39267">
        <ele>45.599998474121</ele>
        <time>2022-01-06T09:14:47.000Z</time>
      </trkpt>
      <trkpt lat="47.31245" lon="-2.39262">
        <ele>46</ele>
        <time>2022-01-06T09:14:48.000Z</time>
      </trkpt>
      <trkpt lat="47.31274" lon="-2.39221">
        <ele>46</ele>
        <time>2022-01-06T09:14:56.000Z</time>
      </trkpt>
      <trkpt lat="47.31306" lon="-2.3918">
        <ele>46</ele>
        <time>2022-01-06T09:15:04.000Z</time>
      </trkpt>
      <trkpt lat="47.31337" lon="-2.39147">
        <ele>46</ele>
        <time>2022-01-06T09:15:11.000Z</time>
      </trkpt>
      <trkpt lat="47.31365" lon="-2.39119">
        <ele>46</ele>
        <time>2022-01-06T09:15:18.000Z</time>
      </trkpt>
      <trkpt lat="47.31394" lon="-2.39087">
        <ele>46</ele>
        <time>2022-01-06T09:15:25.000Z</time>
      </trkpt>
      <trkpt lat="47.31423" lon="-2.39042">
        <ele>46</ele>
        <time>2022-01-06T09:15:32.000Z</time>
      </trkpt>
      <trkpt lat="47.31427" lon="-2.39035">
        <ele>46</ele>
        <time>2022-01-06T09:15:33.000Z</time>
      </trkpt>
      <trkpt lat="47.31438" lon="-2.39006">
        <ele>46</ele>
        <time>2022-01-06T09:15:37.000Z</time>
      </trkpt>
      <trkpt lat="47.31446" lon="-2.38985">
        <ele>46</ele>
        <time>2022-01-06T09:15:40.000Z</time>
      </trkpt>
      <trkpt lat="47.31456" lon="-2.38963">
        <ele>46</ele>
        <time>2022-01-06T09:15:43.000Z</time>
      </trkpt>
      <trkpt lat="47.31486" lon="-2.38906">
        <ele>46</ele>
        <time>2022-01-06T09:15:51.000Z</time>
      </trkpt>
      <trkpt lat="47.31489" lon="-2.389">
        <ele>45.200000762939</ele>
        <time>2022-01-06T09:15:52.000Z</time>
      </trkpt>
      <trkpt lat="47.31493" lon="-2.38893">
        <ele>44.799999237061</ele>
        <time>2022-01-06T09:15:53.000Z</time>
      </trkpt>
      <trkpt lat="47.31496" lon="-2.38887">
        <ele>44.400001525879</ele>
        <time>2022-01-06T09:15:54.000Z</time>
      </trkpt>
      <trkpt lat="47.315" lon="-2.3888">
        <ele>44</ele>
        <time>2022-01-06T09:15:55.000Z</time>
      </trkpt>
      <trkpt lat="47.3151" lon="-2.38858">
        <ele>44</ele>
        <time>2022-01-06T09:15:58.000Z</time>
      </trkpt>
      <trkpt lat="47.31531" lon="-2.38816">
        <ele>44</ele>
        <time>2022-01-06T09:16:04.000Z</time>
      </trkpt>
      <trkpt lat="47.31556" lon="-2.38774">
        <ele>44</ele>
        <time>2022-01-06T09:16:10.000Z</time>
      </trkpt>
      <trkpt lat="47.31574" lon="-2.38745">
        <ele>44</ele>
        <time>2022-01-06T09:16:14.000Z</time>
      </trkpt>
      <trkpt lat="47.31583" lon="-2.38733">
        <ele>44</ele>
        <time>2022-01-06T09:16:16.000Z</time>
      </trkpt>
      <trkpt lat="47.31611" lon="-2.3869">
        <ele>44</ele>
        <time>2022-01-06T09:16:23.000Z</time>
      </trkpt>
      <trkpt lat="47.31639" lon="-2.38647">
        <ele>44</ele>
        <time>2022-01-06T09:16:30.000Z</time>
      </trkpt>
      <trkpt lat="47.31672" lon="-2.38614">
        <ele>44</ele>
        <time>2022-01-06T09:16:37.000Z</time>
      </trkpt>
      <trkpt lat="47.31713" lon="-2.38589">
        <ele>44</ele>
        <time>2022-01-06T09:16:45.000Z</time>
      </trkpt>
      <trkpt lat="47.31761" lon="-2.38563">
        <ele>44</ele>
        <time>2022-01-06T09:16:54.000Z</time>
      </trkpt>
      <trkpt lat="47.31799" lon="-2.38542">
        <ele>44</ele>
        <time>2022-01-06T09:17:02.000Z</time>
      </trkpt>
      <trkpt lat="47.31813" lon="-2.38542">
        <ele>44</ele>
        <time>2022-01-06T09:17:06.000Z</time>
      </trkpt>
      <trkpt lat="47.31824" lon="-2.38538">
        <ele>43.599998474121</ele>
        <time>2022-01-06T09:17:09.000Z</time>
      </trkpt>
      <trkpt lat="47.31828" lon="-2.38536">
        <ele>43.200000762939</ele>
        <time>2022-01-06T09:17:10.000Z</time>
      </trkpt>
      <trkpt lat="47.31832" lon="-2.38534">
        <ele>42.599998474121</ele>
        <time>2022-01-06T09:17:11.000Z</time>
      </trkpt>
      <trkpt lat="47.31837" lon="-2.38533">
        <ele>42.200000762939</ele>
        <time>2022-01-06T09:17:12.000Z</time>
      </trkpt>
      <trkpt lat="47.31841" lon="-2.38531">
        <ele>41.799999237061</ele>
        <time>2022-01-06T09:17:13.000Z</time>
      </trkpt>
      <trkpt lat="47.31861" lon="-2.38523">
        <ele>41.799999237061</ele>
        <time>2022-01-06T09:17:17.000Z</time>
      </trkpt>
      <trkpt lat="47.31867" lon="-2.3852">
        <ele>41.400001525879</ele>
        <time>2022-01-06T09:17:18.000Z</time>
      </trkpt>
      <trkpt lat="47.31872" lon="-2.38518">
        <ele>41</ele>
        <time>2022-01-06T09:17:19.000Z</time>
      </trkpt>
      <trkpt lat="47.31878" lon="-2.38516">
        <ele>40.599998474121</ele>
        <time>2022-01-06T09:17:20.000Z</time>
      </trkpt>
      <trkpt lat="47.31884" lon="-2.38514">
        <ele>40.200000762939</ele>
        <time>2022-01-06T09:17:21.000Z</time>
      </trkpt>
      <trkpt lat="47.3189" lon="-2.38512">
        <ele>39.799999237061</ele>
        <time>2022-01-06T09:17:22.000Z</time>
      </trkpt>
      <trkpt lat="47.31906" lon="-2.38503">
        <ele>39.799999237061</ele>
        <time>2022-01-06T09:17:25.000Z</time>
      </trkpt>
      <trkpt lat="47.31918" lon="-2.38497">
        <ele>39.400001525879</ele>
        <time>2022-01-06T09:17:27.000Z</time>
      </trkpt>
      <trkpt lat="47.31924" lon="-2.38494">
        <ele>38.799999237061</ele>
        <time>2022-01-06T09:17:28.000Z</time>
      </trkpt>
      <trkpt lat="47.3193" lon="-2.38493">
        <ele>38.400001525879</ele>
        <time>2022-01-06T09:17:29.000Z</time>
      </trkpt>
      <trkpt lat="47.31936" lon="-2.38491">
        <ele>38</ele>
        <time>2022-01-06T09:17:30.000Z</time>
      </trkpt>
      <trkpt lat="47.31942" lon="-2.38491">
        <ele>37.599998474121</ele>
        <time>2022-01-06T09:17:31.000Z</time>
      </trkpt>
      <trkpt lat="47.3196" lon="-2.38486">
        <ele>37.200000762939</ele>
        <time>2022-01-06T09:17:34.000Z</time>
      </trkpt>
      <trkpt lat="47.31965" lon="-2.38485">
        <ele>36.799999237061</ele>
        <time>2022-01-06T09:17:35.000Z</time>
      </trkpt>
      <trkpt lat="47.31971" lon="-2.38483">
        <ele>36.200000762939</ele>
        <time>2022-01-06T09:17:36.000Z</time>
      </trkpt>
      <trkpt lat="47.31977" lon="-2.38481">
        <ele>35.799999237061</ele>
        <time>2022-01-06T09:17:37.000Z</time>
      </trkpt>
      <trkpt lat="47.31983" lon="-2.38479">
        <ele>35.400001525879</ele>
        <time>2022-01-06T09:17:38.000Z</time>
      </trkpt>
      <trkpt lat="47.32009" lon="-2.38468">
        <ele>35.400001525879</ele>
        <time>2022-01-06T09:17:43.000Z</time>
      </trkpt>
      <trkpt lat="47.3205" lon="-2.38453">
        <ele>35</ele>
        <time>2022-01-06T09:17:50.000Z</time>
      </trkpt>
      <trkpt lat="47.32055" lon="-2.3845">
        <ele>34.599998474121</ele>
        <time>2022-01-06T09:17:51.000Z</time>
      </trkpt>
      <trkpt lat="47.32062" lon="-2.38448">
        <ele>34.200000762939</ele>
        <time>2022-01-06T09:17:52.000Z</time>
      </trkpt>
      <trkpt lat="47.32068" lon="-2.38445">
        <ele>33.799999237061</ele>
        <time>2022-01-06T09:17:53.000Z</time>
      </trkpt>
      <trkpt lat="47.32074" lon="-2.38442">
        <ele>33.400001525879</ele>
        <time>2022-01-06T09:17:54.000Z</time>
      </trkpt>
      <trkpt lat="47.32084" lon="-2.38436">
        <ele>33.400001525879</ele>
        <time>2022-01-06T09:17:56.000Z</time>
      </trkpt>
      <trkpt lat="47.32089" lon="-2.38434">
        <ele>33.400001525879</ele>
        <time>2022-01-06T09:17:57.000Z</time>
      </trkpt>
      <trkpt lat="47.32112" lon="-2.38424">
        <ele>33.400001525879</ele>
        <time>2022-01-06T09:18:01.000Z</time>
      </trkpt>
      <trkpt lat="47.32128" lon="-2.38412">
        <ele>33</ele>
        <time>2022-01-06T09:18:04.000Z</time>
      </trkpt>
      <trkpt lat="47.32133" lon="-2.38407">
        <ele>32.599998474121</ele>
        <time>2022-01-06T09:18:05.000Z</time>
      </trkpt>
      <trkpt lat="47.32138" lon="-2.384">
        <ele>32.200000762939</ele>
        <time>2022-01-06T09:18:06.000Z</time>
      </trkpt>
      <trkpt lat="47.32143" lon="-2.38393">
        <ele>31.799999237061</ele>
        <time>2022-01-06T09:18:07.000Z</time>
      </trkpt>
      <trkpt lat="47.32148" lon="-2.38386">
        <ele>31.39999961853</ele>
        <time>2022-01-06T09:18:08.000Z</time>
      </trkpt>
      <trkpt lat="47.32164" lon="-2.38361">
        <ele>31.39999961853</ele>
        <time>2022-01-06T09:18:12.000Z</time>
      </trkpt>
      <trkpt lat="47.32171" lon="-2.38354">
        <ele>31.39999961853</ele>
        <time>2022-01-06T09:18:15.000Z</time>
      </trkpt>
      <trkpt lat="47.32175" lon="-2.38347">
        <ele>31.39999961853</ele>
        <time>2022-01-06T09:18:17.000Z</time>
      </trkpt>
      <trkpt lat="47.32182" lon="-2.38338">
        <ele>31.39999961853</ele>
        <time>2022-01-06T09:18:20.000Z</time>
      </trkpt>
      <trkpt lat="47.32201" lon="-2.38313">
        <ele>31.39999961853</ele>
        <time>2022-01-06T09:18:26.000Z</time>
      </trkpt>
      <trkpt lat="47.32217" lon="-2.38296">
        <ele>31.39999961853</ele>
        <time>2022-01-06T09:18:31.000Z</time>
      </trkpt>
      <trkpt lat="47.32232" lon="-2.38297">
        <ele>31.39999961853</ele>
        <time>2022-01-06T09:18:35.000Z</time>
      </trkpt>
      <trkpt lat="47.32254" lon="-2.38292">
        <ele>31.39999961853</ele>
        <time>2022-01-06T09:18:40.000Z</time>
      </trkpt>
      <trkpt lat="47.32272" lon="-2.38288">
        <ele>31.39999961853</ele>
        <time>2022-01-06T09:18:44.000Z</time>
      </trkpt>
      <trkpt lat="47.32282" lon="-2.38287">
        <ele>31.39999961853</ele>
        <time>2022-01-06T09:18:46.000Z</time>
      </trkpt>
      <trkpt lat="47.32296" lon="-2.3829">
        <ele>31.39999961853</ele>
        <time>2022-01-06T09:18:49.000Z</time>
      </trkpt>
      <trkpt lat="47.32305" lon="-2.38293">
        <ele>31.39999961853</ele>
        <time>2022-01-06T09:18:51.000Z</time>
      </trkpt>
      <trkpt lat="47.32337" lon="-2.38304">
        <ele>31.39999961853</ele>
        <time>2022-01-06T09:18:58.000Z</time>
      </trkpt>
      <trkpt lat="47.32358" lon="-2.38313">
        <ele>31.39999961853</ele>
        <time>2022-01-06T09:19:03.000Z</time>
      </trkpt>
      <trkpt lat="47.32362" lon="-2.38315">
        <ele>31.39999961853</ele>
        <time>2022-01-06T09:19:04.000Z</time>
      </trkpt>
      <trkpt lat="47.32367" lon="-2.38317">
        <ele>31.799999237061</ele>
        <time>2022-01-06T09:19:05.000Z</time>
      </trkpt>
      <trkpt lat="47.32371" lon="-2.3832">
        <ele>32.200000762939</ele>
        <time>2022-01-06T09:19:06.000Z</time>
      </trkpt>
      <trkpt lat="47.32376" lon="-2.38322">
        <ele>32.599998474121</ele>
        <time>2022-01-06T09:19:07.000Z</time>
      </trkpt>
      <trkpt lat="47.3238" lon="-2.38324">
        <ele>33</ele>
        <time>2022-01-06T09:19:08.000Z</time>
      </trkpt>
      <trkpt lat="47.32383" lon="-2.38327">
        <ele>33.400001525879</ele>
        <time>2022-01-06T09:19:09.000Z</time>
      </trkpt>
      <trkpt lat="47.32404" lon="-2.38336">
        <ele>33.400001525879</ele>
        <time>2022-01-06T09:19:14.000Z</time>
      </trkpt>
      <trkpt lat="47.32441" lon="-2.38356">
        <ele>33.400001525879</ele>
        <time>2022-01-06T09:19:21.000Z</time>
      </trkpt>
      <trkpt lat="47.32473" lon="-2.38369">
        <ele>33.400001525879</ele>
        <time>2022-01-06T09:19:27.000Z</time>
      </trkpt>
      <trkpt lat="47.32504" lon="-2.38382">
        <ele>33.400001525879</ele>
        <time>2022-01-06T09:19:33.000Z</time>
      </trkpt>
      <trkpt lat="47.32509" lon="-2.38384">
        <ele>33.400001525879</ele>
        <time>2022-01-06T09:19:34.000Z</time>
      </trkpt>
      <trkpt lat="47.32521" lon="-2.38378">
        <ele>33.400001525879</ele>
        <time>2022-01-06T09:19:37.000Z</time>
      </trkpt>
      <trkpt lat="47.32524" lon="-2.3836">
        <ele>33.400001525879</ele>
        <time>2022-01-06T09:19:40.000Z</time>
      </trkpt>
      <trkpt lat="47.32526" lon="-2.38338">
        <ele>33.400001525879</ele>
        <time>2022-01-06T09:19:43.000Z</time>
      </trkpt>
      <trkpt lat="47.3253" lon="-2.38318">
        <ele>33.400001525879</ele>
        <time>2022-01-06T09:19:46.000Z</time>
      </trkpt>
      <trkpt lat="47.32544" lon="-2.38312">
        <ele>33.400001525879</ele>
        <time>2022-01-06T09:19:49.000Z</time>
      </trkpt>
      <trkpt lat="47.3255" lon="-2.3831">
        <ele>33.400001525879</ele>
        <time>2022-01-06T09:19:50.000Z</time>
      </trkpt>
      <trkpt lat="47.32556" lon="-2.38308">
        <ele>33</ele>
        <time>2022-01-06T09:19:51.000Z</time>
      </trkpt>
      <trkpt lat="47.32563" lon="-2.38306">
        <ele>32.599998474121</ele>
        <time>2022-01-06T09:19:52.000Z</time>
      </trkpt>
      <trkpt lat="47.3257" lon="-2.38304">
        <ele>32.200000762939</ele>
        <time>2022-01-06T09:19:53.000Z</time>
      </trkpt>
      <trkpt lat="47.32577" lon="-2.38301">
        <ele>31.799999237061</ele>
        <time>2022-01-06T09:19:54.000Z</time>
      </trkpt>
      <trkpt lat="47.32583" lon="-2.38298">
        <ele>31.200000762939</ele>
        <time>2022-01-06T09:19:55.000Z</time>
      </trkpt>
      <trkpt lat="47.32596" lon="-2.38296">
        <ele>31.200000762939</ele>
        <time>2022-01-06T09:19:57.000Z</time>
      </trkpt>
      <trkpt lat="47.32608" lon="-2.38299">
        <ele>31.200000762939</ele>
        <time>2022-01-06T09:19:59.000Z</time>
      </trkpt>
      <trkpt lat="47.32623" lon="-2.38313">
        <ele>31.200000762939</ele>
        <time>2022-01-06T09:20:02.000Z</time>
      </trkpt>
      <trkpt lat="47.32627" lon="-2.38318">
        <ele>31.200000762939</ele>
        <time>2022-01-06T09:20:03.000Z</time>
      </trkpt>
      <trkpt lat="47.32637" lon="-2.38332">
        <ele>31.200000762939</ele>
        <time>2022-01-06T09:20:06.000Z</time>
      </trkpt>
      <trkpt lat="47.32645" lon="-2.38342">
        <ele>31.60000038147</ele>
        <time>2022-01-06T09:20:08.000Z</time>
      </trkpt>
      <trkpt lat="47.32648" lon="-2.38346">
        <ele>32</ele>
        <time>2022-01-06T09:20:09.000Z</time>
      </trkpt>
      <trkpt lat="47.32652" lon="-2.3835">
        <ele>32.599998474121</ele>
        <time>2022-01-06T09:20:10.000Z</time>
      </trkpt>
      <trkpt lat="47.32655" lon="-2.38355">
        <ele>33</ele>
        <time>2022-01-06T09:20:11.000Z</time>
      </trkpt>
      <trkpt lat="47.32658" lon="-2.38359">
        <ele>33.400001525879</ele>
        <time>2022-01-06T09:20:12.000Z</time>
      </trkpt>
      <trkpt lat="47.32665" lon="-2.38368">
        <ele>33.400001525879</ele>
        <time>2022-01-06T09:20:14.000Z</time>
      </trkpt>
      <trkpt lat="47.32671" lon="-2.38376">
        <ele>33.799999237061</ele>
        <time>2022-01-06T09:20:16.000Z</time>
      </trkpt>
      <trkpt lat="47.32675" lon="-2.38379">
        <ele>34.200000762939</ele>
        <time>2022-01-06T09:20:17.000Z</time>
      </trkpt>
      <trkpt lat="47.32677" lon="-2.38383">
        <ele>34.599998474121</ele>
        <time>2022-01-06T09:20:18.000Z</time>
      </trkpt>
      <trkpt lat="47.3268" lon="-2.38387">
        <ele>35</ele>
        <time>2022-01-06T09:20:19.000Z</time>
      </trkpt>
      <trkpt lat="47.32683" lon="-2.3839">
        <ele>35.400001525879</ele>
        <time>2022-01-06T09:20:20.000Z</time>
      </trkpt>
      <trkpt lat="47.32695" lon="-2.38402">
        <ele>36</ele>
        <time>2022-01-06T09:20:24.000Z</time>
      </trkpt>
      <trkpt lat="47.32698" lon="-2.38404">
        <ele>36.400001525879</ele>
        <time>2022-01-06T09:20:25.000Z</time>
      </trkpt>
      <trkpt lat="47.32702" lon="-2.38405">
        <ele>36.799999237061</ele>
        <time>2022-01-06T09:20:26.000Z</time>
      </trkpt>
      <trkpt lat="47.32705" lon="-2.38405">
        <ele>37.200000762939</ele>
        <time>2022-01-06T09:20:27.000Z</time>
      </trkpt>
      <trkpt lat="47.32709" lon="-2.38406">
        <ele>37.599998474121</ele>
        <time>2022-01-06T09:20:28.000Z</time>
      </trkpt>
      <trkpt lat="47.32716" lon="-2.38406">
        <ele>37.599998474121</ele>
        <time>2022-01-06T09:20:30.000Z</time>
      </trkpt>
      <trkpt lat="47.32736" lon="-2.38401">
        <ele>37.599998474121</ele>
        <time>2022-01-06T09:20:36.000Z</time>
      </trkpt>
      <trkpt lat="47.32743" lon="-2.384">
        <ele>38</ele>
        <time>2022-01-06T09:20:38.000Z</time>
      </trkpt>
      <trkpt lat="47.32745" lon="-2.384">
        <ele>38.599998474121</ele>
        <time>2022-01-06T09:20:39.000Z</time>
      </trkpt>
      <trkpt lat="47.32748" lon="-2.384">
        <ele>39</ele>
        <time>2022-01-06T09:20:40.000Z</time>
      </trkpt>
      <trkpt lat="47.32752" lon="-2.38399">
        <ele>39.400001525879</ele>
        <time>2022-01-06T09:20:41.000Z</time>
      </trkpt>
      <trkpt lat="47.32756" lon="-2.38398">
        <ele>39.799999237061</ele>
        <time>2022-01-06T09:20:42.000Z</time>
      </trkpt>
      <trkpt lat="47.32779" lon="-2.38392">
        <ele>39.799999237061</ele>
        <time>2022-01-06T09:20:48.000Z</time>
      </trkpt>
      <trkpt lat="47.32781" lon="-2.38387">
        <ele>39.799999237061</ele>
        <time>2022-01-06T09:20:49.000Z</time>
      </trkpt>
      <trkpt lat="47.32783" lon="-2.38375">
        <ele>39.799999237061</ele>
        <time>2022-01-06T09:20:51.000Z</time>
      </trkpt>
      <trkpt lat="47.32789" lon="-2.38334">
        <ele>39.799999237061</ele>
        <time>2022-01-06T09:20:56.000Z</time>
      </trkpt>
      <trkpt lat="47.328" lon="-2.38285">
        <ele>39.799999237061</ele>
        <time>2022-01-06T09:21:01.000Z</time>
      </trkpt>
      <trkpt lat="47.32803" lon="-2.38274">
        <ele>39.400001525879</ele>
        <time>2022-01-06T09:21:02.000Z</time>
      </trkpt>
      <trkpt lat="47.32806" lon="-2.38263">
        <ele>38.799999237061</ele>
        <time>2022-01-06T09:21:03.000Z</time>
      </trkpt>
      <trkpt lat="47.32808" lon="-2.38252">
        <ele>38.400001525879</ele>
        <time>2022-01-06T09:21:04.000Z</time>
      </trkpt>
      <trkpt lat="47.32811" lon="-2.3824">
        <ele>38</ele>
        <time>2022-01-06T09:21:05.000Z</time>
      </trkpt>
      <trkpt lat="47.32815" lon="-2.38229">
        <ele>37.599998474121</ele>
        <time>2022-01-06T09:21:06.000Z</time>
      </trkpt>
      <trkpt lat="47.32818" lon="-2.38217">
        <ele>37.200000762939</ele>
        <time>2022-01-06T09:21:07.000Z</time>
      </trkpt>
      <trkpt lat="47.32822" lon="-2.38205">
        <ele>36.799999237061</ele>
        <time>2022-01-06T09:21:08.000Z</time>
      </trkpt>
      <trkpt lat="47.32826" lon="-2.38194">
        <ele>36.400001525879</ele>
        <time>2022-01-06T09:21:09.000Z</time>
      </trkpt>
      <trkpt lat="47.3283" lon="-2.38184">
        <ele>36</ele>
        <time>2022-01-06T09:21:10.000Z</time>
      </trkpt>
      <trkpt lat="47.32835" lon="-2.38173">
        <ele>35.599998474121</ele>
        <time>2022-01-06T09:21:11.000Z</time>
      </trkpt>
      <trkpt lat="47.32839" lon="-2.38164">
        <ele>34.799999237061</ele>
        <time>2022-01-06T09:21:12.000Z</time>
      </trkpt>
      <trkpt lat="47.32844" lon="-2.38155">
        <ele>34.200000762939</ele>
        <time>2022-01-06T09:21:13.000Z</time>
      </trkpt>
      <trkpt lat="47.32849" lon="-2.38146">
        <ele>33.799999237061</ele>
        <time>2022-01-06T09:21:14.000Z</time>
      </trkpt>
      <trkpt lat="47.32854" lon="-2.38137">
        <ele>33.400001525879</ele>
        <time>2022-01-06T09:21:15.000Z</time>
      </trkpt>
      <trkpt lat="47.32874" lon="-2.38102">
        <ele>33</ele>
        <time>2022-01-06T09:21:19.000Z</time>
      </trkpt>
      <trkpt lat="47.3288" lon="-2.38093">
        <ele>32.599998474121</ele>
        <time>2022-01-06T09:21:20.000Z</time>
      </trkpt>
      <trkpt lat="47.32885" lon="-2.38084">
        <ele>32.200000762939</ele>
        <time>2022-01-06T09:21:21.000Z</time>
      </trkpt>
      <trkpt lat="47.3289" lon="-2.38075">
        <ele>31.799999237061</ele>
        <time>2022-01-06T09:21:22.000Z</time>
      </trkpt>
      <trkpt lat="47.32896" lon="-2.38066">
        <ele>31.39999961853</ele>
        <time>2022-01-06T09:21:23.000Z</time>
      </trkpt>
      <trkpt lat="47.32921" lon="-2.38025">
        <ele>31.39999961853</ele>
        <time>2022-01-06T09:21:28.000Z</time>
      </trkpt>
      <trkpt lat="47.32936" lon="-2.38004">
        <ele>31</ele>
        <time>2022-01-06T09:21:31.000Z</time>
      </trkpt>
      <trkpt lat="47.32939" lon="-2.37997">
        <ele>30.60000038147</ele>
        <time>2022-01-06T09:21:32.000Z</time>
      </trkpt>
      <trkpt lat="47.32942" lon="-2.37989">
        <ele>30.200000762939</ele>
        <time>2022-01-06T09:21:33.000Z</time>
      </trkpt>
      <trkpt lat="47.32944" lon="-2.37982">
        <ele>29.799999237061</ele>
        <time>2022-01-06T09:21:34.000Z</time>
      </trkpt>
      <trkpt lat="47.32945" lon="-2.37976">
        <ele>29.200000762939</ele>
        <time>2022-01-06T09:21:35.000Z</time>
      </trkpt>
      <trkpt lat="47.32946" lon="-2.3797">
        <ele>29.200000762939</ele>
        <time>2022-01-06T09:21:36.000Z</time>
      </trkpt>
      <trkpt lat="47.32949" lon="-2.37965">
        <ele>29.200000762939</ele>
        <time>2022-01-06T09:21:37.000Z</time>
      </trkpt>
      <trkpt lat="47.32963" lon="-2.37948">
        <ele>29.200000762939</ele>
        <time>2022-01-06T09:21:41.000Z</time>
      </trkpt>
      <trkpt lat="47.32978" lon="-2.37924">
        <ele>29.200000762939</ele>
        <time>2022-01-06T09:21:47.000Z</time>
      </trkpt>
      <trkpt lat="47.32988" lon="-2.37905">
        <ele>29.200000762939</ele>
        <time>2022-01-06T09:21:54.000Z</time>
      </trkpt>
      <trkpt lat="47.32997" lon="-2.37889">
        <ele>29.200000762939</ele>
        <time>2022-01-06T09:22:00.000Z</time>
      </trkpt>
      <trkpt lat="47.33007" lon="-2.37867">
        <ele>29.200000762939</ele>
        <time>2022-01-06T09:22:07.000Z</time>
      </trkpt>
      <trkpt lat="47.33013" lon="-2.37844">
        <ele>29.200000762939</ele>
        <time>2022-01-06T09:22:13.000Z</time>
      </trkpt>
      <trkpt lat="47.33012" lon="-2.37817">
        <ele>29.200000762939</ele>
        <time>2022-01-06T09:22:19.000Z</time>
      </trkpt>
      <trkpt lat="47.33007" lon="-2.37776">
        <ele>29.200000762939</ele>
        <time>2022-01-06T09:22:26.000Z</time>
      </trkpt>
      <trkpt lat="47.33004" lon="-2.37729">
        <ele>29.200000762939</ele>
        <time>2022-01-06T09:22:33.000Z</time>
      </trkpt>
      <trkpt lat="47.33002" lon="-2.37706">
        <ele>28.799999237061</ele>
        <time>2022-01-06T09:22:36.000Z</time>
      </trkpt>
      <trkpt lat="47.33002" lon="-2.37698">
        <ele>28.39999961853</ele>
        <time>2022-01-06T09:22:37.000Z</time>
      </trkpt>
      <trkpt lat="47.33002" lon="-2.37689">
        <ele>28</ele>
        <time>2022-01-06T09:22:38.000Z</time>
      </trkpt>
      <trkpt lat="47.33003" lon="-2.37682">
        <ele>27.60000038147</ele>
        <time>2022-01-06T09:22:39.000Z</time>
      </trkpt>
      <trkpt lat="47.33005" lon="-2.37675">
        <ele>27.200000762939</ele>
        <time>2022-01-06T09:22:40.000Z</time>
      </trkpt>
      <trkpt lat="47.33019" lon="-2.37644">
        <ele>27.200000762939</ele>
        <time>2022-01-06T09:22:45.000Z</time>
      </trkpt>
      <trkpt lat="47.33028" lon="-2.37625">
        <ele>26.799999237061</ele>
        <time>2022-01-06T09:22:48.000Z</time>
      </trkpt>
      <trkpt lat="47.33032" lon="-2.37618">
        <ele>26.39999961853</ele>
        <time>2022-01-06T09:22:49.000Z</time>
      </trkpt>
      <trkpt lat="47.33035" lon="-2.37611">
        <ele>25.39999961853</ele>
        <time>2022-01-06T09:22:50.000Z</time>
      </trkpt>
      <trkpt lat="47.33039" lon="-2.37603">
        <ele>25</ele>
        <time>2022-01-06T09:22:51.000Z</time>
      </trkpt>
      <trkpt lat="47.33069" lon="-2.37542">
        <ele>25</ele>
        <time>2022-01-06T09:22:59.000Z</time>
      </trkpt>
      <trkpt lat="47.33077" lon="-2.37527">
        <ele>24.60000038147</ele>
        <time>2022-01-06T09:23:01.000Z</time>
      </trkpt>
      <trkpt lat="47.3308" lon="-2.3752">
        <ele>24.200000762939</ele>
        <time>2022-01-06T09:23:02.000Z</time>
      </trkpt>
      <trkpt lat="47.33084" lon="-2.37513">
        <ele>23.799999237061</ele>
        <time>2022-01-06T09:23:03.000Z</time>
      </trkpt>
      <trkpt lat="47.33087" lon="-2.37506">
        <ele>23.39999961853</ele>
        <time>2022-01-06T09:23:04.000Z</time>
      </trkpt>
      <trkpt lat="47.3309" lon="-2.37498">
        <ele>23</ele>
        <time>2022-01-06T09:23:05.000Z</time>
      </trkpt>
      <trkpt lat="47.33098" lon="-2.37484">
        <ele>23</ele>
        <time>2022-01-06T09:23:07.000Z</time>
      </trkpt>
      <trkpt lat="47.3311" lon="-2.37462">
        <ele>23</ele>
        <time>2022-01-06T09:23:10.000Z</time>
      </trkpt>
      <trkpt lat="47.33113" lon="-2.37454">
        <ele>23</ele>
        <time>2022-01-06T09:23:11.000Z</time>
      </trkpt>
      <trkpt lat="47.33118" lon="-2.37438">
        <ele>23</ele>
        <time>2022-01-06T09:23:13.000Z</time>
      </trkpt>
      <trkpt lat="47.33118" lon="-2.37429">
        <ele>23</ele>
        <time>2022-01-06T09:23:14.000Z</time>
      </trkpt>
      <trkpt lat="47.33115" lon="-2.37388">
        <ele>23</ele>
        <time>2022-01-06T09:23:18.000Z</time>
      </trkpt>
      <trkpt lat="47.33108" lon="-2.37339">
        <ele>23</ele>
        <time>2022-01-06T09:23:23.000Z</time>
      </trkpt>
      <trkpt lat="47.33104" lon="-2.37284">
        <ele>23</ele>
        <time>2022-01-06T09:23:30.000Z</time>
      </trkpt>
      <trkpt lat="47.33105" lon="-2.3725">
        <ele>23.39999961853</ele>
        <time>2022-01-06T09:23:35.000Z</time>
      </trkpt>
      <trkpt lat="47.33105" lon="-2.37244">
        <ele>23.799999237061</ele>
        <time>2022-01-06T09:23:36.000Z</time>
      </trkpt>
      <trkpt lat="47.33105" lon="-2.37239">
        <ele>24.39999961853</ele>
        <time>2022-01-06T09:23:37.000Z</time>
      </trkpt>
      <trkpt lat="47.33105" lon="-2.37233">
        <ele>24.799999237061</ele>
        <time>2022-01-06T09:23:38.000Z</time>
      </trkpt>
      <trkpt lat="47.33105" lon="-2.37228">
        <ele>25.200000762939</ele>
        <time>2022-01-06T09:23:39.000Z</time>
      </trkpt>
      <trkpt lat="47.33105" lon="-2.37223">
        <ele>25.60000038147</ele>
        <time>2022-01-06T09:23:40.000Z</time>
      </trkpt>
      <trkpt lat="47.33105" lon="-2.37218">
        <ele>26</ele>
        <time>2022-01-06T09:23:41.000Z</time>
      </trkpt>
      <trkpt lat="47.33105" lon="-2.37214">
        <ele>26.39999961853</ele>
        <time>2022-01-06T09:23:42.000Z</time>
      </trkpt>
      <trkpt lat="47.33104" lon="-2.37209">
        <ele>26.799999237061</ele>
        <time>2022-01-06T09:23:43.000Z</time>
      </trkpt>
      <trkpt lat="47.33105" lon="-2.37203">
        <ele>27.200000762939</ele>
        <time>2022-01-06T09:23:44.000Z</time>
      </trkpt>
      <trkpt lat="47.33105" lon="-2.37188">
        <ele>27.799999237061</ele>
        <time>2022-01-06T09:23:47.000Z</time>
      </trkpt>
      <trkpt lat="47.33106" lon="-2.37183">
        <ele>28.200000762939</ele>
        <time>2022-01-06T09:23:48.000Z</time>
      </trkpt>
      <trkpt lat="47.33106" lon="-2.37178">
        <ele>28.60000038147</ele>
        <time>2022-01-06T09:23:49.000Z</time>
      </trkpt>
      <trkpt lat="47.33106" lon="-2.37173">
        <ele>29</ele>
        <time>2022-01-06T09:23:50.000Z</time>
      </trkpt>
      <trkpt lat="47.33105" lon="-2.37168">
        <ele>29.39999961853</ele>
        <time>2022-01-06T09:23:51.000Z</time>
      </trkpt>
      <trkpt lat="47.33106" lon="-2.37153">
        <ele>29.799999237061</ele>
        <time>2022-01-06T09:23:54.000Z</time>
      </trkpt>
      <trkpt lat="47.33107" lon="-2.37148">
        <ele>30.39999961853</ele>
        <time>2022-01-06T09:23:55.000Z</time>
      </trkpt>
      <trkpt lat="47.33107" lon="-2.37144">
        <ele>30.799999237061</ele>
        <time>2022-01-06T09:23:56.000Z</time>
      </trkpt>
      <trkpt lat="47.33107" lon="-2.37139">
        <ele>31.200000762939</ele>
        <time>2022-01-06T09:23:57.000Z</time>
      </trkpt>
      <trkpt lat="47.33107" lon="-2.37133">
        <ele>31.60000038147</ele>
        <time>2022-01-06T09:23:58.000Z</time>
      </trkpt>
      <trkpt lat="47.33109" lon="-2.37111">
        <ele>32.200000762939</ele>
        <time>2022-01-06T09:24:02.000Z</time>
      </trkpt>
      <trkpt lat="47.33108" lon="-2.37105">
        <ele>32.599998474121</ele>
        <time>2022-01-06T09:24:03.000Z</time>
      </trkpt>
      <trkpt lat="47.33108" lon="-2.37099">
        <ele>33</ele>
        <time>2022-01-06T09:24:04.000Z</time>
      </trkpt>
      <trkpt lat="47.33108" lon="-2.37093">
        <ele>33.799999237061</ele>
        <time>2022-01-06T09:24:05.000Z</time>
      </trkpt>
      <trkpt lat="47.33107" lon="-2.37075">
        <ele>33.799999237061</ele>
        <time>2022-01-06T09:24:08.000Z</time>
      </trkpt>
      <trkpt lat="47.33105" lon="-2.37052">
        <ele>33.799999237061</ele>
        <time>2022-01-06T09:24:12.000Z</time>
      </trkpt>
      <trkpt lat="47.33105" lon="-2.37033">
        <ele>33.799999237061</ele>
        <time>2022-01-06T09:24:15.000Z</time>
      </trkpt>
      <trkpt lat="47.33104" lon="-2.36984">
        <ele>33.799999237061</ele>
        <time>2022-01-06T09:24:22.000Z</time>
      </trkpt>
      <trkpt lat="47.33103" lon="-2.36931">
        <ele>33.799999237061</ele>
        <time>2022-01-06T09:24:28.000Z</time>
      </trkpt>
      <trkpt lat="47.33103" lon="-2.369">
        <ele>33.200000762939</ele>
        <time>2022-01-06T09:24:32.000Z</time>
      </trkpt>
      <trkpt lat="47.33104" lon="-2.36895">
        <ele>32.799999237061</ele>
        <time>2022-01-06T09:24:33.000Z</time>
      </trkpt>
      <trkpt lat="47.33107" lon="-2.3689">
        <ele>32.400001525879</ele>
        <time>2022-01-06T09:24:34.000Z</time>
      </trkpt>
      <trkpt lat="47.33111" lon="-2.36887">
        <ele>31.799999237061</ele>
        <time>2022-01-06T09:24:35.000Z</time>
      </trkpt>
      <trkpt lat="47.33114" lon="-2.36883">
        <ele>31.39999961853</ele>
        <time>2022-01-06T09:24:36.000Z</time>
      </trkpt>
      <trkpt lat="47.33123" lon="-2.36874">
        <ele>31.39999961853</ele>
        <time>2022-01-06T09:24:38.000Z</time>
      </trkpt>
      <trkpt lat="47.33138" lon="-2.36858">
        <ele>31.39999961853</ele>
        <time>2022-01-06T09:24:41.000Z</time>
      </trkpt>
      <trkpt lat="47.33172" lon="-2.36827">
        <ele>31</ele>
        <time>2022-01-06T09:24:47.000Z</time>
      </trkpt>
      <trkpt lat="47.33177" lon="-2.36822">
        <ele>30.60000038147</ele>
        <time>2022-01-06T09:24:48.000Z</time>
      </trkpt>
      <trkpt lat="47.33182" lon="-2.36816">
        <ele>30.200000762939</ele>
        <time>2022-01-06T09:24:49.000Z</time>
      </trkpt>
      <trkpt lat="47.33188" lon="-2.3681">
        <ele>29.799999237061</ele>
        <time>2022-01-06T09:24:50.000Z</time>
      </trkpt>
      <trkpt lat="47.33194" lon="-2.36803">
        <ele>29.39999961853</ele>
        <time>2022-01-06T09:24:51.000Z</time>
      </trkpt>
      <trkpt lat="47.33214" lon="-2.36784">
        <ele>29.39999961853</ele>
        <time>2022-01-06T09:24:54.000Z</time>
      </trkpt>
      <trkpt lat="47.33241" lon="-2.36758">
        <ele>29</ele>
        <time>2022-01-06T09:24:58.000Z</time>
      </trkpt>
      <trkpt lat="47.33247" lon="-2.36751">
        <ele>28.60000038147</ele>
        <time>2022-01-06T09:24:59.000Z</time>
      </trkpt>
      <trkpt lat="47.33253" lon="-2.36743">
        <ele>28.200000762939</ele>
        <time>2022-01-06T09:25:00.000Z</time>
      </trkpt>
      <trkpt lat="47.33259" lon="-2.36734">
        <ele>27.799999237061</ele>
        <time>2022-01-06T09:25:01.000Z</time>
      </trkpt>
      <trkpt lat="47.33264" lon="-2.36724">
        <ele>27.39999961853</ele>
        <time>2022-01-06T09:25:02.000Z</time>
      </trkpt>
      <trkpt lat="47.33281" lon="-2.36684">
        <ele>27.39999961853</ele>
        <time>2022-01-06T09:25:06.000Z</time>
      </trkpt>
      <trkpt lat="47.33304" lon="-2.36611">
        <ele>27</ele>
        <time>2022-01-06T09:25:13.000Z</time>
      </trkpt>
      <trkpt lat="47.33307" lon="-2.36601">
        <ele>26.60000038147</ele>
        <time>2022-01-06T09:25:14.000Z</time>
      </trkpt>
      <trkpt lat="47.3331" lon="-2.36591">
        <ele>26.200000762939</ele>
        <time>2022-01-06T09:25:15.000Z</time>
      </trkpt>
      <trkpt lat="47.33312" lon="-2.36582">
        <ele>25.799999237061</ele>
        <time>2022-01-06T09:25:16.000Z</time>
      </trkpt>
      <trkpt lat="47.33315" lon="-2.36573">
        <ele>25.200000762939</ele>
        <time>2022-01-06T09:25:17.000Z</time>
      </trkpt>
      <trkpt lat="47.33321" lon="-2.36549">
        <ele>25.200000762939</ele>
        <time>2022-01-06T09:25:20.000Z</time>
      </trkpt>
      <trkpt lat="47.33332" lon="-2.36499">
        <ele>25.60000038147</ele>
        <time>2022-01-06T09:25:26.000Z</time>
      </trkpt>
      <trkpt lat="47.33334" lon="-2.36491">
        <ele>26.200000762939</ele>
        <time>2022-01-06T09:25:27.000Z</time>
      </trkpt>
      <trkpt lat="47.33334" lon="-2.36483">
        <ele>26.60000038147</ele>
        <time>2022-01-06T09:25:28.000Z</time>
      </trkpt>
      <trkpt lat="47.33334" lon="-2.36475">
        <ele>27</ele>
        <time>2022-01-06T09:25:29.000Z</time>
      </trkpt>
      <trkpt lat="47.33334" lon="-2.36467">
        <ele>27.39999961853</ele>
        <time>2022-01-06T09:25:30.000Z</time>
      </trkpt>
      <trkpt lat="47.33333" lon="-2.36451">
        <ele>27.39999961853</ele>
        <time>2022-01-06T09:25:32.000Z</time>
      </trkpt>
      <trkpt lat="47.33324" lon="-2.36399">
        <ele>27.39999961853</ele>
        <time>2022-01-06T09:25:39.000Z</time>
      </trkpt>
      <trkpt lat="47.33323" lon="-2.36392">
        <ele>27.799999237061</ele>
        <time>2022-01-06T09:25:40.000Z</time>
      </trkpt>
      <trkpt lat="47.33322" lon="-2.36384">
        <ele>28.200000762939</ele>
        <time>2022-01-06T09:25:41.000Z</time>
      </trkpt>
      <trkpt lat="47.3332" lon="-2.36376">
        <ele>28.60000038147</ele>
        <time>2022-01-06T09:25:42.000Z</time>
      </trkpt>
      <trkpt lat="47.33319" lon="-2.36368">
        <ele>29.39999961853</ele>
        <time>2022-01-06T09:25:43.000Z</time>
      </trkpt>
      <trkpt lat="47.33314" lon="-2.36337">
        <ele>29.39999961853</ele>
        <time>2022-01-06T09:25:47.000Z</time>
      </trkpt>
      <trkpt lat="47.33309" lon="-2.36275">
        <ele>29.39999961853</ele>
        <time>2022-01-06T09:25:55.000Z</time>
      </trkpt>
      <trkpt lat="47.33312" lon="-2.36239">
        <ele>29.39999961853</ele>
        <time>2022-01-06T09:26:00.000Z</time>
      </trkpt>
      <trkpt lat="47.33316" lon="-2.36225">
        <ele>29.39999961853</ele>
        <time>2022-01-06T09:26:02.000Z</time>
      </trkpt>
      <trkpt lat="47.33331" lon="-2.36206">
        <ele>29.799999237061</ele>
        <time>2022-01-06T09:26:06.000Z</time>
      </trkpt>
      <trkpt lat="47.33336" lon="-2.36203">
        <ele>30.200000762939</ele>
        <time>2022-01-06T09:26:07.000Z</time>
      </trkpt>
      <trkpt lat="47.33341" lon="-2.362">
        <ele>31</ele>
        <time>2022-01-06T09:26:08.000Z</time>
      </trkpt>
      <trkpt lat="47.33345" lon="-2.36197">
        <ele>31.39999961853</ele>
        <time>2022-01-06T09:26:09.000Z</time>
      </trkpt>
      <trkpt lat="47.33363" lon="-2.36185">
        <ele>31.39999961853</ele>
        <time>2022-01-06T09:26:13.000Z</time>
      </trkpt>
      <trkpt lat="47.33403" lon="-2.3616">
        <ele>31.39999961853</ele>
        <time>2022-01-06T09:26:22.000Z</time>
      </trkpt>
      <trkpt lat="47.33413" lon="-2.3617">
        <ele>31.39999961853</ele>
        <time>2022-01-06T09:26:25.000Z</time>
      </trkpt>
      <trkpt lat="47.33417" lon="-2.36195">
        <ele>31.39999961853</ele>
        <time>2022-01-06T09:26:29.000Z</time>
      </trkpt>
      <trkpt lat="47.33416" lon="-2.36202">
        <ele>31.39999961853</ele>
        <time>2022-01-06T09:26:30.000Z</time>
      </trkpt>
      <trkpt lat="47.33413" lon="-2.36224">
        <ele>31.39999961853</ele>
        <time>2022-01-06T09:26:33.000Z</time>
      </trkpt>
      <trkpt lat="47.33412" lon="-2.36268">
        <ele>31.39999961853</ele>
        <time>2022-01-06T09:26:39.000Z</time>
      </trkpt>
      <trkpt lat="47.33416" lon="-2.36291">
        <ele>31.39999961853</ele>
        <time>2022-01-06T09:26:44.000Z</time>
      </trkpt>
      <trkpt lat="47.33417" lon="-2.36302">
        <ele>31.39999961853</ele>
        <time>2022-01-06T09:26:49.000Z</time>
      </trkpt>
      <trkpt lat="47.33418" lon="-2.36308">
        <ele>31</ele>
        <time>2022-01-06T09:26:52.000Z</time>
      </trkpt>
      <trkpt lat="47.33419" lon="-2.36311">
        <ele>30.60000038147</ele>
        <time>2022-01-06T09:26:53.000Z</time>
      </trkpt>
      <trkpt lat="47.33419" lon="-2.36314">
        <ele>30.200000762939</ele>
        <time>2022-01-06T09:26:54.000Z</time>
      </trkpt>
      <trkpt lat="47.3342" lon="-2.36317">
        <ele>29.799999237061</ele>
        <time>2022-01-06T09:26:55.000Z</time>
      </trkpt>
      <trkpt lat="47.33422" lon="-2.3632">
        <ele>29.39999961853</ele>
        <time>2022-01-06T09:26:56.000Z</time>
      </trkpt>
      <trkpt lat="47.33432" lon="-2.3635">
        <ele>29.39999961853</ele>
        <time>2022-01-06T09:27:03.000Z</time>
      </trkpt>
      <trkpt lat="47.33444" lon="-2.36381">
        <ele>29.39999961853</ele>
        <time>2022-01-06T09:27:11.000Z</time>
      </trkpt>
      <trkpt lat="47.33447" lon="-2.36389">
        <ele>29</ele>
        <time>2022-01-06T09:27:13.000Z</time>
      </trkpt>
      <trkpt lat="47.33448" lon="-2.36392">
        <ele>28.60000038147</ele>
        <time>2022-01-06T09:27:14.000Z</time>
      </trkpt>
      <trkpt lat="47.33449" lon="-2.36396">
        <ele>28.200000762939</ele>
        <time>2022-01-06T09:27:15.000Z</time>
      </trkpt>
      <trkpt lat="47.3345" lon="-2.36399">
        <ele>27.799999237061</ele>
        <time>2022-01-06T09:27:16.000Z</time>
      </trkpt>
      <trkpt lat="47.33452" lon="-2.36402">
        <ele>27.39999961853</ele>
        <time>2022-01-06T09:27:17.000Z</time>
      </trkpt>
      <trkpt lat="47.33456" lon="-2.36406">
        <ele>27.39999961853</ele>
        <time>2022-01-06T09:27:19.000Z</time>
      </trkpt>
      <trkpt lat="47.33461" lon="-2.36409">
        <ele>27.39999961853</ele>
        <time>2022-01-06T09:27:21.000Z</time>
      </trkpt>
      <trkpt lat="47.33472" lon="-2.36413">
        <ele>27.39999961853</ele>
        <time>2022-01-06T09:27:26.000Z</time>
      </trkpt>
      <trkpt lat="47.33473" lon="-2.36414">
        <ele>27.39999961853</ele>
        <time>2022-01-06T09:27:27.000Z</time>
      </trkpt>
      <trkpt lat="47.33474" lon="-2.36421">
        <ele>27.39999961853</ele>
        <time>2022-01-06T09:27:30.000Z</time>
      </trkpt>
      <trkpt lat="47.33474" lon="-2.36437">
        <ele>27.39999961853</ele>
        <time>2022-01-06T09:27:35.000Z</time>
      </trkpt>
      <trkpt lat="47.33478" lon="-2.36463">
        <ele>27.39999961853</ele>
        <time>2022-01-06T09:27:39.000Z</time>
      </trkpt>
      <trkpt lat="47.33477" lon="-2.365">
        <ele>27.39999961853</ele>
        <time>2022-01-06T09:27:44.000Z</time>
      </trkpt>
      <trkpt lat="47.33477" lon="-2.36527">
        <ele>26.799999237061</ele>
        <time>2022-01-06T09:27:48.000Z</time>
      </trkpt>
      <trkpt lat="47.33477" lon="-2.36534">
        <ele>26.39999961853</ele>
        <time>2022-01-06T09:27:49.000Z</time>
      </trkpt>
      <trkpt lat="47.33476" lon="-2.3654">
        <ele>26</ele>
        <time>2022-01-06T09:27:50.000Z</time>
      </trkpt>
      <trkpt lat="47.33476" lon="-2.36547">
        <ele>25.60000038147</ele>
        <time>2022-01-06T09:27:51.000Z</time>
      </trkpt>
      <trkpt lat="47.33475" lon="-2.36554">
        <ele>25.200000762939</ele>
        <time>2022-01-06T09:27:52.000Z</time>
      </trkpt>
      <trkpt lat="47.33474" lon="-2.36577">
        <ele>25.200000762939</ele>
        <time>2022-01-06T09:27:56.000Z</time>
      </trkpt>
      <trkpt lat="47.33476" lon="-2.36588">
        <ele>25.200000762939</ele>
        <time>2022-01-06T09:27:59.000Z</time>
      </trkpt>
      <trkpt lat="47.33478" lon="-2.3659">
        <ele>25.200000762939</ele>
        <time>2022-01-06T09:28:00.000Z</time>
      </trkpt>
      <trkpt lat="47.33496" lon="-2.36594">
        <ele>25.200000762939</ele>
        <time>2022-01-06T09:28:05.000Z</time>
      </trkpt>
      <trkpt lat="47.33508" lon="-2.36603">
        <ele>25.200000762939</ele>
        <time>2022-01-06T09:28:09.000Z</time>
      </trkpt>
      <trkpt lat="47.33523" lon="-2.36611">
        <ele>24.799999237061</ele>
        <time>2022-01-06T09:28:13.000Z</time>
      </trkpt>
      <trkpt lat="47.33527" lon="-2.36614">
        <ele>24.39999961853</ele>
        <time>2022-01-06T09:28:14.000Z</time>
      </trkpt>
      <trkpt lat="47.3353" lon="-2.36617">
        <ele>24</ele>
        <time>2022-01-06T09:28:15.000Z</time>
      </trkpt>
      <trkpt lat="47.33532" lon="-2.36619">
        <ele>23.60000038147</ele>
        <time>2022-01-06T09:28:16.000Z</time>
      </trkpt>
      <trkpt lat="47.33534" lon="-2.36622">
        <ele>23.200000762939</ele>
        <time>2022-01-06T09:28:17.000Z</time>
      </trkpt>
      <trkpt lat="47.33539" lon="-2.36628">
        <ele>22.60000038147</ele>
        <time>2022-01-06T09:28:19.000Z</time>
      </trkpt>
      <trkpt lat="47.33541" lon="-2.36632">
        <ele>22.200000762939</ele>
        <time>2022-01-06T09:28:20.000Z</time>
      </trkpt>
      <trkpt lat="47.33542" lon="-2.36635">
        <ele>21.60000038147</ele>
        <time>2022-01-06T09:28:21.000Z</time>
      </trkpt>
      <trkpt lat="47.33541" lon="-2.36639">
        <ele>21</ele>
        <time>2022-01-06T09:28:22.000Z</time>
      </trkpt>
      <trkpt lat="47.33539" lon="-2.36644">
        <ele>20.200000762939</ele>
        <time>2022-01-06T09:28:23.000Z</time>
      </trkpt>
      <trkpt lat="47.33537" lon="-2.36648">
        <ele>19.60000038147</ele>
        <time>2022-01-06T09:28:24.000Z</time>
      </trkpt>
      <trkpt lat="47.33535" lon="-2.36652">
        <ele>18.799999237061</ele>
        <time>2022-01-06T09:28:25.000Z</time>
      </trkpt>
      <trkpt lat="47.33532" lon="-2.36655">
        <ele>18.200000762939</ele>
        <time>2022-01-06T09:28:26.000Z</time>
      </trkpt>
      <trkpt lat="47.33527" lon="-2.3666">
        <ele>18.200000762939</ele>
        <time>2022-01-06T09:28:28.000Z</time>
      </trkpt>
      <trkpt lat="47.33525" lon="-2.36663">
        <ele>18.200000762939</ele>
        <time>2022-01-06T09:28:29.000Z</time>
      </trkpt>
      <trkpt lat="47.33516" lon="-2.36676">
        <ele>18.200000762939</ele>
        <time>2022-01-06T09:28:34.000Z</time>
      </trkpt>
      <trkpt lat="47.33502" lon="-2.36699">
        <ele>18.200000762939</ele>
        <time>2022-01-06T09:28:41.000Z</time>
      </trkpt>
      <trkpt lat="47.33497" lon="-2.36712">
        <ele>18.200000762939</ele>
        <time>2022-01-06T09:28:46.000Z</time>
      </trkpt>
      <trkpt lat="47.33495" lon="-2.36726">
        <ele>18.200000762939</ele>
        <time>2022-01-06T09:28:52.000Z</time>
      </trkpt>
      <trkpt lat="47.33488" lon="-2.36743">
        <ele>18.200000762939</ele>
        <time>2022-01-06T09:28:57.000Z</time>
      </trkpt>
      <trkpt lat="47.3348" lon="-2.36764">
        <ele>18.200000762939</ele>
        <time>2022-01-06T09:29:02.000Z</time>
      </trkpt>
      <trkpt lat="47.33476" lon="-2.36788">
        <ele>18.200000762939</ele>
        <time>2022-01-06T09:29:07.000Z</time>
      </trkpt>
      <trkpt lat="47.33472" lon="-2.36811">
        <ele>18.200000762939</ele>
        <time>2022-01-06T09:29:12.000Z</time>
      </trkpt>
      <trkpt lat="47.33469" lon="-2.36831">
        <ele>18.200000762939</ele>
        <time>2022-01-06T09:29:17.000Z</time>
      </trkpt>
      <trkpt lat="47.33463" lon="-2.36849">
        <ele>18.200000762939</ele>
        <time>2022-01-06T09:29:22.000Z</time>
      </trkpt>
      <trkpt lat="47.33454" lon="-2.3686">
        <ele>18.200000762939</ele>
        <time>2022-01-06T09:29:26.000Z</time>
      </trkpt>
      <trkpt lat="47.33453" lon="-2.36861">
        <ele>18.200000762939</ele>
        <time>2022-01-06T09:29:27.000Z</time>
      </trkpt>
      <trkpt lat="47.33452" lon="-2.36862">
        <ele>18.60000038147</ele>
        <time>2022-01-06T09:29:29.000Z</time>
      </trkpt>
      <trkpt lat="47.33451" lon="-2.36865">
        <ele>19</ele>
        <time>2022-01-06T09:29:30.000Z</time>
      </trkpt>
      <trkpt lat="47.33451" lon="-2.36867">
        <ele>19.39999961853</ele>
        <time>2022-01-06T09:29:31.000Z</time>
      </trkpt>
      <trkpt lat="47.33451" lon="-2.36869">
        <ele>19.799999237061</ele>
        <time>2022-01-06T09:29:32.000Z</time>
      </trkpt>
      <trkpt lat="47.3345" lon="-2.36872">
        <ele>20.200000762939</ele>
        <time>2022-01-06T09:29:33.000Z</time>
      </trkpt>
      <trkpt lat="47.33448" lon="-2.3688">
        <ele>20.200000762939</ele>
        <time>2022-01-06T09:29:35.000Z</time>
      </trkpt>
      <trkpt lat="47.33449" lon="-2.36885">
        <ele>20.200000762939</ele>
        <time>2022-01-06T09:29:36.000Z</time>
      </trkpt>
      <trkpt lat="47.33452" lon="-2.36903">
        <ele>20.200000762939</ele>
        <time>2022-01-06T09:29:40.000Z</time>
      </trkpt>
      <trkpt lat="47.33452" lon="-2.36941">
        <ele>20.200000762939</ele>
        <time>2022-01-06T09:29:47.000Z</time>
      </trkpt>
      <trkpt lat="47.33461" lon="-2.3697">
        <ele>20.200000762939</ele>
        <time>2022-01-06T09:29:52.000Z</time>
      </trkpt>
      <trkpt lat="47.3347" lon="-2.3699">
        <ele>20.200000762939</ele>
        <time>2022-01-06T09:29:57.000Z</time>
      </trkpt>
      <trkpt lat="47.33472" lon="-2.36995">
        <ele>20.200000762939</ele>
        <time>2022-01-06T09:29:59.000Z</time>
      </trkpt>
      <trkpt lat="47.33473" lon="-2.36999">
        <ele>20.200000762939</ele>
        <time>2022-01-06T09:30:01.000Z</time>
      </trkpt>
      <trkpt lat="47.33473" lon="-2.37001">
        <ele>20.200000762939</ele>
        <time>2022-01-06T09:30:02.000Z</time>
      </trkpt>
      <trkpt lat="47.33472" lon="-2.37006">
        <ele>20.200000762939</ele>
        <time>2022-01-06T09:30:06.000Z</time>
      </trkpt>
      <trkpt lat="47.33472" lon="-2.37007">
        <ele>20.200000762939</ele>
        <time>2022-01-06T09:30:07.000Z</time>
      </trkpt>
      <trkpt lat="47.33471" lon="-2.37016">
        <ele>20.200000762939</ele>
        <time>2022-01-06T09:30:58.000Z</time>
      </trkpt>
      <trkpt lat="47.3347" lon="-2.37024">
        <ele>20.200000762939</ele>
        <time>2022-01-06T09:31:01.000Z</time>
      </trkpt>
      <trkpt lat="47.3347" lon="-2.3703">
        <ele>20.200000762939</ele>
        <time>2022-01-06T09:31:03.000Z</time>
      </trkpt>
      <trkpt lat="47.33471" lon="-2.37039">
        <ele>20.200000762939</ele>
        <time>2022-01-06T09:31:06.000Z</time>
      </trkpt>
      <trkpt lat="47.33471" lon="-2.37065">
        <ele>20.200000762939</ele>
        <time>2022-01-06T09:31:11.000Z</time>
      </trkpt>
      <trkpt lat="47.33475" lon="-2.37097">
        <ele>20.200000762939</ele>
        <time>2022-01-06T09:31:17.000Z</time>
      </trkpt>
      <trkpt lat="47.33476" lon="-2.37107">
        <ele>20.60000038147</ele>
        <time>2022-01-06T09:31:19.000Z</time>
      </trkpt>
      <trkpt lat="47.33476" lon="-2.37112">
        <ele>21</ele>
        <time>2022-01-06T09:31:20.000Z</time>
      </trkpt>
      <trkpt lat="47.33477" lon="-2.37117">
        <ele>21.60000038147</ele>
        <time>2022-01-06T09:31:21.000Z</time>
      </trkpt>
      <trkpt lat="47.33478" lon="-2.37121">
        <ele>22</ele>
        <time>2022-01-06T09:31:22.000Z</time>
      </trkpt>
      <trkpt lat="47.33478" lon="-2.37126">
        <ele>22.39999961853</ele>
        <time>2022-01-06T09:31:23.000Z</time>
      </trkpt>
      <trkpt lat="47.33479" lon="-2.37135">
        <ele>22.39999961853</ele>
        <time>2022-01-06T09:31:25.000Z</time>
      </trkpt>
      <trkpt lat="47.33482" lon="-2.37167">
        <ele>22.799999237061</ele>
        <time>2022-01-06T09:31:31.000Z</time>
      </trkpt>
      <trkpt lat="47.33483" lon="-2.37172">
        <ele>23.200000762939</ele>
        <time>2022-01-06T09:31:32.000Z</time>
      </trkpt>
      <trkpt lat="47.33484" lon="-2.37177">
        <ele>23.60000038147</ele>
        <time>2022-01-06T09:31:33.000Z</time>
      </trkpt>
      <trkpt lat="47.33485" lon="-2.37183">
        <ele>24</ele>
        <time>2022-01-06T09:31:34.000Z</time>
      </trkpt>
      <trkpt lat="47.33486" lon="-2.37189">
        <ele>24.39999961853</ele>
        <time>2022-01-06T09:31:35.000Z</time>
      </trkpt>
      <trkpt lat="47.33492" lon="-2.3721">
        <ele>24.39999961853</ele>
        <time>2022-01-06T09:31:39.000Z</time>
      </trkpt>
      <trkpt lat="47.33502" lon="-2.37228">
        <ele>24.39999961853</ele>
        <time>2022-01-06T09:31:44.000Z</time>
      </trkpt>
      <trkpt lat="47.33511" lon="-2.37231">
        <ele>24.799999237061</ele>
        <time>2022-01-06T09:31:47.000Z</time>
      </trkpt>
      <trkpt lat="47.33514" lon="-2.37232">
        <ele>25.200000762939</ele>
        <time>2022-01-06T09:31:48.000Z</time>
      </trkpt>
      <trkpt lat="47.33517" lon="-2.37233">
        <ele>25.60000038147</ele>
        <time>2022-01-06T09:31:49.000Z</time>
      </trkpt>
      <trkpt lat="47.3352" lon="-2.37234">
        <ele>26</ele>
        <time>2022-01-06T09:31:50.000Z</time>
      </trkpt>
      <trkpt lat="47.33523" lon="-2.37234">
        <ele>26.39999961853</ele>
        <time>2022-01-06T09:31:51.000Z</time>
      </trkpt>
      <trkpt lat="47.3354" lon="-2.37234">
        <ele>26.39999961853</ele>
        <time>2022-01-06T09:31:56.000Z</time>
      </trkpt>
      <trkpt lat="47.33547" lon="-2.37233">
        <ele>26.799999237061</ele>
        <time>2022-01-06T09:31:58.000Z</time>
      </trkpt>
      <trkpt lat="47.3355" lon="-2.37233">
        <ele>27.200000762939</ele>
        <time>2022-01-06T09:31:59.000Z</time>
      </trkpt>
      <trkpt lat="47.33553" lon="-2.37233">
        <ele>27.60000038147</ele>
        <time>2022-01-06T09:32:00.000Z</time>
      </trkpt>
      <trkpt lat="47.33557" lon="-2.37233">
        <ele>28</ele>
        <time>2022-01-06T09:32:01.000Z</time>
      </trkpt>
      <trkpt lat="47.3356" lon="-2.37233">
        <ele>28.39999961853</ele>
        <time>2022-01-06T09:32:02.000Z</time>
      </trkpt>
      <trkpt lat="47.33576" lon="-2.37234">
        <ele>28.39999961853</ele>
        <time>2022-01-06T09:32:07.000Z</time>
      </trkpt>
      <trkpt lat="47.33596" lon="-2.37229">
        <ele>28.39999961853</ele>
        <time>2022-01-06T09:32:13.000Z</time>
      </trkpt>
      <trkpt lat="47.33599" lon="-2.37214">
        <ele>28.39999961853</ele>
        <time>2022-01-06T09:32:16.000Z</time>
      </trkpt>
      <trkpt lat="47.33599" lon="-2.37208">
        <ele>28.39999961853</ele>
        <time>2022-01-06T09:32:17.000Z</time>
      </trkpt>
      <trkpt lat="47.336" lon="-2.37172">
        <ele>28.39999961853</ele>
        <time>2022-01-06T09:32:22.000Z</time>
      </trkpt>
      <trkpt lat="47.33603" lon="-2.37125">
        <ele>28.39999961853</ele>
        <time>2022-01-06T09:32:28.000Z</time>
      </trkpt>
      <trkpt lat="47.33604" lon="-2.37109">
        <ele>28.39999961853</ele>
        <time>2022-01-06T09:32:30.000Z</time>
      </trkpt>
      <trkpt lat="47.33604" lon="-2.37062">
        <ele>28.39999961853</ele>
        <time>2022-01-06T09:32:36.000Z</time>
      </trkpt>
      <trkpt lat="47.33603" lon="-2.3699">
        <ele>28.39999961853</ele>
        <time>2022-01-06T09:32:45.000Z</time>
      </trkpt>
      <trkpt lat="47.33604" lon="-2.36965">
        <ele>28.39999961853</ele>
        <time>2022-01-06T09:32:48.000Z</time>
      </trkpt>
      <trkpt lat="47.33608" lon="-2.36949">
        <ele>28.39999961853</ele>
        <time>2022-01-06T09:32:50.000Z</time>
      </trkpt>
      <trkpt lat="47.33614" lon="-2.36936">
        <ele>28.39999961853</ele>
        <time>2022-01-06T09:32:52.000Z</time>
      </trkpt>
      <trkpt lat="47.33625" lon="-2.36918">
        <ele>28.39999961853</ele>
        <time>2022-01-06T09:32:55.000Z</time>
      </trkpt>
      <trkpt lat="47.33653" lon="-2.36884">
        <ele>28.39999961853</ele>
        <time>2022-01-06T09:33:02.000Z</time>
      </trkpt>
      <trkpt lat="47.33681" lon="-2.36851">
        <ele>28.39999961853</ele>
        <time>2022-01-06T09:33:09.000Z</time>
      </trkpt>
      <trkpt lat="47.33689" lon="-2.36842">
        <ele>28.799999237061</ele>
        <time>2022-01-06T09:33:11.000Z</time>
      </trkpt>
      <trkpt lat="47.33693" lon="-2.36837">
        <ele>29.200000762939</ele>
        <time>2022-01-06T09:33:12.000Z</time>
      </trkpt>
      <trkpt lat="47.33697" lon="-2.36833">
        <ele>29.60000038147</ele>
        <time>2022-01-06T09:33:13.000Z</time>
      </trkpt>
      <trkpt lat="47.33701" lon="-2.36829">
        <ele>30</ele>
        <time>2022-01-06T09:33:14.000Z</time>
      </trkpt>
      <trkpt lat="47.33705" lon="-2.36825">
        <ele>30.39999961853</ele>
        <time>2022-01-06T09:33:15.000Z</time>
      </trkpt>
      <trkpt lat="47.3371" lon="-2.36822">
        <ele>30.39999961853</ele>
        <time>2022-01-06T09:33:16.000Z</time>
      </trkpt>
      <trkpt lat="47.33738" lon="-2.36807">
        <ele>30.39999961853</ele>
        <time>2022-01-06T09:33:22.000Z</time>
      </trkpt>
      <trkpt lat="47.33754" lon="-2.36801">
        <ele>30.39999961853</ele>
        <time>2022-01-06T09:33:25.000Z</time>
      </trkpt>
      <trkpt lat="47.33771" lon="-2.36794">
        <ele>30.39999961853</ele>
        <time>2022-01-06T09:33:28.000Z</time>
      </trkpt>
      <trkpt lat="47.33816" lon="-2.36781">
        <ele>30.39999961853</ele>
        <time>2022-01-06T09:33:35.000Z</time>
      </trkpt>
      <trkpt lat="47.33854" lon="-2.3677">
        <ele>30.39999961853</ele>
        <time>2022-01-06T09:33:41.000Z</time>
      </trkpt>
      <trkpt lat="47.33895" lon="-2.3676">
        <ele>30.39999961853</ele>
        <time>2022-01-06T09:33:48.000Z</time>
      </trkpt>
      <trkpt lat="47.33914" lon="-2.36756">
        <ele>30.39999961853</ele>
        <time>2022-01-06T09:33:52.000Z</time>
      </trkpt>
      <trkpt lat="47.33918" lon="-2.36757">
        <ele>30.39999961853</ele>
        <time>2022-01-06T09:33:53.000Z</time>
      </trkpt>
      <trkpt lat="47.33926" lon="-2.36758">
        <ele>30.39999961853</ele>
        <time>2022-01-06T09:33:55.000Z</time>
      </trkpt>
      <trkpt lat="47.33941" lon="-2.36755">
        <ele>30.39999961853</ele>
        <time>2022-01-06T09:33:58.000Z</time>
      </trkpt>
      <trkpt lat="47.33951" lon="-2.36753">
        <ele>30</ele>
        <time>2022-01-06T09:34:00.000Z</time>
      </trkpt>
      <trkpt lat="47.33956" lon="-2.36751">
        <ele>29.60000038147</ele>
        <time>2022-01-06T09:34:01.000Z</time>
      </trkpt>
      <trkpt lat="47.33962" lon="-2.3675">
        <ele>29.200000762939</ele>
        <time>2022-01-06T09:34:02.000Z</time>
      </trkpt>
      <trkpt lat="47.33967" lon="-2.36748">
        <ele>28.799999237061</ele>
        <time>2022-01-06T09:34:03.000Z</time>
      </trkpt>
      <trkpt lat="47.33973" lon="-2.36747">
        <ele>28.200000762939</ele>
        <time>2022-01-06T09:34:04.000Z</time>
      </trkpt>
      <trkpt lat="47.33985" lon="-2.36743">
        <ele>28.200000762939</ele>
        <time>2022-01-06T09:34:06.000Z</time>
      </trkpt>
      <trkpt lat="47.34017" lon="-2.36733">
        <ele>27.799999237061</ele>
        <time>2022-01-06T09:34:11.000Z</time>
      </trkpt>
      <trkpt lat="47.34023" lon="-2.3673">
        <ele>27.39999961853</ele>
        <time>2022-01-06T09:34:12.000Z</time>
      </trkpt>
      <trkpt lat="47.34029" lon="-2.36726">
        <ele>27</ele>
        <time>2022-01-06T09:34:13.000Z</time>
      </trkpt>
      <trkpt lat="47.34035" lon="-2.36723">
        <ele>26.60000038147</ele>
        <time>2022-01-06T09:34:14.000Z</time>
      </trkpt>
      <trkpt lat="47.34041" lon="-2.36719">
        <ele>26.200000762939</ele>
        <time>2022-01-06T09:34:15.000Z</time>
      </trkpt>
      <trkpt lat="47.34065" lon="-2.36706">
        <ele>26.200000762939</ele>
        <time>2022-01-06T09:34:19.000Z</time>
      </trkpt>
      <trkpt lat="47.34076" lon="-2.36702">
        <ele>26.200000762939</ele>
        <time>2022-01-06T09:34:21.000Z</time>
      </trkpt>
      <trkpt lat="47.34081" lon="-2.36704">
        <ele>26.200000762939</ele>
        <time>2022-01-06T09:34:22.000Z</time>
      </trkpt>
      <trkpt lat="47.34085" lon="-2.36708">
        <ele>25.799999237061</ele>
        <time>2022-01-06T09:34:23.000Z</time>
      </trkpt>
      <trkpt lat="47.34088" lon="-2.36714">
        <ele>25.39999961853</ele>
        <time>2022-01-06T09:34:24.000Z</time>
      </trkpt>
      <trkpt lat="47.34089" lon="-2.3672">
        <ele>25</ele>
        <time>2022-01-06T09:34:25.000Z</time>
      </trkpt>
      <trkpt lat="47.34091" lon="-2.36728">
        <ele>24.39999961853</ele>
        <time>2022-01-06T09:34:26.000Z</time>
      </trkpt>
      <trkpt lat="47.34092" lon="-2.36735">
        <ele>24</ele>
        <time>2022-01-06T09:34:27.000Z</time>
      </trkpt>
      <trkpt lat="47.34097" lon="-2.36768">
        <ele>24</ele>
        <time>2022-01-06T09:34:31.000Z</time>
      </trkpt>
      <trkpt lat="47.34111" lon="-2.36838">
        <ele>24</ele>
        <time>2022-01-06T09:34:39.000Z</time>
      </trkpt>
      <trkpt lat="47.34117" lon="-2.36864">
        <ele>24</ele>
        <time>2022-01-06T09:34:42.000Z</time>
      </trkpt>
      <trkpt lat="47.34121" lon="-2.36871">
        <ele>23.60000038147</ele>
        <time>2022-01-06T09:34:43.000Z</time>
      </trkpt>
      <trkpt lat="47.34124" lon="-2.36878">
        <ele>23.200000762939</ele>
        <time>2022-01-06T09:34:44.000Z</time>
      </trkpt>
      <trkpt lat="47.34128" lon="-2.36885">
        <ele>22.799999237061</ele>
        <time>2022-01-06T09:34:45.000Z</time>
      </trkpt>
      <trkpt lat="47.34132" lon="-2.36893">
        <ele>22.39999961853</ele>
        <time>2022-01-06T09:34:46.000Z</time>
      </trkpt>
      <trkpt lat="47.34136" lon="-2.36899">
        <ele>22</ele>
        <time>2022-01-06T09:34:47.000Z</time>
      </trkpt>
      <trkpt lat="47.34146" lon="-2.36918">
        <ele>22</ele>
        <time>2022-01-06T09:34:50.000Z</time>
      </trkpt>
      <trkpt lat="47.34169" lon="-2.36958">
        <ele>22</ele>
        <time>2022-01-06T09:34:57.000Z</time>
      </trkpt>
      <trkpt lat="47.34172" lon="-2.36964">
        <ele>22</ele>
        <time>2022-01-06T09:34:58.000Z</time>
      </trkpt>
      <trkpt lat="47.34183" lon="-2.36979">
        <ele>22.39999961853</ele>
        <time>2022-01-06T09:35:01.000Z</time>
      </trkpt>
      <trkpt lat="47.34187" lon="-2.36985">
        <ele>22.799999237061</ele>
        <time>2022-01-06T09:35:02.000Z</time>
      </trkpt>
      <trkpt lat="47.34191" lon="-2.3699">
        <ele>23.200000762939</ele>
        <time>2022-01-06T09:35:03.000Z</time>
      </trkpt>
      <trkpt lat="47.34195" lon="-2.36995">
        <ele>23.799999237061</ele>
        <time>2022-01-06T09:35:04.000Z</time>
      </trkpt>
      <trkpt lat="47.34199" lon="-2.37">
        <ele>24.200000762939</ele>
        <time>2022-01-06T09:35:05.000Z</time>
      </trkpt>
      <trkpt lat="47.34212" lon="-2.37021">
        <ele>24.200000762939</ele>
        <time>2022-01-06T09:35:09.000Z</time>
      </trkpt>
      <trkpt lat="47.34215" lon="-2.37026">
        <ele>24.60000038147</ele>
        <time>2022-01-06T09:35:10.000Z</time>
      </trkpt>
      <trkpt lat="47.34218" lon="-2.37031">
        <ele>25</ele>
        <time>2022-01-06T09:35:11.000Z</time>
      </trkpt>
      <trkpt lat="47.3422" lon="-2.37037">
        <ele>26</ele>
        <time>2022-01-06T09:35:12.000Z</time>
      </trkpt>
      <trkpt lat="47.34223" lon="-2.37042">
        <ele>26.39999961853</ele>
        <time>2022-01-06T09:35:13.000Z</time>
      </trkpt>
      <trkpt lat="47.34231" lon="-2.37056">
        <ele>26.39999961853</ele>
        <time>2022-01-06T09:35:16.000Z</time>
      </trkpt>
      <trkpt lat="47.34238" lon="-2.37061">
        <ele>26.39999961853</ele>
        <time>2022-01-06T09:35:18.000Z</time>
      </trkpt>
      <trkpt lat="47.34242" lon="-2.3706">
        <ele>26.39999961853</ele>
        <time>2022-01-06T09:35:19.000Z</time>
      </trkpt>
      <trkpt lat="47.34246" lon="-2.37058">
        <ele>26.799999237061</ele>
        <time>2022-01-06T09:35:20.000Z</time>
      </trkpt>
      <trkpt lat="47.34249" lon="-2.37055">
        <ele>27.200000762939</ele>
        <time>2022-01-06T09:35:21.000Z</time>
      </trkpt>
      <trkpt lat="47.34253" lon="-2.37051">
        <ele>27.60000038147</ele>
        <time>2022-01-06T09:35:22.000Z</time>
      </trkpt>
      <trkpt lat="47.34257" lon="-2.37047">
        <ele>28</ele>
        <time>2022-01-06T09:35:23.000Z</time>
      </trkpt>
      <trkpt lat="47.34261" lon="-2.37044">
        <ele>28.39999961853</ele>
        <time>2022-01-06T09:35:24.000Z</time>
      </trkpt>
      <trkpt lat="47.34283" lon="-2.37023">
        <ele>28.39999961853</ele>
        <time>2022-01-06T09:35:29.000Z</time>
      </trkpt>
      <trkpt lat="47.34313" lon="-2.36985">
        <ele>28.39999961853</ele>
        <time>2022-01-06T09:35:36.000Z</time>
      </trkpt>
      <trkpt lat="47.34345" lon="-2.36938">
        <ele>28.39999961853</ele>
        <time>2022-01-06T09:35:44.000Z</time>
      </trkpt>
      <trkpt lat="47.34368" lon="-2.36901">
        <ele>28.39999961853</ele>
        <time>2022-01-06T09:35:50.000Z</time>
      </trkpt>
      <trkpt lat="47.34393" lon="-2.36862">
        <ele>28.39999961853</ele>
        <time>2022-01-06T09:35:56.000Z</time>
      </trkpt>
      <trkpt lat="47.3443" lon="-2.36802">
        <ele>28.39999961853</ele>
        <time>2022-01-06T09:36:05.000Z</time>
      </trkpt>
      <trkpt lat="47.34434" lon="-2.36795">
        <ele>28.39999961853</ele>
        <time>2022-01-06T09:36:06.000Z</time>
      </trkpt>
      <trkpt lat="47.34455" lon="-2.36764">
        <ele>28</ele>
        <time>2022-01-06T09:36:11.000Z</time>
      </trkpt>
      <trkpt lat="47.34459" lon="-2.36758">
        <ele>27.60000038147</ele>
        <time>2022-01-06T09:36:12.000Z</time>
      </trkpt>
      <trkpt lat="47.34463" lon="-2.36751">
        <ele>27.200000762939</ele>
        <time>2022-01-06T09:36:13.000Z</time>
      </trkpt>
      <trkpt lat="47.34467" lon="-2.36745">
        <ele>26.799999237061</ele>
        <time>2022-01-06T09:36:14.000Z</time>
      </trkpt>
      <trkpt lat="47.34471" lon="-2.36738">
        <ele>26.39999961853</ele>
        <time>2022-01-06T09:36:15.000Z</time>
      </trkpt>
      <trkpt lat="47.34492" lon="-2.36699">
        <ele>26.39999961853</ele>
        <time>2022-01-06T09:36:20.000Z</time>
      </trkpt>
      <trkpt lat="47.345" lon="-2.36683">
        <ele>26</ele>
        <time>2022-01-06T09:36:22.000Z</time>
      </trkpt>
      <trkpt lat="47.34503" lon="-2.36675">
        <ele>25.60000038147</ele>
        <time>2022-01-06T09:36:23.000Z</time>
      </trkpt>
      <trkpt lat="47.34507" lon="-2.36667">
        <ele>25.200000762939</ele>
        <time>2022-01-06T09:36:24.000Z</time>
      </trkpt>
      <trkpt lat="47.34511" lon="-2.36659">
        <ele>24.799999237061</ele>
        <time>2022-01-06T09:36:25.000Z</time>
      </trkpt>
      <trkpt lat="47.34515" lon="-2.3665">
        <ele>24.39999961853</ele>
        <time>2022-01-06T09:36:26.000Z</time>
      </trkpt>
      <trkpt lat="47.34522" lon="-2.36633">
        <ele>24.39999961853</ele>
        <time>2022-01-06T09:36:28.000Z</time>
      </trkpt>
      <trkpt lat="47.34536" lon="-2.36598">
        <ele>24</ele>
        <time>2022-01-06T09:36:32.000Z</time>
      </trkpt>
      <trkpt lat="47.34539" lon="-2.36589">
        <ele>23.60000038147</ele>
        <time>2022-01-06T09:36:33.000Z</time>
      </trkpt>
      <trkpt lat="47.34543" lon="-2.3658">
        <ele>23</ele>
        <time>2022-01-06T09:36:34.000Z</time>
      </trkpt>
      <trkpt lat="47.34547" lon="-2.3657">
        <ele>22.60000038147</ele>
        <time>2022-01-06T09:36:35.000Z</time>
      </trkpt>
      <trkpt lat="47.3455" lon="-2.36561">
        <ele>22.200000762939</ele>
        <time>2022-01-06T09:36:36.000Z</time>
      </trkpt>
      <trkpt lat="47.34577" lon="-2.36488">
        <ele>22.200000762939</ele>
        <time>2022-01-06T09:36:44.000Z</time>
      </trkpt>
      <trkpt lat="47.34593" lon="-2.36447">
        <ele>21.799999237061</ele>
        <time>2022-01-06T09:36:49.000Z</time>
      </trkpt>
      <trkpt lat="47.34595" lon="-2.36441">
        <ele>21.39999961853</ele>
        <time>2022-01-06T09:36:50.000Z</time>
      </trkpt>
      <trkpt lat="47.34594" lon="-2.36435">
        <ele>20.60000038147</ele>
        <time>2022-01-06T09:36:51.000Z</time>
      </trkpt>
      <trkpt lat="47.34592" lon="-2.36429">
        <ele>20.200000762939</ele>
        <time>2022-01-06T09:36:52.000Z</time>
      </trkpt>
      <trkpt lat="47.34585" lon="-2.36418">
        <ele>20.200000762939</ele>
        <time>2022-01-06T09:36:54.000Z</time>
      </trkpt>
      <trkpt lat="47.34575" lon="-2.36405">
        <ele>20.200000762939</ele>
        <time>2022-01-06T09:36:56.000Z</time>
      </trkpt>
      <trkpt lat="47.34552" lon="-2.36369">
        <ele>20.200000762939</ele>
        <time>2022-01-06T09:37:01.000Z</time>
      </trkpt>
      <trkpt lat="47.34541" lon="-2.36345">
        <ele>19.799999237061</ele>
        <time>2022-01-06T09:37:04.000Z</time>
      </trkpt>
      <trkpt lat="47.34538" lon="-2.36337">
        <ele>19.39999961853</ele>
        <time>2022-01-06T09:37:05.000Z</time>
      </trkpt>
      <trkpt lat="47.34535" lon="-2.36329">
        <ele>18.799999237061</ele>
        <time>2022-01-06T09:37:06.000Z</time>
      </trkpt>
      <trkpt lat="47.34532" lon="-2.36321">
        <ele>18.39999961853</ele>
        <time>2022-01-06T09:37:07.000Z</time>
      </trkpt>
      <trkpt lat="47.34529" lon="-2.36313">
        <ele>18</ele>
        <time>2022-01-06T09:37:08.000Z</time>
      </trkpt>
      <trkpt lat="47.34516" lon="-2.36269">
        <ele>18</ele>
        <time>2022-01-06T09:37:13.000Z</time>
      </trkpt>
      <trkpt lat="47.34504" lon="-2.36233">
        <ele>18</ele>
        <time>2022-01-06T09:37:17.000Z</time>
      </trkpt>
      <trkpt lat="47.34496" lon="-2.36218">
        <ele>18</ele>
        <time>2022-01-06T09:37:19.000Z</time>
      </trkpt>
      <trkpt lat="47.34468" lon="-2.36171">
        <ele>18</ele>
        <time>2022-01-06T09:37:26.000Z</time>
      </trkpt>
      <trkpt lat="47.34463" lon="-2.36158">
        <ele>18</ele>
        <time>2022-01-06T09:37:28.000Z</time>
      </trkpt>
      <trkpt lat="47.34456" lon="-2.36143">
        <ele>18</ele>
        <time>2022-01-06T09:37:31.000Z</time>
      </trkpt>
      <trkpt lat="47.34447" lon="-2.36124">
        <ele>18</ele>
        <time>2022-01-06T09:37:36.000Z</time>
      </trkpt>
      <trkpt lat="47.34441" lon="-2.36108">
        <ele>18</ele>
        <time>2022-01-06T09:37:41.000Z</time>
      </trkpt>
      <trkpt lat="47.34434" lon="-2.36092">
        <ele>18</ele>
        <time>2022-01-06T09:37:46.000Z</time>
      </trkpt>
      <trkpt lat="47.34428" lon="-2.3607">
        <ele>18</ele>
        <time>2022-01-06T09:37:52.000Z</time>
      </trkpt>
      <trkpt lat="47.34423" lon="-2.3604">
        <ele>18</ele>
        <time>2022-01-06T09:37:58.000Z</time>
      </trkpt>
      <trkpt lat="47.3442" lon="-2.36033">
        <ele>18</ele>
        <time>2022-01-06T09:37:59.000Z</time>
      </trkpt>
      <trkpt lat="47.34412" lon="-2.36013">
        <ele>18</ele>
        <time>2022-01-06T09:38:02.000Z</time>
      </trkpt>
      <trkpt lat="47.34416" lon="-2.35997">
        <ele>18</ele>
        <time>2022-01-06T09:38:05.000Z</time>
      </trkpt>
      <trkpt lat="47.34419" lon="-2.35994">
        <ele>18</ele>
        <time>2022-01-06T09:38:06.000Z</time>
      </trkpt>
      <trkpt lat="47.34433" lon="-2.35981">
        <ele>18</ele>
        <time>2022-01-06T09:38:10.000Z</time>
      </trkpt>
      <trkpt lat="47.34455" lon="-2.3596">
        <ele>18</ele>
        <time>2022-01-06T09:38:15.000Z</time>
      </trkpt>
      <trkpt lat="47.34487" lon="-2.35938">
        <ele>18</ele>
        <time>2022-01-06T09:38:21.000Z</time>
      </trkpt>
      <trkpt lat="47.34503" lon="-2.35931">
        <ele>17.60000038147</ele>
        <time>2022-01-06T09:38:24.000Z</time>
      </trkpt>
      <trkpt lat="47.34509" lon="-2.35928">
        <ele>17.200000762939</ele>
        <time>2022-01-06T09:38:25.000Z</time>
      </trkpt>
      <trkpt lat="47.34514" lon="-2.35926">
        <ele>16.799999237061</ele>
        <time>2022-01-06T09:38:26.000Z</time>
      </trkpt>
      <trkpt lat="47.3452" lon="-2.35924">
        <ele>16.39999961853</ele>
        <time>2022-01-06T09:38:27.000Z</time>
      </trkpt>
      <trkpt lat="47.34526" lon="-2.35922">
        <ele>16</ele>
        <time>2022-01-06T09:38:28.000Z</time>
      </trkpt>
      <trkpt lat="47.34563" lon="-2.35904">
        <ele>16</ele>
        <time>2022-01-06T09:38:35.000Z</time>
      </trkpt>
      <trkpt lat="47.34568" lon="-2.359">
        <ele>15.60000038147</ele>
        <time>2022-01-06T09:38:36.000Z</time>
      </trkpt>
      <trkpt lat="47.34574" lon="-2.35897">
        <ele>15.199999809265</ele>
        <time>2022-01-06T09:38:37.000Z</time>
      </trkpt>
      <trkpt lat="47.3458" lon="-2.35893">
        <ele>14.800000190735</ele>
        <time>2022-01-06T09:38:38.000Z</time>
      </trkpt>
      <trkpt lat="47.34585" lon="-2.35889">
        <ele>14.39999961853</ele>
        <time>2022-01-06T09:38:39.000Z</time>
      </trkpt>
      <trkpt lat="47.3459" lon="-2.35885">
        <ele>14</ele>
        <time>2022-01-06T09:38:40.000Z</time>
      </trkpt>
      <trkpt lat="47.34595" lon="-2.35881">
        <ele>14</ele>
        <time>2022-01-06T09:38:41.000Z</time>
      </trkpt>
      <trkpt lat="47.34621" lon="-2.3586">
        <ele>14</ele>
        <time>2022-01-06T09:38:47.000Z</time>
      </trkpt>
      <trkpt lat="47.3464" lon="-2.35843">
        <ele>14</ele>
        <time>2022-01-06T09:38:52.000Z</time>
      </trkpt>
      <trkpt lat="47.34643" lon="-2.3584">
        <ele>14</ele>
        <time>2022-01-06T09:38:53.000Z</time>
      </trkpt>
      <trkpt lat="47.34668" lon="-2.3582">
        <ele>14</ele>
        <time>2022-01-06T09:39:00.000Z</time>
      </trkpt>
      <trkpt lat="47.34683" lon="-2.35807">
        <ele>14</ele>
        <time>2022-01-06T09:39:04.000Z</time>
      </trkpt>
      <trkpt lat="47.3469" lon="-2.35801">
        <ele>14</ele>
        <time>2022-01-06T09:39:06.000Z</time>
      </trkpt>
      <trkpt lat="47.34702" lon="-2.35791">
        <ele>14</ele>
        <time>2022-01-06T09:39:09.000Z</time>
      </trkpt>
      <trkpt lat="47.34717" lon="-2.35779">
        <ele>14</ele>
        <time>2022-01-06T09:39:13.000Z</time>
      </trkpt>
      <trkpt lat="47.34733" lon="-2.35767">
        <ele>14</ele>
        <time>2022-01-06T09:39:18.000Z</time>
      </trkpt>
      <trkpt lat="47.34759" lon="-2.35751">
        <ele>14</ele>
        <time>2022-01-06T09:39:25.000Z</time>
      </trkpt>
      <trkpt lat="47.34777" lon="-2.35743">
        <ele>14</ele>
        <time>2022-01-06T09:39:30.000Z</time>
      </trkpt>
      <trkpt lat="47.34797" lon="-2.35732">
        <ele>14</ele>
        <time>2022-01-06T09:39:36.000Z</time>
      </trkpt>
      <trkpt lat="47.34822" lon="-2.35721">
        <ele>14</ele>
        <time>2022-01-06T09:39:43.000Z</time>
      </trkpt>
      <trkpt lat="47.34843" lon="-2.35708">
        <ele>14</ele>
        <time>2022-01-06T09:39:49.000Z</time>
      </trkpt>
      <trkpt lat="47.34854" lon="-2.35683">
        <ele>14</ele>
        <time>2022-01-06T09:39:55.000Z</time>
      </trkpt>
      <trkpt lat="47.34858" lon="-2.35674">
        <ele>14</ele>
        <time>2022-01-06T09:39:59.000Z</time>
      </trkpt>
      <trkpt lat="47.34858" lon="-2.35672">
        <ele>14</ele>
        <time>2022-01-06T09:40:01.000Z</time>
      </trkpt>
      <trkpt lat="47.34856" lon="-2.35664">
        <ele>14</ele>
        <time>2022-01-06T09:40:09.000Z</time>
      </trkpt>
      <trkpt lat="47.34853" lon="-2.35663">
        <ele>14</ele>
        <time>2022-01-06T09:40:10.000Z</time>
      </trkpt>
      <trkpt lat="47.34842" lon="-2.35657">
        <ele>14</ele>
        <time>2022-01-06T09:40:13.000Z</time>
      </trkpt>
      <trkpt lat="47.34834" lon="-2.35652">
        <ele>14</ele>
        <time>2022-01-06T09:40:15.000Z</time>
      </trkpt>
      <trkpt lat="47.34805" lon="-2.35629">
        <ele>14</ele>
        <time>2022-01-06T09:40:21.000Z</time>
      </trkpt>
      <trkpt lat="47.3478" lon="-2.35602">
        <ele>14</ele>
        <time>2022-01-06T09:40:26.000Z</time>
      </trkpt>
      <trkpt lat="47.34771" lon="-2.3559">
        <ele>14</ele>
        <time>2022-01-06T09:40:28.000Z</time>
      </trkpt>
      <trkpt lat="47.34733" lon="-2.35541">
        <ele>14</ele>
        <time>2022-01-06T09:40:36.000Z</time>
      </trkpt>
      <trkpt lat="47.347" lon="-2.35488">
        <ele>14</ele>
        <time>2022-01-06T09:40:44.000Z</time>
      </trkpt>
      <trkpt lat="47.34666" lon="-2.35433">
        <ele>14</ele>
        <time>2022-01-06T09:40:53.000Z</time>
      </trkpt>
      <trkpt lat="47.34649" lon="-2.35408">
        <ele>13.60000038147</ele>
        <time>2022-01-06T09:40:59.000Z</time>
      </trkpt>
      <trkpt lat="47.34651" lon="-2.35406">
        <ele>13.199999809265</ele>
        <time>2022-01-06T09:41:00.000Z</time>
      </trkpt>
      <trkpt lat="47.34653" lon="-2.35405">
        <ele>12.800000190735</ele>
        <time>2022-01-06T09:41:01.000Z</time>
      </trkpt>
      <trkpt lat="47.34655" lon="-2.35404">
        <ele>12.39999961853</ele>
        <time>2022-01-06T09:41:02.000Z</time>
      </trkpt>
      <trkpt lat="47.34658" lon="-2.35405">
        <ele>12</ele>
        <time>2022-01-06T09:41:03.000Z</time>
      </trkpt>
      <trkpt lat="47.34661" lon="-2.35405">
        <ele>12</ele>
        <time>2022-01-06T09:41:04.000Z</time>
      </trkpt>
      <trkpt lat="47.34663" lon="-2.35404">
        <ele>12</ele>
        <time>2022-01-06T09:41:05.000Z</time>
      </trkpt>
      <trkpt lat="47.34671" lon="-2.35402">
        <ele>12</ele>
        <time>2022-01-06T09:41:08.000Z</time>
      </trkpt>
      <trkpt lat="47.34691" lon="-2.35402">
        <ele>12</ele>
        <time>2022-01-06T09:41:14.000Z</time>
      </trkpt>
      <trkpt lat="47.34693" lon="-2.354">
        <ele>12</ele>
        <time>2022-01-06T09:41:15.000Z</time>
      </trkpt>
      <trkpt lat="47.34701" lon="-2.35392">
        <ele>12</ele>
        <time>2022-01-06T09:41:18.000Z</time>
      </trkpt>
      <trkpt lat="47.34713" lon="-2.35378">
        <ele>12</ele>
        <time>2022-01-06T09:41:23.000Z</time>
      </trkpt>
      <trkpt lat="47.34722" lon="-2.35362">
        <ele>12</ele>
        <time>2022-01-06T09:41:28.000Z</time>
      </trkpt>
      <trkpt lat="47.34722" lon="-2.35357">
        <ele>12</ele>
        <time>2022-01-06T09:41:30.000Z</time>
      </trkpt>
      <trkpt lat="47.34722" lon="-2.35353">
        <ele>12</ele>
        <time>2022-01-06T09:41:32.000Z</time>
      </trkpt>
      <trkpt lat="47.34724" lon="-2.35336">
        <ele>12</ele>
        <time>2022-01-06T09:41:36.000Z</time>
      </trkpt>
      <trkpt lat="47.3473" lon="-2.35314">
        <ele>12</ele>
        <time>2022-01-06T09:41:41.000Z</time>
      </trkpt>
      <trkpt lat="47.3474" lon="-2.35297">
        <ele>12</ele>
        <time>2022-01-06T09:41:45.000Z</time>
      </trkpt>
      <trkpt lat="47.34743" lon="-2.35286">
        <ele>12</ele>
        <time>2022-01-06T09:41:47.000Z</time>
      </trkpt>
      <trkpt lat="47.34744" lon="-2.35278">
        <ele>12</ele>
        <time>2022-01-06T09:41:49.000Z</time>
      </trkpt>
      <trkpt lat="47.34748" lon="-2.35258">
        <ele>12</ele>
        <time>2022-01-06T09:41:53.000Z</time>
      </trkpt>
      <trkpt lat="47.34757" lon="-2.35224">
        <ele>12</ele>
        <time>2022-01-06T09:41:59.000Z</time>
      </trkpt>
      <trkpt lat="47.34757" lon="-2.35201">
        <ele>12</ele>
        <time>2022-01-06T09:42:03.000Z</time>
      </trkpt>
      <trkpt lat="47.34758" lon="-2.35194">
        <ele>12</ele>
        <time>2022-01-06T09:42:04.000Z</time>
      </trkpt>
      <trkpt lat="47.3476" lon="-2.35169">
        <ele>12</ele>
        <time>2022-01-06T09:42:08.000Z</time>
      </trkpt>
      <trkpt lat="47.34754" lon="-2.35154">
        <ele>12</ele>
        <time>2022-01-06T09:42:11.000Z</time>
      </trkpt>
      <trkpt lat="47.34745" lon="-2.35139">
        <ele>12</ele>
        <time>2022-01-06T09:42:15.000Z</time>
      </trkpt>
      <trkpt lat="47.34736" lon="-2.3512">
        <ele>12</ele>
        <time>2022-01-06T09:42:20.000Z</time>
      </trkpt>
      <trkpt lat="47.34724" lon="-2.35093">
        <ele>12</ele>
        <time>2022-01-06T09:42:26.000Z</time>
      </trkpt>
      <trkpt lat="47.34711" lon="-2.35082">
        <ele>12</ele>
        <time>2022-01-06T09:42:30.000Z</time>
      </trkpt>
      <trkpt lat="47.347" lon="-2.35067">
        <ele>12</ele>
        <time>2022-01-06T09:42:34.000Z</time>
      </trkpt>
      <trkpt lat="47.34686" lon="-2.35052">
        <ele>12</ele>
        <time>2022-01-06T09:42:39.000Z</time>
      </trkpt>
      <trkpt lat="47.34683" lon="-2.35051">
        <ele>12</ele>
        <time>2022-01-06T09:42:40.000Z</time>
      </trkpt>
      <trkpt lat="47.34672" lon="-2.35044">
        <ele>12</ele>
        <time>2022-01-06T09:42:43.000Z</time>
      </trkpt>
      <trkpt lat="47.34653" lon="-2.35034">
        <ele>12</ele>
        <time>2022-01-06T09:42:47.000Z</time>
      </trkpt>
      <trkpt lat="47.3465" lon="-2.35031">
        <ele>12</ele>
        <time>2022-01-06T09:42:48.000Z</time>
      </trkpt>
      <trkpt lat="47.34631" lon="-2.35009">
        <ele>12</ele>
        <time>2022-01-06T09:42:54.000Z</time>
      </trkpt>
      <trkpt lat="47.34607" lon="-2.34976">
        <ele>12</ele>
        <time>2022-01-06T09:43:01.000Z</time>
      </trkpt>
      <trkpt lat="47.34593" lon="-2.34951">
        <ele>12</ele>
        <time>2022-01-06T09:43:06.000Z</time>
      </trkpt>
      <trkpt lat="47.3458" lon="-2.34923">
        <ele>12</ele>
        <time>2022-01-06T09:43:13.000Z</time>
      </trkpt>
      <trkpt lat="47.34577" lon="-2.3492">
        <ele>12</ele>
        <time>2022-01-06T09:43:15.000Z</time>
      </trkpt>
      <trkpt lat="47.34573" lon="-2.34916">
        <ele>12</ele>
        <time>2022-01-06T09:43:18.000Z</time>
      </trkpt>
      <trkpt lat="47.34574" lon="-2.34905">
        <ele>12</ele>
        <time>2022-01-06T09:43:22.000Z</time>
      </trkpt>
      <trkpt lat="47.34575" lon="-2.34901">
        <ele>12</ele>
        <time>2022-01-06T09:43:23.000Z</time>
      </trkpt>
      <trkpt lat="47.34582" lon="-2.3488">
        <ele>12</ele>
        <time>2022-01-06T09:43:27.000Z</time>
      </trkpt>
      <trkpt lat="47.34595" lon="-2.3485">
        <ele>12</ele>
        <time>2022-01-06T09:43:32.000Z</time>
      </trkpt>
      <trkpt lat="47.34609" lon="-2.34824">
        <ele>12</ele>
        <time>2022-01-06T09:43:36.000Z</time>
      </trkpt>
      <trkpt lat="47.34619" lon="-2.34807">
        <ele>12</ele>
        <time>2022-01-06T09:43:39.000Z</time>
      </trkpt>
      <trkpt lat="47.34629" lon="-2.34784">
        <ele>12</ele>
        <time>2022-01-06T09:43:43.000Z</time>
      </trkpt>
      <trkpt lat="47.34632" lon="-2.3477">
        <ele>12</ele>
        <time>2022-01-06T09:43:45.000Z</time>
      </trkpt>
      <trkpt lat="47.34635" lon="-2.34756">
        <ele>12</ele>
        <time>2022-01-06T09:43:47.000Z</time>
      </trkpt>
      <trkpt lat="47.34635" lon="-2.34739">
        <ele>12</ele>
        <time>2022-01-06T09:43:50.000Z</time>
      </trkpt>
      <trkpt lat="47.34635" lon="-2.34705">
        <ele>12</ele>
        <time>2022-01-06T09:43:56.000Z</time>
      </trkpt>
      <trkpt lat="47.34631" lon="-2.34678">
        <ele>12</ele>
        <time>2022-01-06T09:44:01.000Z</time>
      </trkpt>
      <trkpt lat="47.34625" lon="-2.34652">
        <ele>12</ele>
        <time>2022-01-06T09:44:07.000Z</time>
      </trkpt>
      <trkpt lat="47.34622" lon="-2.34628">
        <ele>12.39999961853</ele>
        <time>2022-01-06T09:44:12.000Z</time>
      </trkpt>
      <trkpt lat="47.34621" lon="-2.34623">
        <ele>12.800000190735</ele>
        <time>2022-01-06T09:44:13.000Z</time>
      </trkpt>
      <trkpt lat="47.3462" lon="-2.34618">
        <ele>13.199999809265</ele>
        <time>2022-01-06T09:44:14.000Z</time>
      </trkpt>
      <trkpt lat="47.3462" lon="-2.34613">
        <ele>13.60000038147</ele>
        <time>2022-01-06T09:44:15.000Z</time>
      </trkpt>
      <trkpt lat="47.34619" lon="-2.34608">
        <ele>14</ele>
        <time>2022-01-06T09:44:16.000Z</time>
      </trkpt>
      <trkpt lat="47.34618" lon="-2.34603">
        <ele>14</ele>
        <time>2022-01-06T09:44:17.000Z</time>
      </trkpt>
      <trkpt lat="47.34616" lon="-2.34592">
        <ele>14.39999961853</ele>
        <time>2022-01-06T09:44:19.000Z</time>
      </trkpt>
      <trkpt lat="47.34615" lon="-2.34586">
        <ele>14.800000190735</ele>
        <time>2022-01-06T09:44:20.000Z</time>
      </trkpt>
      <trkpt lat="47.34614" lon="-2.3458">
        <ele>15.199999809265</ele>
        <time>2022-01-06T09:44:21.000Z</time>
      </trkpt>
      <trkpt lat="47.34613" lon="-2.34575">
        <ele>15.60000038147</ele>
        <time>2022-01-06T09:44:22.000Z</time>
      </trkpt>
      <trkpt lat="47.34613" lon="-2.34569">
        <ele>16</ele>
        <time>2022-01-06T09:44:23.000Z</time>
      </trkpt>
      <trkpt lat="47.34608" lon="-2.34543">
        <ele>16</ele>
        <time>2022-01-06T09:44:28.000Z</time>
      </trkpt>
      <trkpt lat="47.34604" lon="-2.34517">
        <ele>16</ele>
        <time>2022-01-06T09:44:34.000Z</time>
      </trkpt>
      <trkpt lat="47.34598" lon="-2.34479">
        <ele>16</ele>
        <time>2022-01-06T09:44:41.000Z</time>
      </trkpt>
      <trkpt lat="47.34597" lon="-2.34436">
        <ele>16</ele>
        <time>2022-01-06T09:44:48.000Z</time>
      </trkpt>
      <trkpt lat="47.34604" lon="-2.34393">
        <ele>16</ele>
        <time>2022-01-06T09:44:55.000Z</time>
      </trkpt>
      <trkpt lat="47.34618" lon="-2.34344">
        <ele>16</ele>
        <time>2022-01-06T09:45:03.000Z</time>
      </trkpt>
      <trkpt lat="47.34621" lon="-2.34332">
        <ele>16</ele>
        <time>2022-01-06T09:45:05.000Z</time>
      </trkpt>
      <trkpt lat="47.34628" lon="-2.34308">
        <ele>16</ele>
        <time>2022-01-06T09:45:09.000Z</time>
      </trkpt>
      <trkpt lat="47.34626" lon="-2.34296">
        <ele>16</ele>
        <time>2022-01-06T09:45:12.000Z</time>
      </trkpt>
      <trkpt lat="47.34623" lon="-2.34291">
        <ele>16</ele>
        <time>2022-01-06T09:45:14.000Z</time>
      </trkpt>
      <trkpt lat="47.34618" lon="-2.3429">
        <ele>16</ele>
        <time>2022-01-06T09:45:16.000Z</time>
      </trkpt>
      <trkpt lat="47.34599" lon="-2.34296">
        <ele>16</ele>
        <time>2022-01-06T09:45:20.000Z</time>
      </trkpt>
      <trkpt lat="47.34578" lon="-2.34306">
        <ele>16.39999961853</ele>
        <time>2022-01-06T09:45:24.000Z</time>
      </trkpt>
      <trkpt lat="47.34574" lon="-2.34308">
        <ele>16.799999237061</ele>
        <time>2022-01-06T09:45:25.000Z</time>
      </trkpt>
      <trkpt lat="47.3457" lon="-2.3431">
        <ele>17.200000762939</ele>
        <time>2022-01-06T09:45:26.000Z</time>
      </trkpt>
      <trkpt lat="47.34566" lon="-2.34313">
        <ele>17.799999237061</ele>
        <time>2022-01-06T09:45:27.000Z</time>
      </trkpt>
      <trkpt lat="47.34563" lon="-2.34315">
        <ele>18.200000762939</ele>
        <time>2022-01-06T09:45:28.000Z</time>
      </trkpt>
      <trkpt lat="47.34549" lon="-2.34326">
        <ele>18.200000762939</ele>
        <time>2022-01-06T09:45:32.000Z</time>
      </trkpt>
      <trkpt lat="47.34528" lon="-2.34345">
        <ele>18.200000762939</ele>
        <time>2022-01-06T09:45:38.000Z</time>
      </trkpt>
      <trkpt lat="47.34511" lon="-2.3436">
        <ele>18.200000762939</ele>
        <time>2022-01-06T09:45:43.000Z</time>
      </trkpt>
      <trkpt lat="47.34508" lon="-2.34364">
        <ele>18.200000762939</ele>
        <time>2022-01-06T09:45:44.000Z</time>
      </trkpt>
      <trkpt lat="47.34494" lon="-2.34381">
        <ele>18.60000038147</ele>
        <time>2022-01-06T09:45:48.000Z</time>
      </trkpt>
      <trkpt lat="47.3449" lon="-2.34385">
        <ele>19</ele>
        <time>2022-01-06T09:45:49.000Z</time>
      </trkpt>
      <trkpt lat="47.34487" lon="-2.34387">
        <ele>19.39999961853</ele>
        <time>2022-01-06T09:45:50.000Z</time>
      </trkpt>
      <trkpt lat="47.34483" lon="-2.3439">
        <ele>19.799999237061</ele>
        <time>2022-01-06T09:45:51.000Z</time>
      </trkpt>
      <trkpt lat="47.34479" lon="-2.34392">
        <ele>20.39999961853</ele>
        <time>2022-01-06T09:45:52.000Z</time>
      </trkpt>
      <trkpt lat="47.34471" lon="-2.34396">
        <ele>20.39999961853</ele>
        <time>2022-01-06T09:45:54.000Z</time>
      </trkpt>
      <trkpt lat="47.34467" lon="-2.34398">
        <ele>20.39999961853</ele>
        <time>2022-01-06T09:45:55.000Z</time>
      </trkpt>
      <trkpt lat="47.34449" lon="-2.34405">
        <ele>20.39999961853</ele>
        <time>2022-01-06T09:45:59.000Z</time>
      </trkpt>
      <trkpt lat="47.34445" lon="-2.34406">
        <ele>20.39999961853</ele>
        <time>2022-01-06T09:46:00.000Z</time>
      </trkpt>
      <trkpt lat="47.34428" lon="-2.3441">
        <ele>20.39999961853</ele>
        <time>2022-01-06T09:46:04.000Z</time>
      </trkpt>
      <trkpt lat="47.34419" lon="-2.34415">
        <ele>20.39999961853</ele>
        <time>2022-01-06T09:46:06.000Z</time>
      </trkpt>
      <trkpt lat="47.34384" lon="-2.34434">
        <ele>20.39999961853</ele>
        <time>2022-01-06T09:46:14.000Z</time>
      </trkpt>
      <trkpt lat="47.34376" lon="-2.34439">
        <ele>20.799999237061</ele>
        <time>2022-01-06T09:46:16.000Z</time>
      </trkpt>
      <trkpt lat="47.34371" lon="-2.34441">
        <ele>21.200000762939</ele>
        <time>2022-01-06T09:46:17.000Z</time>
      </trkpt>
      <trkpt lat="47.34367" lon="-2.34444">
        <ele>21.60000038147</ele>
        <time>2022-01-06T09:46:18.000Z</time>
      </trkpt>
      <trkpt lat="47.34363" lon="-2.34447">
        <ele>22.39999961853</ele>
        <time>2022-01-06T09:46:19.000Z</time>
      </trkpt>
      <trkpt lat="47.34354" lon="-2.34452">
        <ele>22.39999961853</ele>
        <time>2022-01-06T09:46:21.000Z</time>
      </trkpt>
      <trkpt lat="47.34324" lon="-2.34465">
        <ele>22.39999961853</ele>
        <time>2022-01-06T09:46:28.000Z</time>
      </trkpt>
      <trkpt lat="47.34293" lon="-2.34468">
        <ele>22.39999961853</ele>
        <time>2022-01-06T09:46:35.000Z</time>
      </trkpt>
      <trkpt lat="47.34266" lon="-2.34473">
        <ele>22.39999961853</ele>
        <time>2022-01-06T09:46:42.000Z</time>
      </trkpt>
      <trkpt lat="47.34262" lon="-2.34475">
        <ele>22.39999961853</ele>
        <time>2022-01-06T09:46:43.000Z</time>
      </trkpt>
      <trkpt lat="47.34246" lon="-2.34484">
        <ele>22.39999961853</ele>
        <time>2022-01-06T09:46:47.000Z</time>
      </trkpt>
      <trkpt lat="47.34223" lon="-2.34494">
        <ele>22.39999961853</ele>
        <time>2022-01-06T09:46:53.000Z</time>
      </trkpt>
      <trkpt lat="47.34196" lon="-2.34507">
        <ele>22.39999961853</ele>
        <time>2022-01-06T09:46:59.000Z</time>
      </trkpt>
      <trkpt lat="47.34192" lon="-2.34508">
        <ele>22.39999961853</ele>
        <time>2022-01-06T09:47:00.000Z</time>
      </trkpt>
      <trkpt lat="47.34176" lon="-2.34515">
        <ele>22.39999961853</ele>
        <time>2022-01-06T09:47:04.000Z</time>
      </trkpt>
      <trkpt lat="47.34167" lon="-2.34517">
        <ele>22.39999961853</ele>
        <time>2022-01-06T09:47:06.000Z</time>
      </trkpt>
      <trkpt lat="47.34156" lon="-2.34521">
        <ele>22.39999961853</ele>
        <time>2022-01-06T09:47:09.000Z</time>
      </trkpt>
      <trkpt lat="47.34131" lon="-2.34531">
        <ele>22.39999961853</ele>
        <time>2022-01-06T09:47:15.000Z</time>
      </trkpt>
      <trkpt lat="47.34099" lon="-2.34548">
        <ele>22.39999961853</ele>
        <time>2022-01-06T09:47:22.000Z</time>
      </trkpt>
      <trkpt lat="47.34076" lon="-2.34565">
        <ele>22.39999961853</ele>
        <time>2022-01-06T09:47:29.000Z</time>
      </trkpt>
      <trkpt lat="47.34069" lon="-2.34563">
        <ele>22.39999961853</ele>
        <time>2022-01-06T09:47:33.000Z</time>
      </trkpt>
      <trkpt lat="47.34067" lon="-2.34559">
        <ele>22.39999961853</ele>
        <time>2022-01-06T09:47:34.000Z</time>
      </trkpt>
      <trkpt lat="47.34061" lon="-2.34544">
        <ele>22.39999961853</ele>
        <time>2022-01-06T09:47:37.000Z</time>
      </trkpt>
      <trkpt lat="47.34052" lon="-2.34511">
        <ele>22.39999961853</ele>
        <time>2022-01-06T09:47:42.000Z</time>
      </trkpt>
      <trkpt lat="47.3405" lon="-2.34504">
        <ele>22.39999961853</ele>
        <time>2022-01-06T09:47:43.000Z</time>
      </trkpt>
      <trkpt lat="47.34037" lon="-2.34472">
        <ele>22.39999961853</ele>
        <time>2022-01-06T09:47:48.000Z</time>
      </trkpt>
      <trkpt lat="47.34034" lon="-2.3446">
        <ele>22.39999961853</ele>
        <time>2022-01-06T09:47:50.000Z</time>
      </trkpt>
      <trkpt lat="47.34031" lon="-2.34448">
        <ele>22.39999961853</ele>
        <time>2022-01-06T09:47:52.000Z</time>
      </trkpt>
      <trkpt lat="47.34033" lon="-2.34432">
        <ele>22.39999961853</ele>
        <time>2022-01-06T09:47:55.000Z</time>
      </trkpt>
      <trkpt lat="47.34043" lon="-2.34428">
        <ele>22.39999961853</ele>
        <time>2022-01-06T09:47:58.000Z</time>
      </trkpt>
      <trkpt lat="47.34061" lon="-2.34424">
        <ele>22.39999961853</ele>
        <time>2022-01-06T09:48:02.000Z</time>
      </trkpt>
      <trkpt lat="47.34069" lon="-2.34419">
        <ele>22.39999961853</ele>
        <time>2022-01-06T09:48:04.000Z</time>
      </trkpt>
      <trkpt lat="47.34086" lon="-2.34403">
        <ele>22.39999961853</ele>
        <time>2022-01-06T09:48:08.000Z</time>
      </trkpt>
      <trkpt lat="47.34096" lon="-2.34394">
        <ele>22</ele>
        <time>2022-01-06T09:48:10.000Z</time>
      </trkpt>
      <trkpt lat="47.341" lon="-2.3439">
        <ele>21.60000038147</ele>
        <time>2022-01-06T09:48:11.000Z</time>
      </trkpt>
      <trkpt lat="47.34105" lon="-2.34386">
        <ele>21.200000762939</ele>
        <time>2022-01-06T09:48:12.000Z</time>
      </trkpt>
      <trkpt lat="47.3411" lon="-2.34382">
        <ele>20.799999237061</ele>
        <time>2022-01-06T09:48:13.000Z</time>
      </trkpt>
      <trkpt lat="47.34115" lon="-2.34378">
        <ele>20.39999961853</ele>
        <time>2022-01-06T09:48:14.000Z</time>
      </trkpt>
      <trkpt lat="47.34125" lon="-2.3437">
        <ele>20.39999961853</ele>
        <time>2022-01-06T09:48:16.000Z</time>
      </trkpt>
      <trkpt lat="47.34142" lon="-2.34347">
        <ele>20.39999961853</ele>
        <time>2022-01-06T09:48:20.000Z</time>
      </trkpt>
      <trkpt lat="47.34174" lon="-2.343">
        <ele>20.39999961853</ele>
        <time>2022-01-06T09:48:27.000Z</time>
      </trkpt>
      <trkpt lat="47.34192" lon="-2.34261">
        <ele>20.39999961853</ele>
        <time>2022-01-06T09:48:32.000Z</time>
      </trkpt>
      <trkpt lat="47.342" lon="-2.34246">
        <ele>20.39999961853</ele>
        <time>2022-01-06T09:48:34.000Z</time>
      </trkpt>
      <trkpt lat="47.34216" lon="-2.34228">
        <ele>20.39999961853</ele>
        <time>2022-01-06T09:48:37.000Z</time>
      </trkpt>
      <trkpt lat="47.34227" lon="-2.34218">
        <ele>20</ele>
        <time>2022-01-06T09:48:39.000Z</time>
      </trkpt>
      <trkpt lat="47.34233" lon="-2.34214">
        <ele>19.60000038147</ele>
        <time>2022-01-06T09:48:40.000Z</time>
      </trkpt>
      <trkpt lat="47.34239" lon="-2.34209">
        <ele>19</ele>
        <time>2022-01-06T09:48:41.000Z</time>
      </trkpt>
      <trkpt lat="47.34246" lon="-2.34204">
        <ele>18.60000038147</ele>
        <time>2022-01-06T09:48:42.000Z</time>
      </trkpt>
      <trkpt lat="47.34252" lon="-2.34199">
        <ele>18.200000762939</ele>
        <time>2022-01-06T09:48:43.000Z</time>
      </trkpt>
      <trkpt lat="47.34281" lon="-2.34173">
        <ele>17.799999237061</ele>
        <time>2022-01-06T09:48:48.000Z</time>
      </trkpt>
      <trkpt lat="47.34287" lon="-2.34168">
        <ele>17.39999961853</ele>
        <time>2022-01-06T09:48:49.000Z</time>
      </trkpt>
      <trkpt lat="47.34292" lon="-2.34162">
        <ele>16.799999237061</ele>
        <time>2022-01-06T09:48:50.000Z</time>
      </trkpt>
      <trkpt lat="47.34297" lon="-2.34157">
        <ele>16.39999961853</ele>
        <time>2022-01-06T09:48:51.000Z</time>
      </trkpt>
      <trkpt lat="47.34302" lon="-2.34152">
        <ele>16</ele>
        <time>2022-01-06T09:48:52.000Z</time>
      </trkpt>
      <trkpt lat="47.34313" lon="-2.34141">
        <ele>16</ele>
        <time>2022-01-06T09:48:55.000Z</time>
      </trkpt>
      <trkpt lat="47.34322" lon="-2.34132">
        <ele>15.60000038147</ele>
        <time>2022-01-06T09:48:58.000Z</time>
      </trkpt>
      <trkpt lat="47.34325" lon="-2.34129">
        <ele>15.199999809265</ele>
        <time>2022-01-06T09:48:59.000Z</time>
      </trkpt>
      <trkpt lat="47.34328" lon="-2.34126">
        <ele>14.800000190735</ele>
        <time>2022-01-06T09:49:00.000Z</time>
      </trkpt>
      <trkpt lat="47.34331" lon="-2.34124">
        <ele>14.39999961853</ele>
        <time>2022-01-06T09:49:01.000Z</time>
      </trkpt>
      <trkpt lat="47.34334" lon="-2.34121">
        <ele>14</ele>
        <time>2022-01-06T09:49:02.000Z</time>
      </trkpt>
      <trkpt lat="47.34346" lon="-2.34113">
        <ele>14</ele>
        <time>2022-01-06T09:49:07.000Z</time>
      </trkpt>
      <trkpt lat="47.34346" lon="-2.34113">
        <ele>14</ele>
        <time>2022-01-06T09:49:09.000Z</time>
      </trkpt>
      <trkpt lat="47.34359" lon="-2.34103">
        <ele>14</ele>
        <time>2022-01-06T09:50:08.000Z</time>
      </trkpt>
      <trkpt lat="47.34362" lon="-2.341">
        <ele>14</ele>
        <time>2022-01-06T09:50:10.000Z</time>
      </trkpt>
      <trkpt lat="47.34367" lon="-2.34097">
        <ele>14</ele>
        <time>2022-01-06T09:50:13.000Z</time>
      </trkpt>
      <trkpt lat="47.34375" lon="-2.34092">
        <ele>14</ele>
        <time>2022-01-06T09:50:18.000Z</time>
      </trkpt>
      <trkpt lat="47.34383" lon="-2.34086">
        <ele>14</ele>
        <time>2022-01-06T09:50:25.000Z</time>
      </trkpt>
      <trkpt lat="47.34387" lon="-2.3408">
        <ele>14</ele>
        <time>2022-01-06T09:50:29.000Z</time>
      </trkpt>
      <trkpt lat="47.34389" lon="-2.34075">
        <ele>14</ele>
        <time>2022-01-06T09:50:31.000Z</time>
      </trkpt>
      <trkpt lat="47.3439" lon="-2.34073">
        <ele>13.39999961853</ele>
        <time>2022-01-06T09:50:32.000Z</time>
      </trkpt>
      <trkpt lat="47.34392" lon="-2.34071">
        <ele>13</ele>
        <time>2022-01-06T09:50:33.000Z</time>
      </trkpt>
      <trkpt lat="47.34393" lon="-2.34068">
        <ele>12.60000038147</ele>
        <time>2022-01-06T09:50:34.000Z</time>
      </trkpt>
      <trkpt lat="47.34393" lon="-2.34067">
        <ele>12.199999809265</ele>
        <time>2022-01-06T09:50:35.000Z</time>
      </trkpt>
      <trkpt lat="47.34394" lon="-2.34064">
        <ele>11.800000190735</ele>
        <time>2022-01-06T09:50:36.000Z</time>
      </trkpt>
      <trkpt lat="47.34393" lon="-2.34048">
        <ele>11.800000190735</ele>
        <time>2022-01-06T09:50:41.000Z</time>
      </trkpt>
      <trkpt lat="47.34393" lon="-2.34045">
        <ele>11.800000190735</ele>
        <time>2022-01-06T09:50:42.000Z</time>
      </trkpt>
      <trkpt lat="47.34392" lon="-2.3403">
        <ele>11.800000190735</ele>
        <time>2022-01-06T09:50:47.000Z</time>
      </trkpt>
      <trkpt lat="47.34392" lon="-2.34027">
        <ele>11.800000190735</ele>
        <time>2022-01-06T09:50:48.000Z</time>
      </trkpt>
      <trkpt lat="47.34392" lon="-2.34017">
        <ele>11.800000190735</ele>
        <time>2022-01-06T09:50:51.000Z</time>
      </trkpt>
      <trkpt lat="47.34391" lon="-2.34007">
        <ele>11.800000190735</ele>
        <time>2022-01-06T09:50:54.000Z</time>
      </trkpt>
      <trkpt lat="47.34389" lon="-2.3398">
        <ele>11.800000190735</ele>
        <time>2022-01-06T09:51:02.000Z</time>
      </trkpt>
      <trkpt lat="47.34388" lon="-2.33965">
        <ele>11.800000190735</ele>
        <time>2022-01-06T09:51:08.000Z</time>
      </trkpt>
      <trkpt lat="47.34389" lon="-2.3396">
        <ele>12.199999809265</ele>
        <time>2022-01-06T09:51:11.000Z</time>
      </trkpt>
      <trkpt lat="47.34391" lon="-2.33958">
        <ele>12.60000038147</ele>
        <time>2022-01-06T09:51:12.000Z</time>
      </trkpt>
      <trkpt lat="47.34393" lon="-2.33956">
        <ele>13</ele>
        <time>2022-01-06T09:51:13.000Z</time>
      </trkpt>
      <trkpt lat="47.34396" lon="-2.33954">
        <ele>13.39999961853</ele>
        <time>2022-01-06T09:51:14.000Z</time>
      </trkpt>
      <trkpt lat="47.34399" lon="-2.33953">
        <ele>13.800000190735</ele>
        <time>2022-01-06T09:51:15.000Z</time>
      </trkpt>
      <trkpt lat="47.3441" lon="-2.3395">
        <ele>13.800000190735</ele>
        <time>2022-01-06T09:51:18.000Z</time>
      </trkpt>
      <trkpt lat="47.34432" lon="-2.33937">
        <ele>13.800000190735</ele>
        <time>2022-01-06T09:51:24.000Z</time>
      </trkpt>
      <trkpt lat="47.34444" lon="-2.3393">
        <ele>13.800000190735</ele>
        <time>2022-01-06T09:51:27.000Z</time>
      </trkpt>
      <trkpt lat="47.34455" lon="-2.33924">
        <ele>13.800000190735</ele>
        <time>2022-01-06T09:51:30.000Z</time>
      </trkpt>
      <trkpt lat="47.3448" lon="-2.33914">
        <ele>13.800000190735</ele>
        <time>2022-01-06T09:51:37.000Z</time>
      </trkpt>
      <trkpt lat="47.34498" lon="-2.33906">
        <ele>13.800000190735</ele>
        <time>2022-01-06T09:51:42.000Z</time>
      </trkpt>
      <trkpt lat="47.34525" lon="-2.33893">
        <ele>13.39999961853</ele>
        <time>2022-01-06T09:51:49.000Z</time>
      </trkpt>
      <trkpt lat="47.34529" lon="-2.33891">
        <ele>13</ele>
        <time>2022-01-06T09:51:50.000Z</time>
      </trkpt>
      <trkpt lat="47.34533" lon="-2.3389">
        <ele>12.60000038147</ele>
        <time>2022-01-06T09:51:51.000Z</time>
      </trkpt>
      <trkpt lat="47.34536" lon="-2.33889">
        <ele>12.199999809265</ele>
        <time>2022-01-06T09:51:52.000Z</time>
      </trkpt>
      <trkpt lat="47.34538" lon="-2.33888">
        <ele>11.800000190735</ele>
        <time>2022-01-06T09:51:53.000Z</time>
      </trkpt>
      <trkpt lat="47.3454" lon="-2.33887">
        <ele>11.800000190735</ele>
        <time>2022-01-06T09:51:54.000Z</time>
      </trkpt>
      <trkpt lat="47.3455" lon="-2.33884">
        <ele>11.800000190735</ele>
        <time>2022-01-06T09:52:00.000Z</time>
      </trkpt>
      <trkpt lat="47.34555" lon="-2.33873">
        <ele>11.800000190735</ele>
        <time>2022-01-06T09:52:04.000Z</time>
      </trkpt>
      <trkpt lat="47.34553" lon="-2.33869">
        <ele>11.800000190735</ele>
        <time>2022-01-06T09:52:05.000Z</time>
      </trkpt>
      <trkpt lat="47.3455" lon="-2.33855">
        <ele>11.800000190735</ele>
        <time>2022-01-06T09:52:08.000Z</time>
      </trkpt>
      <trkpt lat="47.34548" lon="-2.33844">
        <ele>11.800000190735</ele>
        <time>2022-01-06T09:52:10.000Z</time>
      </trkpt>
      <trkpt lat="47.34545" lon="-2.33812">
        <ele>11.800000190735</ele>
        <time>2022-01-06T09:52:16.000Z</time>
      </trkpt>
      <trkpt lat="47.34538" lon="-2.33775">
        <ele>11.800000190735</ele>
        <time>2022-01-06T09:52:23.000Z</time>
      </trkpt>
      <trkpt lat="47.34531" lon="-2.33737">
        <ele>11.800000190735</ele>
        <time>2022-01-06T09:52:30.000Z</time>
      </trkpt>
      <trkpt lat="47.34526" lon="-2.33715">
        <ele>11.800000190735</ele>
        <time>2022-01-06T09:52:35.000Z</time>
      </trkpt>
      <trkpt lat="47.34521" lon="-2.33694">
        <ele>11.800000190735</ele>
        <time>2022-01-06T09:52:41.000Z</time>
      </trkpt>
      <trkpt lat="47.3452" lon="-2.33679">
        <ele>11.800000190735</ele>
        <time>2022-01-06T09:52:46.000Z</time>
      </trkpt>
      <trkpt lat="47.34515" lon="-2.33659">
        <ele>11.800000190735</ele>
        <time>2022-01-06T09:52:52.000Z</time>
      </trkpt>
      <trkpt lat="47.34513" lon="-2.33652">
        <ele>11.39999961853</ele>
        <time>2022-01-06T09:52:54.000Z</time>
      </trkpt>
      <trkpt lat="47.34512" lon="-2.33649">
        <ele>11</ele>
        <time>2022-01-06T09:52:55.000Z</time>
      </trkpt>
      <trkpt lat="47.34512" lon="-2.33647">
        <ele>10.39999961853</ele>
        <time>2022-01-06T09:52:56.000Z</time>
      </trkpt>
      <trkpt lat="47.34511" lon="-2.33644">
        <ele>10</ele>
        <time>2022-01-06T09:52:57.000Z</time>
      </trkpt>
      <trkpt lat="47.34512" lon="-2.33641">
        <ele>9.6000003814697</ele>
        <time>2022-01-06T09:52:58.000Z</time>
      </trkpt>
      <trkpt lat="47.3451" lon="-2.33629">
        <ele>9.6000003814697</ele>
        <time>2022-01-06T09:53:02.000Z</time>
      </trkpt>
      <trkpt lat="47.34505" lon="-2.3361">
        <ele>9.6000003814697</ele>
        <time>2022-01-06T09:53:07.000Z</time>
      </trkpt>
      <trkpt lat="47.345" lon="-2.33594">
        <ele>9.6000003814697</ele>
        <time>2022-01-06T09:53:12.000Z</time>
      </trkpt>
      <trkpt lat="47.34499" lon="-2.33586">
        <ele>9.6000003814697</ele>
        <time>2022-01-06T09:53:17.000Z</time>
      </trkpt>
      <trkpt lat="47.34499" lon="-2.33586">
        <ele>9.6000003814697</ele>
        <time>2022-01-06T09:53:18.000Z</time>
      </trkpt>
      <trkpt lat="47.34496" lon="-2.33584">
        <ele>9.6000003814697</ele>
        <time>2022-01-06T09:53:32.000Z</time>
      </trkpt>
      <trkpt lat="47.34493" lon="-2.33582">
        <ele>9.6000003814697</ele>
        <time>2022-01-06T09:53:34.000Z</time>
      </trkpt>
      <trkpt lat="47.34476" lon="-2.33579">
        <ele>9.6000003814697</ele>
        <time>2022-01-06T09:53:39.000Z</time>
      </trkpt>
      <trkpt lat="47.3447" lon="-2.33581">
        <ele>9.6000003814697</ele>
        <time>2022-01-06T09:53:40.000Z</time>
      </trkpt>
      <trkpt lat="47.34455" lon="-2.33582">
        <ele>9.6000003814697</ele>
        <time>2022-01-06T09:53:43.000Z</time>
      </trkpt>
      <trkpt lat="47.34418" lon="-2.3358">
        <ele>9.6000003814697</ele>
        <time>2022-01-06T09:53:50.000Z</time>
      </trkpt>
      <trkpt lat="47.3438" lon="-2.33578">
        <ele>9.6000003814697</ele>
        <time>2022-01-06T09:53:57.000Z</time>
      </trkpt>
      <trkpt lat="47.34344" lon="-2.33577">
        <ele>9.6000003814697</ele>
        <time>2022-01-06T09:54:04.000Z</time>
      </trkpt>
      <trkpt lat="47.3431" lon="-2.33568">
        <ele>9.6000003814697</ele>
        <time>2022-01-06T09:54:11.000Z</time>
      </trkpt>
      <trkpt lat="47.34282" lon="-2.33554">
        <ele>9.6000003814697</ele>
        <time>2022-01-06T09:54:17.000Z</time>
      </trkpt>
      <trkpt lat="47.3425" lon="-2.33529">
        <ele>9.6000003814697</ele>
        <time>2022-01-06T09:54:24.000Z</time>
      </trkpt>
      <trkpt lat="47.34245" lon="-2.33526">
        <ele>9.6000003814697</ele>
        <time>2022-01-06T09:54:25.000Z</time>
      </trkpt>
      <trkpt lat="47.34214" lon="-2.33512">
        <ele>9.6000003814697</ele>
        <time>2022-01-06T09:54:31.000Z</time>
      </trkpt>
      <trkpt lat="47.34166" lon="-2.33494">
        <ele>9.6000003814697</ele>
        <time>2022-01-06T09:54:40.000Z</time>
      </trkpt>
      <trkpt lat="47.34139" lon="-2.33486">
        <ele>9.6000003814697</ele>
        <time>2022-01-06T09:54:45.000Z</time>
      </trkpt>
      <trkpt lat="47.34129" lon="-2.3348">
        <ele>9.6000003814697</ele>
        <time>2022-01-06T09:54:47.000Z</time>
      </trkpt>
      <trkpt lat="47.34116" lon="-2.33469">
        <ele>9.6000003814697</ele>
        <time>2022-01-06T09:54:51.000Z</time>
      </trkpt>
      <trkpt lat="47.34117" lon="-2.33467">
        <ele>9.6000003814697</ele>
        <time>2022-01-06T09:54:52.000Z</time>
      </trkpt>
      <trkpt lat="47.34122" lon="-2.33455">
        <ele>9.6000003814697</ele>
        <time>2022-01-06T09:54:56.000Z</time>
      </trkpt>
      <trkpt lat="47.34124" lon="-2.33451">
        <ele>9.6000003814697</ele>
        <time>2022-01-06T09:54:57.000Z</time>
      </trkpt>
      <trkpt lat="47.34138" lon="-2.33425">
        <ele>9.6000003814697</ele>
        <time>2022-01-06T09:55:03.000Z</time>
      </trkpt>
      <trkpt lat="47.34149" lon="-2.33408">
        <ele>9.6000003814697</ele>
        <time>2022-01-06T09:55:06.000Z</time>
      </trkpt>
      <trkpt lat="47.34155" lon="-2.33395">
        <ele>9.6000003814697</ele>
        <time>2022-01-06T09:55:08.000Z</time>
      </trkpt>
      <trkpt lat="47.34171" lon="-2.33349">
        <ele>9.6000003814697</ele>
        <time>2022-01-06T09:55:14.000Z</time>
      </trkpt>
      <trkpt lat="47.34187" lon="-2.3329">
        <ele>9.1999998092651</ele>
        <time>2022-01-06T09:55:21.000Z</time>
      </trkpt>
      <trkpt lat="47.3419" lon="-2.33282">
        <ele>8.8000001907349</ele>
        <time>2022-01-06T09:55:22.000Z</time>
      </trkpt>
      <trkpt lat="47.34192" lon="-2.33273">
        <ele>8</ele>
        <time>2022-01-06T09:55:23.000Z</time>
      </trkpt>
      <trkpt lat="47.34195" lon="-2.33263">
        <ele>7.5999999046326</ele>
        <time>2022-01-06T09:55:24.000Z</time>
      </trkpt>
      <trkpt lat="47.34201" lon="-2.33245">
        <ele>7.5999999046326</ele>
        <time>2022-01-06T09:55:26.000Z</time>
      </trkpt>
      <trkpt lat="47.34226" lon="-2.33171">
        <ele>7.5999999046326</ele>
        <time>2022-01-06T09:55:34.000Z</time>
      </trkpt>
      <trkpt lat="47.34242" lon="-2.33119">
        <ele>7.1999998092651</ele>
        <time>2022-01-06T09:55:40.000Z</time>
      </trkpt>
      <trkpt lat="47.34245" lon="-2.3311">
        <ele>6.8000001907349</ele>
        <time>2022-01-06T09:55:41.000Z</time>
      </trkpt>
      <trkpt lat="47.34247" lon="-2.33101">
        <ele>6.4000000953674</ele>
        <time>2022-01-06T09:55:42.000Z</time>
      </trkpt>
      <trkpt lat="47.3425" lon="-2.33094">
        <ele>6</ele>
        <time>2022-01-06T09:55:43.000Z</time>
      </trkpt>
      <trkpt lat="47.34252" lon="-2.33087">
        <ele>5.5999999046326</ele>
        <time>2022-01-06T09:55:44.000Z</time>
      </trkpt>
      <trkpt lat="47.34255" lon="-2.33081">
        <ele>5.5999999046326</ele>
        <time>2022-01-06T09:55:45.000Z</time>
      </trkpt>
      <trkpt lat="47.34258" lon="-2.33079">
        <ele>5.5999999046326</ele>
        <time>2022-01-06T09:55:46.000Z</time>
      </trkpt>
      <trkpt lat="47.34265" lon="-2.33067">
        <ele>5.5999999046326</ele>
        <time>2022-01-06T09:55:50.000Z</time>
      </trkpt>
      <trkpt lat="47.34266" lon="-2.33064">
        <ele>5.5999999046326</ele>
        <time>2022-01-06T09:55:51.000Z</time>
      </trkpt>
      <trkpt lat="47.3427" lon="-2.33048">
        <ele>5.5999999046326</ele>
        <time>2022-01-06T09:55:55.000Z</time>
      </trkpt>
      <trkpt lat="47.3427" lon="-2.33021">
        <ele>5.5999999046326</ele>
        <time>2022-01-06T09:56:01.000Z</time>
      </trkpt>
      <trkpt lat="47.34264" lon="-2.32995">
        <ele>5.5999999046326</ele>
        <time>2022-01-06T09:56:06.000Z</time>
      </trkpt>
      <trkpt lat="47.34253" lon="-2.3297">
        <ele>5.5999999046326</ele>
        <time>2022-01-06T09:56:12.000Z</time>
      </trkpt>
      <trkpt lat="47.34245" lon="-2.32952">
        <ele>5.5999999046326</ele>
        <time>2022-01-06T09:56:18.000Z</time>
      </trkpt>
      <trkpt lat="47.34239" lon="-2.32939">
        <ele>5.5999999046326</ele>
        <time>2022-01-06T09:56:22.000Z</time>
      </trkpt>
      <trkpt lat="47.34237" lon="-2.32935">
        <ele>5.5999999046326</ele>
        <time>2022-01-06T09:56:23.000Z</time>
      </trkpt>
      <trkpt lat="47.34231" lon="-2.32921">
        <ele>5.5999999046326</ele>
        <time>2022-01-06T09:56:29.000Z</time>
      </trkpt>
      <trkpt lat="47.34226" lon="-2.32909">
        <ele>6</ele>
        <time>2022-01-06T09:56:33.000Z</time>
      </trkpt>
      <trkpt lat="47.34224" lon="-2.32905">
        <ele>6.4000000953674</ele>
        <time>2022-01-06T09:56:34.000Z</time>
      </trkpt>
      <trkpt lat="47.34223" lon="-2.32903">
        <ele>6.8000001907349</ele>
        <time>2022-01-06T09:56:35.000Z</time>
      </trkpt>
      <trkpt lat="47.34222" lon="-2.329">
        <ele>7.1999998092651</ele>
        <time>2022-01-06T09:56:36.000Z</time>
      </trkpt>
      <trkpt lat="47.34221" lon="-2.32896">
        <ele>7.5999999046326</ele>
        <time>2022-01-06T09:56:37.000Z</time>
      </trkpt>
      <trkpt lat="47.34214" lon="-2.32882">
        <ele>7.5999999046326</ele>
        <time>2022-01-06T09:56:41.000Z</time>
      </trkpt>
      <trkpt lat="47.34201" lon="-2.3286">
        <ele>7.5999999046326</ele>
        <time>2022-01-06T09:56:47.000Z</time>
      </trkpt>
      <trkpt lat="47.34196" lon="-2.32851">
        <ele>8</ele>
        <time>2022-01-06T09:56:49.000Z</time>
      </trkpt>
      <trkpt lat="47.34194" lon="-2.32846">
        <ele>8.3999996185303</ele>
        <time>2022-01-06T09:56:50.000Z</time>
      </trkpt>
      <trkpt lat="47.34191" lon="-2.32841">
        <ele>9</ele>
        <time>2022-01-06T09:56:51.000Z</time>
      </trkpt>
      <trkpt lat="47.34188" lon="-2.32837">
        <ele>9.3999996185303</ele>
        <time>2022-01-06T09:56:52.000Z</time>
      </trkpt>
      <trkpt lat="47.34186" lon="-2.32833">
        <ele>9.8000001907349</ele>
        <time>2022-01-06T09:56:53.000Z</time>
      </trkpt>
      <trkpt lat="47.34177" lon="-2.32812">
        <ele>9.8000001907349</ele>
        <time>2022-01-06T09:56:57.000Z</time>
      </trkpt>
      <trkpt lat="47.34174" lon="-2.328">
        <ele>9.8000001907349</ele>
        <time>2022-01-06T09:57:02.000Z</time>
      </trkpt>
      <trkpt lat="47.3417" lon="-2.32788">
        <ele>9.8000001907349</ele>
        <time>2022-01-06T09:57:09.000Z</time>
      </trkpt>
      <trkpt lat="47.34167" lon="-2.32775">
        <ele>9.8000001907349</ele>
        <time>2022-01-06T09:57:15.000Z</time>
      </trkpt>
      <trkpt lat="47.34165" lon="-2.32752">
        <ele>10.199999809265</ele>
        <time>2022-01-06T09:57:20.000Z</time>
      </trkpt>
      <trkpt lat="47.34164" lon="-2.32746">
        <ele>10.60000038147</ele>
        <time>2022-01-06T09:57:21.000Z</time>
      </trkpt>
      <trkpt lat="47.34164" lon="-2.32741">
        <ele>11</ele>
        <time>2022-01-06T09:57:22.000Z</time>
      </trkpt>
      <trkpt lat="47.34164" lon="-2.32735">
        <ele>11.39999961853</ele>
        <time>2022-01-06T09:57:23.000Z</time>
      </trkpt>
      <trkpt lat="47.34164" lon="-2.32729">
        <ele>11.800000190735</ele>
        <time>2022-01-06T09:57:24.000Z</time>
      </trkpt>
      <trkpt lat="47.34163" lon="-2.32719">
        <ele>11.800000190735</ele>
        <time>2022-01-06T09:57:26.000Z</time>
      </trkpt>
      <trkpt lat="47.34161" lon="-2.32679">
        <ele>11.800000190735</ele>
        <time>2022-01-06T09:57:33.000Z</time>
      </trkpt>
      <trkpt lat="47.34158" lon="-2.32645">
        <ele>11.800000190735</ele>
        <time>2022-01-06T09:57:39.000Z</time>
      </trkpt>
      <trkpt lat="47.34155" lon="-2.32595">
        <ele>11.800000190735</ele>
        <time>2022-01-06T09:57:47.000Z</time>
      </trkpt>
      <trkpt lat="47.34159" lon="-2.32567">
        <ele>11.800000190735</ele>
        <time>2022-01-06T09:57:52.000Z</time>
      </trkpt>
      <trkpt lat="47.34159" lon="-2.32561">
        <ele>11.800000190735</ele>
        <time>2022-01-06T09:57:53.000Z</time>
      </trkpt>
      <trkpt lat="47.34157" lon="-2.32533">
        <ele>11.800000190735</ele>
        <time>2022-01-06T09:57:57.000Z</time>
      </trkpt>
      <trkpt lat="47.34154" lon="-2.32493">
        <ele>11.800000190735</ele>
        <time>2022-01-06T09:58:03.000Z</time>
      </trkpt>
      <trkpt lat="47.34151" lon="-2.32486">
        <ele>11.800000190735</ele>
        <time>2022-01-06T09:58:06.000Z</time>
      </trkpt>
      <trkpt lat="47.34151" lon="-2.32484">
        <ele>11.800000190735</ele>
        <time>2022-01-06T09:58:08.000Z</time>
      </trkpt>
      <trkpt lat="47.34146" lon="-2.32477">
        <ele>11.800000190735</ele>
        <time>2022-01-06T10:16:43.000Z</time>
      </trkpt>
      <trkpt lat="47.34146" lon="-2.32474">
        <ele>11.800000190735</ele>
        <time>2022-01-06T10:16:44.000Z</time>
      </trkpt>
      <trkpt lat="47.34144" lon="-2.32462">
        <ele>11.800000190735</ele>
        <time>2022-01-06T10:16:49.000Z</time>
      </trkpt>
      <trkpt lat="47.34143" lon="-2.32455">
        <ele>11.800000190735</ele>
        <time>2022-01-06T10:16:51.000Z</time>
      </trkpt>
      <trkpt lat="47.34138" lon="-2.32442">
        <ele>11.800000190735</ele>
        <time>2022-01-06T10:16:55.000Z</time>
      </trkpt>
      <trkpt lat="47.34133" lon="-2.32421">
        <ele>11.800000190735</ele>
        <time>2022-01-06T10:17:01.000Z</time>
      </trkpt>
      <trkpt lat="47.34122" lon="-2.32392">
        <ele>11.800000190735</ele>
        <time>2022-01-06T10:17:08.000Z</time>
      </trkpt>
      <trkpt lat="47.34115" lon="-2.32363">
        <ele>11.800000190735</ele>
        <time>2022-01-06T10:17:14.000Z</time>
      </trkpt>
      <trkpt lat="47.34106" lon="-2.3233">
        <ele>11.800000190735</ele>
        <time>2022-01-06T10:17:20.000Z</time>
      </trkpt>
      <trkpt lat="47.34099" lon="-2.32304">
        <ele>11.800000190735</ele>
        <time>2022-01-06T10:17:24.000Z</time>
      </trkpt>
      <trkpt lat="47.34095" lon="-2.3229">
        <ele>11.800000190735</ele>
        <time>2022-01-06T10:17:26.000Z</time>
      </trkpt>
      <trkpt lat="47.34094" lon="-2.32283">
        <ele>11.800000190735</ele>
        <time>2022-01-06T10:17:27.000Z</time>
      </trkpt>
      <trkpt lat="47.34088" lon="-2.3226">
        <ele>11.39999961853</ele>
        <time>2022-01-06T10:17:30.000Z</time>
      </trkpt>
      <trkpt lat="47.34085" lon="-2.32253">
        <ele>11</ele>
        <time>2022-01-06T10:17:31.000Z</time>
      </trkpt>
      <trkpt lat="47.34082" lon="-2.32246">
        <ele>10.60000038147</ele>
        <time>2022-01-06T10:17:32.000Z</time>
      </trkpt>
      <trkpt lat="47.34078" lon="-2.32239">
        <ele>10</ele>
        <time>2022-01-06T10:17:33.000Z</time>
      </trkpt>
      <trkpt lat="47.34074" lon="-2.32232">
        <ele>9.6000003814697</ele>
        <time>2022-01-06T10:17:34.000Z</time>
      </trkpt>
      <trkpt lat="47.3407" lon="-2.32227">
        <ele>9.6000003814697</ele>
        <time>2022-01-06T10:17:35.000Z</time>
      </trkpt>
      <trkpt lat="47.34057" lon="-2.32218">
        <ele>9.1999998092651</ele>
        <time>2022-01-06T10:17:38.000Z</time>
      </trkpt>
      <trkpt lat="47.34052" lon="-2.32217">
        <ele>8.8000001907349</ele>
        <time>2022-01-06T10:17:39.000Z</time>
      </trkpt>
      <trkpt lat="47.34048" lon="-2.32217">
        <ele>8.3999996185303</ele>
        <time>2022-01-06T10:17:40.000Z</time>
      </trkpt>
      <trkpt lat="47.34044" lon="-2.32217">
        <ele>8</ele>
        <time>2022-01-06T10:17:41.000Z</time>
      </trkpt>
      <trkpt lat="47.3404" lon="-2.32217">
        <ele>7.4000000953674</ele>
        <time>2022-01-06T10:17:42.000Z</time>
      </trkpt>
      <trkpt lat="47.34033" lon="-2.32218">
        <ele>7.4000000953674</ele>
        <time>2022-01-06T10:17:44.000Z</time>
      </trkpt>
      <trkpt lat="47.34014" lon="-2.32217">
        <ele>7.4000000953674</ele>
        <time>2022-01-06T10:17:51.000Z</time>
      </trkpt>
      <trkpt lat="47.33995" lon="-2.3222">
        <ele>7.4000000953674</ele>
        <time>2022-01-06T10:17:58.000Z</time>
      </trkpt>
      <trkpt lat="47.33992" lon="-2.3222">
        <ele>7</ele>
        <time>2022-01-06T10:17:59.000Z</time>
      </trkpt>
      <trkpt lat="47.3399" lon="-2.3222">
        <ele>6.5999999046326</ele>
        <time>2022-01-06T10:18:00.000Z</time>
      </trkpt>
      <trkpt lat="47.33988" lon="-2.3222">
        <ele>6.1999998092651</ele>
        <time>2022-01-06T10:18:01.000Z</time>
      </trkpt>
      <trkpt lat="47.33986" lon="-2.32221">
        <ele>5.4000000953674</ele>
        <time>2022-01-06T10:18:02.000Z</time>
      </trkpt>
      <trkpt lat="47.33982" lon="-2.32221">
        <ele>5.4000000953674</ele>
        <time>2022-01-06T10:18:04.000Z</time>
      </trkpt>
      <trkpt lat="47.33969" lon="-2.32219">
        <ele>5.4000000953674</ele>
        <time>2022-01-06T10:18:10.000Z</time>
      </trkpt>
      <trkpt lat="47.33957" lon="-2.32212">
        <ele>5.4000000953674</ele>
        <time>2022-01-06T10:18:17.000Z</time>
      </trkpt>
      <trkpt lat="47.33952" lon="-2.32207">
        <ele>5.4000000953674</ele>
        <time>2022-01-06T10:18:23.000Z</time>
      </trkpt>
      <trkpt lat="47.33949" lon="-2.32204">
        <ele>5.4000000953674</ele>
        <time>2022-01-06T10:18:26.000Z</time>
      </trkpt>
      <trkpt lat="47.33944" lon="-2.32202">
        <ele>5.4000000953674</ele>
        <time>2022-01-06T10:18:29.000Z</time>
      </trkpt>
      <trkpt lat="47.33931" lon="-2.32199">
        <ele>5.4000000953674</ele>
        <time>2022-01-06T10:18:36.000Z</time>
      </trkpt>
      <trkpt lat="47.33929" lon="-2.32199">
        <ele>5.4000000953674</ele>
        <time>2022-01-06T10:18:37.000Z</time>
      </trkpt>
      <trkpt lat="47.33911" lon="-2.32199">
        <ele>5.4000000953674</ele>
        <time>2022-01-06T10:18:45.000Z</time>
      </trkpt>
      <trkpt lat="47.33886" lon="-2.32196">
        <ele>5.4000000953674</ele>
        <time>2022-01-06T10:18:53.000Z</time>
      </trkpt>
      <trkpt lat="47.33869" lon="-2.322">
        <ele>5.4000000953674</ele>
        <time>2022-01-06T10:18:58.000Z</time>
      </trkpt>
      <trkpt lat="47.33836" lon="-2.32205">
        <ele>5.4000000953674</ele>
        <time>2022-01-06T10:19:07.000Z</time>
      </trkpt>
      <trkpt lat="47.33821" lon="-2.32208">
        <ele>5.8000001907349</ele>
        <time>2022-01-06T10:19:11.000Z</time>
      </trkpt>
      <trkpt lat="47.33817" lon="-2.32208">
        <ele>6.1999998092651</ele>
        <time>2022-01-06T10:19:12.000Z</time>
      </trkpt>
      <trkpt lat="47.33813" lon="-2.32209">
        <ele>6.8000001907349</ele>
        <time>2022-01-06T10:19:13.000Z</time>
      </trkpt>
      <trkpt lat="47.33809" lon="-2.3221">
        <ele>7.1999998092651</ele>
        <time>2022-01-06T10:19:14.000Z</time>
      </trkpt>
      <trkpt lat="47.33805" lon="-2.3221">
        <ele>7.5999999046326</ele>
        <time>2022-01-06T10:19:15.000Z</time>
      </trkpt>
      <trkpt lat="47.33786" lon="-2.32214">
        <ele>7.5999999046326</ele>
        <time>2022-01-06T10:19:19.000Z</time>
      </trkpt>
      <trkpt lat="47.33765" lon="-2.32222">
        <ele>7.5999999046326</ele>
        <time>2022-01-06T10:19:23.000Z</time>
      </trkpt>
      <trkpt lat="47.3375" lon="-2.32228">
        <ele>7.5999999046326</ele>
        <time>2022-01-06T10:19:26.000Z</time>
      </trkpt>
      <trkpt lat="47.33721" lon="-2.32245">
        <ele>7.5999999046326</ele>
        <time>2022-01-06T10:19:32.000Z</time>
      </trkpt>
      <trkpt lat="47.33697" lon="-2.32259">
        <ele>7.5999999046326</ele>
        <time>2022-01-06T10:19:37.000Z</time>
      </trkpt>
      <trkpt lat="47.33657" lon="-2.3228">
        <ele>7.5999999046326</ele>
        <time>2022-01-06T10:19:45.000Z</time>
      </trkpt>
      <trkpt lat="47.33624" lon="-2.32287">
        <ele>7.5999999046326</ele>
        <time>2022-01-06T10:19:52.000Z</time>
      </trkpt>
      <trkpt lat="47.33587" lon="-2.32295">
        <ele>7.5999999046326</ele>
        <time>2022-01-06T10:19:59.000Z</time>
      </trkpt>
      <trkpt lat="47.33548" lon="-2.32306">
        <ele>7.5999999046326</ele>
        <time>2022-01-06T10:20:06.000Z</time>
      </trkpt>
      <trkpt lat="47.33529" lon="-2.32307">
        <ele>7.5999999046326</ele>
        <time>2022-01-06T10:20:09.000Z</time>
      </trkpt>
      <trkpt lat="47.33514" lon="-2.32314">
        <ele>7.5999999046326</ele>
        <time>2022-01-06T10:20:11.000Z</time>
      </trkpt>
      <trkpt lat="47.33463" lon="-2.3234">
        <ele>7.5999999046326</ele>
        <time>2022-01-06T10:20:19.000Z</time>
      </trkpt>
      <trkpt lat="47.33457" lon="-2.32343">
        <ele>7.5999999046326</ele>
        <time>2022-01-06T10:20:20.000Z</time>
      </trkpt>
      <trkpt lat="47.33422" lon="-2.32368">
        <ele>7.5999999046326</ele>
        <time>2022-01-06T10:20:26.000Z</time>
      </trkpt>
      <trkpt lat="47.3339" lon="-2.32394">
        <ele>7.5999999046326</ele>
        <time>2022-01-06T10:20:32.000Z</time>
      </trkpt>
      <trkpt lat="47.33352" lon="-2.32433">
        <ele>7.5999999046326</ele>
        <time>2022-01-06T10:20:40.000Z</time>
      </trkpt>
      <trkpt lat="47.33339" lon="-2.32452">
        <ele>7.5999999046326</ele>
        <time>2022-01-06T10:20:44.000Z</time>
      </trkpt>
      <trkpt lat="47.33329" lon="-2.32455">
        <ele>7.5999999046326</ele>
        <time>2022-01-06T10:20:46.000Z</time>
      </trkpt>
      <trkpt lat="47.33315" lon="-2.32461">
        <ele>7.5999999046326</ele>
        <time>2022-01-06T10:20:49.000Z</time>
      </trkpt>
      <trkpt lat="47.33307" lon="-2.32466">
        <ele>7.5999999046326</ele>
        <time>2022-01-06T10:20:51.000Z</time>
      </trkpt>
      <trkpt lat="47.33279" lon="-2.32481">
        <ele>7.5999999046326</ele>
        <time>2022-01-06T10:20:57.000Z</time>
      </trkpt>
      <trkpt lat="47.33264" lon="-2.32489">
        <ele>8</ele>
        <time>2022-01-06T10:21:00.000Z</time>
      </trkpt>
      <trkpt lat="47.3326" lon="-2.32491">
        <ele>8.3999996185303</ele>
        <time>2022-01-06T10:21:01.000Z</time>
      </trkpt>
      <trkpt lat="47.33255" lon="-2.32494">
        <ele>8.8000001907349</ele>
        <time>2022-01-06T10:21:02.000Z</time>
      </trkpt>
      <trkpt lat="47.33249" lon="-2.32496">
        <ele>9.1999998092651</ele>
        <time>2022-01-06T10:21:03.000Z</time>
      </trkpt>
      <trkpt lat="47.33243" lon="-2.32499">
        <ele>9.6000003814697</ele>
        <time>2022-01-06T10:21:04.000Z</time>
      </trkpt>
      <trkpt lat="47.33238" lon="-2.325">
        <ele>9.6000003814697</ele>
        <time>2022-01-06T10:21:05.000Z</time>
      </trkpt>
      <trkpt lat="47.33201" lon="-2.32517">
        <ele>9.6000003814697</ele>
        <time>2022-01-06T10:21:12.000Z</time>
      </trkpt>
      <trkpt lat="47.33165" lon="-2.32534">
        <ele>9.6000003814697</ele>
        <time>2022-01-06T10:21:19.000Z</time>
      </trkpt>
      <trkpt lat="47.33134" lon="-2.32557">
        <ele>9.6000003814697</ele>
        <time>2022-01-06T10:21:25.000Z</time>
      </trkpt>
      <trkpt lat="47.33105" lon="-2.32579">
        <ele>9.1999998092651</ele>
        <time>2022-01-06T10:21:30.000Z</time>
      </trkpt>
      <trkpt lat="47.331" lon="-2.32584">
        <ele>8.8000001907349</ele>
        <time>2022-01-06T10:21:31.000Z</time>
      </trkpt>
      <trkpt lat="47.33094" lon="-2.32588">
        <ele>8.3999996185303</ele>
        <time>2022-01-06T10:21:32.000Z</time>
      </trkpt>
      <trkpt lat="47.33089" lon="-2.32593">
        <ele>8</ele>
        <time>2022-01-06T10:21:33.000Z</time>
      </trkpt>
      <trkpt lat="47.33084" lon="-2.32598">
        <ele>7.5999999046326</ele>
        <time>2022-01-06T10:21:34.000Z</time>
      </trkpt>
      <trkpt lat="47.33059" lon="-2.32618">
        <ele>7.5999999046326</ele>
        <time>2022-01-06T10:21:39.000Z</time>
      </trkpt>
      <trkpt lat="47.33047" lon="-2.32629">
        <ele>7.1999998092651</ele>
        <time>2022-01-06T10:21:41.000Z</time>
      </trkpt>
      <trkpt lat="47.33041" lon="-2.32634">
        <ele>6.5999999046326</ele>
        <time>2022-01-06T10:21:42.000Z</time>
      </trkpt>
      <trkpt lat="47.33035" lon="-2.32637">
        <ele>6.1999998092651</ele>
        <time>2022-01-06T10:21:43.000Z</time>
      </trkpt>
      <trkpt lat="47.33028" lon="-2.32638">
        <ele>5.8000001907349</ele>
        <time>2022-01-06T10:21:44.000Z</time>
      </trkpt>
      <trkpt lat="47.33021" lon="-2.32637">
        <ele>5.4000000953674</ele>
        <time>2022-01-06T10:21:45.000Z</time>
      </trkpt>
      <trkpt lat="47.33014" lon="-2.32634">
        <ele>5.4000000953674</ele>
        <time>2022-01-06T10:21:46.000Z</time>
      </trkpt>
      <trkpt lat="47.33008" lon="-2.32629">
        <ele>5.4000000953674</ele>
        <time>2022-01-06T10:21:47.000Z</time>
      </trkpt>
      <trkpt lat="47.32984" lon="-2.32631">
        <ele>5.4000000953674</ele>
        <time>2022-01-06T10:21:51.000Z</time>
      </trkpt>
      <trkpt lat="47.32979" lon="-2.32635">
        <ele>5.4000000953674</ele>
        <time>2022-01-06T10:21:52.000Z</time>
      </trkpt>
      <trkpt lat="47.32974" lon="-2.32637">
        <ele>5.4000000953674</ele>
        <time>2022-01-06T10:21:53.000Z</time>
      </trkpt>
      <trkpt lat="47.32955" lon="-2.32646">
        <ele>5.4000000953674</ele>
        <time>2022-01-06T10:21:57.000Z</time>
      </trkpt>
      <trkpt lat="47.32939" lon="-2.3265">
        <ele>5.4000000953674</ele>
        <time>2022-01-06T10:22:00.000Z</time>
      </trkpt>
      <trkpt lat="47.32929" lon="-2.32646">
        <ele>5.4000000953674</ele>
        <time>2022-01-06T10:22:02.000Z</time>
      </trkpt>
      <trkpt lat="47.3292" lon="-2.32629">
        <ele>5.8000001907349</ele>
        <time>2022-01-06T10:22:05.000Z</time>
      </trkpt>
      <trkpt lat="47.3292" lon="-2.32622">
        <ele>6.1999998092651</ele>
        <time>2022-01-06T10:22:06.000Z</time>
      </trkpt>
      <trkpt lat="47.3292" lon="-2.32615">
        <ele>6.5999999046326</ele>
        <time>2022-01-06T10:22:07.000Z</time>
      </trkpt>
      <trkpt lat="47.32919" lon="-2.32608">
        <ele>7</ele>
        <time>2022-01-06T10:22:08.000Z</time>
      </trkpt>
      <trkpt lat="47.32919" lon="-2.32601">
        <ele>7.4000000953674</ele>
        <time>2022-01-06T10:22:09.000Z</time>
      </trkpt>
      <trkpt lat="47.32918" lon="-2.32548">
        <ele>7.4000000953674</ele>
        <time>2022-01-06T10:22:16.000Z</time>
      </trkpt>
      <trkpt lat="47.32917" lon="-2.32541">
        <ele>7.4000000953674</ele>
        <time>2022-01-06T10:22:17.000Z</time>
      </trkpt>
      <trkpt lat="47.3291" lon="-2.32512">
        <ele>7.4000000953674</ele>
        <time>2022-01-06T10:22:21.000Z</time>
      </trkpt>
      <trkpt lat="47.32898" lon="-2.3247">
        <ele>7.4000000953674</ele>
        <time>2022-01-06T10:22:27.000Z</time>
      </trkpt>
      <trkpt lat="47.32896" lon="-2.32464">
        <ele>7.4000000953674</ele>
        <time>2022-01-06T10:22:28.000Z</time>
      </trkpt>
      <trkpt lat="47.32878" lon="-2.32451">
        <ele>7.4000000953674</ele>
        <time>2022-01-06T10:22:32.000Z</time>
      </trkpt>
      <trkpt lat="47.32843" lon="-2.32429">
        <ele>7.4000000953674</ele>
        <time>2022-01-06T10:22:38.000Z</time>
      </trkpt>
      <trkpt lat="47.32806" lon="-2.32393">
        <ele>7.4000000953674</ele>
        <time>2022-01-06T10:22:45.000Z</time>
      </trkpt>
      <trkpt lat="47.32789" lon="-2.32379">
        <ele>7.4000000953674</ele>
        <time>2022-01-06T10:22:48.000Z</time>
      </trkpt>
      <trkpt lat="47.32778" lon="-2.32372">
        <ele>7.4000000953674</ele>
        <time>2022-01-06T10:22:50.000Z</time>
      </trkpt>
      <trkpt lat="47.32735" lon="-2.32346">
        <ele>7.4000000953674</ele>
        <time>2022-01-06T10:22:58.000Z</time>
      </trkpt>
      <trkpt lat="47.32695" lon="-2.32327">
        <ele>7.4000000953674</ele>
        <time>2022-01-06T10:23:06.000Z</time>
      </trkpt>
      <trkpt lat="47.32684" lon="-2.32323">
        <ele>7.8000001907349</ele>
        <time>2022-01-06T10:23:08.000Z</time>
      </trkpt>
      <trkpt lat="47.32679" lon="-2.32322">
        <ele>8.3999996185303</ele>
        <time>2022-01-06T10:23:09.000Z</time>
      </trkpt>
      <trkpt lat="47.32673" lon="-2.3232">
        <ele>8.8000001907349</ele>
        <time>2022-01-06T10:23:10.000Z</time>
      </trkpt>
      <trkpt lat="47.32668" lon="-2.32318">
        <ele>9.1999998092651</ele>
        <time>2022-01-06T10:23:11.000Z</time>
      </trkpt>
      <trkpt lat="47.32663" lon="-2.32317">
        <ele>9.8000001907349</ele>
        <time>2022-01-06T10:23:12.000Z</time>
      </trkpt>
      <trkpt lat="47.32658" lon="-2.32315">
        <ele>9.8000001907349</ele>
        <time>2022-01-06T10:23:13.000Z</time>
      </trkpt>
      <trkpt lat="47.32622" lon="-2.32313">
        <ele>9.8000001907349</ele>
        <time>2022-01-06T10:23:20.000Z</time>
      </trkpt>
      <trkpt lat="47.32606" lon="-2.32314">
        <ele>9.8000001907349</ele>
        <time>2022-01-06T10:23:23.000Z</time>
      </trkpt>
      <trkpt lat="47.32584" lon="-2.32315">
        <ele>9.8000001907349</ele>
        <time>2022-01-06T10:23:27.000Z</time>
      </trkpt>
      <trkpt lat="47.32557" lon="-2.32316">
        <ele>9.8000001907349</ele>
        <time>2022-01-06T10:23:33.000Z</time>
      </trkpt>
      <trkpt lat="47.32554" lon="-2.32317">
        <ele>10.199999809265</ele>
        <time>2022-01-06T10:23:34.000Z</time>
      </trkpt>
      <trkpt lat="47.32551" lon="-2.32317">
        <ele>10.60000038147</ele>
        <time>2022-01-06T10:23:35.000Z</time>
      </trkpt>
      <trkpt lat="47.32547" lon="-2.32317">
        <ele>11</ele>
        <time>2022-01-06T10:23:36.000Z</time>
      </trkpt>
      <trkpt lat="47.32544" lon="-2.32318">
        <ele>11.39999961853</ele>
        <time>2022-01-06T10:23:37.000Z</time>
      </trkpt>
      <trkpt lat="47.32541" lon="-2.32318">
        <ele>11.800000190735</ele>
        <time>2022-01-06T10:23:38.000Z</time>
      </trkpt>
      <trkpt lat="47.32537" lon="-2.32317">
        <ele>11.800000190735</ele>
        <time>2022-01-06T10:23:39.000Z</time>
      </trkpt>
      <trkpt lat="47.32534" lon="-2.32316">
        <ele>11.800000190735</ele>
        <time>2022-01-06T10:23:40.000Z</time>
      </trkpt>
      <trkpt lat="47.32531" lon="-2.32308">
        <ele>11.800000190735</ele>
        <time>2022-01-06T10:23:42.000Z</time>
      </trkpt>
      <trkpt lat="47.32529" lon="-2.32287">
        <ele>11.800000190735</ele>
        <time>2022-01-06T10:23:46.000Z</time>
      </trkpt>
      <trkpt lat="47.32528" lon="-2.32281">
        <ele>11.800000190735</ele>
        <time>2022-01-06T10:23:47.000Z</time>
      </trkpt>
      <trkpt lat="47.32529" lon="-2.32273">
        <ele>11.39999961853</ele>
        <time>2022-01-06T10:23:48.000Z</time>
      </trkpt>
      <trkpt lat="47.32529" lon="-2.32265">
        <ele>10.800000190735</ele>
        <time>2022-01-06T10:23:49.000Z</time>
      </trkpt>
      <trkpt lat="47.32531" lon="-2.32256">
        <ele>10.39999961853</ele>
        <time>2022-01-06T10:23:50.000Z</time>
      </trkpt>
      <trkpt lat="47.32533" lon="-2.32246">
        <ele>10</ele>
        <time>2022-01-06T10:23:51.000Z</time>
      </trkpt>
      <trkpt lat="47.32536" lon="-2.32236">
        <ele>9.3999996185303</ele>
        <time>2022-01-06T10:23:52.000Z</time>
      </trkpt>
      <trkpt lat="47.32543" lon="-2.32216">
        <ele>9.3999996185303</ele>
        <time>2022-01-06T10:23:54.000Z</time>
      </trkpt>
      <trkpt lat="47.32546" lon="-2.32206">
        <ele>9</ele>
        <time>2022-01-06T10:23:55.000Z</time>
      </trkpt>
      <trkpt lat="47.3255" lon="-2.32197">
        <ele>8.6000003814697</ele>
        <time>2022-01-06T10:23:56.000Z</time>
      </trkpt>
      <trkpt lat="47.32552" lon="-2.32188">
        <ele>8.1999998092651</ele>
        <time>2022-01-06T10:23:57.000Z</time>
      </trkpt>
      <trkpt lat="47.32555" lon="-2.3218">
        <ele>7.8000001907349</ele>
        <time>2022-01-06T10:23:58.000Z</time>
      </trkpt>
      <trkpt lat="47.32558" lon="-2.32172">
        <ele>7.4000000953674</ele>
        <time>2022-01-06T10:23:59.000Z</time>
      </trkpt>
      <trkpt lat="47.32576" lon="-2.32128">
        <ele>7.4000000953674</ele>
        <time>2022-01-06T10:24:05.000Z</time>
      </trkpt>
      <trkpt lat="47.32578" lon="-2.32121">
        <ele>7.4000000953674</ele>
        <time>2022-01-06T10:24:06.000Z</time>
      </trkpt>
      <trkpt lat="47.32579" lon="-2.32114">
        <ele>7.8000001907349</ele>
        <time>2022-01-06T10:24:07.000Z</time>
      </trkpt>
      <trkpt lat="47.32579" lon="-2.32107">
        <ele>8.1999998092651</ele>
        <time>2022-01-06T10:24:08.000Z</time>
      </trkpt>
      <trkpt lat="47.32579" lon="-2.32101">
        <ele>8.6000003814697</ele>
        <time>2022-01-06T10:24:09.000Z</time>
      </trkpt>
      <trkpt lat="47.32577" lon="-2.32097">
        <ele>9</ele>
        <time>2022-01-06T10:24:10.000Z</time>
      </trkpt>
      <trkpt lat="47.32574" lon="-2.32095">
        <ele>9.6000003814697</ele>
        <time>2022-01-06T10:24:11.000Z</time>
      </trkpt>
      <trkpt lat="47.32571" lon="-2.32093">
        <ele>9.6000003814697</ele>
        <time>2022-01-06T10:24:12.000Z</time>
      </trkpt>
      <trkpt lat="47.32557" lon="-2.32095">
        <ele>10</ele>
        <time>2022-01-06T10:24:15.000Z</time>
      </trkpt>
      <trkpt lat="47.32552" lon="-2.32096">
        <ele>10.39999961853</ele>
        <time>2022-01-06T10:24:16.000Z</time>
      </trkpt>
      <trkpt lat="47.32547" lon="-2.32097">
        <ele>10.800000190735</ele>
        <time>2022-01-06T10:24:17.000Z</time>
      </trkpt>
      <trkpt lat="47.32542" lon="-2.32098">
        <ele>11.199999809265</ele>
        <time>2022-01-06T10:24:18.000Z</time>
      </trkpt>
      <trkpt lat="47.32537" lon="-2.32098">
        <ele>11.800000190735</ele>
        <time>2022-01-06T10:24:19.000Z</time>
      </trkpt>
      <trkpt lat="47.32521" lon="-2.321">
        <ele>11.800000190735</ele>
        <time>2022-01-06T10:24:23.000Z</time>
      </trkpt>
      <trkpt lat="47.32497" lon="-2.32098">
        <ele>11.800000190735</ele>
        <time>2022-01-06T10:24:30.000Z</time>
      </trkpt>
      <trkpt lat="47.32496" lon="-2.32093">
        <ele>11.800000190735</ele>
        <time>2022-01-06T10:24:34.000Z</time>
      </trkpt>
      <trkpt lat="47.32496" lon="-2.32091">
        <ele>11.800000190735</ele>
        <time>2022-01-06T10:25:23.000Z</time>
      </trkpt>
      <trkpt lat="47.32497" lon="-2.32087">
        <ele>11.800000190735</ele>
        <time>2022-01-06T10:25:26.000Z</time>
      </trkpt>
      <trkpt lat="47.32498" lon="-2.32069">
        <ele>11.800000190735</ele>
        <time>2022-01-06T10:25:31.000Z</time>
      </trkpt>
      <trkpt lat="47.32499" lon="-2.3203">
        <ele>11.800000190735</ele>
        <time>2022-01-06T10:25:37.000Z</time>
      </trkpt>
      <trkpt lat="47.325" lon="-2.31978">
        <ele>11.800000190735</ele>
        <time>2022-01-06T10:25:44.000Z</time>
      </trkpt>
      <trkpt lat="47.32507" lon="-2.31935">
        <ele>11.800000190735</ele>
        <time>2022-01-06T10:25:49.000Z</time>
      </trkpt>
      <trkpt lat="47.32514" lon="-2.31878">
        <ele>11.800000190735</ele>
        <time>2022-01-06T10:25:56.000Z</time>
      </trkpt>
      <trkpt lat="47.32518" lon="-2.31852">
        <ele>11.800000190735</ele>
        <time>2022-01-06T10:25:59.000Z</time>
      </trkpt>
      <trkpt lat="47.32517" lon="-2.31826">
        <ele>11.800000190735</ele>
        <time>2022-01-06T10:26:02.000Z</time>
      </trkpt>
      <trkpt lat="47.32516" lon="-2.31801">
        <ele>12.199999809265</ele>
        <time>2022-01-06T10:26:05.000Z</time>
      </trkpt>
      <trkpt lat="47.32515" lon="-2.31793">
        <ele>12.60000038147</ele>
        <time>2022-01-06T10:26:06.000Z</time>
      </trkpt>
      <trkpt lat="47.32514" lon="-2.31786">
        <ele>13</ele>
        <time>2022-01-06T10:26:07.000Z</time>
      </trkpt>
      <trkpt lat="47.32512" lon="-2.31779">
        <ele>13.39999961853</ele>
        <time>2022-01-06T10:26:08.000Z</time>
      </trkpt>
      <trkpt lat="47.32511" lon="-2.31771">
        <ele>13.800000190735</ele>
        <time>2022-01-06T10:26:09.000Z</time>
      </trkpt>
      <trkpt lat="47.32507" lon="-2.31723">
        <ele>13.800000190735</ele>
        <time>2022-01-06T10:26:15.000Z</time>
      </trkpt>
      <trkpt lat="47.32504" lon="-2.31674">
        <ele>13.800000190735</ele>
        <time>2022-01-06T10:26:21.000Z</time>
      </trkpt>
      <trkpt lat="47.32504" lon="-2.31666">
        <ele>13.800000190735</ele>
        <time>2022-01-06T10:26:22.000Z</time>
      </trkpt>
      <trkpt lat="47.32511" lon="-2.31645">
        <ele>13.800000190735</ele>
        <time>2022-01-06T10:26:25.000Z</time>
      </trkpt>
      <trkpt lat="47.32523" lon="-2.31627">
        <ele>13.800000190735</ele>
        <time>2022-01-06T10:26:28.000Z</time>
      </trkpt>
      <trkpt lat="47.32532" lon="-2.31614">
        <ele>13.800000190735</ele>
        <time>2022-01-06T10:26:30.000Z</time>
      </trkpt>
      <trkpt lat="47.32552" lon="-2.31591">
        <ele>13.800000190735</ele>
        <time>2022-01-06T10:26:34.000Z</time>
      </trkpt>
      <trkpt lat="47.32555" lon="-2.31584">
        <ele>13.800000190735</ele>
        <time>2022-01-06T10:26:35.000Z</time>
      </trkpt>
      <trkpt lat="47.32555" lon="-2.31561">
        <ele>13.800000190735</ele>
        <time>2022-01-06T10:26:38.000Z</time>
      </trkpt>
      <trkpt lat="47.32555" lon="-2.31525">
        <ele>13.800000190735</ele>
        <time>2022-01-06T10:26:43.000Z</time>
      </trkpt>
      <trkpt lat="47.32556" lon="-2.31491">
        <ele>13.800000190735</ele>
        <time>2022-01-06T10:26:48.000Z</time>
      </trkpt>
      <trkpt lat="47.32555" lon="-2.31484">
        <ele>13.800000190735</ele>
        <time>2022-01-06T10:26:49.000Z</time>
      </trkpt>
      <trkpt lat="47.32552" lon="-2.31449">
        <ele>13.800000190735</ele>
        <time>2022-01-06T10:26:54.000Z</time>
      </trkpt>
      <trkpt lat="47.32549" lon="-2.31424">
        <ele>13.800000190735</ele>
        <time>2022-01-06T10:26:58.000Z</time>
      </trkpt>
      <trkpt lat="47.32548" lon="-2.31407">
        <ele>13.800000190735</ele>
        <time>2022-01-06T10:27:01.000Z</time>
      </trkpt>
      <trkpt lat="47.32551" lon="-2.31388">
        <ele>13.800000190735</ele>
        <time>2022-01-06T10:27:04.000Z</time>
      </trkpt>
      <trkpt lat="47.32552" lon="-2.3138">
        <ele>13.800000190735</ele>
        <time>2022-01-06T10:27:05.000Z</time>
      </trkpt>
      <trkpt lat="47.32556" lon="-2.31341">
        <ele>13.800000190735</ele>
        <time>2022-01-06T10:27:10.000Z</time>
      </trkpt>
      <trkpt lat="47.32558" lon="-2.31335">
        <ele>13.800000190735</ele>
        <time>2022-01-06T10:27:11.000Z</time>
      </trkpt>
      <trkpt lat="47.32568" lon="-2.31306">
        <ele>13.800000190735</ele>
        <time>2022-01-06T10:27:15.000Z</time>
      </trkpt>
      <trkpt lat="47.32569" lon="-2.31279">
        <ele>13.800000190735</ele>
        <time>2022-01-06T10:27:18.000Z</time>
      </trkpt>
      <trkpt lat="47.32569" lon="-2.3127">
        <ele>13.800000190735</ele>
        <time>2022-01-06T10:27:19.000Z</time>
      </trkpt>
      <trkpt lat="47.32571" lon="-2.31218">
        <ele>13.800000190735</ele>
        <time>2022-01-06T10:27:25.000Z</time>
      </trkpt>
      <trkpt lat="47.32563" lon="-2.31201">
        <ele>13.800000190735</ele>
        <time>2022-01-06T10:27:28.000Z</time>
      </trkpt>
      <trkpt lat="47.32557" lon="-2.31178">
        <ele>13.800000190735</ele>
        <time>2022-01-06T10:27:32.000Z</time>
      </trkpt>
      <trkpt lat="47.3256" lon="-2.31155">
        <ele>13.800000190735</ele>
        <time>2022-01-06T10:27:37.000Z</time>
      </trkpt>
      <trkpt lat="47.32562" lon="-2.3113">
        <ele>13.800000190735</ele>
        <time>2022-01-06T10:27:41.000Z</time>
      </trkpt>
      <trkpt lat="47.32563" lon="-2.31117">
        <ele>13.800000190735</ele>
        <time>2022-01-06T10:27:43.000Z</time>
      </trkpt>
      <trkpt lat="47.32566" lon="-2.31068">
        <ele>13.800000190735</ele>
        <time>2022-01-06T10:27:51.000Z</time>
      </trkpt>
      <trkpt lat="47.32562" lon="-2.3104">
        <ele>13.800000190735</ele>
        <time>2022-01-06T10:27:56.000Z</time>
      </trkpt>
      <trkpt lat="47.32559" lon="-2.31026">
        <ele>13.800000190735</ele>
        <time>2022-01-06T10:27:58.000Z</time>
      </trkpt>
      <trkpt lat="47.32559" lon="-2.3101">
        <ele>13.800000190735</ele>
        <time>2022-01-06T10:28:00.000Z</time>
      </trkpt>
      <trkpt lat="47.3256" lon="-2.30953">
        <ele>13.800000190735</ele>
        <time>2022-01-06T10:28:07.000Z</time>
      </trkpt>
      <trkpt lat="47.32561" lon="-2.30911">
        <ele>13.800000190735</ele>
        <time>2022-01-06T10:28:12.000Z</time>
      </trkpt>
      <trkpt lat="47.32562" lon="-2.30902">
        <ele>13.800000190735</ele>
        <time>2022-01-06T10:28:13.000Z</time>
      </trkpt>
      <trkpt lat="47.32562" lon="-2.30884">
        <ele>13.800000190735</ele>
        <time>2022-01-06T10:28:15.000Z</time>
      </trkpt>
      <trkpt lat="47.32562" lon="-2.30858">
        <ele>13.800000190735</ele>
        <time>2022-01-06T10:28:18.000Z</time>
      </trkpt>
      <trkpt lat="47.32557" lon="-2.30795">
        <ele>13.800000190735</ele>
        <time>2022-01-06T10:28:25.000Z</time>
      </trkpt>
      <trkpt lat="47.32553" lon="-2.30768">
        <ele>13.800000190735</ele>
        <time>2022-01-06T10:28:28.000Z</time>
      </trkpt>
      <trkpt lat="47.3255" lon="-2.30752">
        <ele>13.800000190735</ele>
        <time>2022-01-06T10:28:30.000Z</time>
      </trkpt>
      <trkpt lat="47.32547" lon="-2.30736">
        <ele>13.800000190735</ele>
        <time>2022-01-06T10:28:32.000Z</time>
      </trkpt>
      <trkpt lat="47.32544" lon="-2.3071">
        <ele>13.800000190735</ele>
        <time>2022-01-06T10:28:35.000Z</time>
      </trkpt>
      <trkpt lat="47.32539" lon="-2.30662">
        <ele>13.800000190735</ele>
        <time>2022-01-06T10:28:41.000Z</time>
      </trkpt>
      <trkpt lat="47.32538" lon="-2.30655">
        <ele>13.800000190735</ele>
        <time>2022-01-06T10:28:42.000Z</time>
      </trkpt>
      <trkpt lat="47.32531" lon="-2.30619">
        <ele>13.800000190735</ele>
        <time>2022-01-06T10:28:48.000Z</time>
      </trkpt>
      <trkpt lat="47.32528" lon="-2.30602">
        <ele>13.800000190735</ele>
        <time>2022-01-06T10:28:51.000Z</time>
      </trkpt>
      <trkpt lat="47.32527" lon="-2.30583">
        <ele>13.800000190735</ele>
        <time>2022-01-06T10:28:54.000Z</time>
      </trkpt>
      <trkpt lat="47.32524" lon="-2.30563">
        <ele>13.800000190735</ele>
        <time>2022-01-06T10:28:57.000Z</time>
      </trkpt>
      <trkpt lat="47.3252" lon="-2.30544">
        <ele>13.800000190735</ele>
        <time>2022-01-06T10:29:00.000Z</time>
      </trkpt>
      <trkpt lat="47.32517" lon="-2.30518">
        <ele>13.800000190735</ele>
        <time>2022-01-06T10:29:04.000Z</time>
      </trkpt>
      <trkpt lat="47.32513" lon="-2.30499">
        <ele>13.800000190735</ele>
        <time>2022-01-06T10:29:07.000Z</time>
      </trkpt>
      <trkpt lat="47.32509" lon="-2.30473">
        <ele>14.199999809265</ele>
        <time>2022-01-06T10:29:11.000Z</time>
      </trkpt>
      <trkpt lat="47.32507" lon="-2.30466">
        <ele>14.60000038147</ele>
        <time>2022-01-06T10:29:12.000Z</time>
      </trkpt>
      <trkpt lat="47.32506" lon="-2.3046">
        <ele>15</ele>
        <time>2022-01-06T10:29:13.000Z</time>
      </trkpt>
      <trkpt lat="47.32504" lon="-2.30454">
        <ele>15.39999961853</ele>
        <time>2022-01-06T10:29:14.000Z</time>
      </trkpt>
      <trkpt lat="47.32502" lon="-2.30447">
        <ele>15.800000190735</ele>
        <time>2022-01-06T10:29:15.000Z</time>
      </trkpt>
      <trkpt lat="47.32501" lon="-2.30441">
        <ele>15.800000190735</ele>
        <time>2022-01-06T10:29:16.000Z</time>
      </trkpt>
      <trkpt lat="47.32499" lon="-2.30422">
        <ele>15.800000190735</ele>
        <time>2022-01-06T10:29:19.000Z</time>
      </trkpt>
      <trkpt lat="47.32501" lon="-2.30417">
        <ele>15.800000190735</ele>
        <time>2022-01-06T10:29:20.000Z</time>
      </trkpt>
      <trkpt lat="47.32513" lon="-2.30411">
        <ele>15.800000190735</ele>
        <time>2022-01-06T10:29:23.000Z</time>
      </trkpt>
      <trkpt lat="47.32536" lon="-2.304">
        <ele>15.800000190735</ele>
        <time>2022-01-06T10:29:28.000Z</time>
      </trkpt>
      <trkpt lat="47.32539" lon="-2.30397">
        <ele>15.800000190735</ele>
        <time>2022-01-06T10:29:29.000Z</time>
      </trkpt>
      <trkpt lat="47.3254" lon="-2.30378">
        <ele>15.800000190735</ele>
        <time>2022-01-06T10:29:33.000Z</time>
      </trkpt>
      <trkpt lat="47.32539" lon="-2.30373">
        <ele>15.800000190735</ele>
        <time>2022-01-06T10:29:34.000Z</time>
      </trkpt>
      <trkpt lat="47.3253" lon="-2.30335">
        <ele>15.800000190735</ele>
        <time>2022-01-06T10:29:40.000Z</time>
      </trkpt>
      <trkpt lat="47.32525" lon="-2.30311">
        <ele>15.800000190735</ele>
        <time>2022-01-06T10:29:44.000Z</time>
      </trkpt>
      <trkpt lat="47.32522" lon="-2.30299">
        <ele>15.800000190735</ele>
        <time>2022-01-06T10:29:46.000Z</time>
      </trkpt>
      <trkpt lat="47.32517" lon="-2.30259">
        <ele>16.200000762939</ele>
        <time>2022-01-06T10:29:52.000Z</time>
      </trkpt>
      <trkpt lat="47.32516" lon="-2.30252">
        <ele>16.60000038147</ele>
        <time>2022-01-06T10:29:53.000Z</time>
      </trkpt>
      <trkpt lat="47.32515" lon="-2.30245">
        <ele>17</ele>
        <time>2022-01-06T10:29:54.000Z</time>
      </trkpt>
      <trkpt lat="47.32514" lon="-2.30238">
        <ele>17.39999961853</ele>
        <time>2022-01-06T10:29:55.000Z</time>
      </trkpt>
      <trkpt lat="47.32514" lon="-2.30231">
        <ele>17.799999237061</ele>
        <time>2022-01-06T10:29:56.000Z</time>
      </trkpt>
      <trkpt lat="47.32511" lon="-2.30211">
        <ele>17.799999237061</ele>
        <time>2022-01-06T10:29:59.000Z</time>
      </trkpt>
      <trkpt lat="47.32506" lon="-2.30172">
        <ele>17.799999237061</ele>
        <time>2022-01-06T10:30:05.000Z</time>
      </trkpt>
      <trkpt lat="47.32502" lon="-2.30145">
        <ele>17.799999237061</ele>
        <time>2022-01-06T10:30:10.000Z</time>
      </trkpt>
      <trkpt lat="47.32497" lon="-2.30107">
        <ele>17.799999237061</ele>
        <time>2022-01-06T10:30:17.000Z</time>
      </trkpt>
      <trkpt lat="47.32496" lon="-2.30083">
        <ele>17.799999237061</ele>
        <time>2022-01-06T10:30:22.000Z</time>
      </trkpt>
      <trkpt lat="47.32494" lon="-2.30066">
        <ele>17.799999237061</ele>
        <time>2022-01-06T10:30:27.000Z</time>
      </trkpt>
      <trkpt lat="47.32486" lon="-2.3004">
        <ele>17.799999237061</ele>
        <time>2022-01-06T10:30:32.000Z</time>
      </trkpt>
      <trkpt lat="47.32475" lon="-2.30005">
        <ele>17.799999237061</ele>
        <time>2022-01-06T10:30:38.000Z</time>
      </trkpt>
      <trkpt lat="47.3247" lon="-2.29995">
        <ele>17.799999237061</ele>
        <time>2022-01-06T10:30:40.000Z</time>
      </trkpt>
      <trkpt lat="47.3246" lon="-2.29982">
        <ele>17.799999237061</ele>
        <time>2022-01-06T10:30:43.000Z</time>
      </trkpt>
      <trkpt lat="47.32443" lon="-2.2995">
        <ele>17.799999237061</ele>
        <time>2022-01-06T10:30:50.000Z</time>
      </trkpt>
      <trkpt lat="47.32443" lon="-2.29945">
        <ele>17.799999237061</ele>
        <time>2022-01-06T10:30:51.000Z</time>
      </trkpt>
      <trkpt lat="47.32446" lon="-2.29935">
        <ele>17.799999237061</ele>
        <time>2022-01-06T10:30:53.000Z</time>
      </trkpt>
      <trkpt lat="47.32447" lon="-2.29929">
        <ele>17.799999237061</ele>
        <time>2022-01-06T10:30:54.000Z</time>
      </trkpt>
      <trkpt lat="47.32446" lon="-2.29908">
        <ele>17.799999237061</ele>
        <time>2022-01-06T10:30:57.000Z</time>
      </trkpt>
      <trkpt lat="47.32445" lon="-2.29902">
        <ele>17.799999237061</ele>
        <time>2022-01-06T10:30:58.000Z</time>
      </trkpt>
      <trkpt lat="47.32441" lon="-2.2988">
        <ele>17.799999237061</ele>
        <time>2022-01-06T10:31:02.000Z</time>
      </trkpt>
      <trkpt lat="47.32437" lon="-2.29876">
        <ele>17.799999237061</ele>
        <time>2022-01-06T10:31:04.000Z</time>
      </trkpt>
      <trkpt lat="47.32434" lon="-2.29876">
        <ele>17.799999237061</ele>
        <time>2022-01-06T10:31:05.000Z</time>
      </trkpt>
      <trkpt lat="47.32426" lon="-2.29881">
        <ele>17.799999237061</ele>
        <time>2022-01-06T10:31:10.000Z</time>
      </trkpt>
      <trkpt lat="47.32425" lon="-2.29882">
        <ele>17.799999237061</ele>
        <time>2022-01-06T10:31:11.000Z</time>
      </trkpt>
      <trkpt lat="47.32424" lon="-2.29882">
        <ele>17.799999237061</ele>
        <time>2022-01-06T10:31:13.000Z</time>
      </trkpt>
      <trkpt lat="47.32421" lon="-2.29884">
        <ele>17.799999237061</ele>
        <time>2022-01-06T10:31:20.000Z</time>
      </trkpt>
      <trkpt lat="47.32419" lon="-2.29886">
        <ele>17.799999237061</ele>
        <time>2022-01-06T10:31:21.000Z</time>
      </trkpt>
      <trkpt lat="47.32407" lon="-2.29898">
        <ele>17.799999237061</ele>
        <time>2022-01-06T10:31:27.000Z</time>
      </trkpt>
      <trkpt lat="47.32394" lon="-2.29902">
        <ele>17.799999237061</ele>
        <time>2022-01-06T10:31:31.000Z</time>
      </trkpt>
      <trkpt lat="47.3239" lon="-2.299">
        <ele>17.799999237061</ele>
        <time>2022-01-06T10:31:32.000Z</time>
      </trkpt>
      <trkpt lat="47.32382" lon="-2.29891">
        <ele>17.799999237061</ele>
        <time>2022-01-06T10:31:35.000Z</time>
      </trkpt>
      <trkpt lat="47.32379" lon="-2.29885">
        <ele>17.799999237061</ele>
        <time>2022-01-06T10:31:37.000Z</time>
      </trkpt>
      <trkpt lat="47.32368" lon="-2.29869">
        <ele>17.799999237061</ele>
        <time>2022-01-06T10:31:44.000Z</time>
      </trkpt>
      <trkpt lat="47.32362" lon="-2.29855">
        <ele>17.799999237061</ele>
        <time>2022-01-06T10:31:50.000Z</time>
      </trkpt>
      <trkpt lat="47.32356" lon="-2.29843">
        <ele>17.799999237061</ele>
        <time>2022-01-06T10:31:55.000Z</time>
      </trkpt>
      <trkpt lat="47.32352" lon="-2.29831">
        <ele>17.799999237061</ele>
        <time>2022-01-06T10:32:01.000Z</time>
      </trkpt>
      <trkpt lat="47.3235" lon="-2.29829">
        <ele>17.799999237061</ele>
        <time>2022-01-06T10:32:03.000Z</time>
      </trkpt>
      <trkpt lat="47.32349" lon="-2.29824">
        <ele>17.799999237061</ele>
        <time>2022-01-06T10:33:32.000Z</time>
      </trkpt>
      <trkpt lat="47.32346" lon="-2.29821">
        <ele>17.799999237061</ele>
        <time>2022-01-06T10:33:34.000Z</time>
      </trkpt>
      <trkpt lat="47.32341" lon="-2.29811">
        <ele>17.799999237061</ele>
        <time>2022-01-06T10:33:39.000Z</time>
      </trkpt>
      <trkpt lat="47.32341" lon="-2.29809">
        <ele>17.799999237061</ele>
        <time>2022-01-06T10:33:41.000Z</time>
      </trkpt>
      <trkpt lat="47.32339" lon="-2.29805">
        <ele>17.799999237061</ele>
        <time>2022-01-06T10:34:00.000Z</time>
      </trkpt>
      <trkpt lat="47.32337" lon="-2.29802">
        <ele>17.799999237061</ele>
        <time>2022-01-06T10:34:01.000Z</time>
      </trkpt>
      <trkpt lat="47.32334" lon="-2.29797">
        <ele>17.39999961853</ele>
        <time>2022-01-06T10:34:03.000Z</time>
      </trkpt>
      <trkpt lat="47.32332" lon="-2.29794">
        <ele>17</ele>
        <time>2022-01-06T10:34:04.000Z</time>
      </trkpt>
      <trkpt lat="47.32329" lon="-2.2979">
        <ele>16.60000038147</ele>
        <time>2022-01-06T10:34:05.000Z</time>
      </trkpt>
      <trkpt lat="47.32327" lon="-2.29785">
        <ele>16.200000762939</ele>
        <time>2022-01-06T10:34:06.000Z</time>
      </trkpt>
      <trkpt lat="47.32325" lon="-2.29781">
        <ele>15.800000190735</ele>
        <time>2022-01-06T10:34:07.000Z</time>
      </trkpt>
      <trkpt lat="47.32314" lon="-2.29762">
        <ele>15.800000190735</ele>
        <time>2022-01-06T10:34:11.000Z</time>
      </trkpt>
      <trkpt lat="47.32301" lon="-2.29739">
        <ele>15.39999961853</ele>
        <time>2022-01-06T10:34:15.000Z</time>
      </trkpt>
      <trkpt lat="47.32297" lon="-2.29734">
        <ele>15</ele>
        <time>2022-01-06T10:34:16.000Z</time>
      </trkpt>
      <trkpt lat="47.32294" lon="-2.29728">
        <ele>14</ele>
        <time>2022-01-06T10:34:17.000Z</time>
      </trkpt>
      <trkpt lat="47.32291" lon="-2.29723">
        <ele>13.60000038147</ele>
        <time>2022-01-06T10:34:18.000Z</time>
      </trkpt>
      <trkpt lat="47.32275" lon="-2.29691">
        <ele>13.60000038147</ele>
        <time>2022-01-06T10:34:23.000Z</time>
      </trkpt>
      <trkpt lat="47.32263" lon="-2.29675">
        <ele>13.60000038147</ele>
        <time>2022-01-06T10:34:26.000Z</time>
      </trkpt>
      <trkpt lat="47.32257" lon="-2.29672">
        <ele>13.60000038147</ele>
        <time>2022-01-06T10:34:27.000Z</time>
      </trkpt>
      <trkpt lat="47.32252" lon="-2.29673">
        <ele>13.199999809265</ele>
        <time>2022-01-06T10:34:28.000Z</time>
      </trkpt>
      <trkpt lat="47.32247" lon="-2.29676">
        <ele>12.800000190735</ele>
        <time>2022-01-06T10:34:29.000Z</time>
      </trkpt>
      <trkpt lat="47.32242" lon="-2.29679">
        <ele>12.39999961853</ele>
        <time>2022-01-06T10:34:30.000Z</time>
      </trkpt>
      <trkpt lat="47.32238" lon="-2.29684">
        <ele>12</ele>
        <time>2022-01-06T10:34:31.000Z</time>
      </trkpt>
      <trkpt lat="47.32233" lon="-2.29689">
        <ele>11.60000038147</ele>
        <time>2022-01-06T10:34:32.000Z</time>
      </trkpt>
      <trkpt lat="47.32219" lon="-2.29705">
        <ele>11.60000038147</ele>
        <time>2022-01-06T10:34:35.000Z</time>
      </trkpt>
      <trkpt lat="47.32194" lon="-2.29733">
        <ele>11.60000038147</ele>
        <time>2022-01-06T10:34:40.000Z</time>
      </trkpt>
      <trkpt lat="47.3219" lon="-2.29737">
        <ele>10.800000190735</ele>
        <time>2022-01-06T10:34:41.000Z</time>
      </trkpt>
      <trkpt lat="47.32185" lon="-2.2974">
        <ele>10.39999961853</ele>
        <time>2022-01-06T10:34:42.000Z</time>
      </trkpt>
      <trkpt lat="47.3218" lon="-2.29744">
        <ele>9.8000001907349</ele>
        <time>2022-01-06T10:34:43.000Z</time>
      </trkpt>
      <trkpt lat="47.32174" lon="-2.29749">
        <ele>9.3999996185303</ele>
        <time>2022-01-06T10:34:44.000Z</time>
      </trkpt>
      <trkpt lat="47.32142" lon="-2.2978">
        <ele>9.3999996185303</ele>
        <time>2022-01-06T10:34:51.000Z</time>
      </trkpt>
      <trkpt lat="47.32133" lon="-2.29797">
        <ele>9.3999996185303</ele>
        <time>2022-01-06T10:34:55.000Z</time>
      </trkpt>
      <trkpt lat="47.32134" lon="-2.29824">
        <ele>9.3999996185303</ele>
        <time>2022-01-06T10:34:59.000Z</time>
      </trkpt>
      <trkpt lat="47.32125" lon="-2.2984">
        <ele>10</ele>
        <time>2022-01-06T10:35:02.000Z</time>
      </trkpt>
      <trkpt lat="47.3212" lon="-2.29843">
        <ele>10.39999961853</ele>
        <time>2022-01-06T10:35:03.000Z</time>
      </trkpt>
      <trkpt lat="47.32115" lon="-2.29847">
        <ele>10.800000190735</ele>
        <time>2022-01-06T10:35:04.000Z</time>
      </trkpt>
      <trkpt lat="47.32111" lon="-2.29851">
        <ele>11.199999809265</ele>
        <time>2022-01-06T10:35:05.000Z</time>
      </trkpt>
      <trkpt lat="47.32106" lon="-2.29854">
        <ele>11.60000038147</ele>
        <time>2022-01-06T10:35:06.000Z</time>
      </trkpt>
      <trkpt lat="47.32094" lon="-2.29865">
        <ele>11.60000038147</ele>
        <time>2022-01-06T10:35:09.000Z</time>
      </trkpt>
      <trkpt lat="47.32087" lon="-2.29872">
        <ele>11.60000038147</ele>
        <time>2022-01-06T10:35:11.000Z</time>
      </trkpt>
      <trkpt lat="47.32078" lon="-2.29883">
        <ele>11.60000038147</ele>
        <time>2022-01-06T10:35:14.000Z</time>
      </trkpt>
      <trkpt lat="47.32059" lon="-2.29905">
        <ele>11.60000038147</ele>
        <time>2022-01-06T10:35:21.000Z</time>
      </trkpt>
      <trkpt lat="47.32049" lon="-2.29923">
        <ele>11.60000038147</ele>
        <time>2022-01-06T10:35:25.000Z</time>
      </trkpt>
      <trkpt lat="47.32046" lon="-2.29935">
        <ele>11.60000038147</ele>
        <time>2022-01-06T10:35:27.000Z</time>
      </trkpt>
      <trkpt lat="47.32034" lon="-2.29977">
        <ele>11.60000038147</ele>
        <time>2022-01-06T10:35:34.000Z</time>
      </trkpt>
      <trkpt lat="47.32032" lon="-2.29983">
        <ele>11.60000038147</ele>
        <time>2022-01-06T10:35:35.000Z</time>
      </trkpt>
      <trkpt lat="47.32022" lon="-2.30013">
        <ele>11.60000038147</ele>
        <time>2022-01-06T10:35:40.000Z</time>
      </trkpt>
      <trkpt lat="47.32019" lon="-2.30018">
        <ele>11.60000038147</ele>
        <time>2022-01-06T10:35:41.000Z</time>
      </trkpt>
      <trkpt lat="47.32005" lon="-2.30055">
        <ele>11.60000038147</ele>
        <time>2022-01-06T10:35:47.000Z</time>
      </trkpt>
      <trkpt lat="47.3199" lon="-2.30095">
        <ele>11.60000038147</ele>
        <time>2022-01-06T10:35:54.000Z</time>
      </trkpt>
      <trkpt lat="47.31988" lon="-2.30101">
        <ele>11.60000038147</ele>
        <time>2022-01-06T10:35:55.000Z</time>
      </trkpt>
      <trkpt lat="47.31984" lon="-2.30124">
        <ele>11.60000038147</ele>
        <time>2022-01-06T10:35:59.000Z</time>
      </trkpt>
      <trkpt lat="47.31971" lon="-2.30155">
        <ele>11.60000038147</ele>
        <time>2022-01-06T10:36:05.000Z</time>
      </trkpt>
      <trkpt lat="47.31968" lon="-2.3016">
        <ele>11.60000038147</ele>
        <time>2022-01-06T10:36:06.000Z</time>
      </trkpt>
      <trkpt lat="47.31963" lon="-2.30172">
        <ele>11.60000038147</ele>
        <time>2022-01-06T10:36:08.000Z</time>
      </trkpt>
      <trkpt lat="47.31954" lon="-2.30188">
        <ele>11.60000038147</ele>
        <time>2022-01-06T10:36:11.000Z</time>
      </trkpt>
      <trkpt lat="47.31943" lon="-2.30206">
        <ele>11.60000038147</ele>
        <time>2022-01-06T10:36:16.000Z</time>
      </trkpt>
      <trkpt lat="47.31925" lon="-2.3023">
        <ele>11.60000038147</ele>
        <time>2022-01-06T10:36:22.000Z</time>
      </trkpt>
      <trkpt lat="47.31912" lon="-2.30248">
        <ele>11.60000038147</ele>
        <time>2022-01-06T10:36:27.000Z</time>
      </trkpt>
      <trkpt lat="47.31908" lon="-2.30252">
        <ele>11.60000038147</ele>
        <time>2022-01-06T10:36:28.000Z</time>
      </trkpt>
      <trkpt lat="47.31889" lon="-2.30272">
        <ele>12</ele>
        <time>2022-01-06T10:36:33.000Z</time>
      </trkpt>
      <trkpt lat="47.31885" lon="-2.30276">
        <ele>12.39999961853</ele>
        <time>2022-01-06T10:36:34.000Z</time>
      </trkpt>
      <trkpt lat="47.3188" lon="-2.30278">
        <ele>12.800000190735</ele>
        <time>2022-01-06T10:36:35.000Z</time>
      </trkpt>
      <trkpt lat="47.31875" lon="-2.3028">
        <ele>13.199999809265</ele>
        <time>2022-01-06T10:36:36.000Z</time>
      </trkpt>
      <trkpt lat="47.3187" lon="-2.30282">
        <ele>13.60000038147</ele>
        <time>2022-01-06T10:36:37.000Z</time>
      </trkpt>
      <trkpt lat="47.31839" lon="-2.30292">
        <ele>13.60000038147</ele>
        <time>2022-01-06T10:36:44.000Z</time>
      </trkpt>
      <trkpt lat="47.3182" lon="-2.30301">
        <ele>13.60000038147</ele>
        <time>2022-01-06T10:36:48.000Z</time>
      </trkpt>
      <trkpt lat="47.31813" lon="-2.30307">
        <ele>13.60000038147</ele>
        <time>2022-01-06T10:36:50.000Z</time>
      </trkpt>
      <trkpt lat="47.31803" lon="-2.30314">
        <ele>13.60000038147</ele>
        <time>2022-01-06T10:36:53.000Z</time>
      </trkpt>
      <trkpt lat="47.31795" lon="-2.30319">
        <ele>13.60000038147</ele>
        <time>2022-01-06T10:36:55.000Z</time>
      </trkpt>
      <trkpt lat="47.31791" lon="-2.30322">
        <ele>13.60000038147</ele>
        <time>2022-01-06T10:36:56.000Z</time>
      </trkpt>
      <trkpt lat="47.31776" lon="-2.30335">
        <ele>13.60000038147</ele>
        <time>2022-01-06T10:37:00.000Z</time>
      </trkpt>
      <trkpt lat="47.3177" lon="-2.30345">
        <ele>13.60000038147</ele>
        <time>2022-01-06T10:37:02.000Z</time>
      </trkpt>
      <trkpt lat="47.31764" lon="-2.30355">
        <ele>13.60000038147</ele>
        <time>2022-01-06T10:37:04.000Z</time>
      </trkpt>
      <trkpt lat="47.31756" lon="-2.30373">
        <ele>13.60000038147</ele>
        <time>2022-01-06T10:37:07.000Z</time>
      </trkpt>
      <trkpt lat="47.31754" lon="-2.3038">
        <ele>13.60000038147</ele>
        <time>2022-01-06T10:37:08.000Z</time>
      </trkpt>
      <trkpt lat="47.31743" lon="-2.30431">
        <ele>13.60000038147</ele>
        <time>2022-01-06T10:37:15.000Z</time>
      </trkpt>
      <trkpt lat="47.31736" lon="-2.30444">
        <ele>14</ele>
        <time>2022-01-06T10:37:17.000Z</time>
      </trkpt>
      <trkpt lat="47.31732" lon="-2.30449">
        <ele>14.39999961853</ele>
        <time>2022-01-06T10:37:18.000Z</time>
      </trkpt>
      <trkpt lat="47.31728" lon="-2.30453">
        <ele>15</ele>
        <time>2022-01-06T10:37:19.000Z</time>
      </trkpt>
      <trkpt lat="47.31724" lon="-2.30459">
        <ele>15.39999961853</ele>
        <time>2022-01-06T10:37:20.000Z</time>
      </trkpt>
      <trkpt lat="47.3172" lon="-2.30464">
        <ele>15.800000190735</ele>
        <time>2022-01-06T10:37:21.000Z</time>
      </trkpt>
      <trkpt lat="47.31717" lon="-2.30471">
        <ele>15.800000190735</ele>
        <time>2022-01-06T10:37:22.000Z</time>
      </trkpt>
      <trkpt lat="47.31715" lon="-2.30477">
        <ele>15.800000190735</ele>
        <time>2022-01-06T10:37:23.000Z</time>
      </trkpt>
      <trkpt lat="47.3171" lon="-2.30492">
        <ele>15.800000190735</ele>
        <time>2022-01-06T10:37:25.000Z</time>
      </trkpt>
      <trkpt lat="47.31707" lon="-2.30515">
        <ele>15.800000190735</ele>
        <time>2022-01-06T10:37:28.000Z</time>
      </trkpt>
      <trkpt lat="47.31706" lon="-2.3053">
        <ele>15.800000190735</ele>
        <time>2022-01-06T10:37:30.000Z</time>
      </trkpt>
      <trkpt lat="47.31707" lon="-2.30561">
        <ele>15.800000190735</ele>
        <time>2022-01-06T10:37:34.000Z</time>
      </trkpt>
      <trkpt lat="47.31711" lon="-2.3063">
        <ele>15.800000190735</ele>
        <time>2022-01-06T10:37:43.000Z</time>
      </trkpt>
      <trkpt lat="47.31707" lon="-2.30656">
        <ele>15.800000190735</ele>
        <time>2022-01-06T10:37:48.000Z</time>
      </trkpt>
      <trkpt lat="47.31692" lon="-2.30664">
        <ele>16.200000762939</ele>
        <time>2022-01-06T10:37:52.000Z</time>
      </trkpt>
      <trkpt lat="47.31688" lon="-2.30666">
        <ele>16.60000038147</ele>
        <time>2022-01-06T10:37:53.000Z</time>
      </trkpt>
      <trkpt lat="47.31684" lon="-2.30668">
        <ele>17.200000762939</ele>
        <time>2022-01-06T10:37:54.000Z</time>
      </trkpt>
      <trkpt lat="47.31681" lon="-2.3067">
        <ele>17.60000038147</ele>
        <time>2022-01-06T10:37:55.000Z</time>
      </trkpt>
      <trkpt lat="47.31677" lon="-2.30672">
        <ele>18</ele>
        <time>2022-01-06T10:37:56.000Z</time>
      </trkpt>
      <trkpt lat="47.31664" lon="-2.30679">
        <ele>18</ele>
        <time>2022-01-06T10:37:59.000Z</time>
      </trkpt>
      <trkpt lat="47.31638" lon="-2.30698">
        <ele>18</ele>
        <time>2022-01-06T10:38:05.000Z</time>
      </trkpt>
      <trkpt lat="47.31631" lon="-2.30706">
        <ele>18</ele>
        <time>2022-01-06T10:38:07.000Z</time>
      </trkpt>
      <trkpt lat="47.31616" lon="-2.30723">
        <ele>18</ele>
        <time>2022-01-06T10:38:11.000Z</time>
      </trkpt>
      <trkpt lat="47.31598" lon="-2.30749">
        <ele>18</ele>
        <time>2022-01-06T10:38:16.000Z</time>
      </trkpt>
      <trkpt lat="47.31576" lon="-2.30778">
        <ele>18</ele>
        <time>2022-01-06T10:38:23.000Z</time>
      </trkpt>
      <trkpt lat="47.31561" lon="-2.30802">
        <ele>18</ele>
        <time>2022-01-06T10:38:28.000Z</time>
      </trkpt>
      <trkpt lat="47.31558" lon="-2.30808">
        <ele>18</ele>
        <time>2022-01-06T10:38:29.000Z</time>
      </trkpt>
      <trkpt lat="47.31548" lon="-2.30836">
        <ele>18</ele>
        <time>2022-01-06T10:38:34.000Z</time>
      </trkpt>
      <trkpt lat="47.31545" lon="-2.30847">
        <ele>18</ele>
        <time>2022-01-06T10:38:36.000Z</time>
      </trkpt>
      <trkpt lat="47.31543" lon="-2.30867">
        <ele>18</ele>
        <time>2022-01-06T10:38:40.000Z</time>
      </trkpt>
      <trkpt lat="47.31542" lon="-2.30883">
        <ele>18</ele>
        <time>2022-01-06T10:38:44.000Z</time>
      </trkpt>
      <trkpt lat="47.31541" lon="-2.30887">
        <ele>18</ele>
        <time>2022-01-06T10:38:45.000Z</time>
      </trkpt>
      <trkpt lat="47.31536" lon="-2.30896">
        <ele>18</ele>
        <time>2022-01-06T10:38:47.000Z</time>
      </trkpt>
      <trkpt lat="47.3152" lon="-2.3093">
        <ele>18</ele>
        <time>2022-01-06T10:38:53.000Z</time>
      </trkpt>
      <trkpt lat="47.31508" lon="-2.30951">
        <ele>18</ele>
        <time>2022-01-06T10:38:57.000Z</time>
      </trkpt>
      <trkpt lat="47.31502" lon="-2.3096">
        <ele>18</ele>
        <time>2022-01-06T10:38:59.000Z</time>
      </trkpt>
      <trkpt lat="47.31494" lon="-2.30967">
        <ele>18</ele>
        <time>2022-01-06T10:39:03.000Z</time>
      </trkpt>
      <trkpt lat="47.31492" lon="-2.30968">
        <ele>18.39999961853</ele>
        <time>2022-01-06T10:39:04.000Z</time>
      </trkpt>
      <trkpt lat="47.3149" lon="-2.30969">
        <ele>18.799999237061</ele>
        <time>2022-01-06T10:39:05.000Z</time>
      </trkpt>
      <trkpt lat="47.31488" lon="-2.30971">
        <ele>19.200000762939</ele>
        <time>2022-01-06T10:39:06.000Z</time>
      </trkpt>
      <trkpt lat="47.31486" lon="-2.30973">
        <ele>19.60000038147</ele>
        <time>2022-01-06T10:39:07.000Z</time>
      </trkpt>
      <trkpt lat="47.31483" lon="-2.30976">
        <ele>20</ele>
        <time>2022-01-06T10:39:08.000Z</time>
      </trkpt>
      <trkpt lat="47.31464" lon="-2.30995">
        <ele>20</ele>
        <time>2022-01-06T10:39:14.000Z</time>
      </trkpt>
      <trkpt lat="47.31444" lon="-2.31013">
        <ele>20</ele>
        <time>2022-01-06T10:39:20.000Z</time>
      </trkpt>
      <trkpt lat="47.31421" lon="-2.31033">
        <ele>20</ele>
        <time>2022-01-06T10:39:27.000Z</time>
      </trkpt>
      <trkpt lat="47.31398" lon="-2.31046">
        <ele>20</ele>
        <time>2022-01-06T10:39:34.000Z</time>
      </trkpt>
      <trkpt lat="47.3139" lon="-2.31059">
        <ele>20</ele>
        <time>2022-01-06T10:39:38.000Z</time>
      </trkpt>
      <trkpt lat="47.31391" lon="-2.31064">
        <ele>20</ele>
        <time>2022-01-06T10:39:39.000Z</time>
      </trkpt>
      <trkpt lat="47.31397" lon="-2.31084">
        <ele>20</ele>
        <time>2022-01-06T10:39:43.000Z</time>
      </trkpt>
      <trkpt lat="47.31403" lon="-2.31105">
        <ele>20</ele>
        <time>2022-01-06T10:39:49.000Z</time>
      </trkpt>
      <trkpt lat="47.31402" lon="-2.31112">
        <ele>20</ele>
        <time>2022-01-06T10:39:51.000Z</time>
      </trkpt>
      <trkpt lat="47.31398" lon="-2.31118">
        <ele>20</ele>
        <time>2022-01-06T10:39:53.000Z</time>
      </trkpt>
      <trkpt lat="47.31385" lon="-2.31119">
        <ele>20</ele>
        <time>2022-01-06T10:39:58.000Z</time>
      </trkpt>
      <trkpt lat="47.31375" lon="-2.31124">
        <ele>20.799999237061</ele>
        <time>2022-01-06T10:40:02.000Z</time>
      </trkpt>
      <trkpt lat="47.31373" lon="-2.31125">
        <ele>21.200000762939</ele>
        <time>2022-01-06T10:40:03.000Z</time>
      </trkpt>
      <trkpt lat="47.31371" lon="-2.31126">
        <ele>21.60000038147</ele>
        <time>2022-01-06T10:40:04.000Z</time>
      </trkpt>
      <trkpt lat="47.31371" lon="-2.31126">
        <ele>22</ele>
        <time>2022-01-06T10:40:05.000Z</time>
      </trkpt>
      <trkpt lat="47.31371" lon="-2.31126">
        <ele>22</ele>
        <time>2022-01-06T10:40:06.000Z</time>
      </trkpt>
      <trkpt lat="47.31368" lon="-2.31132">
        <ele>22</ele>
        <time>2022-01-06T10:40:32.000Z</time>
      </trkpt>
      <trkpt lat="47.31369" lon="-2.31135">
        <ele>22</ele>
        <time>2022-01-06T10:40:33.000Z</time>
      </trkpt>
      <trkpt lat="47.31374" lon="-2.31151">
        <ele>22</ele>
        <time>2022-01-06T10:40:37.000Z</time>
      </trkpt>
      <trkpt lat="47.31383" lon="-2.31186">
        <ele>22</ele>
        <time>2022-01-06T10:40:43.000Z</time>
      </trkpt>
      <trkpt lat="47.31393" lon="-2.31216">
        <ele>22</ele>
        <time>2022-01-06T10:40:49.000Z</time>
      </trkpt>
      <trkpt lat="47.31396" lon="-2.31232">
        <ele>22</ele>
        <time>2022-01-06T10:40:54.000Z</time>
      </trkpt>
      <trkpt lat="47.31384" lon="-2.31246">
        <ele>22</ele>
        <time>2022-01-06T10:40:59.000Z</time>
      </trkpt>
      <trkpt lat="47.31372" lon="-2.31272">
        <ele>22</ele>
        <time>2022-01-06T10:41:05.000Z</time>
      </trkpt>
      <trkpt lat="47.31368" lon="-2.313">
        <ele>22</ele>
        <time>2022-01-06T10:41:10.000Z</time>
      </trkpt>
      <trkpt lat="47.31373" lon="-2.31344">
        <ele>22</ele>
        <time>2022-01-06T10:41:17.000Z</time>
      </trkpt>
      <trkpt lat="47.31374" lon="-2.3135">
        <ele>22</ele>
        <time>2022-01-06T10:41:18.000Z</time>
      </trkpt>
      <trkpt lat="47.31382" lon="-2.31385">
        <ele>22</ele>
        <time>2022-01-06T10:41:24.000Z</time>
      </trkpt>
      <trkpt lat="47.31392" lon="-2.31408">
        <ele>22</ele>
        <time>2022-01-06T10:41:28.000Z</time>
      </trkpt>
      <trkpt lat="47.31397" lon="-2.31418">
        <ele>22</ele>
        <time>2022-01-06T10:41:30.000Z</time>
      </trkpt>
      <trkpt lat="47.31417" lon="-2.31454">
        <ele>22</ele>
        <time>2022-01-06T10:41:37.000Z</time>
      </trkpt>
      <trkpt lat="47.31421" lon="-2.31459">
        <ele>22</ele>
        <time>2022-01-06T10:41:38.000Z</time>
      </trkpt>
      <trkpt lat="47.31424" lon="-2.31463">
        <ele>22.60000038147</ele>
        <time>2022-01-06T10:41:39.000Z</time>
      </trkpt>
      <trkpt lat="47.31427" lon="-2.31469">
        <ele>23</ele>
        <time>2022-01-06T10:41:40.000Z</time>
      </trkpt>
      <trkpt lat="47.31429" lon="-2.31476">
        <ele>23.799999237061</ele>
        <time>2022-01-06T10:41:41.000Z</time>
      </trkpt>
      <trkpt lat="47.31429" lon="-2.31482">
        <ele>24.200000762939</ele>
        <time>2022-01-06T10:41:42.000Z</time>
      </trkpt>
      <trkpt lat="47.31427" lon="-2.31497">
        <ele>24.200000762939</ele>
        <time>2022-01-06T10:41:44.000Z</time>
      </trkpt>
      <trkpt lat="47.31429" lon="-2.31528">
        <ele>24.200000762939</ele>
        <time>2022-01-06T10:41:48.000Z</time>
      </trkpt>
      <trkpt lat="47.31434" lon="-2.31576">
        <ele>24.200000762939</ele>
        <time>2022-01-06T10:41:54.000Z</time>
      </trkpt>
      <trkpt lat="47.3144" lon="-2.31624">
        <ele>24.200000762939</ele>
        <time>2022-01-06T10:42:00.000Z</time>
      </trkpt>
      <trkpt lat="47.31449" lon="-2.31671">
        <ele>24.60000038147</ele>
        <time>2022-01-06T10:42:06.000Z</time>
      </trkpt>
      <trkpt lat="47.31451" lon="-2.31679">
        <ele>25</ele>
        <time>2022-01-06T10:42:07.000Z</time>
      </trkpt>
      <trkpt lat="47.31453" lon="-2.31687">
        <ele>25.39999961853</ele>
        <time>2022-01-06T10:42:08.000Z</time>
      </trkpt>
      <trkpt lat="47.31455" lon="-2.31695">
        <ele>25.799999237061</ele>
        <time>2022-01-06T10:42:09.000Z</time>
      </trkpt>
      <trkpt lat="47.31457" lon="-2.31703">
        <ele>26.200000762939</ele>
        <time>2022-01-06T10:42:10.000Z</time>
      </trkpt>
      <trkpt lat="47.31465" lon="-2.31749">
        <ele>26.200000762939</ele>
        <time>2022-01-06T10:42:16.000Z</time>
      </trkpt>
      <trkpt lat="47.31469" lon="-2.3177">
        <ele>26.200000762939</ele>
        <time>2022-01-06T10:42:19.000Z</time>
      </trkpt>
      <trkpt lat="47.31466" lon="-2.31784">
        <ele>26.200000762939</ele>
        <time>2022-01-06T10:42:21.000Z</time>
      </trkpt>
      <trkpt lat="47.31456" lon="-2.31804">
        <ele>26.200000762939</ele>
        <time>2022-01-06T10:42:24.000Z</time>
      </trkpt>
      <trkpt lat="47.31452" lon="-2.3181">
        <ele>26.200000762939</ele>
        <time>2022-01-06T10:42:25.000Z</time>
      </trkpt>
      <trkpt lat="47.31429" lon="-2.31857">
        <ele>26.200000762939</ele>
        <time>2022-01-06T10:42:32.000Z</time>
      </trkpt>
      <trkpt lat="47.31422" lon="-2.31881">
        <ele>26.200000762939</ele>
        <time>2022-01-06T10:42:35.000Z</time>
      </trkpt>
      <trkpt lat="47.31419" lon="-2.31899">
        <ele>26.200000762939</ele>
        <time>2022-01-06T10:42:37.000Z</time>
      </trkpt>
      <trkpt lat="47.31418" lon="-2.31915">
        <ele>26.60000038147</ele>
        <time>2022-01-06T10:42:39.000Z</time>
      </trkpt>
      <trkpt lat="47.31417" lon="-2.31924">
        <ele>27</ele>
        <time>2022-01-06T10:42:40.000Z</time>
      </trkpt>
      <trkpt lat="47.31416" lon="-2.31933">
        <ele>27.39999961853</ele>
        <time>2022-01-06T10:42:41.000Z</time>
      </trkpt>
      <trkpt lat="47.31416" lon="-2.31942">
        <ele>27.799999237061</ele>
        <time>2022-01-06T10:42:42.000Z</time>
      </trkpt>
      <trkpt lat="47.31417" lon="-2.31951">
        <ele>28.200000762939</ele>
        <time>2022-01-06T10:42:43.000Z</time>
      </trkpt>
      <trkpt lat="47.31428" lon="-2.31996">
        <ele>28.200000762939</ele>
        <time>2022-01-06T10:42:48.000Z</time>
      </trkpt>
      <trkpt lat="47.31445" lon="-2.32042">
        <ele>27.799999237061</ele>
        <time>2022-01-06T10:42:53.000Z</time>
      </trkpt>
      <trkpt lat="47.31448" lon="-2.32052">
        <ele>27.39999961853</ele>
        <time>2022-01-06T10:42:54.000Z</time>
      </trkpt>
      <trkpt lat="47.31452" lon="-2.32062">
        <ele>26.39999961853</ele>
        <time>2022-01-06T10:42:55.000Z</time>
      </trkpt>
      <trkpt lat="47.31456" lon="-2.32072">
        <ele>26</ele>
        <time>2022-01-06T10:42:56.000Z</time>
      </trkpt>
      <trkpt lat="47.3147" lon="-2.32109">
        <ele>26</ele>
        <time>2022-01-06T10:43:00.000Z</time>
      </trkpt>
      <trkpt lat="47.31474" lon="-2.32117">
        <ele>26</ele>
        <time>2022-01-06T10:43:01.000Z</time>
      </trkpt>
      <trkpt lat="47.31493" lon="-2.3216">
        <ele>26</ele>
        <time>2022-01-06T10:43:07.000Z</time>
      </trkpt>
      <trkpt lat="47.31499" lon="-2.3217">
        <ele>26</ele>
        <time>2022-01-06T10:43:09.000Z</time>
      </trkpt>
      <trkpt lat="47.31506" lon="-2.32176">
        <ele>26.39999961853</ele>
        <time>2022-01-06T10:43:11.000Z</time>
      </trkpt>
      <trkpt lat="47.31508" lon="-2.32179">
        <ele>27</ele>
        <time>2022-01-06T10:43:12.000Z</time>
      </trkpt>
      <trkpt lat="47.31508" lon="-2.32182">
        <ele>27.39999961853</ele>
        <time>2022-01-06T10:43:13.000Z</time>
      </trkpt>
      <trkpt lat="47.31507" lon="-2.32185">
        <ele>27.799999237061</ele>
        <time>2022-01-06T10:43:14.000Z</time>
      </trkpt>
      <trkpt lat="47.31505" lon="-2.32187">
        <ele>28.200000762939</ele>
        <time>2022-01-06T10:43:15.000Z</time>
      </trkpt>
      <trkpt lat="47.31495" lon="-2.32177">
        <ele>28.200000762939</ele>
        <time>2022-01-06T10:43:18.000Z</time>
      </trkpt>
      <trkpt lat="47.31483" lon="-2.32177">
        <ele>28.200000762939</ele>
        <time>2022-01-06T10:43:21.000Z</time>
      </trkpt>
      <trkpt lat="47.31475" lon="-2.32194">
        <ele>28.200000762939</ele>
        <time>2022-01-06T10:43:24.000Z</time>
      </trkpt>
      <trkpt lat="47.31472" lon="-2.32201">
        <ele>28.200000762939</ele>
        <time>2022-01-06T10:43:25.000Z</time>
      </trkpt>
      <trkpt lat="47.31468" lon="-2.32215">
        <ele>28.200000762939</ele>
        <time>2022-01-06T10:43:27.000Z</time>
      </trkpt>
      <trkpt lat="47.31461" lon="-2.32238">
        <ele>28.200000762939</ele>
        <time>2022-01-06T10:43:30.000Z</time>
      </trkpt>
      <trkpt lat="47.3145" lon="-2.3226">
        <ele>28.200000762939</ele>
        <time>2022-01-06T10:43:33.000Z</time>
      </trkpt>
      <trkpt lat="47.31439" lon="-2.32268">
        <ele>28.200000762939</ele>
        <time>2022-01-06T10:43:35.000Z</time>
      </trkpt>
      <trkpt lat="47.3142" lon="-2.32272">
        <ele>28.200000762939</ele>
        <time>2022-01-06T10:43:38.000Z</time>
      </trkpt>
      <trkpt lat="47.31414" lon="-2.32274">
        <ele>28.200000762939</ele>
        <time>2022-01-06T10:43:39.000Z</time>
      </trkpt>
      <trkpt lat="47.31385" lon="-2.32284">
        <ele>28.200000762939</ele>
        <time>2022-01-06T10:43:44.000Z</time>
      </trkpt>
      <trkpt lat="47.31348" lon="-2.32302">
        <ele>28.200000762939</ele>
        <time>2022-01-06T10:43:50.000Z</time>
      </trkpt>
      <trkpt lat="47.31322" lon="-2.32326">
        <ele>28.200000762939</ele>
        <time>2022-01-06T10:43:55.000Z</time>
      </trkpt>
      <trkpt lat="47.31295" lon="-2.32353">
        <ele>28.200000762939</ele>
        <time>2022-01-06T10:44:01.000Z</time>
      </trkpt>
      <trkpt lat="47.31251" lon="-2.32394">
        <ele>28.200000762939</ele>
        <time>2022-01-06T10:44:10.000Z</time>
      </trkpt>
      <trkpt lat="47.31215" lon="-2.32418">
        <ele>28.200000762939</ele>
        <time>2022-01-06T10:44:17.000Z</time>
      </trkpt>
      <trkpt lat="47.3119" lon="-2.32435">
        <ele>28.200000762939</ele>
        <time>2022-01-06T10:44:22.000Z</time>
      </trkpt>
      <trkpt lat="47.31185" lon="-2.32439">
        <ele>28.200000762939</ele>
        <time>2022-01-06T10:44:23.000Z</time>
      </trkpt>
      <trkpt lat="47.31182" lon="-2.32446">
        <ele>28.200000762939</ele>
        <time>2022-01-06T10:44:24.000Z</time>
      </trkpt>
      <trkpt lat="47.31179" lon="-2.32463">
        <ele>28.200000762939</ele>
        <time>2022-01-06T10:44:26.000Z</time>
      </trkpt>
      <trkpt lat="47.31178" lon="-2.3248">
        <ele>28.200000762939</ele>
        <time>2022-01-06T10:44:28.000Z</time>
      </trkpt>
      <trkpt lat="47.31177" lon="-2.32513">
        <ele>28.200000762939</ele>
        <time>2022-01-06T10:44:32.000Z</time>
      </trkpt>
      <trkpt lat="47.31176" lon="-2.32578">
        <ele>28.200000762939</ele>
        <time>2022-01-06T10:44:40.000Z</time>
      </trkpt>
      <trkpt lat="47.31176" lon="-2.32603">
        <ele>28.60000038147</ele>
        <time>2022-01-06T10:44:43.000Z</time>
      </trkpt>
      <trkpt lat="47.31176" lon="-2.32611">
        <ele>29</ele>
        <time>2022-01-06T10:44:44.000Z</time>
      </trkpt>
      <trkpt lat="47.31176" lon="-2.32618">
        <ele>29.39999961853</ele>
        <time>2022-01-06T10:44:45.000Z</time>
      </trkpt>
      <trkpt lat="47.31176" lon="-2.32626">
        <ele>29.799999237061</ele>
        <time>2022-01-06T10:44:46.000Z</time>
      </trkpt>
      <trkpt lat="47.31178" lon="-2.32634">
        <ele>30.200000762939</ele>
        <time>2022-01-06T10:44:47.000Z</time>
      </trkpt>
      <trkpt lat="47.3118" lon="-2.32642">
        <ele>30.200000762939</ele>
        <time>2022-01-06T10:44:48.000Z</time>
      </trkpt>
      <trkpt lat="47.31187" lon="-2.32663">
        <ele>30.200000762939</ele>
        <time>2022-01-06T10:44:51.000Z</time>
      </trkpt>
      <trkpt lat="47.31192" lon="-2.32677">
        <ele>30.200000762939</ele>
        <time>2022-01-06T10:44:53.000Z</time>
      </trkpt>
      <trkpt lat="47.31209" lon="-2.32726">
        <ele>30.200000762939</ele>
        <time>2022-01-06T10:45:00.000Z</time>
      </trkpt>
      <trkpt lat="47.31225" lon="-2.32744">
        <ele>30.200000762939</ele>
        <time>2022-01-06T10:45:04.000Z</time>
      </trkpt>
      <trkpt lat="47.31229" lon="-2.32747">
        <ele>30.200000762939</ele>
        <time>2022-01-06T10:45:05.000Z</time>
      </trkpt>
      <trkpt lat="47.31257" lon="-2.32767">
        <ele>30.200000762939</ele>
        <time>2022-01-06T10:45:10.000Z</time>
      </trkpt>
      <trkpt lat="47.31277" lon="-2.32782">
        <ele>30.200000762939</ele>
        <time>2022-01-06T10:45:13.000Z</time>
      </trkpt>
      <trkpt lat="47.31286" lon="-2.32797">
        <ele>30.200000762939</ele>
        <time>2022-01-06T10:45:15.000Z</time>
      </trkpt>
      <trkpt lat="47.31305" lon="-2.32824">
        <ele>30.200000762939</ele>
        <time>2022-01-06T10:45:19.000Z</time>
      </trkpt>
      <trkpt lat="47.31326" lon="-2.32856">
        <ele>30.200000762939</ele>
        <time>2022-01-06T10:45:24.000Z</time>
      </trkpt>
      <trkpt lat="47.3135" lon="-2.32886">
        <ele>30.200000762939</ele>
        <time>2022-01-06T10:45:30.000Z</time>
      </trkpt>
      <trkpt lat="47.31354" lon="-2.32895">
        <ele>30.200000762939</ele>
        <time>2022-01-06T10:45:32.000Z</time>
      </trkpt>
      <trkpt lat="47.31352" lon="-2.32906">
        <ele>30.200000762939</ele>
        <time>2022-01-06T10:45:34.000Z</time>
      </trkpt>
      <trkpt lat="47.3134" lon="-2.32932">
        <ele>30.200000762939</ele>
        <time>2022-01-06T10:45:38.000Z</time>
      </trkpt>
      <trkpt lat="47.31318" lon="-2.32974">
        <ele>30.200000762939</ele>
        <time>2022-01-06T10:45:44.000Z</time>
      </trkpt>
      <trkpt lat="47.31293" lon="-2.33018">
        <ele>30.200000762939</ele>
        <time>2022-01-06T10:45:50.000Z</time>
      </trkpt>
      <trkpt lat="47.31267" lon="-2.3306">
        <ele>30.200000762939</ele>
        <time>2022-01-06T10:45:57.000Z</time>
      </trkpt>
      <trkpt lat="47.31243" lon="-2.33103">
        <ele>30.200000762939</ele>
        <time>2022-01-06T10:46:04.000Z</time>
      </trkpt>
      <trkpt lat="47.31241" lon="-2.33109">
        <ele>30.200000762939</ele>
        <time>2022-01-06T10:46:05.000Z</time>
      </trkpt>
      <trkpt lat="47.31233" lon="-2.33128">
        <ele>30.200000762939</ele>
        <time>2022-01-06T10:46:08.000Z</time>
      </trkpt>
      <trkpt lat="47.3123" lon="-2.33134">
        <ele>30.200000762939</ele>
        <time>2022-01-06T10:46:09.000Z</time>
      </trkpt>
      <trkpt lat="47.31223" lon="-2.33145">
        <ele>30.200000762939</ele>
        <time>2022-01-06T10:46:11.000Z</time>
      </trkpt>
      <trkpt lat="47.31213" lon="-2.33151">
        <ele>30.200000762939</ele>
        <time>2022-01-06T10:46:13.000Z</time>
      </trkpt>
      <trkpt lat="47.31202" lon="-2.33155">
        <ele>30.200000762939</ele>
        <time>2022-01-06T10:46:15.000Z</time>
      </trkpt>
      <trkpt lat="47.31191" lon="-2.3316">
        <ele>30.200000762939</ele>
        <time>2022-01-06T10:46:17.000Z</time>
      </trkpt>
      <trkpt lat="47.31186" lon="-2.33164">
        <ele>30.200000762939</ele>
        <time>2022-01-06T10:46:18.000Z</time>
      </trkpt>
      <trkpt lat="47.31159" lon="-2.3318">
        <ele>30.200000762939</ele>
        <time>2022-01-06T10:46:23.000Z</time>
      </trkpt>
      <trkpt lat="47.31154" lon="-2.33183">
        <ele>30.200000762939</ele>
        <time>2022-01-06T10:46:24.000Z</time>
      </trkpt>
      <trkpt lat="47.3115" lon="-2.33186">
        <ele>30.200000762939</ele>
        <time>2022-01-06T10:46:25.000Z</time>
      </trkpt>
      <trkpt lat="47.31133" lon="-2.33196">
        <ele>30.200000762939</ele>
        <time>2022-01-06T10:46:29.000Z</time>
      </trkpt>
      <trkpt lat="47.31125" lon="-2.33201">
        <ele>30.200000762939</ele>
        <time>2022-01-06T10:46:31.000Z</time>
      </trkpt>
      <trkpt lat="47.31111" lon="-2.33214">
        <ele>30.200000762939</ele>
        <time>2022-01-06T10:46:35.000Z</time>
      </trkpt>
      <trkpt lat="47.31108" lon="-2.33231">
        <ele>30.200000762939</ele>
        <time>2022-01-06T10:46:38.000Z</time>
      </trkpt>
      <trkpt lat="47.31106" lon="-2.33253">
        <ele>30.799999237061</ele>
        <time>2022-01-06T10:46:41.000Z</time>
      </trkpt>
      <trkpt lat="47.31106" lon="-2.33261">
        <ele>31.200000762939</ele>
        <time>2022-01-06T10:46:42.000Z</time>
      </trkpt>
      <trkpt lat="47.31105" lon="-2.33268">
        <ele>31.60000038147</ele>
        <time>2022-01-06T10:46:43.000Z</time>
      </trkpt>
      <trkpt lat="47.31104" lon="-2.33275">
        <ele>32</ele>
        <time>2022-01-06T10:46:44.000Z</time>
      </trkpt>
      <trkpt lat="47.31103" lon="-2.33282">
        <ele>32.400001525879</ele>
        <time>2022-01-06T10:46:45.000Z</time>
      </trkpt>
      <trkpt lat="47.31101" lon="-2.33324">
        <ele>32.400001525879</ele>
        <time>2022-01-06T10:46:51.000Z</time>
      </trkpt>
      <trkpt lat="47.31097" lon="-2.33376">
        <ele>32.400001525879</ele>
        <time>2022-01-06T10:46:58.000Z</time>
      </trkpt>
      <trkpt lat="47.31095" lon="-2.33433">
        <ele>32.400001525879</ele>
        <time>2022-01-06T10:47:06.000Z</time>
      </trkpt>
      <trkpt lat="47.31095" lon="-2.33441">
        <ele>32.400001525879</ele>
        <time>2022-01-06T10:47:07.000Z</time>
      </trkpt>
      <trkpt lat="47.31096" lon="-2.33464">
        <ele>32.799999237061</ele>
        <time>2022-01-06T10:47:10.000Z</time>
      </trkpt>
      <trkpt lat="47.31097" lon="-2.33472">
        <ele>33.200000762939</ele>
        <time>2022-01-06T10:47:11.000Z</time>
      </trkpt>
      <trkpt lat="47.31097" lon="-2.3348">
        <ele>33.599998474121</ele>
        <time>2022-01-06T10:47:12.000Z</time>
      </trkpt>
      <trkpt lat="47.31098" lon="-2.33487">
        <ele>34.200000762939</ele>
        <time>2022-01-06T10:47:13.000Z</time>
      </trkpt>
      <trkpt lat="47.31099" lon="-2.33495">
        <ele>34.599998474121</ele>
        <time>2022-01-06T10:47:14.000Z</time>
      </trkpt>
      <trkpt lat="47.31102" lon="-2.33509">
        <ele>34.599998474121</ele>
        <time>2022-01-06T10:47:16.000Z</time>
      </trkpt>
      <trkpt lat="47.31104" lon="-2.33524">
        <ele>34.599998474121</ele>
        <time>2022-01-06T10:47:18.000Z</time>
      </trkpt>
      <trkpt lat="47.31107" lon="-2.33565">
        <ele>34.599998474121</ele>
        <time>2022-01-06T10:47:23.000Z</time>
      </trkpt>
      <trkpt lat="47.31106" lon="-2.3362">
        <ele>34.599998474121</ele>
        <time>2022-01-06T10:47:29.000Z</time>
      </trkpt>
      <trkpt lat="47.31101" lon="-2.33687">
        <ele>34.599998474121</ele>
        <time>2022-01-06T10:47:36.000Z</time>
      </trkpt>
      <trkpt lat="47.31093" lon="-2.33746">
        <ele>34.599998474121</ele>
        <time>2022-01-06T10:47:43.000Z</time>
      </trkpt>
      <trkpt lat="47.31087" lon="-2.3377">
        <ele>34.599998474121</ele>
        <time>2022-01-06T10:47:46.000Z</time>
      </trkpt>
      <trkpt lat="47.31077" lon="-2.3379">
        <ele>34.599998474121</ele>
        <time>2022-01-06T10:47:49.000Z</time>
      </trkpt>
      <trkpt lat="47.31072" lon="-2.33804">
        <ele>34.599998474121</ele>
        <time>2022-01-06T10:47:51.000Z</time>
      </trkpt>
      <trkpt lat="47.31067" lon="-2.33826">
        <ele>34.599998474121</ele>
        <time>2022-01-06T10:47:54.000Z</time>
      </trkpt>
      <trkpt lat="47.31065" lon="-2.33851">
        <ele>34.599998474121</ele>
        <time>2022-01-06T10:47:57.000Z</time>
      </trkpt>
      <trkpt lat="47.31063" lon="-2.33875">
        <ele>34.599998474121</ele>
        <time>2022-01-06T10:48:00.000Z</time>
      </trkpt>
      <trkpt lat="47.31062" lon="-2.33923">
        <ele>34.599998474121</ele>
        <time>2022-01-06T10:48:06.000Z</time>
      </trkpt>
      <trkpt lat="47.3106" lon="-2.33937">
        <ele>34.599998474121</ele>
        <time>2022-01-06T10:48:08.000Z</time>
      </trkpt>
      <trkpt lat="47.31051" lon="-2.33946">
        <ele>34.599998474121</ele>
        <time>2022-01-06T10:48:10.000Z</time>
      </trkpt>
      <trkpt lat="47.31041" lon="-2.3395">
        <ele>35</ele>
        <time>2022-01-06T10:48:12.000Z</time>
      </trkpt>
      <trkpt lat="47.31036" lon="-2.33949">
        <ele>35.799999237061</ele>
        <time>2022-01-06T10:48:13.000Z</time>
      </trkpt>
      <trkpt lat="47.31032" lon="-2.33949">
        <ele>36.200000762939</ele>
        <time>2022-01-06T10:48:14.000Z</time>
      </trkpt>
      <trkpt lat="47.31027" lon="-2.3395">
        <ele>36.799999237061</ele>
        <time>2022-01-06T10:48:15.000Z</time>
      </trkpt>
      <trkpt lat="47.31001" lon="-2.33953">
        <ele>36.799999237061</ele>
        <time>2022-01-06T10:48:21.000Z</time>
      </trkpt>
      <trkpt lat="47.30996" lon="-2.33954">
        <ele>37.200000762939</ele>
        <time>2022-01-06T10:48:22.000Z</time>
      </trkpt>
      <trkpt lat="47.30992" lon="-2.33954">
        <ele>37.599998474121</ele>
        <time>2022-01-06T10:48:23.000Z</time>
      </trkpt>
      <trkpt lat="47.30987" lon="-2.33955">
        <ele>38</ele>
        <time>2022-01-06T10:48:24.000Z</time>
      </trkpt>
      <trkpt lat="47.30982" lon="-2.33955">
        <ele>38.400001525879</ele>
        <time>2022-01-06T10:48:25.000Z</time>
      </trkpt>
      <trkpt lat="47.30977" lon="-2.33955">
        <ele>38.799999237061</ele>
        <time>2022-01-06T10:48:26.000Z</time>
      </trkpt>
      <trkpt lat="47.30973" lon="-2.33955">
        <ele>38.799999237061</ele>
        <time>2022-01-06T10:48:27.000Z</time>
      </trkpt>
      <trkpt lat="47.30933" lon="-2.33947">
        <ele>38.799999237061</ele>
        <time>2022-01-06T10:48:35.000Z</time>
      </trkpt>
      <trkpt lat="47.30902" lon="-2.33944">
        <ele>38.799999237061</ele>
        <time>2022-01-06T10:48:41.000Z</time>
      </trkpt>
      <trkpt lat="47.30872" lon="-2.3395">
        <ele>38.799999237061</ele>
        <time>2022-01-06T10:48:47.000Z</time>
      </trkpt>
      <trkpt lat="47.30832" lon="-2.33957">
        <ele>38.799999237061</ele>
        <time>2022-01-06T10:48:55.000Z</time>
      </trkpt>
      <trkpt lat="47.30798" lon="-2.33966">
        <ele>38.799999237061</ele>
        <time>2022-01-06T10:49:02.000Z</time>
      </trkpt>
      <trkpt lat="47.30781" lon="-2.33977">
        <ele>38.799999237061</ele>
        <time>2022-01-06T10:49:07.000Z</time>
      </trkpt>
      <trkpt lat="47.30779" lon="-2.33996">
        <ele>38.799999237061</ele>
        <time>2022-01-06T10:49:11.000Z</time>
      </trkpt>
      <trkpt lat="47.30778" lon="-2.34024">
        <ele>38.799999237061</ele>
        <time>2022-01-06T10:49:17.000Z</time>
      </trkpt>
      <trkpt lat="47.30779" lon="-2.34051">
        <ele>38.799999237061</ele>
        <time>2022-01-06T10:49:22.000Z</time>
      </trkpt>
      <trkpt lat="47.30777" lon="-2.34089">
        <ele>38.799999237061</ele>
        <time>2022-01-06T10:49:28.000Z</time>
      </trkpt>
      <trkpt lat="47.30775" lon="-2.34126">
        <ele>38.799999237061</ele>
        <time>2022-01-06T10:49:35.000Z</time>
      </trkpt>
      <trkpt lat="47.30772" lon="-2.34159">
        <ele>38.799999237061</ele>
        <time>2022-01-06T10:49:41.000Z</time>
      </trkpt>
      <trkpt lat="47.30771" lon="-2.34195">
        <ele>38.799999237061</ele>
        <time>2022-01-06T10:49:48.000Z</time>
      </trkpt>
      <trkpt lat="47.30766" lon="-2.34209">
        <ele>38.799999237061</ele>
        <time>2022-01-06T10:49:51.000Z</time>
      </trkpt>
      <trkpt lat="47.30761" lon="-2.3421">
        <ele>38.799999237061</ele>
        <time>2022-01-06T10:49:52.000Z</time>
      </trkpt>
      <trkpt lat="47.30733" lon="-2.34221">
        <ele>38.799999237061</ele>
        <time>2022-01-06T10:49:58.000Z</time>
      </trkpt>
      <trkpt lat="47.3073" lon="-2.34238">
        <ele>38.799999237061</ele>
        <time>2022-01-06T10:50:01.000Z</time>
      </trkpt>
      <trkpt lat="47.30727" lon="-2.34259">
        <ele>38.799999237061</ele>
        <time>2022-01-06T10:50:04.000Z</time>
      </trkpt>
      <trkpt lat="47.30725" lon="-2.34265">
        <ele>38.799999237061</ele>
        <time>2022-01-06T10:50:05.000Z</time>
      </trkpt>
      <trkpt lat="47.30721" lon="-2.34277">
        <ele>38.799999237061</ele>
        <time>2022-01-06T10:50:07.000Z</time>
      </trkpt>
      <trkpt lat="47.30715" lon="-2.34288">
        <ele>38.799999237061</ele>
        <time>2022-01-06T10:50:09.000Z</time>
      </trkpt>
      <trkpt lat="47.30706" lon="-2.34307">
        <ele>38.799999237061</ele>
        <time>2022-01-06T10:50:12.000Z</time>
      </trkpt>
      <trkpt lat="47.307" lon="-2.34319">
        <ele>39.200000762939</ele>
        <time>2022-01-06T10:50:14.000Z</time>
      </trkpt>
      <trkpt lat="47.30697" lon="-2.34325">
        <ele>39.599998474121</ele>
        <time>2022-01-06T10:50:15.000Z</time>
      </trkpt>
      <trkpt lat="47.30695" lon="-2.34331">
        <ele>40</ele>
        <time>2022-01-06T10:50:16.000Z</time>
      </trkpt>
      <trkpt lat="47.30692" lon="-2.34337">
        <ele>40.799999237061</ele>
        <time>2022-01-06T10:50:17.000Z</time>
      </trkpt>
      <trkpt lat="47.30678" lon="-2.34368">
        <ele>40.799999237061</ele>
        <time>2022-01-06T10:50:22.000Z</time>
      </trkpt>
      <trkpt lat="47.30675" lon="-2.34373">
        <ele>40.799999237061</ele>
        <time>2022-01-06T10:50:23.000Z</time>
      </trkpt>
      <trkpt lat="47.30665" lon="-2.34388">
        <ele>40.799999237061</ele>
        <time>2022-01-06T10:50:26.000Z</time>
      </trkpt>
      <trkpt lat="47.30658" lon="-2.34397">
        <ele>40.799999237061</ele>
        <time>2022-01-06T10:50:28.000Z</time>
      </trkpt>
      <trkpt lat="47.30639" lon="-2.34425">
        <ele>40.799999237061</ele>
        <time>2022-01-06T10:50:33.000Z</time>
      </trkpt>
      <trkpt lat="47.30616" lon="-2.34458">
        <ele>40.799999237061</ele>
        <time>2022-01-06T10:50:39.000Z</time>
      </trkpt>
      <trkpt lat="47.30591" lon="-2.34498">
        <ele>40.799999237061</ele>
        <time>2022-01-06T10:50:46.000Z</time>
      </trkpt>
      <trkpt lat="47.30567" lon="-2.34543">
        <ele>40.799999237061</ele>
        <time>2022-01-06T10:50:53.000Z</time>
      </trkpt>
      <trkpt lat="47.3054" lon="-2.34582">
        <ele>40.799999237061</ele>
        <time>2022-01-06T10:50:59.000Z</time>
      </trkpt>
      <trkpt lat="47.30523" lon="-2.34605">
        <ele>40.799999237061</ele>
        <time>2022-01-06T10:51:03.000Z</time>
      </trkpt>
      <trkpt lat="47.30519" lon="-2.3461">
        <ele>40.799999237061</ele>
        <time>2022-01-06T10:51:04.000Z</time>
      </trkpt>
      <trkpt lat="47.30516" lon="-2.34616">
        <ele>40.799999237061</ele>
        <time>2022-01-06T10:51:05.000Z</time>
      </trkpt>
      <trkpt lat="47.30499" lon="-2.34645">
        <ele>40.799999237061</ele>
        <time>2022-01-06T10:51:10.000Z</time>
      </trkpt>
      <trkpt lat="47.30491" lon="-2.34657">
        <ele>40.799999237061</ele>
        <time>2022-01-06T10:51:12.000Z</time>
      </trkpt>
      <trkpt lat="47.30477" lon="-2.34672">
        <ele>40.799999237061</ele>
        <time>2022-01-06T10:51:15.000Z</time>
      </trkpt>
      <trkpt lat="47.30453" lon="-2.34695">
        <ele>40.799999237061</ele>
        <time>2022-01-06T10:51:20.000Z</time>
      </trkpt>
      <trkpt lat="47.30444" lon="-2.34704">
        <ele>40.799999237061</ele>
        <time>2022-01-06T10:51:22.000Z</time>
      </trkpt>
      <trkpt lat="47.30429" lon="-2.34719">
        <ele>40.799999237061</ele>
        <time>2022-01-06T10:51:25.000Z</time>
      </trkpt>
      <trkpt lat="47.30395" lon="-2.34741">
        <ele>40.799999237061</ele>
        <time>2022-01-06T10:51:31.000Z</time>
      </trkpt>
      <trkpt lat="47.30363" lon="-2.34764">
        <ele>40.799999237061</ele>
        <time>2022-01-06T10:51:37.000Z</time>
      </trkpt>
      <trkpt lat="47.30337" lon="-2.34786">
        <ele>40.799999237061</ele>
        <time>2022-01-06T10:51:42.000Z</time>
      </trkpt>
      <trkpt lat="47.30334" lon="-2.34793">
        <ele>40.799999237061</ele>
        <time>2022-01-06T10:51:43.000Z</time>
      </trkpt>
      <trkpt lat="47.30318" lon="-2.34822">
        <ele>40.799999237061</ele>
        <time>2022-01-06T10:51:47.000Z</time>
      </trkpt>
      <trkpt lat="47.30309" lon="-2.34833">
        <ele>40.799999237061</ele>
        <time>2022-01-06T10:51:49.000Z</time>
      </trkpt>
      <trkpt lat="47.30287" lon="-2.34857">
        <ele>40.799999237061</ele>
        <time>2022-01-06T10:51:54.000Z</time>
      </trkpt>
      <trkpt lat="47.30282" lon="-2.3486">
        <ele>40.799999237061</ele>
        <time>2022-01-06T10:51:55.000Z</time>
      </trkpt>
      <trkpt lat="47.30245" lon="-2.3488">
        <ele>40.799999237061</ele>
        <time>2022-01-06T10:52:02.000Z</time>
      </trkpt>
      <trkpt lat="47.3023" lon="-2.34892">
        <ele>40.799999237061</ele>
        <time>2022-01-06T10:52:05.000Z</time>
      </trkpt>
      <trkpt lat="47.30216" lon="-2.34904">
        <ele>40.400001525879</ele>
        <time>2022-01-06T10:52:08.000Z</time>
      </trkpt>
      <trkpt lat="47.30212" lon="-2.3491">
        <ele>40</ele>
        <time>2022-01-06T10:52:09.000Z</time>
      </trkpt>
      <trkpt lat="47.30211" lon="-2.34917">
        <ele>39.599998474121</ele>
        <time>2022-01-06T10:52:10.000Z</time>
      </trkpt>
      <trkpt lat="47.3021" lon="-2.34924">
        <ele>39.200000762939</ele>
        <time>2022-01-06T10:52:11.000Z</time>
      </trkpt>
      <trkpt lat="47.3021" lon="-2.34931">
        <ele>38.799999237061</ele>
        <time>2022-01-06T10:52:12.000Z</time>
      </trkpt>
      <trkpt lat="47.3021" lon="-2.34949">
        <ele>38.799999237061</ele>
        <time>2022-01-06T10:52:14.000Z</time>
      </trkpt>
      <trkpt lat="47.3021" lon="-2.34958">
        <ele>38.799999237061</ele>
        <time>2022-01-06T10:52:15.000Z</time>
      </trkpt>
      <trkpt lat="47.30209" lon="-2.35015">
        <ele>38.799999237061</ele>
        <time>2022-01-06T10:52:21.000Z</time>
      </trkpt>
      <trkpt lat="47.3021" lon="-2.35025">
        <ele>38.799999237061</ele>
        <time>2022-01-06T10:52:22.000Z</time>
      </trkpt>
      <trkpt lat="47.30211" lon="-2.35035">
        <ele>38.400001525879</ele>
        <time>2022-01-06T10:52:23.000Z</time>
      </trkpt>
      <trkpt lat="47.3021" lon="-2.35044">
        <ele>38</ele>
        <time>2022-01-06T10:52:24.000Z</time>
      </trkpt>
      <trkpt lat="47.3021" lon="-2.35053">
        <ele>37.599998474121</ele>
        <time>2022-01-06T10:52:25.000Z</time>
      </trkpt>
      <trkpt lat="47.3021" lon="-2.35063">
        <ele>37.200000762939</ele>
        <time>2022-01-06T10:52:26.000Z</time>
      </trkpt>
      <trkpt lat="47.3021" lon="-2.35072">
        <ele>36.799999237061</ele>
        <time>2022-01-06T10:52:27.000Z</time>
      </trkpt>
      <trkpt lat="47.30209" lon="-2.35081">
        <ele>36.799999237061</ele>
        <time>2022-01-06T10:52:28.000Z</time>
      </trkpt>
      <trkpt lat="47.30208" lon="-2.35116">
        <ele>36.799999237061</ele>
        <time>2022-01-06T10:52:32.000Z</time>
      </trkpt>
      <trkpt lat="47.30208" lon="-2.35125">
        <ele>36.799999237061</ele>
        <time>2022-01-06T10:52:33.000Z</time>
      </trkpt>
      <trkpt lat="47.30208" lon="-2.35153">
        <ele>36.200000762939</ele>
        <time>2022-01-06T10:52:36.000Z</time>
      </trkpt>
      <trkpt lat="47.30207" lon="-2.3516">
        <ele>35.799999237061</ele>
        <time>2022-01-06T10:52:37.000Z</time>
      </trkpt>
      <trkpt lat="47.30205" lon="-2.35166">
        <ele>35.400001525879</ele>
        <time>2022-01-06T10:52:38.000Z</time>
      </trkpt>
      <trkpt lat="47.30201" lon="-2.35169">
        <ele>35</ele>
        <time>2022-01-06T10:52:39.000Z</time>
      </trkpt>
      <trkpt lat="47.30198" lon="-2.3517">
        <ele>34.599998474121</ele>
        <time>2022-01-06T10:52:40.000Z</time>
      </trkpt>
      <trkpt lat="47.30194" lon="-2.3517">
        <ele>34.599998474121</ele>
        <time>2022-01-06T10:52:41.000Z</time>
      </trkpt>
      <trkpt lat="47.30191" lon="-2.35171">
        <ele>34.599998474121</ele>
        <time>2022-01-06T10:52:42.000Z</time>
      </trkpt>
      <trkpt lat="47.30177" lon="-2.35176">
        <ele>34.599998474121</ele>
        <time>2022-01-06T10:52:46.000Z</time>
      </trkpt>
      <trkpt lat="47.30169" lon="-2.35181">
        <ele>34.599998474121</ele>
        <time>2022-01-06T10:52:50.000Z</time>
      </trkpt>
      <trkpt lat="47.30163" lon="-2.35187">
        <ele>34.200000762939</ele>
        <time>2022-01-06T10:52:54.000Z</time>
      </trkpt>
      <trkpt lat="47.30162" lon="-2.35189">
        <ele>33.799999237061</ele>
        <time>2022-01-06T10:52:55.000Z</time>
      </trkpt>
      <trkpt lat="47.30161" lon="-2.35191">
        <ele>33.400001525879</ele>
        <time>2022-01-06T10:52:56.000Z</time>
      </trkpt>
      <trkpt lat="47.30161" lon="-2.35193">
        <ele>33</ele>
        <time>2022-01-06T10:52:57.000Z</time>
      </trkpt>
      <trkpt lat="47.3016" lon="-2.35194">
        <ele>32.599998474121</ele>
        <time>2022-01-06T10:52:58.000Z</time>
      </trkpt>
      <trkpt lat="47.30158" lon="-2.35194">
        <ele>32.599998474121</ele>
        <time>2022-01-06T10:53:01.000Z</time>
      </trkpt>
      <trkpt lat="47.30156" lon="-2.35195">
        <ele>32.599998474121</ele>
        <time>2022-01-06T10:53:04.000Z</time>
      </trkpt>
      <trkpt lat="47.30149" lon="-2.35197">
        <ele>32.599998474121</ele>
        <time>2022-01-06T10:53:11.000Z</time>
      </trkpt>
      <trkpt lat="47.30146" lon="-2.35196">
        <ele>32.599998474121</ele>
        <time>2022-01-06T10:53:13.000Z</time>
      </trkpt>
      <trkpt lat="47.3014" lon="-2.35194">
        <ele>32.599998474121</ele>
        <time>2022-01-06T10:53:16.000Z</time>
      </trkpt>
      <trkpt lat="47.30133" lon="-2.35198">
        <ele>32.599998474121</ele>
        <time>2022-01-06T10:53:18.000Z</time>
      </trkpt>
      <trkpt lat="47.30105" lon="-2.35212">
        <ele>32.599998474121</ele>
        <time>2022-01-06T10:53:25.000Z</time>
      </trkpt>
      <trkpt lat="47.30101" lon="-2.35214">
        <ele>32.599998474121</ele>
        <time>2022-01-06T10:53:26.000Z</time>
      </trkpt>
      <trkpt lat="47.30083" lon="-2.35218">
        <ele>32.599998474121</ele>
        <time>2022-01-06T10:53:30.000Z</time>
      </trkpt>
      <trkpt lat="47.30074" lon="-2.35223">
        <ele>32.599998474121</ele>
        <time>2022-01-06T10:53:34.000Z</time>
      </trkpt>
      <trkpt lat="47.30066" lon="-2.35225">
        <ele>32.599998474121</ele>
        <time>2022-01-06T10:53:39.000Z</time>
      </trkpt>
      <trkpt lat="47.30064" lon="-2.35228">
        <ele>32.599998474121</ele>
        <time>2022-01-06T10:53:40.000Z</time>
      </trkpt>
      <trkpt lat="47.30052" lon="-2.35234">
        <ele>32.599998474121</ele>
        <time>2022-01-06T10:53:44.000Z</time>
      </trkpt>
      <trkpt lat="47.30049" lon="-2.35236">
        <ele>32.599998474121</ele>
        <time>2022-01-06T10:53:45.000Z</time>
      </trkpt>
      <trkpt lat="47.30031" lon="-2.35246">
        <ele>32.599998474121</ele>
        <time>2022-01-06T10:53:51.000Z</time>
      </trkpt>
      <trkpt lat="47.30026" lon="-2.35246">
        <ele>32.599998474121</ele>
        <time>2022-01-06T10:53:55.000Z</time>
      </trkpt>
      <trkpt lat="47.30024" lon="-2.35246">
        <ele>32.599998474121</ele>
        <time>2022-01-06T10:53:56.000Z</time>
      </trkpt>
      <trkpt lat="47.30016" lon="-2.35253">
        <ele>32.599998474121</ele>
        <time>2022-01-06T10:54:02.000Z</time>
      </trkpt>
      <trkpt lat="47.30002" lon="-2.3526">
        <ele>32.599998474121</ele>
        <time>2022-01-06T10:54:07.000Z</time>
      </trkpt>
      <trkpt lat="47.29985" lon="-2.35277">
        <ele>32.599998474121</ele>
        <time>2022-01-06T10:54:12.000Z</time>
      </trkpt>
      <trkpt lat="47.29981" lon="-2.35281">
        <ele>32.599998474121</ele>
        <time>2022-01-06T10:54:13.000Z</time>
      </trkpt>
      <trkpt lat="47.29969" lon="-2.35292">
        <ele>32.599998474121</ele>
        <time>2022-01-06T10:54:16.000Z</time>
      </trkpt>
      <trkpt lat="47.29963" lon="-2.35302">
        <ele>32.599998474121</ele>
        <time>2022-01-06T10:54:18.000Z</time>
      </trkpt>
      <trkpt lat="47.29956" lon="-2.35311">
        <ele>32.599998474121</ele>
        <time>2022-01-06T10:54:20.000Z</time>
      </trkpt>
      <trkpt lat="47.29937" lon="-2.35336">
        <ele>32.599998474121</ele>
        <time>2022-01-06T10:54:25.000Z</time>
      </trkpt>
      <trkpt lat="47.29904" lon="-2.35377">
        <ele>32.599998474121</ele>
        <time>2022-01-06T10:54:33.000Z</time>
      </trkpt>
      <trkpt lat="47.29879" lon="-2.35405">
        <ele>32.599998474121</ele>
        <time>2022-01-06T10:54:39.000Z</time>
      </trkpt>
      <trkpt lat="47.2985" lon="-2.35434">
        <ele>33</ele>
        <time>2022-01-06T10:54:46.000Z</time>
      </trkpt>
      <trkpt lat="47.29846" lon="-2.35438">
        <ele>33.400001525879</ele>
        <time>2022-01-06T10:54:47.000Z</time>
      </trkpt>
      <trkpt lat="47.29842" lon="-2.35442">
        <ele>34.200000762939</ele>
        <time>2022-01-06T10:54:48.000Z</time>
      </trkpt>
      <trkpt lat="47.29838" lon="-2.35447">
        <ele>34.599998474121</ele>
        <time>2022-01-06T10:54:49.000Z</time>
      </trkpt>
      <trkpt lat="47.29829" lon="-2.35464">
        <ele>34.599998474121</ele>
        <time>2022-01-06T10:54:52.000Z</time>
      </trkpt>
      <trkpt lat="47.29829" lon="-2.35483">
        <ele>34.599998474121</ele>
        <time>2022-01-06T10:54:55.000Z</time>
      </trkpt>
      <trkpt lat="47.29831" lon="-2.35489">
        <ele>34.599998474121</ele>
        <time>2022-01-06T10:54:56.000Z</time>
      </trkpt>
      <trkpt lat="47.29836" lon="-2.35507">
        <ele>34.599998474121</ele>
        <time>2022-01-06T10:54:59.000Z</time>
      </trkpt>
      <trkpt lat="47.29847" lon="-2.35543">
        <ele>34.599998474121</ele>
        <time>2022-01-06T10:55:05.000Z</time>
      </trkpt>
      <trkpt lat="47.2985" lon="-2.35555">
        <ele>34.599998474121</ele>
        <time>2022-01-06T10:55:07.000Z</time>
      </trkpt>
      <trkpt lat="47.2986" lon="-2.35588">
        <ele>34.599998474121</ele>
        <time>2022-01-06T10:55:12.000Z</time>
      </trkpt>
      <trkpt lat="47.29862" lon="-2.35595">
        <ele>35</ele>
        <time>2022-01-06T10:55:13.000Z</time>
      </trkpt>
      <trkpt lat="47.29864" lon="-2.35602">
        <ele>35.400001525879</ele>
        <time>2022-01-06T10:55:14.000Z</time>
      </trkpt>
      <trkpt lat="47.29866" lon="-2.35609">
        <ele>36</ele>
        <time>2022-01-06T10:55:15.000Z</time>
      </trkpt>
      <trkpt lat="47.29867" lon="-2.35616">
        <ele>36.400001525879</ele>
        <time>2022-01-06T10:55:16.000Z</time>
      </trkpt>
      <trkpt lat="47.29869" lon="-2.35623">
        <ele>36.799999237061</ele>
        <time>2022-01-06T10:55:17.000Z</time>
      </trkpt>
      <trkpt lat="47.29872" lon="-2.35636">
        <ele>36.799999237061</ele>
        <time>2022-01-06T10:55:19.000Z</time>
      </trkpt>
      <trkpt lat="47.29874" lon="-2.3565">
        <ele>36.799999237061</ele>
        <time>2022-01-06T10:55:21.000Z</time>
      </trkpt>
      <trkpt lat="47.29878" lon="-2.35679">
        <ele>36.799999237061</ele>
        <time>2022-01-06T10:55:25.000Z</time>
      </trkpt>
      <trkpt lat="47.29887" lon="-2.35715">
        <ele>36.799999237061</ele>
        <time>2022-01-06T10:55:30.000Z</time>
      </trkpt>
      <trkpt lat="47.29888" lon="-2.35722">
        <ele>36.799999237061</ele>
        <time>2022-01-06T10:55:31.000Z</time>
      </trkpt>
      <trkpt lat="47.29895" lon="-2.35749">
        <ele>36.799999237061</ele>
        <time>2022-01-06T10:55:36.000Z</time>
      </trkpt>
      <trkpt lat="47.29891" lon="-2.35762">
        <ele>36.799999237061</ele>
        <time>2022-01-06T10:55:41.000Z</time>
      </trkpt>
      <trkpt lat="47.29879" lon="-2.35771">
        <ele>36.799999237061</ele>
        <time>2022-01-06T10:55:44.000Z</time>
      </trkpt>
      <trkpt lat="47.29844" lon="-2.35784">
        <ele>36.799999237061</ele>
        <time>2022-01-06T10:55:51.000Z</time>
      </trkpt>
      <trkpt lat="47.29835" lon="-2.35788">
        <ele>37.200000762939</ele>
        <time>2022-01-06T10:55:53.000Z</time>
      </trkpt>
      <trkpt lat="47.29831" lon="-2.35789">
        <ele>37.799999237061</ele>
        <time>2022-01-06T10:55:54.000Z</time>
      </trkpt>
      <trkpt lat="47.29826" lon="-2.3579">
        <ele>38.200000762939</ele>
        <time>2022-01-06T10:55:55.000Z</time>
      </trkpt>
      <trkpt lat="47.29822" lon="-2.35791">
        <ele>38.599998474121</ele>
        <time>2022-01-06T10:55:56.000Z</time>
      </trkpt>
      <trkpt lat="47.29818" lon="-2.35792">
        <ele>39</ele>
        <time>2022-01-06T10:55:57.000Z</time>
      </trkpt>
      <trkpt lat="47.29787" lon="-2.35802">
        <ele>39</ele>
        <time>2022-01-06T10:56:05.000Z</time>
      </trkpt>
      <trkpt lat="47.29758" lon="-2.35813">
        <ele>39.599998474121</ele>
        <time>2022-01-06T10:56:12.000Z</time>
      </trkpt>
      <trkpt lat="47.29753" lon="-2.35814">
        <ele>40</ele>
        <time>2022-01-06T10:56:13.000Z</time>
      </trkpt>
      <trkpt lat="47.29749" lon="-2.35816">
        <ele>40.400001525879</ele>
        <time>2022-01-06T10:56:14.000Z</time>
      </trkpt>
      <trkpt lat="47.29744" lon="-2.35819">
        <ele>40.799999237061</ele>
        <time>2022-01-06T10:56:15.000Z</time>
      </trkpt>
      <trkpt lat="47.29739" lon="-2.35821">
        <ele>41.200000762939</ele>
        <time>2022-01-06T10:56:16.000Z</time>
      </trkpt>
      <trkpt lat="47.29716" lon="-2.35833">
        <ele>40.799999237061</ele>
        <time>2022-01-06T10:56:20.000Z</time>
      </trkpt>
      <trkpt lat="47.2971" lon="-2.35835">
        <ele>40.400001525879</ele>
        <time>2022-01-06T10:56:21.000Z</time>
      </trkpt>
      <trkpt lat="47.29704" lon="-2.35839">
        <ele>39.799999237061</ele>
        <time>2022-01-06T10:56:22.000Z</time>
      </trkpt>
      <trkpt lat="47.29699" lon="-2.35842">
        <ele>39.400001525879</ele>
        <time>2022-01-06T10:56:23.000Z</time>
      </trkpt>
      <trkpt lat="47.29694" lon="-2.35844">
        <ele>39</ele>
        <time>2022-01-06T10:56:24.000Z</time>
      </trkpt>
      <trkpt lat="47.29685" lon="-2.35847">
        <ele>39</ele>
        <time>2022-01-06T10:56:26.000Z</time>
      </trkpt>
      <trkpt lat="47.29676" lon="-2.35849">
        <ele>39</ele>
        <time>2022-01-06T10:56:28.000Z</time>
      </trkpt>
      <trkpt lat="47.29664" lon="-2.3586">
        <ele>39</ele>
        <time>2022-01-06T10:56:31.000Z</time>
      </trkpt>
      <trkpt lat="47.2966" lon="-2.35863">
        <ele>39</ele>
        <time>2022-01-06T10:56:32.000Z</time>
      </trkpt>
      <trkpt lat="47.2964" lon="-2.35875">
        <ele>38.599998474121</ele>
        <time>2022-01-06T10:56:36.000Z</time>
      </trkpt>
      <trkpt lat="47.29634" lon="-2.35877">
        <ele>38.200000762939</ele>
        <time>2022-01-06T10:56:37.000Z</time>
      </trkpt>
      <trkpt lat="47.29629" lon="-2.3588">
        <ele>37.799999237061</ele>
        <time>2022-01-06T10:56:38.000Z</time>
      </trkpt>
      <trkpt lat="47.29624" lon="-2.35883">
        <ele>37.400001525879</ele>
        <time>2022-01-06T10:56:39.000Z</time>
      </trkpt>
      <trkpt lat="47.29619" lon="-2.35885">
        <ele>37</ele>
        <time>2022-01-06T10:56:40.000Z</time>
      </trkpt>
      <trkpt lat="47.29604" lon="-2.35894">
        <ele>37</ele>
        <time>2022-01-06T10:56:43.000Z</time>
      </trkpt>
      <trkpt lat="47.29572" lon="-2.35912">
        <ele>37</ele>
        <time>2022-01-06T10:56:49.000Z</time>
      </trkpt>
      <trkpt lat="47.29535" lon="-2.35933">
        <ele>37</ele>
        <time>2022-01-06T10:56:56.000Z</time>
      </trkpt>
      <trkpt lat="47.29492" lon="-2.35963">
        <ele>37</ele>
        <time>2022-01-06T10:57:05.000Z</time>
      </trkpt>
      <trkpt lat="47.29482" lon="-2.3597">
        <ele>37</ele>
        <time>2022-01-06T10:57:09.000Z</time>
      </trkpt>
      <trkpt lat="47.29477" lon="-2.35984">
        <ele>37</ele>
        <time>2022-01-06T10:57:13.000Z</time>
      </trkpt>
      <trkpt lat="47.29468" lon="-2.35999">
        <ele>37</ele>
        <time>2022-01-06T10:57:16.000Z</time>
      </trkpt>
      <trkpt lat="47.29453" lon="-2.36004">
        <ele>37</ele>
        <time>2022-01-06T10:57:19.000Z</time>
      </trkpt>
      <trkpt lat="47.29448" lon="-2.36007">
        <ele>37</ele>
        <time>2022-01-06T10:57:20.000Z</time>
      </trkpt>
      <trkpt lat="47.29443" lon="-2.36011">
        <ele>37</ele>
        <time>2022-01-06T10:57:21.000Z</time>
      </trkpt>
      <trkpt lat="47.29424" lon="-2.36029">
        <ele>37</ele>
        <time>2022-01-06T10:57:25.000Z</time>
      </trkpt>
      <trkpt lat="47.2939" lon="-2.36061">
        <ele>37</ele>
        <time>2022-01-06T10:57:32.000Z</time>
      </trkpt>
      <trkpt lat="47.29374" lon="-2.36076">
        <ele>36.599998474121</ele>
        <time>2022-01-06T10:57:35.000Z</time>
      </trkpt>
      <trkpt lat="47.29369" lon="-2.3608">
        <ele>36.200000762939</ele>
        <time>2022-01-06T10:57:36.000Z</time>
      </trkpt>
      <trkpt lat="47.29363" lon="-2.36085">
        <ele>35.799999237061</ele>
        <time>2022-01-06T10:57:37.000Z</time>
      </trkpt>
      <trkpt lat="47.29357" lon="-2.36089">
        <ele>35.200000762939</ele>
        <time>2022-01-06T10:57:38.000Z</time>
      </trkpt>
      <trkpt lat="47.29352" lon="-2.36094">
        <ele>34.799999237061</ele>
        <time>2022-01-06T10:57:39.000Z</time>
      </trkpt>
      <trkpt lat="47.2934" lon="-2.36102">
        <ele>34.799999237061</ele>
        <time>2022-01-06T10:57:41.000Z</time>
      </trkpt>
      <trkpt lat="47.29302" lon="-2.36126">
        <ele>34.799999237061</ele>
        <time>2022-01-06T10:57:48.000Z</time>
      </trkpt>
      <trkpt lat="47.29263" lon="-2.36143">
        <ele>34.799999237061</ele>
        <time>2022-01-06T10:57:55.000Z</time>
      </trkpt>
      <trkpt lat="47.29229" lon="-2.36157">
        <ele>34.799999237061</ele>
        <time>2022-01-06T10:58:01.000Z</time>
      </trkpt>
      <trkpt lat="47.2918" lon="-2.36179">
        <ele>34.799999237061</ele>
        <time>2022-01-06T10:58:10.000Z</time>
      </trkpt>
      <trkpt lat="47.29159" lon="-2.36188">
        <ele>34.799999237061</ele>
        <time>2022-01-06T10:58:14.000Z</time>
      </trkpt>
      <trkpt lat="47.29144" lon="-2.36194">
        <ele>34.799999237061</ele>
        <time>2022-01-06T10:58:17.000Z</time>
      </trkpt>
      <trkpt lat="47.29129" lon="-2.36201">
        <ele>34.799999237061</ele>
        <time>2022-01-06T10:58:20.000Z</time>
      </trkpt>
      <trkpt lat="47.29109" lon="-2.36209">
        <ele>34.799999237061</ele>
        <time>2022-01-06T10:58:24.000Z</time>
      </trkpt>
      <trkpt lat="47.29076" lon="-2.36224">
        <ele>34.799999237061</ele>
        <time>2022-01-06T10:58:31.000Z</time>
      </trkpt>
      <trkpt lat="47.29032" lon="-2.36243">
        <ele>34.400001525879</ele>
        <time>2022-01-06T10:58:39.000Z</time>
      </trkpt>
      <trkpt lat="47.29026" lon="-2.36246">
        <ele>34</ele>
        <time>2022-01-06T10:58:40.000Z</time>
      </trkpt>
      <trkpt lat="47.29021" lon="-2.36248">
        <ele>33.599998474121</ele>
        <time>2022-01-06T10:58:41.000Z</time>
      </trkpt>
      <trkpt lat="47.29015" lon="-2.36251">
        <ele>33.200000762939</ele>
        <time>2022-01-06T10:58:42.000Z</time>
      </trkpt>
      <trkpt lat="47.2901" lon="-2.36253">
        <ele>32.799999237061</ele>
        <time>2022-01-06T10:58:43.000Z</time>
      </trkpt>
      <trkpt lat="47.28987" lon="-2.36263">
        <ele>32.799999237061</ele>
        <time>2022-01-06T10:58:47.000Z</time>
      </trkpt>
      <trkpt lat="47.28948" lon="-2.36281">
        <ele>32.799999237061</ele>
        <time>2022-01-06T10:58:54.000Z</time>
      </trkpt>
      <trkpt lat="47.28904" lon="-2.36301">
        <ele>32.799999237061</ele>
        <time>2022-01-06T10:59:02.000Z</time>
      </trkpt>
      <trkpt lat="47.28874" lon="-2.36316">
        <ele>32.799999237061</ele>
        <time>2022-01-06T10:59:08.000Z</time>
      </trkpt>
      <trkpt lat="47.28856" lon="-2.36326">
        <ele>32.799999237061</ele>
        <time>2022-01-06T10:59:12.000Z</time>
      </trkpt>
      <trkpt lat="47.28848" lon="-2.36332">
        <ele>32.799999237061</ele>
        <time>2022-01-06T10:59:14.000Z</time>
      </trkpt>
      <trkpt lat="47.28845" lon="-2.36335">
        <ele>32.799999237061</ele>
        <time>2022-01-06T10:59:15.000Z</time>
      </trkpt>
      <trkpt lat="47.28835" lon="-2.36348">
        <ele>33.200000762939</ele>
        <time>2022-01-06T10:59:18.000Z</time>
      </trkpt>
      <trkpt lat="47.28831" lon="-2.36353">
        <ele>33.599998474121</ele>
        <time>2022-01-06T10:59:19.000Z</time>
      </trkpt>
      <trkpt lat="47.28828" lon="-2.36357">
        <ele>34.400001525879</ele>
        <time>2022-01-06T10:59:20.000Z</time>
      </trkpt>
      <trkpt lat="47.28826" lon="-2.36362">
        <ele>34.799999237061</ele>
        <time>2022-01-06T10:59:21.000Z</time>
      </trkpt>
      <trkpt lat="47.28818" lon="-2.36376">
        <ele>35.200000762939</ele>
        <time>2022-01-06T10:59:24.000Z</time>
      </trkpt>
      <trkpt lat="47.28815" lon="-2.36382">
        <ele>35.599998474121</ele>
        <time>2022-01-06T10:59:25.000Z</time>
      </trkpt>
      <trkpt lat="47.28812" lon="-2.36387">
        <ele>36</ele>
        <time>2022-01-06T10:59:26.000Z</time>
      </trkpt>
      <trkpt lat="47.2881" lon="-2.36392">
        <ele>36.400001525879</ele>
        <time>2022-01-06T10:59:27.000Z</time>
      </trkpt>
      <trkpt lat="47.28807" lon="-2.36397">
        <ele>36.799999237061</ele>
        <time>2022-01-06T10:59:28.000Z</time>
      </trkpt>
      <trkpt lat="47.28804" lon="-2.36402">
        <ele>36.799999237061</ele>
        <time>2022-01-06T10:59:29.000Z</time>
      </trkpt>
      <trkpt lat="47.28794" lon="-2.36413">
        <ele>36.799999237061</ele>
        <time>2022-01-06T10:59:32.000Z</time>
      </trkpt>
      <trkpt lat="47.28791" lon="-2.36416">
        <ele>36.799999237061</ele>
        <time>2022-01-06T10:59:33.000Z</time>
      </trkpt>
      <trkpt lat="47.28781" lon="-2.36435">
        <ele>36.799999237061</ele>
        <time>2022-01-06T10:59:37.000Z</time>
      </trkpt>
      <trkpt lat="47.2877" lon="-2.36458">
        <ele>36.799999237061</ele>
        <time>2022-01-06T10:59:42.000Z</time>
      </trkpt>
      <trkpt lat="47.28768" lon="-2.3646">
        <ele>36.799999237061</ele>
        <time>2022-01-06T10:59:43.000Z</time>
      </trkpt>
      <trkpt lat="47.28763" lon="-2.36455">
        <ele>36.799999237061</ele>
        <time>2022-01-06T10:59:45.000Z</time>
      </trkpt>
      <trkpt lat="47.28757" lon="-2.36443">
        <ele>36.799999237061</ele>
        <time>2022-01-06T10:59:49.000Z</time>
      </trkpt>
      <trkpt lat="47.28756" lon="-2.3644">
        <ele>36.799999237061</ele>
        <time>2022-01-06T10:59:51.000Z</time>
      </trkpt>
      <trkpt lat="47.28756" lon="-2.36436">
        <ele>36.799999237061</ele>
        <time>2022-01-06T10:59:54.000Z</time>
      </trkpt>
      <trkpt lat="47.28752" lon="-2.36419">
        <ele>39</ele>
        <time>2022-01-06T11:00:07.000Z</time>
      </trkpt>
      <trkpt lat="47.2875" lon="-2.36415">
        <ele>39</ele>
        <time>2022-01-06T11:00:09.000Z</time>
      </trkpt>
      <trkpt lat="47.28747" lon="-2.36411">
        <ele>39.400001525879</ele>
        <time>2022-01-06T11:00:11.000Z</time>
      </trkpt>
      <trkpt lat="47.28745" lon="-2.36409">
        <ele>39.799999237061</ele>
        <time>2022-01-06T11:00:12.000Z</time>
      </trkpt>
      <trkpt lat="47.28744" lon="-2.36408">
        <ele>40.200000762939</ele>
        <time>2022-01-06T11:00:13.000Z</time>
      </trkpt>
      <trkpt lat="47.28742" lon="-2.36406">
        <ele>40.599998474121</ele>
        <time>2022-01-06T11:00:14.000Z</time>
      </trkpt>
      <trkpt lat="47.28741" lon="-2.36403">
        <ele>41</ele>
        <time>2022-01-06T11:00:15.000Z</time>
      </trkpt>
      <trkpt lat="47.28736" lon="-2.36396">
        <ele>41.400001525879</ele>
        <time>2022-01-06T11:00:18.000Z</time>
      </trkpt>
      <trkpt lat="47.28734" lon="-2.36393">
        <ele>42</ele>
        <time>2022-01-06T11:00:19.000Z</time>
      </trkpt>
      <trkpt lat="47.28733" lon="-2.36392">
        <ele>42.400001525879</ele>
        <time>2022-01-06T11:00:20.000Z</time>
      </trkpt>
      <trkpt lat="47.28731" lon="-2.3639">
        <ele>42.799999237061</ele>
        <time>2022-01-06T11:00:21.000Z</time>
      </trkpt>
      <trkpt lat="47.2873" lon="-2.36389">
        <ele>43.200000762939</ele>
        <time>2022-01-06T11:00:22.000Z</time>
      </trkpt>
      <trkpt lat="47.28727" lon="-2.36389">
        <ele>43.200000762939</ele>
        <time>2022-01-06T11:00:24.000Z</time>
      </trkpt>
      <trkpt lat="47.28725" lon="-2.36391">
        <ele>43.200000762939</ele>
        <time>2022-01-06T11:00:25.000Z</time>
      </trkpt>
      <trkpt lat="47.28708" lon="-2.36396">
        <ele>43.200000762939</ele>
        <time>2022-01-06T11:00:30.000Z</time>
      </trkpt>
      <trkpt lat="47.28701" lon="-2.36394">
        <ele>43.200000762939</ele>
        <time>2022-01-06T11:00:33.000Z</time>
      </trkpt>
      <trkpt lat="47.28699" lon="-2.36392">
        <ele>43.200000762939</ele>
        <time>2022-01-06T11:00:34.000Z</time>
      </trkpt>
      <trkpt lat="47.28698" lon="-2.36377">
        <ele>43.200000762939</ele>
        <time>2022-01-06T11:00:38.000Z</time>
      </trkpt>
      <trkpt lat="47.28701" lon="-2.36348">
        <ele>43.200000762939</ele>
        <time>2022-01-06T11:00:44.000Z</time>
      </trkpt>
      <trkpt lat="47.28705" lon="-2.36321">
        <ele>42.799999237061</ele>
        <time>2022-01-06T11:00:50.000Z</time>
      </trkpt>
      <trkpt lat="47.28705" lon="-2.36318">
        <ele>42.400001525879</ele>
        <time>2022-01-06T11:00:51.000Z</time>
      </trkpt>
      <trkpt lat="47.28705" lon="-2.36314">
        <ele>41.799999237061</ele>
        <time>2022-01-06T11:00:52.000Z</time>
      </trkpt>
      <trkpt lat="47.28706" lon="-2.3631">
        <ele>41.400001525879</ele>
        <time>2022-01-06T11:00:53.000Z</time>
      </trkpt>
      <trkpt lat="47.28706" lon="-2.36305">
        <ele>41</ele>
        <time>2022-01-06T11:00:54.000Z</time>
      </trkpt>
      <trkpt lat="47.28706" lon="-2.36301">
        <ele>41</ele>
        <time>2022-01-06T11:00:55.000Z</time>
      </trkpt>
      <trkpt lat="47.28705" lon="-2.36294">
        <ele>40.599998474121</ele>
        <time>2022-01-06T11:00:57.000Z</time>
      </trkpt>
      <trkpt lat="47.28704" lon="-2.36292">
        <ele>40.200000762939</ele>
        <time>2022-01-06T11:00:58.000Z</time>
      </trkpt>
      <trkpt lat="47.28702" lon="-2.36291">
        <ele>39.400001525879</ele>
        <time>2022-01-06T11:00:59.000Z</time>
      </trkpt>
      <trkpt lat="47.287" lon="-2.3629">
        <ele>39</ele>
        <time>2022-01-06T11:01:00.000Z</time>
      </trkpt>
      <trkpt lat="47.28696" lon="-2.36291">
        <ele>39</ele>
        <time>2022-01-06T11:01:02.000Z</time>
      </trkpt>
      <trkpt lat="47.2868" lon="-2.36291">
        <ele>39</ele>
        <time>2022-01-06T11:01:08.000Z</time>
      </trkpt>
      <trkpt lat="47.28668" lon="-2.36281">
        <ele>39</ele>
        <time>2022-01-06T11:01:13.000Z</time>
      </trkpt>
      <trkpt lat="47.28666" lon="-2.36275">
        <ele>39.400001525879</ele>
        <time>2022-01-06T11:01:15.000Z</time>
      </trkpt>
      <trkpt lat="47.28666" lon="-2.36272">
        <ele>39.799999237061</ele>
        <time>2022-01-06T11:01:16.000Z</time>
      </trkpt>
      <trkpt lat="47.28665" lon="-2.36268">
        <ele>40.200000762939</ele>
        <time>2022-01-06T11:01:17.000Z</time>
      </trkpt>
      <trkpt lat="47.28665" lon="-2.36264">
        <ele>40.599998474121</ele>
        <time>2022-01-06T11:01:18.000Z</time>
      </trkpt>
      <trkpt lat="47.28665" lon="-2.36259">
        <ele>41</ele>
        <time>2022-01-06T11:01:19.000Z</time>
      </trkpt>
      <trkpt lat="47.28665" lon="-2.36255">
        <ele>41</ele>
        <time>2022-01-06T11:01:20.000Z</time>
      </trkpt>
      <trkpt lat="47.28667" lon="-2.36237">
        <ele>41</ele>
        <time>2022-01-06T11:01:24.000Z</time>
      </trkpt>
      <trkpt lat="47.28668" lon="-2.36212">
        <ele>41.400001525879</ele>
        <time>2022-01-06T11:01:30.000Z</time>
      </trkpt>
      <trkpt lat="47.28667" lon="-2.36208">
        <ele>41.799999237061</ele>
        <time>2022-01-06T11:01:31.000Z</time>
      </trkpt>
      <trkpt lat="47.28666" lon="-2.36205">
        <ele>42.200000762939</ele>
        <time>2022-01-06T11:01:32.000Z</time>
      </trkpt>
      <trkpt lat="47.28664" lon="-2.36201">
        <ele>42.599998474121</ele>
        <time>2022-01-06T11:01:33.000Z</time>
      </trkpt>
      <trkpt lat="47.28662" lon="-2.36197">
        <ele>43.200000762939</ele>
        <time>2022-01-06T11:01:34.000Z</time>
      </trkpt>
      <trkpt lat="47.28658" lon="-2.3619">
        <ele>43.200000762939</ele>
        <time>2022-01-06T11:01:36.000Z</time>
      </trkpt>
      <trkpt lat="47.28646" lon="-2.36172">
        <ele>43.200000762939</ele>
        <time>2022-01-06T11:01:42.000Z</time>
      </trkpt>
      <trkpt lat="47.28639" lon="-2.36162">
        <ele>43.599998474121</ele>
        <time>2022-01-06T11:01:46.000Z</time>
      </trkpt>
      <trkpt lat="47.28637" lon="-2.36159">
        <ele>44</ele>
        <time>2022-01-06T11:01:47.000Z</time>
      </trkpt>
      <trkpt lat="47.28636" lon="-2.36155">
        <ele>44.400001525879</ele>
        <time>2022-01-06T11:01:48.000Z</time>
      </trkpt>
      <trkpt lat="47.28633" lon="-2.36151">
        <ele>45.200000762939</ele>
        <time>2022-01-06T11:01:49.000Z</time>
      </trkpt>
      <trkpt lat="47.2863" lon="-2.36149">
        <ele>45.200000762939</ele>
        <time>2022-01-06T11:01:50.000Z</time>
      </trkpt>
      <trkpt lat="47.28623" lon="-2.36148">
        <ele>45.200000762939</ele>
        <time>2022-01-06T11:01:52.000Z</time>
      </trkpt>
      <trkpt lat="47.28616" lon="-2.36152">
        <ele>45.200000762939</ele>
        <time>2022-01-06T11:01:55.000Z</time>
      </trkpt>
      <trkpt lat="47.28611" lon="-2.36156">
        <ele>45.200000762939</ele>
        <time>2022-01-06T11:01:57.000Z</time>
      </trkpt>
      <trkpt lat="47.28607" lon="-2.36157">
        <ele>45.200000762939</ele>
        <time>2022-01-06T11:01:58.000Z</time>
      </trkpt>
      <trkpt lat="47.28598" lon="-2.36155">
        <ele>45.200000762939</ele>
        <time>2022-01-06T11:02:01.000Z</time>
      </trkpt>
      <trkpt lat="47.28584" lon="-2.36148">
        <ele>45.200000762939</ele>
        <time>2022-01-06T11:02:06.000Z</time>
      </trkpt>
      <trkpt lat="47.28573" lon="-2.36149">
        <ele>45.200000762939</ele>
        <time>2022-01-06T11:02:09.000Z</time>
      </trkpt>
      <trkpt lat="47.28568" lon="-2.36151">
        <ele>45.200000762939</ele>
        <time>2022-01-06T11:02:10.000Z</time>
      </trkpt>
      <trkpt lat="47.28556" lon="-2.36154">
        <ele>45.200000762939</ele>
        <time>2022-01-06T11:02:13.000Z</time>
      </trkpt>
      <trkpt lat="47.28552" lon="-2.36153">
        <ele>44.799999237061</ele>
        <time>2022-01-06T11:02:14.000Z</time>
      </trkpt>
      <trkpt lat="47.28549" lon="-2.36152">
        <ele>44.200000762939</ele>
        <time>2022-01-06T11:02:15.000Z</time>
      </trkpt>
      <trkpt lat="47.28547" lon="-2.36149">
        <ele>43.799999237061</ele>
        <time>2022-01-06T11:02:16.000Z</time>
      </trkpt>
      <trkpt lat="47.28544" lon="-2.36145">
        <ele>43.200000762939</ele>
        <time>2022-01-06T11:02:17.000Z</time>
      </trkpt>
      <trkpt lat="47.28541" lon="-2.36139">
        <ele>42.799999237061</ele>
        <time>2022-01-06T11:02:18.000Z</time>
      </trkpt>
      <trkpt lat="47.28538" lon="-2.36123">
        <ele>42.799999237061</ele>
        <time>2022-01-06T11:02:20.000Z</time>
      </trkpt>
      <trkpt lat="47.28535" lon="-2.36109">
        <ele>42.799999237061</ele>
        <time>2022-01-06T11:02:22.000Z</time>
      </trkpt>
      <trkpt lat="47.2853" lon="-2.36086">
        <ele>42.799999237061</ele>
        <time>2022-01-06T11:02:26.000Z</time>
      </trkpt>
      <trkpt lat="47.28515" lon="-2.36063">
        <ele>42.799999237061</ele>
        <time>2022-01-06T11:02:31.000Z</time>
      </trkpt>
      <trkpt lat="47.28508" lon="-2.36051">
        <ele>42.799999237061</ele>
        <time>2022-01-06T11:02:33.000Z</time>
      </trkpt>
      <trkpt lat="47.28499" lon="-2.36038">
        <ele>42.799999237061</ele>
        <time>2022-01-06T11:02:36.000Z</time>
      </trkpt>
      <trkpt lat="47.28488" lon="-2.36031">
        <ele>42.799999237061</ele>
        <time>2022-01-06T11:02:39.000Z</time>
      </trkpt>
      <trkpt lat="47.28484" lon="-2.3603">
        <ele>42.799999237061</ele>
        <time>2022-01-06T11:02:40.000Z</time>
      </trkpt>
      <trkpt lat="47.28469" lon="-2.36016">
        <ele>42.799999237061</ele>
        <time>2022-01-06T11:02:44.000Z</time>
      </trkpt>
      <trkpt lat="47.28462" lon="-2.36002">
        <ele>42.799999237061</ele>
        <time>2022-01-06T11:02:47.000Z</time>
      </trkpt>
      <trkpt lat="47.28456" lon="-2.35994">
        <ele>42.799999237061</ele>
        <time>2022-01-06T11:02:49.000Z</time>
      </trkpt>
      <trkpt lat="47.28445" lon="-2.35989">
        <ele>42.799999237061</ele>
        <time>2022-01-06T11:02:52.000Z</time>
      </trkpt>
      <trkpt lat="47.28441" lon="-2.3599">
        <ele>42.799999237061</ele>
        <time>2022-01-06T11:02:53.000Z</time>
      </trkpt>
      <trkpt lat="47.28422" lon="-2.36006">
        <ele>42.799999237061</ele>
        <time>2022-01-06T11:02:58.000Z</time>
      </trkpt>
      <trkpt lat="47.28398" lon="-2.36019">
        <ele>42.799999237061</ele>
        <time>2022-01-06T11:03:04.000Z</time>
      </trkpt>
      <trkpt lat="47.28392" lon="-2.36019">
        <ele>42.400001525879</ele>
        <time>2022-01-06T11:03:05.000Z</time>
      </trkpt>
      <trkpt lat="47.28386" lon="-2.36019">
        <ele>42</ele>
        <time>2022-01-06T11:03:06.000Z</time>
      </trkpt>
      <trkpt lat="47.2838" lon="-2.36018">
        <ele>41.400001525879</ele>
        <time>2022-01-06T11:03:07.000Z</time>
      </trkpt>
      <trkpt lat="47.28373" lon="-2.36019">
        <ele>40.799999237061</ele>
        <time>2022-01-06T11:03:08.000Z</time>
      </trkpt>
      <trkpt lat="47.28365" lon="-2.36019">
        <ele>40.200000762939</ele>
        <time>2022-01-06T11:03:09.000Z</time>
      </trkpt>
      <trkpt lat="47.28357" lon="-2.36022">
        <ele>39.599998474121</ele>
        <time>2022-01-06T11:03:10.000Z</time>
      </trkpt>
      <trkpt lat="47.28349" lon="-2.36027">
        <ele>38.799999237061</ele>
        <time>2022-01-06T11:03:11.000Z</time>
      </trkpt>
      <trkpt lat="47.28342" lon="-2.36032">
        <ele>38.200000762939</ele>
        <time>2022-01-06T11:03:12.000Z</time>
      </trkpt>
      <trkpt lat="47.28335" lon="-2.36037">
        <ele>37.400001525879</ele>
        <time>2022-01-06T11:03:13.000Z</time>
      </trkpt>
      <trkpt lat="47.28329" lon="-2.36043">
        <ele>36.799999237061</ele>
        <time>2022-01-06T11:03:14.000Z</time>
      </trkpt>
      <trkpt lat="47.28323" lon="-2.36047">
        <ele>36</ele>
        <time>2022-01-06T11:03:15.000Z</time>
      </trkpt>
      <trkpt lat="47.28318" lon="-2.36048">
        <ele>35.599998474121</ele>
        <time>2022-01-06T11:03:16.000Z</time>
      </trkpt>
      <trkpt lat="47.28312" lon="-2.36047">
        <ele>35.200000762939</ele>
        <time>2022-01-06T11:03:17.000Z</time>
      </trkpt>
      <trkpt lat="47.28306" lon="-2.36046">
        <ele>34.799999237061</ele>
        <time>2022-01-06T11:03:18.000Z</time>
      </trkpt>
      <trkpt lat="47.283" lon="-2.36044">
        <ele>34.200000762939</ele>
        <time>2022-01-06T11:03:19.000Z</time>
      </trkpt>
      <trkpt lat="47.28295" lon="-2.36041">
        <ele>33.799999237061</ele>
        <time>2022-01-06T11:03:20.000Z</time>
      </trkpt>
      <trkpt lat="47.2829" lon="-2.36038">
        <ele>33.799999237061</ele>
        <time>2022-01-06T11:03:21.000Z</time>
      </trkpt>
      <trkpt lat="47.2828" lon="-2.36029">
        <ele>33.200000762939</ele>
        <time>2022-01-06T11:03:23.000Z</time>
      </trkpt>
      <trkpt lat="47.28277" lon="-2.36025">
        <ele>32.599998474121</ele>
        <time>2022-01-06T11:03:24.000Z</time>
      </trkpt>
      <trkpt lat="47.28275" lon="-2.36021">
        <ele>31.799999237061</ele>
        <time>2022-01-06T11:03:25.000Z</time>
      </trkpt>
      <trkpt lat="47.28273" lon="-2.36017">
        <ele>31</ele>
        <time>2022-01-06T11:03:26.000Z</time>
      </trkpt>
      <trkpt lat="47.28273" lon="-2.36013">
        <ele>30.200000762939</ele>
        <time>2022-01-06T11:03:27.000Z</time>
      </trkpt>
      <trkpt lat="47.28272" lon="-2.36009">
        <ele>28.39999961853</ele>
        <time>2022-01-06T11:03:28.000Z</time>
      </trkpt>
      <trkpt lat="47.28271" lon="-2.36007">
        <ele>27.39999961853</ele>
        <time>2022-01-06T11:03:29.000Z</time>
      </trkpt>
      <trkpt lat="47.28269" lon="-2.36006">
        <ele>26.60000038147</ele>
        <time>2022-01-06T11:03:30.000Z</time>
      </trkpt>
      <trkpt lat="47.28266" lon="-2.36006">
        <ele>25.799999237061</ele>
        <time>2022-01-06T11:03:31.000Z</time>
      </trkpt>
      <trkpt lat="47.28263" lon="-2.36008">
        <ele>25.39999961853</ele>
        <time>2022-01-06T11:03:32.000Z</time>
      </trkpt>
      <trkpt lat="47.2826" lon="-2.3601">
        <ele>24.799999237061</ele>
        <time>2022-01-06T11:03:33.000Z</time>
      </trkpt>
      <trkpt lat="47.28256" lon="-2.36013">
        <ele>24.39999961853</ele>
        <time>2022-01-06T11:03:34.000Z</time>
      </trkpt>
      <trkpt lat="47.28252" lon="-2.36016">
        <ele>24</ele>
        <time>2022-01-06T11:03:35.000Z</time>
      </trkpt>
      <trkpt lat="47.28248" lon="-2.36018">
        <ele>23.60000038147</ele>
        <time>2022-01-06T11:03:36.000Z</time>
      </trkpt>
      <trkpt lat="47.28231" lon="-2.36029">
        <ele>23.60000038147</ele>
        <time>2022-01-06T11:03:40.000Z</time>
      </trkpt>
      <trkpt lat="47.28227" lon="-2.36031">
        <ele>23.60000038147</ele>
        <time>2022-01-06T11:03:41.000Z</time>
      </trkpt>
      <trkpt lat="47.28223" lon="-2.36035">
        <ele>23.200000762939</ele>
        <time>2022-01-06T11:03:42.000Z</time>
      </trkpt>
      <trkpt lat="47.2822" lon="-2.36038">
        <ele>22.799999237061</ele>
        <time>2022-01-06T11:03:43.000Z</time>
      </trkpt>
      <trkpt lat="47.28218" lon="-2.36041">
        <ele>22.39999961853</ele>
        <time>2022-01-06T11:03:44.000Z</time>
      </trkpt>
      <trkpt lat="47.28216" lon="-2.36043">
        <ele>21.799999237061</ele>
        <time>2022-01-06T11:03:45.000Z</time>
      </trkpt>
      <trkpt lat="47.28214" lon="-2.36044">
        <ele>21.39999961853</ele>
        <time>2022-01-06T11:03:46.000Z</time>
      </trkpt>
      <trkpt lat="47.28212" lon="-2.36045">
        <ele>21.39999961853</ele>
        <time>2022-01-06T11:03:47.000Z</time>
      </trkpt>
      <trkpt lat="47.28207" lon="-2.36039">
        <ele>21.39999961853</ele>
        <time>2022-01-06T11:03:50.000Z</time>
      </trkpt>
      <trkpt lat="47.282" lon="-2.36022">
        <ele>21.39999961853</ele>
        <time>2022-01-06T11:03:54.000Z</time>
      </trkpt>
      <trkpt lat="47.28198" lon="-2.36017">
        <ele>21.39999961853</ele>
        <time>2022-01-06T11:03:55.000Z</time>
      </trkpt>
      <trkpt lat="47.28185" lon="-2.35986">
        <ele>21.39999961853</ele>
        <time>2022-01-06T11:04:02.000Z</time>
      </trkpt>
      <trkpt lat="47.28182" lon="-2.35979">
        <ele>21.39999961853</ele>
        <time>2022-01-06T11:04:04.000Z</time>
      </trkpt>
      <trkpt lat="47.28177" lon="-2.3597">
        <ele>21.39999961853</ele>
        <time>2022-01-06T11:04:07.000Z</time>
      </trkpt>
      <trkpt lat="47.28172" lon="-2.35964">
        <ele>21.39999961853</ele>
        <time>2022-01-06T11:04:09.000Z</time>
      </trkpt>
      <trkpt lat="47.28161" lon="-2.35951">
        <ele>21.39999961853</ele>
        <time>2022-01-06T11:04:13.000Z</time>
      </trkpt>
      <trkpt lat="47.28159" lon="-2.35947">
        <ele>21.39999961853</ele>
        <time>2022-01-06T11:04:14.000Z</time>
      </trkpt>
      <trkpt lat="47.28156" lon="-2.35938">
        <ele>22.200000762939</ele>
        <time>2022-01-06T11:04:18.000Z</time>
      </trkpt>
      <trkpt lat="47.28155" lon="-2.35936">
        <ele>22.799999237061</ele>
        <time>2022-01-06T11:04:19.000Z</time>
      </trkpt>
      <trkpt lat="47.28154" lon="-2.35933">
        <ele>23.200000762939</ele>
        <time>2022-01-06T11:04:20.000Z</time>
      </trkpt>
      <trkpt lat="47.28153" lon="-2.35931">
        <ele>23.60000038147</ele>
        <time>2022-01-06T11:04:21.000Z</time>
      </trkpt>
      <trkpt lat="47.28148" lon="-2.35919">
        <ele>23.60000038147</ele>
        <time>2022-01-06T11:04:25.000Z</time>
      </trkpt>
      <trkpt lat="47.28136" lon="-2.35906">
        <ele>23.60000038147</ele>
        <time>2022-01-06T11:04:32.000Z</time>
      </trkpt>
      <trkpt lat="47.2812" lon="-2.35884">
        <ele>23.60000038147</ele>
        <time>2022-01-06T11:04:39.000Z</time>
      </trkpt>
      <trkpt lat="47.28109" lon="-2.35863">
        <ele>23.60000038147</ele>
        <time>2022-01-06T11:04:44.000Z</time>
      </trkpt>
      <trkpt lat="47.28094" lon="-2.35843">
        <ele>23.60000038147</ele>
        <time>2022-01-06T11:04:49.000Z</time>
      </trkpt>
      <trkpt lat="47.28083" lon="-2.35825">
        <ele>23.60000038147</ele>
        <time>2022-01-06T11:04:54.000Z</time>
      </trkpt>
      <trkpt lat="47.28082" lon="-2.35818">
        <ele>23.60000038147</ele>
        <time>2022-01-06T11:04:55.000Z</time>
      </trkpt>
      <trkpt lat="47.28083" lon="-2.35807">
        <ele>23.60000038147</ele>
        <time>2022-01-06T11:04:57.000Z</time>
      </trkpt>
      <trkpt lat="47.28087" lon="-2.35773">
        <ele>24</ele>
        <time>2022-01-06T11:05:04.000Z</time>
      </trkpt>
      <trkpt lat="47.28087" lon="-2.35768">
        <ele>24.39999961853</ele>
        <time>2022-01-06T11:05:05.000Z</time>
      </trkpt>
      <trkpt lat="47.28088" lon="-2.35762">
        <ele>24.799999237061</ele>
        <time>2022-01-06T11:05:06.000Z</time>
      </trkpt>
      <trkpt lat="47.28089" lon="-2.35756">
        <ele>25.60000038147</ele>
        <time>2022-01-06T11:05:07.000Z</time>
      </trkpt>
      <trkpt lat="47.2809" lon="-2.35738">
        <ele>25.60000038147</ele>
        <time>2022-01-06T11:05:10.000Z</time>
      </trkpt>
      <trkpt lat="47.28092" lon="-2.35729">
        <ele>26</ele>
        <time>2022-01-06T11:05:12.000Z</time>
      </trkpt>
      <trkpt lat="47.28093" lon="-2.35725">
        <ele>26.60000038147</ele>
        <time>2022-01-06T11:05:13.000Z</time>
      </trkpt>
      <trkpt lat="47.28094" lon="-2.35722">
        <ele>27</ele>
        <time>2022-01-06T11:05:14.000Z</time>
      </trkpt>
      <trkpt lat="47.28095" lon="-2.35718">
        <ele>27.39999961853</ele>
        <time>2022-01-06T11:05:15.000Z</time>
      </trkpt>
      <trkpt lat="47.28095" lon="-2.35713">
        <ele>27.799999237061</ele>
        <time>2022-01-06T11:05:16.000Z</time>
      </trkpt>
      <trkpt lat="47.28095" lon="-2.35709">
        <ele>27.799999237061</ele>
        <time>2022-01-06T11:05:17.000Z</time>
      </trkpt>
      <trkpt lat="47.28089" lon="-2.35678">
        <ele>27.799999237061</ele>
        <time>2022-01-06T11:05:22.000Z</time>
      </trkpt>
      <trkpt lat="47.28087" lon="-2.3567">
        <ele>27.799999237061</ele>
        <time>2022-01-06T11:05:23.000Z</time>
      </trkpt>
      <trkpt lat="47.28081" lon="-2.35649">
        <ele>27.39999961853</ele>
        <time>2022-01-06T11:05:26.000Z</time>
      </trkpt>
      <trkpt lat="47.28079" lon="-2.35642">
        <ele>27</ele>
        <time>2022-01-06T11:05:27.000Z</time>
      </trkpt>
      <trkpt lat="47.28078" lon="-2.35634">
        <ele>26.60000038147</ele>
        <time>2022-01-06T11:05:28.000Z</time>
      </trkpt>
      <trkpt lat="47.28078" lon="-2.35626">
        <ele>26</ele>
        <time>2022-01-06T11:05:29.000Z</time>
      </trkpt>
      <trkpt lat="47.28077" lon="-2.35618">
        <ele>25.39999961853</ele>
        <time>2022-01-06T11:05:30.000Z</time>
      </trkpt>
      <trkpt lat="47.28076" lon="-2.3561">
        <ele>24.799999237061</ele>
        <time>2022-01-06T11:05:31.000Z</time>
      </trkpt>
      <trkpt lat="47.28073" lon="-2.35603">
        <ele>23.39999961853</ele>
        <time>2022-01-06T11:05:32.000Z</time>
      </trkpt>
      <trkpt lat="47.28069" lon="-2.35598">
        <ele>23.39999961853</ele>
        <time>2022-01-06T11:05:33.000Z</time>
      </trkpt>
      <trkpt lat="47.28064" lon="-2.35589">
        <ele>23</ele>
        <time>2022-01-06T11:05:35.000Z</time>
      </trkpt>
      <trkpt lat="47.28062" lon="-2.35587">
        <ele>22.60000038147</ele>
        <time>2022-01-06T11:05:36.000Z</time>
      </trkpt>
      <trkpt lat="47.28061" lon="-2.35585">
        <ele>22.200000762939</ele>
        <time>2022-01-06T11:05:37.000Z</time>
      </trkpt>
      <trkpt lat="47.28061" lon="-2.35585">
        <ele>21.799999237061</ele>
        <time>2022-01-06T11:05:38.000Z</time>
      </trkpt>
      <trkpt lat="47.2805" lon="-2.35575">
        <ele>19.39999961853</ele>
        <time>2022-01-06T11:18:21.000Z</time>
      </trkpt>
      <trkpt lat="47.28049" lon="-2.35576">
        <ele>19.39999961853</ele>
        <time>2022-01-06T11:18:22.000Z</time>
      </trkpt>
      <trkpt lat="47.28038" lon="-2.35575">
        <ele>19.39999961853</ele>
        <time>2022-01-06T11:18:28.000Z</time>
      </trkpt>
      <trkpt lat="47.28029" lon="-2.35566">
        <ele>19.39999961853</ele>
        <time>2022-01-06T11:18:33.000Z</time>
      </trkpt>
      <trkpt lat="47.28018" lon="-2.35557">
        <ele>19.39999961853</ele>
        <time>2022-01-06T11:18:37.000Z</time>
      </trkpt>
      <trkpt lat="47.28014" lon="-2.35558">
        <ele>19.39999961853</ele>
        <time>2022-01-06T11:18:38.000Z</time>
      </trkpt>
      <trkpt lat="47.27993" lon="-2.35564">
        <ele>19.39999961853</ele>
        <time>2022-01-06T11:18:44.000Z</time>
      </trkpt>
      <trkpt lat="47.2797" lon="-2.35573">
        <ele>19.39999961853</ele>
        <time>2022-01-06T11:18:49.000Z</time>
      </trkpt>
      <trkpt lat="47.27965" lon="-2.35575">
        <ele>19.39999961853</ele>
        <time>2022-01-06T11:18:50.000Z</time>
      </trkpt>
      <trkpt lat="47.27941" lon="-2.35585">
        <ele>19.39999961853</ele>
        <time>2022-01-06T11:18:55.000Z</time>
      </trkpt>
      <trkpt lat="47.27911" lon="-2.35593">
        <ele>19.39999961853</ele>
        <time>2022-01-06T11:19:01.000Z</time>
      </trkpt>
      <trkpt lat="47.279" lon="-2.35595">
        <ele>19</ele>
        <time>2022-01-06T11:19:03.000Z</time>
      </trkpt>
      <trkpt lat="47.27894" lon="-2.35596">
        <ele>18.39999961853</ele>
        <time>2022-01-06T11:19:04.000Z</time>
      </trkpt>
      <trkpt lat="47.27887" lon="-2.35597">
        <ele>18</ele>
        <time>2022-01-06T11:19:05.000Z</time>
      </trkpt>
      <trkpt lat="47.27881" lon="-2.35599">
        <ele>17.60000038147</ele>
        <time>2022-01-06T11:19:06.000Z</time>
      </trkpt>
      <trkpt lat="47.27875" lon="-2.356">
        <ele>17</ele>
        <time>2022-01-06T11:19:07.000Z</time>
      </trkpt>
      <trkpt lat="47.27863" lon="-2.35604">
        <ele>17</ele>
        <time>2022-01-06T11:19:09.000Z</time>
      </trkpt>
      <trkpt lat="47.27819" lon="-2.35615">
        <ele>16.60000038147</ele>
        <time>2022-01-06T11:19:16.000Z</time>
      </trkpt>
      <trkpt lat="47.27812" lon="-2.35617">
        <ele>16.200000762939</ele>
        <time>2022-01-06T11:19:17.000Z</time>
      </trkpt>
      <trkpt lat="47.27806" lon="-2.35619">
        <ele>15.800000190735</ele>
        <time>2022-01-06T11:19:18.000Z</time>
      </trkpt>
      <trkpt lat="47.27799" lon="-2.35621">
        <ele>15.39999961853</ele>
        <time>2022-01-06T11:19:19.000Z</time>
      </trkpt>
      <trkpt lat="47.27792" lon="-2.35624">
        <ele>14.800000190735</ele>
        <time>2022-01-06T11:19:20.000Z</time>
      </trkpt>
      <trkpt lat="47.27779" lon="-2.35632">
        <ele>14.800000190735</ele>
        <time>2022-01-06T11:19:22.000Z</time>
      </trkpt>
      <trkpt lat="47.27753" lon="-2.3566">
        <ele>14.800000190735</ele>
        <time>2022-01-06T11:19:27.000Z</time>
      </trkpt>
      <trkpt lat="47.27749" lon="-2.35667">
        <ele>14.39999961853</ele>
        <time>2022-01-06T11:19:28.000Z</time>
      </trkpt>
      <trkpt lat="47.27744" lon="-2.35674">
        <ele>14</ele>
        <time>2022-01-06T11:19:29.000Z</time>
      </trkpt>
      <trkpt lat="47.2774" lon="-2.3568">
        <ele>13.60000038147</ele>
        <time>2022-01-06T11:19:30.000Z</time>
      </trkpt>
      <trkpt lat="47.27736" lon="-2.35687">
        <ele>13.199999809265</ele>
        <time>2022-01-06T11:19:31.000Z</time>
      </trkpt>
      <trkpt lat="47.27732" lon="-2.35694">
        <ele>12.800000190735</ele>
        <time>2022-01-06T11:19:32.000Z</time>
      </trkpt>
      <trkpt lat="47.27719" lon="-2.35712">
        <ele>12.800000190735</ele>
        <time>2022-01-06T11:19:35.000Z</time>
      </trkpt>
      <trkpt lat="47.27691" lon="-2.35735">
        <ele>12.39999961853</ele>
        <time>2022-01-06T11:19:40.000Z</time>
      </trkpt>
      <trkpt lat="47.27687" lon="-2.35739">
        <ele>12</ele>
        <time>2022-01-06T11:19:41.000Z</time>
      </trkpt>
      <trkpt lat="47.27683" lon="-2.35745">
        <ele>11.60000038147</ele>
        <time>2022-01-06T11:19:42.000Z</time>
      </trkpt>
      <trkpt lat="47.27679" lon="-2.35747">
        <ele>11.199999809265</ele>
        <time>2022-01-06T11:19:43.000Z</time>
      </trkpt>
      <trkpt lat="47.27673" lon="-2.35747">
        <ele>10.800000190735</ele>
        <time>2022-01-06T11:19:44.000Z</time>
      </trkpt>
      <trkpt lat="47.27659" lon="-2.35729">
        <ele>10.800000190735</ele>
        <time>2022-01-06T11:19:47.000Z</time>
      </trkpt>
      <trkpt lat="47.2764" lon="-2.35719">
        <ele>10.800000190735</ele>
        <time>2022-01-06T11:19:50.000Z</time>
      </trkpt>
      <trkpt lat="47.27617" lon="-2.35714">
        <ele>10.39999961853</ele>
        <time>2022-01-06T11:19:53.000Z</time>
      </trkpt>
      <trkpt lat="47.27609" lon="-2.35711">
        <ele>10</ele>
        <time>2022-01-06T11:19:54.000Z</time>
      </trkpt>
      <trkpt lat="47.27602" lon="-2.35709">
        <ele>9.3999996185303</ele>
        <time>2022-01-06T11:19:55.000Z</time>
      </trkpt>
      <trkpt lat="47.27595" lon="-2.35708">
        <ele>8.6000003814697</ele>
        <time>2022-01-06T11:19:56.000Z</time>
      </trkpt>
      <trkpt lat="47.27571" lon="-2.35702">
        <ele>8.6000003814697</ele>
        <time>2022-01-06T11:20:00.000Z</time>
      </trkpt>
      <trkpt lat="47.27533" lon="-2.35694">
        <ele>8.6000003814697</ele>
        <time>2022-01-06T11:20:07.000Z</time>
      </trkpt>
      <trkpt lat="47.27503" lon="-2.35687">
        <ele>8.1999998092651</ele>
        <time>2022-01-06T11:20:12.000Z</time>
      </trkpt>
      <trkpt lat="47.27497" lon="-2.35686">
        <ele>7.8000001907349</ele>
        <time>2022-01-06T11:20:13.000Z</time>
      </trkpt>
      <trkpt lat="47.27491" lon="-2.35684">
        <ele>7.4000000953674</ele>
        <time>2022-01-06T11:20:14.000Z</time>
      </trkpt>
      <trkpt lat="47.27486" lon="-2.35683">
        <ele>7</ele>
        <time>2022-01-06T11:20:15.000Z</time>
      </trkpt>
      <trkpt lat="47.2748" lon="-2.35681">
        <ele>6.5999999046326</ele>
        <time>2022-01-06T11:20:16.000Z</time>
      </trkpt>
      <trkpt lat="47.27459" lon="-2.35676">
        <ele>6.5999999046326</ele>
        <time>2022-01-06T11:20:20.000Z</time>
      </trkpt>
      <trkpt lat="47.2743" lon="-2.3567">
        <ele>6.5999999046326</ele>
        <time>2022-01-06T11:20:26.000Z</time>
      </trkpt>
      <trkpt lat="47.27414" lon="-2.35667">
        <ele>6.5999999046326</ele>
        <time>2022-01-06T11:20:29.000Z</time>
      </trkpt>
      <trkpt lat="47.27403" lon="-2.3567">
        <ele>6.5999999046326</ele>
        <time>2022-01-06T11:20:31.000Z</time>
      </trkpt>
      <trkpt lat="47.27387" lon="-2.35678">
        <ele>6.5999999046326</ele>
        <time>2022-01-06T11:20:34.000Z</time>
      </trkpt>
      <trkpt lat="47.27378" lon="-2.35683">
        <ele>6.5999999046326</ele>
        <time>2022-01-06T11:20:36.000Z</time>
      </trkpt>
      <trkpt lat="47.27369" lon="-2.35688">
        <ele>6.1999998092651</ele>
        <time>2022-01-06T11:20:38.000Z</time>
      </trkpt>
      <trkpt lat="47.27364" lon="-2.35691">
        <ele>5.8000001907349</ele>
        <time>2022-01-06T11:20:39.000Z</time>
      </trkpt>
      <trkpt lat="47.2736" lon="-2.35695">
        <ele>5.4000000953674</ele>
        <time>2022-01-06T11:20:40.000Z</time>
      </trkpt>
      <trkpt lat="47.27356" lon="-2.35699">
        <ele>4.8000001907349</ele>
        <time>2022-01-06T11:20:41.000Z</time>
      </trkpt>
      <trkpt lat="47.27351" lon="-2.35702">
        <ele>4.4000000953674</ele>
        <time>2022-01-06T11:20:42.000Z</time>
      </trkpt>
      <trkpt lat="47.27343" lon="-2.35708">
        <ele>4.4000000953674</ele>
        <time>2022-01-06T11:20:44.000Z</time>
      </trkpt>
      <trkpt lat="47.27326" lon="-2.35726">
        <ele>4.4000000953674</ele>
        <time>2022-01-06T11:20:50.000Z</time>
      </trkpt>
      <trkpt lat="47.2732" lon="-2.35741">
        <ele>4.4000000953674</ele>
        <time>2022-01-06T11:20:55.000Z</time>
      </trkpt>
      <trkpt lat="47.27317" lon="-2.35743">
        <ele>4.4000000953674</ele>
        <time>2022-01-06T11:20:56.000Z</time>
      </trkpt>
      <trkpt lat="47.2731" lon="-2.3574">
        <ele>4.4000000953674</ele>
        <time>2022-01-06T11:20:58.000Z</time>
      </trkpt>
      <trkpt lat="47.27303" lon="-2.35725">
        <ele>4.4000000953674</ele>
        <time>2022-01-06T11:21:01.000Z</time>
      </trkpt>
      <trkpt lat="47.273" lon="-2.3572">
        <ele>4.4000000953674</ele>
        <time>2022-01-06T11:21:02.000Z</time>
      </trkpt>
      <trkpt lat="47.27286" lon="-2.35686">
        <ele>4.4000000953674</ele>
        <time>2022-01-06T11:21:08.000Z</time>
      </trkpt>
      <trkpt lat="47.27265" lon="-2.35639">
        <ele>4.4000000953674</ele>
        <time>2022-01-06T11:21:16.000Z</time>
      </trkpt>
      <trkpt lat="47.27249" lon="-2.35603">
        <ele>4.8000001907349</ele>
        <time>2022-01-06T11:21:22.000Z</time>
      </trkpt>
      <trkpt lat="47.27246" lon="-2.35598">
        <ele>5.1999998092651</ele>
        <time>2022-01-06T11:21:23.000Z</time>
      </trkpt>
      <trkpt lat="47.27244" lon="-2.35592">
        <ele>5.8000001907349</ele>
        <time>2022-01-06T11:21:24.000Z</time>
      </trkpt>
      <trkpt lat="47.27241" lon="-2.35586">
        <ele>6.1999998092651</ele>
        <time>2022-01-06T11:21:25.000Z</time>
      </trkpt>
      <trkpt lat="47.27238" lon="-2.3558">
        <ele>6.5999999046326</ele>
        <time>2022-01-06T11:21:26.000Z</time>
      </trkpt>
      <trkpt lat="47.2722" lon="-2.35541">
        <ele>6.5999999046326</ele>
        <time>2022-01-06T11:21:33.000Z</time>
      </trkpt>
      <trkpt lat="47.27198" lon="-2.35494">
        <ele>6.5999999046326</ele>
        <time>2022-01-06T11:21:41.000Z</time>
      </trkpt>
      <trkpt lat="47.27169" lon="-2.35435">
        <ele>6.5999999046326</ele>
        <time>2022-01-06T11:21:51.000Z</time>
      </trkpt>
      <trkpt lat="47.27141" lon="-2.35383">
        <ele>6.5999999046326</ele>
        <time>2022-01-06T11:22:00.000Z</time>
      </trkpt>
      <trkpt lat="47.27111" lon="-2.35334">
        <ele>6.5999999046326</ele>
        <time>2022-01-06T11:22:09.000Z</time>
      </trkpt>
      <trkpt lat="47.27077" lon="-2.35281">
        <ele>6.5999999046326</ele>
        <time>2022-01-06T11:22:19.000Z</time>
      </trkpt>
      <trkpt lat="47.27046" lon="-2.35234">
        <ele>6.5999999046326</ele>
        <time>2022-01-06T11:22:28.000Z</time>
      </trkpt>
      <trkpt lat="47.2701" lon="-2.35178">
        <ele>6.5999999046326</ele>
        <time>2022-01-06T11:22:38.000Z</time>
      </trkpt>
      <trkpt lat="47.26976" lon="-2.35126">
        <ele>6.5999999046326</ele>
        <time>2022-01-06T11:22:48.000Z</time>
      </trkpt>
      <trkpt lat="47.26941" lon="-2.35072">
        <ele>6.5999999046326</ele>
        <time>2022-01-06T11:22:58.000Z</time>
      </trkpt>
      <trkpt lat="47.26903" lon="-2.35015">
        <ele>6.5999999046326</ele>
        <time>2022-01-06T11:23:09.000Z</time>
      </trkpt>
      <trkpt lat="47.26875" lon="-2.34974">
        <ele>6.5999999046326</ele>
        <time>2022-01-06T11:23:17.000Z</time>
      </trkpt>
      <trkpt lat="47.26838" lon="-2.34916">
        <ele>6.5999999046326</ele>
        <time>2022-01-06T11:23:28.000Z</time>
      </trkpt>
      <trkpt lat="47.26807" lon="-2.34871">
        <ele>6.5999999046326</ele>
        <time>2022-01-06T11:23:37.000Z</time>
      </trkpt>
      <trkpt lat="47.26775" lon="-2.34825">
        <ele>6.5999999046326</ele>
        <time>2022-01-06T11:23:46.000Z</time>
      </trkpt>
      <trkpt lat="47.26758" lon="-2.34802">
        <ele>6.5999999046326</ele>
        <time>2022-01-06T11:23:51.000Z</time>
      </trkpt>
      <trkpt lat="47.26755" lon="-2.34797">
        <ele>6.5999999046326</ele>
        <time>2022-01-06T11:23:52.000Z</time>
      </trkpt>
      <trkpt lat="47.26732" lon="-2.34769">
        <ele>6.5999999046326</ele>
        <time>2022-01-06T11:23:58.000Z</time>
      </trkpt>
      <trkpt lat="47.26697" lon="-2.34727">
        <ele>6.5999999046326</ele>
        <time>2022-01-06T11:24:07.000Z</time>
      </trkpt>
      <trkpt lat="47.26666" lon="-2.3469">
        <ele>6.5999999046326</ele>
        <time>2022-01-06T11:24:15.000Z</time>
      </trkpt>
      <trkpt lat="47.2664" lon="-2.34657">
        <ele>6.5999999046326</ele>
        <time>2022-01-06T11:24:22.000Z</time>
      </trkpt>
      <trkpt lat="47.26606" lon="-2.34615">
        <ele>6.5999999046326</ele>
        <time>2022-01-06T11:24:31.000Z</time>
      </trkpt>
      <trkpt lat="47.26587" lon="-2.34592">
        <ele>6.5999999046326</ele>
        <time>2022-01-06T11:24:36.000Z</time>
      </trkpt>
      <trkpt lat="47.26579" lon="-2.34584">
        <ele>6.5999999046326</ele>
        <time>2022-01-06T11:24:38.000Z</time>
      </trkpt>
      <trkpt lat="47.26541" lon="-2.34545">
        <ele>6.5999999046326</ele>
        <time>2022-01-06T11:24:47.000Z</time>
      </trkpt>
      <trkpt lat="47.26533" lon="-2.34537">
        <ele>6.5999999046326</ele>
        <time>2022-01-06T11:24:49.000Z</time>
      </trkpt>
      <trkpt lat="47.26511" lon="-2.34519">
        <ele>6.5999999046326</ele>
        <time>2022-01-06T11:24:54.000Z</time>
      </trkpt>
      <trkpt lat="47.26459" lon="-2.3448">
        <ele>6.5999999046326</ele>
        <time>2022-01-06T11:25:05.000Z</time>
      </trkpt>
      <trkpt lat="47.26417" lon="-2.34451">
        <ele>6.5999999046326</ele>
        <time>2022-01-06T11:25:14.000Z</time>
      </trkpt>
      <trkpt lat="47.26374" lon="-2.34415">
        <ele>6.5999999046326</ele>
        <time>2022-01-06T11:25:24.000Z</time>
      </trkpt>
      <trkpt lat="47.26341" lon="-2.34384">
        <ele>6.5999999046326</ele>
        <time>2022-01-06T11:25:32.000Z</time>
      </trkpt>
      <trkpt lat="47.26335" lon="-2.34382">
        <ele>6.5999999046326</ele>
        <time>2022-01-06T11:25:33.000Z</time>
      </trkpt>
      <trkpt lat="47.26321" lon="-2.34378">
        <ele>6.5999999046326</ele>
        <time>2022-01-06T11:25:36.000Z</time>
      </trkpt>
      <trkpt lat="47.26313" lon="-2.34361">
        <ele>6.5999999046326</ele>
        <time>2022-01-06T11:25:39.000Z</time>
      </trkpt>
      <trkpt lat="47.26312" lon="-2.34355">
        <ele>6.5999999046326</ele>
        <time>2022-01-06T11:25:40.000Z</time>
      </trkpt>
      <trkpt lat="47.26308" lon="-2.3435">
        <ele>6.5999999046326</ele>
        <time>2022-01-06T11:25:41.000Z</time>
      </trkpt>
      <trkpt lat="47.26299" lon="-2.34346">
        <ele>6.5999999046326</ele>
        <time>2022-01-06T11:25:43.000Z</time>
      </trkpt>
      <trkpt lat="47.26286" lon="-2.34332">
        <ele>6.5999999046326</ele>
        <time>2022-01-06T11:25:46.000Z</time>
      </trkpt>
      <trkpt lat="47.26282" lon="-2.34328">
        <ele>6.5999999046326</ele>
        <time>2022-01-06T11:25:47.000Z</time>
      </trkpt>
      <trkpt lat="47.26248" lon="-2.34291">
        <ele>6.5999999046326</ele>
        <time>2022-01-06T11:25:55.000Z</time>
      </trkpt>
      <trkpt lat="47.26244" lon="-2.34288">
        <ele>6.5999999046326</ele>
        <time>2022-01-06T11:25:56.000Z</time>
      </trkpt>
      <trkpt lat="47.26224" lon="-2.34266">
        <ele>6.5999999046326</ele>
        <time>2022-01-06T11:26:01.000Z</time>
      </trkpt>
      <trkpt lat="47.26199" lon="-2.34241">
        <ele>6.5999999046326</ele>
        <time>2022-01-06T11:26:07.000Z</time>
      </trkpt>
      <trkpt lat="47.26173" lon="-2.34215">
        <ele>6.5999999046326</ele>
        <time>2022-01-06T11:26:13.000Z</time>
      </trkpt>
      <trkpt lat="47.26149" lon="-2.3419">
        <ele>6.5999999046326</ele>
        <time>2022-01-06T11:26:19.000Z</time>
      </trkpt>
      <trkpt lat="47.26144" lon="-2.34188">
        <ele>6.5999999046326</ele>
        <time>2022-01-06T11:26:20.000Z</time>
      </trkpt>
      <trkpt lat="47.26129" lon="-2.34181">
        <ele>6.5999999046326</ele>
        <time>2022-01-06T11:26:23.000Z</time>
      </trkpt>
      <trkpt lat="47.26121" lon="-2.34171">
        <ele>6.5999999046326</ele>
        <time>2022-01-06T11:26:25.000Z</time>
      </trkpt>
      <trkpt lat="47.26113" lon="-2.34164">
        <ele>6.5999999046326</ele>
        <time>2022-01-06T11:26:27.000Z</time>
      </trkpt>
      <trkpt lat="47.26098" lon="-2.34155">
        <ele>6.5999999046326</ele>
        <time>2022-01-06T11:26:30.000Z</time>
      </trkpt>
      <trkpt lat="47.26093" lon="-2.34153">
        <ele>6.5999999046326</ele>
        <time>2022-01-06T11:26:31.000Z</time>
      </trkpt>
      <trkpt lat="47.26058" lon="-2.34134">
        <ele>6.5999999046326</ele>
        <time>2022-01-06T11:26:38.000Z</time>
      </trkpt>
      <trkpt lat="47.26019" lon="-2.34114">
        <ele>6.5999999046326</ele>
        <time>2022-01-06T11:26:46.000Z</time>
      </trkpt>
      <trkpt lat="47.25975" lon="-2.34094">
        <ele>6.5999999046326</ele>
        <time>2022-01-06T11:26:55.000Z</time>
      </trkpt>
      <trkpt lat="47.25928" lon="-2.34074">
        <ele>6.5999999046326</ele>
        <time>2022-01-06T11:27:05.000Z</time>
      </trkpt>
      <trkpt lat="47.25907" lon="-2.3407">
        <ele>6.5999999046326</ele>
        <time>2022-01-06T11:27:09.000Z</time>
      </trkpt>
      <trkpt lat="47.25903" lon="-2.34066">
        <ele>6.5999999046326</ele>
        <time>2022-01-06T11:27:10.000Z</time>
      </trkpt>
      <trkpt lat="47.259" lon="-2.34061">
        <ele>6.1999998092651</ele>
        <time>2022-01-06T11:27:11.000Z</time>
      </trkpt>
      <trkpt lat="47.25897" lon="-2.34054">
        <ele>5.8000001907349</ele>
        <time>2022-01-06T11:27:12.000Z</time>
      </trkpt>
      <trkpt lat="47.25895" lon="-2.34047">
        <ele>5.4000000953674</ele>
        <time>2022-01-06T11:27:13.000Z</time>
      </trkpt>
      <trkpt lat="47.25895" lon="-2.3404">
        <ele>5</ele>
        <time>2022-01-06T11:27:14.000Z</time>
      </trkpt>
      <trkpt lat="47.25895" lon="-2.34032">
        <ele>4.5999999046326</ele>
        <time>2022-01-06T11:27:15.000Z</time>
      </trkpt>
      <trkpt lat="47.25897" lon="-2.34025">
        <ele>4.5999999046326</ele>
        <time>2022-01-06T11:27:16.000Z</time>
      </trkpt>
      <trkpt lat="47.25902" lon="-2.34012">
        <ele>4.5999999046326</ele>
        <time>2022-01-06T11:27:18.000Z</time>
      </trkpt>
      <trkpt lat="47.25904" lon="-2.34004">
        <ele>4.5999999046326</ele>
        <time>2022-01-06T11:27:19.000Z</time>
      </trkpt>
      <trkpt lat="47.25906" lon="-2.33996">
        <ele>4.5999999046326</ele>
        <time>2022-01-06T11:27:20.000Z</time>
      </trkpt>
      <trkpt lat="47.25919" lon="-2.33961">
        <ele>4.5999999046326</ele>
        <time>2022-01-06T11:27:25.000Z</time>
      </trkpt>
      <trkpt lat="47.25925" lon="-2.33947">
        <ele>4.5999999046326</ele>
        <time>2022-01-06T11:27:27.000Z</time>
      </trkpt>
      <trkpt lat="47.25942" lon="-2.33913">
        <ele>4.5999999046326</ele>
        <time>2022-01-06T11:27:32.000Z</time>
      </trkpt>
      <trkpt lat="47.25951" lon="-2.33891">
        <ele>4.5999999046326</ele>
        <time>2022-01-06T11:27:35.000Z</time>
      </trkpt>
      <trkpt lat="47.25961" lon="-2.33861">
        <ele>4.5999999046326</ele>
        <time>2022-01-06T11:27:39.000Z</time>
      </trkpt>
      <trkpt lat="47.25967" lon="-2.33839">
        <ele>4.5999999046326</ele>
        <time>2022-01-06T11:27:42.000Z</time>
      </trkpt>
      <trkpt lat="47.25985" lon="-2.33786">
        <ele>4.5999999046326</ele>
        <time>2022-01-06T11:27:49.000Z</time>
      </trkpt>
      <trkpt lat="47.26002" lon="-2.33733">
        <ele>4.5999999046326</ele>
        <time>2022-01-06T11:27:56.000Z</time>
      </trkpt>
      <trkpt lat="47.26017" lon="-2.33687">
        <ele>4.5999999046326</ele>
        <time>2022-01-06T11:28:02.000Z</time>
      </trkpt>
      <trkpt lat="47.26018" lon="-2.3368">
        <ele>4.5999999046326</ele>
        <time>2022-01-06T11:28:03.000Z</time>
      </trkpt>
      <trkpt lat="47.26024" lon="-2.33668">
        <ele>4.5999999046326</ele>
        <time>2022-01-06T11:28:05.000Z</time>
      </trkpt>
      <trkpt lat="47.26034" lon="-2.33667">
        <ele>4.5999999046326</ele>
        <time>2022-01-06T11:28:07.000Z</time>
      </trkpt>
      <trkpt lat="47.26049" lon="-2.33668">
        <ele>4.5999999046326</ele>
        <time>2022-01-06T11:28:11.000Z</time>
      </trkpt>
      <trkpt lat="47.26057" lon="-2.33663">
        <ele>4.5999999046326</ele>
        <time>2022-01-06T11:28:13.000Z</time>
      </trkpt>
      <trkpt lat="47.26059" lon="-2.33657">
        <ele>4.5999999046326</ele>
        <time>2022-01-06T11:28:14.000Z</time>
      </trkpt>
      <trkpt lat="47.26064" lon="-2.33638">
        <ele>4.5999999046326</ele>
        <time>2022-01-06T11:28:17.000Z</time>
      </trkpt>
      <trkpt lat="47.26066" lon="-2.33631">
        <ele>4.5999999046326</ele>
        <time>2022-01-06T11:28:18.000Z</time>
      </trkpt>
      <trkpt lat="47.26084" lon="-2.3358">
        <ele>4.5999999046326</ele>
        <time>2022-01-06T11:28:26.000Z</time>
      </trkpt>
      <trkpt lat="47.26094" lon="-2.33553">
        <ele>4.5999999046326</ele>
        <time>2022-01-06T11:28:30.000Z</time>
      </trkpt>
      <trkpt lat="47.26106" lon="-2.33526">
        <ele>4.5999999046326</ele>
        <time>2022-01-06T11:28:34.000Z</time>
      </trkpt>
      <trkpt lat="47.26114" lon="-2.33504">
        <ele>4.1999998092651</ele>
        <time>2022-01-06T11:28:37.000Z</time>
      </trkpt>
      <trkpt lat="47.26117" lon="-2.33497">
        <ele>3.7999999523163</ele>
        <time>2022-01-06T11:28:38.000Z</time>
      </trkpt>
      <trkpt lat="47.26119" lon="-2.33489">
        <ele>3.2000000476837</ele>
        <time>2022-01-06T11:28:39.000Z</time>
      </trkpt>
      <trkpt lat="47.26121" lon="-2.33481">
        <ele>2.7999999523163</ele>
        <time>2022-01-06T11:28:40.000Z</time>
      </trkpt>
      <trkpt lat="47.26123" lon="-2.33474">
        <ele>2.4000000953674</ele>
        <time>2022-01-06T11:28:41.000Z</time>
      </trkpt>
      <trkpt lat="47.26133" lon="-2.33444">
        <ele>2.4000000953674</ele>
        <time>2022-01-06T11:28:46.000Z</time>
      </trkpt>
      <trkpt lat="47.26134" lon="-2.33438">
        <ele>2.4000000953674</ele>
        <time>2022-01-06T11:28:47.000Z</time>
      </trkpt>
      <trkpt lat="47.26129" lon="-2.33419">
        <ele>2.4000000953674</ele>
        <time>2022-01-06T11:28:50.000Z</time>
      </trkpt>
      <trkpt lat="47.2612" lon="-2.3341">
        <ele>2.4000000953674</ele>
        <time>2022-01-06T11:28:52.000Z</time>
      </trkpt>
      <trkpt lat="47.26107" lon="-2.33396">
        <ele>2.4000000953674</ele>
        <time>2022-01-06T11:28:55.000Z</time>
      </trkpt>
      <trkpt lat="47.26077" lon="-2.3335">
        <ele>2.4000000953674</ele>
        <time>2022-01-06T11:29:03.000Z</time>
      </trkpt>
      <trkpt lat="47.26072" lon="-2.33337">
        <ele>2.4000000953674</ele>
        <time>2022-01-06T11:29:05.000Z</time>
      </trkpt>
      <trkpt lat="47.26064" lon="-2.33315">
        <ele>2.4000000953674</ele>
        <time>2022-01-06T11:29:08.000Z</time>
      </trkpt>
      <trkpt lat="47.26045" lon="-2.3326">
        <ele>2.4000000953674</ele>
        <time>2022-01-06T11:29:16.000Z</time>
      </trkpt>
      <trkpt lat="47.26023" lon="-2.33198">
        <ele>2.4000000953674</ele>
        <time>2022-01-06T11:29:25.000Z</time>
      </trkpt>
      <trkpt lat="47.26006" lon="-2.33151">
        <ele>2.4000000953674</ele>
        <time>2022-01-06T11:29:32.000Z</time>
      </trkpt>
      <trkpt lat="47.25988" lon="-2.33098">
        <ele>2.4000000953674</ele>
        <time>2022-01-06T11:29:40.000Z</time>
      </trkpt>
      <trkpt lat="47.25984" lon="-2.33084">
        <ele>2.4000000953674</ele>
        <time>2022-01-06T11:29:42.000Z</time>
      </trkpt>
      <trkpt lat="47.25974" lon="-2.33066">
        <ele>2.4000000953674</ele>
        <time>2022-01-06T11:29:45.000Z</time>
      </trkpt>
      <trkpt lat="47.25969" lon="-2.33053">
        <ele>2.4000000953674</ele>
        <time>2022-01-06T11:29:47.000Z</time>
      </trkpt>
      <trkpt lat="47.25963" lon="-2.33031">
        <ele>2.4000000953674</ele>
        <time>2022-01-06T11:29:50.000Z</time>
      </trkpt>
      <trkpt lat="47.25939" lon="-2.32957">
        <ele>2.4000000953674</ele>
        <time>2022-01-06T11:30:00.000Z</time>
      </trkpt>
      <trkpt lat="47.25936" lon="-2.3295">
        <ele>2.4000000953674</ele>
        <time>2022-01-06T11:30:01.000Z</time>
      </trkpt>
      <trkpt lat="47.25913" lon="-2.32888">
        <ele>2.4000000953674</ele>
        <time>2022-01-06T11:30:10.000Z</time>
      </trkpt>
      <trkpt lat="47.25897" lon="-2.32841">
        <ele>2.4000000953674</ele>
        <time>2022-01-06T11:30:17.000Z</time>
      </trkpt>
      <trkpt lat="47.25877" lon="-2.3278">
        <ele>2.4000000953674</ele>
        <time>2022-01-06T11:30:26.000Z</time>
      </trkpt>
      <trkpt lat="47.25863" lon="-2.32733">
        <ele>2.4000000953674</ele>
        <time>2022-01-06T11:30:33.000Z</time>
      </trkpt>
      <trkpt lat="47.25863" lon="-2.32719">
        <ele>2.4000000953674</ele>
        <time>2022-01-06T11:30:35.000Z</time>
      </trkpt>
      <trkpt lat="47.25855" lon="-2.32702">
        <ele>2.4000000953674</ele>
        <time>2022-01-06T11:30:38.000Z</time>
      </trkpt>
      <trkpt lat="47.25846" lon="-2.32676">
        <ele>2.4000000953674</ele>
        <time>2022-01-06T11:30:42.000Z</time>
      </trkpt>
      <trkpt lat="47.25844" lon="-2.32669">
        <ele>2.4000000953674</ele>
        <time>2022-01-06T11:30:43.000Z</time>
      </trkpt>
      <trkpt lat="47.25833" lon="-2.32626">
        <ele>2.4000000953674</ele>
        <time>2022-01-06T11:30:49.000Z</time>
      </trkpt>
      <trkpt lat="47.2582" lon="-2.3257">
        <ele>2.4000000953674</ele>
        <time>2022-01-06T11:30:57.000Z</time>
      </trkpt>
      <trkpt lat="47.25805" lon="-2.32507">
        <ele>2.4000000953674</ele>
        <time>2022-01-06T11:31:06.000Z</time>
      </trkpt>
      <trkpt lat="47.258" lon="-2.32487">
        <ele>2.4000000953674</ele>
        <time>2022-01-06T11:31:09.000Z</time>
      </trkpt>
      <trkpt lat="47.258" lon="-2.32474">
        <ele>2.4000000953674</ele>
        <time>2022-01-06T11:31:11.000Z</time>
      </trkpt>
      <trkpt lat="47.25809" lon="-2.32459">
        <ele>2.4000000953674</ele>
        <time>2022-01-06T11:31:14.000Z</time>
      </trkpt>
      <trkpt lat="47.25824" lon="-2.32462">
        <ele>2.4000000953674</ele>
        <time>2022-01-06T11:31:17.000Z</time>
      </trkpt>
      <trkpt lat="47.25829" lon="-2.32465">
        <ele>2.4000000953674</ele>
        <time>2022-01-06T11:31:18.000Z</time>
      </trkpt>
      <trkpt lat="47.25834" lon="-2.32468">
        <ele>2.4000000953674</ele>
        <time>2022-01-06T11:31:19.000Z</time>
      </trkpt>
      <trkpt lat="47.25845" lon="-2.32471">
        <ele>2.4000000953674</ele>
        <time>2022-01-06T11:31:21.000Z</time>
      </trkpt>
      <trkpt lat="47.2585" lon="-2.32472">
        <ele>2.4000000953674</ele>
        <time>2022-01-06T11:31:22.000Z</time>
      </trkpt>
      <trkpt lat="47.25881" lon="-2.3247">
        <ele>2.4000000953674</ele>
        <time>2022-01-06T11:31:28.000Z</time>
      </trkpt>
      <trkpt lat="47.259" lon="-2.32456">
        <ele>2.4000000953674</ele>
        <time>2022-01-06T11:31:32.000Z</time>
      </trkpt>
      <trkpt lat="47.25904" lon="-2.32451">
        <ele>2.4000000953674</ele>
        <time>2022-01-06T11:31:33.000Z</time>
      </trkpt>
      <trkpt lat="47.2593" lon="-2.32418">
        <ele>2.4000000953674</ele>
        <time>2022-01-06T11:31:39.000Z</time>
      </trkpt>
      <trkpt lat="47.25959" lon="-2.32381">
        <ele>2.4000000953674</ele>
        <time>2022-01-06T11:31:46.000Z</time>
      </trkpt>
      <trkpt lat="47.25993" lon="-2.32338">
        <ele>2.4000000953674</ele>
        <time>2022-01-06T11:31:54.000Z</time>
      </trkpt>
      <trkpt lat="47.26023" lon="-2.32302">
        <ele>2.4000000953674</ele>
        <time>2022-01-06T11:32:01.000Z</time>
      </trkpt>
      <trkpt lat="47.26062" lon="-2.32258">
        <ele>2.4000000953674</ele>
        <time>2022-01-06T11:32:10.000Z</time>
      </trkpt>
      <trkpt lat="47.26085" lon="-2.32228">
        <ele>2.4000000953674</ele>
        <time>2022-01-06T11:32:16.000Z</time>
      </trkpt>
      <trkpt lat="47.26105" lon="-2.32191">
        <ele>2.4000000953674</ele>
        <time>2022-01-06T11:32:22.000Z</time>
      </trkpt>
      <trkpt lat="47.26124" lon="-2.32142">
        <ele>2.4000000953674</ele>
        <time>2022-01-06T11:32:29.000Z</time>
      </trkpt>
      <trkpt lat="47.26138" lon="-2.32093">
        <ele>2.4000000953674</ele>
        <time>2022-01-06T11:32:36.000Z</time>
      </trkpt>
      <trkpt lat="47.26152" lon="-2.32047">
        <ele>2.4000000953674</ele>
        <time>2022-01-06T11:32:43.000Z</time>
      </trkpt>
      <trkpt lat="47.26166" lon="-2.32022">
        <ele>2.4000000953674</ele>
        <time>2022-01-06T11:32:48.000Z</time>
      </trkpt>
      <trkpt lat="47.26181" lon="-2.32021">
        <ele>2.4000000953674</ele>
        <time>2022-01-06T11:32:52.000Z</time>
      </trkpt>
      <trkpt lat="47.26192" lon="-2.32024">
        <ele>2.4000000953674</ele>
        <time>2022-01-06T11:32:56.000Z</time>
      </trkpt>
      <trkpt lat="47.26194" lon="-2.32024">
        <ele>2.4000000953674</ele>
        <time>2022-01-06T11:32:57.000Z</time>
      </trkpt>
      <trkpt lat="47.26196" lon="-2.32018">
        <ele>2.4000000953674</ele>
        <time>2022-01-06T11:32:59.000Z</time>
      </trkpt>
      <trkpt lat="47.26198" lon="-2.32012">
        <ele>2.4000000953674</ele>
        <time>2022-01-06T11:33:01.000Z</time>
      </trkpt>
      <trkpt lat="47.26199" lon="-2.32009">
        <ele>2.4000000953674</ele>
        <time>2022-01-06T11:33:02.000Z</time>
      </trkpt>
      <trkpt lat="47.26203" lon="-2.32005">
        <ele>2.4000000953674</ele>
        <time>2022-01-06T11:33:04.000Z</time>
      </trkpt>
      <trkpt lat="47.26212" lon="-2.31989">
        <ele>2.4000000953674</ele>
        <time>2022-01-06T11:33:09.000Z</time>
      </trkpt>
      <trkpt lat="47.26214" lon="-2.31985">
        <ele>2.4000000953674</ele>
        <time>2022-01-06T11:33:10.000Z</time>
      </trkpt>
      <trkpt lat="47.26225" lon="-2.31968">
        <ele>2.4000000953674</ele>
        <time>2022-01-06T11:33:15.000Z</time>
      </trkpt>
      <trkpt lat="47.26236" lon="-2.31959">
        <ele>2.4000000953674</ele>
        <time>2022-01-06T11:33:20.000Z</time>
      </trkpt>
      <trkpt lat="47.26237" lon="-2.3196">
        <ele>2.4000000953674</ele>
        <time>2022-01-06T11:33:24.000Z</time>
      </trkpt>
      <trkpt lat="47.26236" lon="-2.31962">
        <ele>2.4000000953674</ele>
        <time>2022-01-06T11:33:27.000Z</time>
      </trkpt>
      <trkpt lat="47.26236" lon="-2.31962">
        <ele>2.4000000953674</ele>
        <time>2022-01-06T11:33:28.000Z</time>
      </trkpt>
      <trkpt lat="47.26236" lon="-2.31963">
        <ele>2.4000000953674</ele>
        <time>2022-01-06T11:33:31.000Z</time>
      </trkpt>
      <trkpt lat="47.26241" lon="-2.31956">
        <ele>2.4000000953674</ele>
        <time>2022-01-06T11:34:01.000Z</time>
      </trkpt>
      <trkpt lat="47.26245" lon="-2.31953">
        <ele>2.4000000953674</ele>
        <time>2022-01-06T11:34:03.000Z</time>
      </trkpt>
      <trkpt lat="47.26246" lon="-2.31951">
        <ele>2.4000000953674</ele>
        <time>2022-01-06T11:34:04.000Z</time>
      </trkpt>
      <trkpt lat="47.26253" lon="-2.31942">
        <ele>2.4000000953674</ele>
        <time>2022-01-06T11:34:08.000Z</time>
      </trkpt>
      <trkpt lat="47.26265" lon="-2.31927">
        <ele>2.4000000953674</ele>
        <time>2022-01-06T11:34:13.000Z</time>
      </trkpt>
      <trkpt lat="47.26282" lon="-2.31905">
        <ele>2.4000000953674</ele>
        <time>2022-01-06T11:34:19.000Z</time>
      </trkpt>
      <trkpt lat="47.26294" lon="-2.3189">
        <ele>2.4000000953674</ele>
        <time>2022-01-06T11:34:24.000Z</time>
      </trkpt>
      <trkpt lat="47.26297" lon="-2.31873">
        <ele>2.4000000953674</ele>
        <time>2022-01-06T11:34:28.000Z</time>
      </trkpt>
      <trkpt lat="47.26299" lon="-2.3184">
        <ele>2.4000000953674</ele>
        <time>2022-01-06T11:34:35.000Z</time>
      </trkpt>
      <trkpt lat="47.26302" lon="-2.31814">
        <ele>2.4000000953674</ele>
        <time>2022-01-06T11:34:40.000Z</time>
      </trkpt>
      <trkpt lat="47.26303" lon="-2.31779">
        <ele>2.4000000953674</ele>
        <time>2022-01-06T11:34:46.000Z</time>
      </trkpt>
      <trkpt lat="47.26301" lon="-2.31746">
        <ele>2.4000000953674</ele>
        <time>2022-01-06T11:34:52.000Z</time>
      </trkpt>
      <trkpt lat="47.26302" lon="-2.31722">
        <ele>2.4000000953674</ele>
        <time>2022-01-06T11:34:56.000Z</time>
      </trkpt>
      <trkpt lat="47.26305" lon="-2.31719">
        <ele>2.4000000953674</ele>
        <time>2022-01-06T11:34:57.000Z</time>
      </trkpt>
      <trkpt lat="47.26321" lon="-2.31709">
        <ele>2.7999999523163</ele>
        <time>2022-01-06T11:35:02.000Z</time>
      </trkpt>
      <trkpt lat="47.26325" lon="-2.31707">
        <ele>3.2000000476837</ele>
        <time>2022-01-06T11:35:03.000Z</time>
      </trkpt>
      <trkpt lat="47.26328" lon="-2.31704">
        <ele>3.5999999046326</ele>
        <time>2022-01-06T11:35:04.000Z</time>
      </trkpt>
      <trkpt lat="47.2633" lon="-2.31701">
        <ele>4</ele>
        <time>2022-01-06T11:35:05.000Z</time>
      </trkpt>
      <trkpt lat="47.26331" lon="-2.31697">
        <ele>4.4000000953674</ele>
        <time>2022-01-06T11:35:06.000Z</time>
      </trkpt>
      <trkpt lat="47.26339" lon="-2.31687">
        <ele>4.4000000953674</ele>
        <time>2022-01-06T11:35:10.000Z</time>
      </trkpt>
      <trkpt lat="47.26345" lon="-2.31683">
        <ele>4.4000000953674</ele>
        <time>2022-01-06T11:35:12.000Z</time>
      </trkpt>
      <trkpt lat="47.26348" lon="-2.31681">
        <ele>5</ele>
        <time>2022-01-06T11:35:13.000Z</time>
      </trkpt>
      <trkpt lat="47.26351" lon="-2.31679">
        <ele>5.4000000953674</ele>
        <time>2022-01-06T11:35:14.000Z</time>
      </trkpt>
      <trkpt lat="47.26354" lon="-2.31678">
        <ele>5.8000001907349</ele>
        <time>2022-01-06T11:35:15.000Z</time>
      </trkpt>
      <trkpt lat="47.26357" lon="-2.31676">
        <ele>6.1999998092651</ele>
        <time>2022-01-06T11:35:16.000Z</time>
      </trkpt>
      <trkpt lat="47.2636" lon="-2.31675">
        <ele>6.5999999046326</ele>
        <time>2022-01-06T11:35:17.000Z</time>
      </trkpt>
      <trkpt lat="47.26383" lon="-2.31665">
        <ele>6.5999999046326</ele>
        <time>2022-01-06T11:35:24.000Z</time>
      </trkpt>
      <trkpt lat="47.26404" lon="-2.31656">
        <ele>6.5999999046326</ele>
        <time>2022-01-06T11:35:31.000Z</time>
      </trkpt>
      <trkpt lat="47.26406" lon="-2.31653">
        <ele>6.5999999046326</ele>
        <time>2022-01-06T11:35:32.000Z</time>
      </trkpt>
      <trkpt lat="47.26408" lon="-2.31645">
        <ele>6.5999999046326</ele>
        <time>2022-01-06T11:35:34.000Z</time>
      </trkpt>
      <trkpt lat="47.26408" lon="-2.31641">
        <ele>6.5999999046326</ele>
        <time>2022-01-06T11:35:35.000Z</time>
      </trkpt>
      <trkpt lat="47.26405" lon="-2.31608">
        <ele>7</ele>
        <time>2022-01-06T11:35:42.000Z</time>
      </trkpt>
      <trkpt lat="47.26405" lon="-2.31603">
        <ele>7.4000000953674</ele>
        <time>2022-01-06T11:35:43.000Z</time>
      </trkpt>
      <trkpt lat="47.26405" lon="-2.31598">
        <ele>7.8000001907349</ele>
        <time>2022-01-06T11:35:44.000Z</time>
      </trkpt>
      <trkpt lat="47.26405" lon="-2.31594">
        <ele>8.1999998092651</ele>
        <time>2022-01-06T11:35:45.000Z</time>
      </trkpt>
      <trkpt lat="47.26406" lon="-2.31589">
        <ele>8.6000003814697</ele>
        <time>2022-01-06T11:35:46.000Z</time>
      </trkpt>
      <trkpt lat="47.26406" lon="-2.3157">
        <ele>8.6000003814697</ele>
        <time>2022-01-06T11:35:50.000Z</time>
      </trkpt>
      <trkpt lat="47.2641" lon="-2.31552">
        <ele>8.6000003814697</ele>
        <time>2022-01-06T11:35:55.000Z</time>
      </trkpt>
      <trkpt lat="47.26417" lon="-2.31553">
        <ele>8.6000003814697</ele>
        <time>2022-01-06T11:35:59.000Z</time>
      </trkpt>
      <trkpt lat="47.26417" lon="-2.31553">
        <ele>8.6000003814697</ele>
        <time>2022-01-06T11:36:00.000Z</time>
      </trkpt>
    </trkseg>
  </trk>
</gpx>